<?xml version="1.0" encoding="UTF-8" standalone="no" ?>
<gpx xmlns="http://www.topografix.com/GPX/1/1" xmlns:xsi="http://www.w3.org/2001/XMLSchema-instance" xsi:schemaLocation="http://www.topografix.com/GPX/1/1 http://www.topografix.com/GPX/1/1/gpx.xsd" version="1.1" creator="VisuGPX - https://www.visugpx.com">
  <metadata>
    <name>Moret-Montereau</name>
    <desc><![CDATA[Moret-Montereau
43 km]]></desc>
  </metadata>
  <trk>
    <name><![CDATA[7 mars 2015 Veneux-Montereau 33-35-34 pas entiers]]></name>
    <trkseg>
      <trkpt lat="48.37792" lon="2.79994">
        <ele>73</ele>
        <time>2015-03-07T08:09:33Z</time>
      </trkpt>
      <trkpt lat="48.37794" lon="2.79983">
        <ele>66</ele>
        <time>2015-03-07T08:09:44Z</time>
      </trkpt>
      <trkpt lat="48.37803" lon="2.79974">
        <ele>67</ele>
        <time>2015-03-07T08:09:49Z</time>
      </trkpt>
      <trkpt lat="48.37807" lon="2.79963">
        <ele>73</ele>
        <time>2015-03-07T08:09:55Z</time>
      </trkpt>
      <trkpt lat="48.37813" lon="2.79954">
        <ele>73</ele>
        <time>2015-03-07T08:10:02Z</time>
      </trkpt>
      <trkpt lat="48.37818" lon="2.79946">
        <ele>73</ele>
        <time>2015-03-07T08:10:07Z</time>
      </trkpt>
      <trkpt lat="48.37824" lon="2.79937">
        <ele>73</ele>
        <time>2015-03-07T08:10:12Z</time>
      </trkpt>
      <trkpt lat="48.37829" lon="2.79928">
        <ele>72</ele>
        <time>2015-03-07T08:10:19Z</time>
      </trkpt>
      <trkpt lat="48.37829" lon="2.79939">
        <ele>70</ele>
        <time>2015-03-07T08:10:43Z</time>
      </trkpt>
      <trkpt lat="48.37827" lon="2.79951">
        <ele>70</ele>
        <time>2015-03-07T08:10:55Z</time>
      </trkpt>
      <trkpt lat="48.37828" lon="2.79962">
        <ele>72</ele>
        <time>2015-03-07T08:11:03Z</time>
      </trkpt>
      <trkpt lat="48.37828" lon="2.79979">
        <ele>72</ele>
        <time>2015-03-07T08:11:08Z</time>
      </trkpt>
      <trkpt lat="48.37835" lon="2.79972">
        <ele>75</ele>
        <time>2015-03-07T08:11:32Z</time>
      </trkpt>
      <trkpt lat="48.37843" lon="2.7997">
        <ele>74</ele>
        <time>2015-03-07T08:11:36Z</time>
      </trkpt>
      <trkpt lat="48.37848" lon="2.7996">
        <ele>74</ele>
        <time>2015-03-07T08:11:42Z</time>
      </trkpt>
      <trkpt lat="48.37852" lon="2.79948">
        <ele>73</ele>
        <time>2015-03-07T08:11:46Z</time>
      </trkpt>
      <trkpt lat="48.37854" lon="2.79936">
        <ele>72</ele>
        <time>2015-03-07T08:11:50Z</time>
      </trkpt>
      <trkpt lat="48.37855" lon="2.79923">
        <ele>72</ele>
        <time>2015-03-07T08:11:57Z</time>
      </trkpt>
      <trkpt lat="48.37862" lon="2.7992">
        <ele>72</ele>
        <time>2015-03-07T08:12:34Z</time>
      </trkpt>
      <trkpt lat="48.37868" lon="2.79907">
        <ele>72</ele>
        <time>2015-03-07T08:12:39Z</time>
      </trkpt>
      <trkpt lat="48.37873" lon="2.79897">
        <ele>73</ele>
        <time>2015-03-07T08:12:46Z</time>
      </trkpt>
      <trkpt lat="48.37879" lon="2.79889">
        <ele>73</ele>
        <time>2015-03-07T08:12:51Z</time>
      </trkpt>
      <trkpt lat="48.37886" lon="2.79879">
        <ele>73</ele>
        <time>2015-03-07T08:12:55Z</time>
      </trkpt>
      <trkpt lat="48.37893" lon="2.79872">
        <ele>73</ele>
        <time>2015-03-07T08:13:00Z</time>
      </trkpt>
      <trkpt lat="48.37897" lon="2.7986">
        <ele>73</ele>
        <time>2015-03-07T08:13:08Z</time>
      </trkpt>
      <trkpt lat="48.37901" lon="2.79851">
        <ele>73</ele>
        <time>2015-03-07T08:13:13Z</time>
      </trkpt>
      <trkpt lat="48.37906" lon="2.7984">
        <ele>73</ele>
        <time>2015-03-07T08:13:19Z</time>
      </trkpt>
      <trkpt lat="48.37908" lon="2.79827">
        <ele>73</ele>
        <time>2015-03-07T08:13:25Z</time>
      </trkpt>
      <trkpt lat="48.37905" lon="2.79818">
        <ele>72</ele>
        <time>2015-03-07T08:13:29Z</time>
      </trkpt>
      <trkpt lat="48.37906" lon="2.79807">
        <ele>72</ele>
        <time>2015-03-07T08:13:34Z</time>
      </trkpt>
      <trkpt lat="48.37911" lon="2.79795">
        <ele>72</ele>
        <time>2015-03-07T08:13:38Z</time>
      </trkpt>
      <trkpt lat="48.37914" lon="2.79781">
        <ele>72</ele>
        <time>2015-03-07T08:13:43Z</time>
      </trkpt>
      <trkpt lat="48.37918" lon="2.7977">
        <ele>72</ele>
        <time>2015-03-07T08:13:49Z</time>
      </trkpt>
      <trkpt lat="48.37922" lon="2.7976">
        <ele>73</ele>
        <time>2015-03-07T08:13:56Z</time>
      </trkpt>
      <trkpt lat="48.37923" lon="2.79747">
        <ele>73</ele>
        <time>2015-03-07T08:14:06Z</time>
      </trkpt>
      <trkpt lat="48.3793" lon="2.7974">
        <ele>73</ele>
        <time>2015-03-07T08:14:11Z</time>
      </trkpt>
      <trkpt lat="48.37936" lon="2.79731">
        <ele>73</ele>
        <time>2015-03-07T08:14:18Z</time>
      </trkpt>
      <trkpt lat="48.37944" lon="2.79732">
        <ele>72</ele>
        <time>2015-03-07T08:14:25Z</time>
      </trkpt>
      <trkpt lat="48.37951" lon="2.7974">
        <ele>72</ele>
        <time>2015-03-07T08:14:31Z</time>
      </trkpt>
      <trkpt lat="48.37958" lon="2.79749">
        <ele>71</ele>
        <time>2015-03-07T08:14:38Z</time>
      </trkpt>
      <trkpt lat="48.37964" lon="2.79759">
        <ele>70</ele>
        <time>2015-03-07T08:14:43Z</time>
      </trkpt>
      <trkpt lat="48.37967" lon="2.79768">
        <ele>69</ele>
        <time>2015-03-07T08:14:48Z</time>
      </trkpt>
      <trkpt lat="48.37972" lon="2.79778">
        <ele>69</ele>
        <time>2015-03-07T08:14:53Z</time>
      </trkpt>
      <trkpt lat="48.3798" lon="2.79784">
        <ele>69</ele>
        <time>2015-03-07T08:14:58Z</time>
      </trkpt>
      <trkpt lat="48.37987" lon="2.79789">
        <ele>68</ele>
        <time>2015-03-07T08:15:03Z</time>
      </trkpt>
      <trkpt lat="48.37994" lon="2.79797">
        <ele>68</ele>
        <time>2015-03-07T08:15:09Z</time>
      </trkpt>
      <trkpt lat="48.38001" lon="2.79804">
        <ele>67</ele>
        <time>2015-03-07T08:15:17Z</time>
      </trkpt>
      <trkpt lat="48.38009" lon="2.79807">
        <ele>66</ele>
        <time>2015-03-07T08:15:23Z</time>
      </trkpt>
      <trkpt lat="48.38017" lon="2.79806">
        <ele>65</ele>
        <time>2015-03-07T08:15:29Z</time>
      </trkpt>
      <trkpt lat="48.38026" lon="2.79802">
        <ele>63</ele>
        <time>2015-03-07T08:15:38Z</time>
      </trkpt>
      <trkpt lat="48.38035" lon="2.798">
        <ele>61</ele>
        <time>2015-03-07T08:15:44Z</time>
      </trkpt>
      <trkpt lat="48.38041" lon="2.79808">
        <ele>59</ele>
        <time>2015-03-07T08:15:51Z</time>
      </trkpt>
      <trkpt lat="48.38047" lon="2.79817">
        <ele>58</ele>
        <time>2015-03-07T08:15:56Z</time>
      </trkpt>
      <trkpt lat="48.38052" lon="2.79826">
        <ele>56</ele>
        <time>2015-03-07T08:16:01Z</time>
      </trkpt>
      <trkpt lat="48.38057" lon="2.79837">
        <ele>56</ele>
        <time>2015-03-07T08:16:06Z</time>
      </trkpt>
      <trkpt lat="48.38063" lon="2.79844">
        <ele>55</ele>
        <time>2015-03-07T08:16:13Z</time>
      </trkpt>
      <trkpt lat="48.38069" lon="2.79852">
        <ele>55</ele>
        <time>2015-03-07T08:16:18Z</time>
      </trkpt>
      <trkpt lat="48.38076" lon="2.79859">
        <ele>55</ele>
        <time>2015-03-07T08:16:23Z</time>
      </trkpt>
      <trkpt lat="48.38083" lon="2.79866">
        <ele>54</ele>
        <time>2015-03-07T08:16:28Z</time>
      </trkpt>
      <trkpt lat="48.38089" lon="2.79875">
        <ele>54</ele>
        <time>2015-03-07T08:16:33Z</time>
      </trkpt>
      <trkpt lat="48.38094" lon="2.79882">
        <ele>53</ele>
        <time>2015-03-07T08:16:37Z</time>
      </trkpt>
      <trkpt lat="48.38101" lon="2.79891">
        <ele>53</ele>
        <time>2015-03-07T08:16:42Z</time>
      </trkpt>
      <trkpt lat="48.38107" lon="2.79899">
        <ele>52</ele>
        <time>2015-03-07T08:16:47Z</time>
      </trkpt>
      <trkpt lat="48.38112" lon="2.7991">
        <ele>51</ele>
        <time>2015-03-07T08:16:52Z</time>
      </trkpt>
      <trkpt lat="48.38106" lon="2.7992">
        <ele>51</ele>
        <time>2015-03-07T08:16:57Z</time>
      </trkpt>
      <trkpt lat="48.38102" lon="2.79929">
        <ele>51</ele>
        <time>2015-03-07T08:17:03Z</time>
      </trkpt>
      <trkpt lat="48.38097" lon="2.79937">
        <ele>50</ele>
        <time>2015-03-07T08:17:07Z</time>
      </trkpt>
      <trkpt lat="48.38092" lon="2.79948">
        <ele>50</ele>
        <time>2015-03-07T08:17:12Z</time>
      </trkpt>
      <trkpt lat="48.38088" lon="2.7996">
        <ele>50</ele>
        <time>2015-03-07T08:17:19Z</time>
      </trkpt>
      <trkpt lat="48.38082" lon="2.7997">
        <ele>50</ele>
        <time>2015-03-07T08:18:00Z</time>
      </trkpt>
      <trkpt lat="48.38078" lon="2.79979">
        <ele>50</ele>
        <time>2015-03-07T08:18:05Z</time>
      </trkpt>
      <trkpt lat="48.38072" lon="2.79988">
        <ele>50</ele>
        <time>2015-03-07T08:18:10Z</time>
      </trkpt>
      <trkpt lat="48.38068" lon="2.79997">
        <ele>50</ele>
        <time>2015-03-07T08:18:15Z</time>
      </trkpt>
      <trkpt lat="48.38064" lon="2.80002">
        <ele>50</ele>
        <time>2015-03-07T08:18:18Z</time>
      </trkpt>
      <trkpt lat="48.38058" lon="2.80012">
        <ele>50</ele>
        <time>2015-03-07T08:18:23Z</time>
      </trkpt>
      <trkpt lat="48.38052" lon="2.80022">
        <ele>50</ele>
        <time>2015-03-07T08:18:30Z</time>
      </trkpt>
      <trkpt lat="48.38045" lon="2.8003">
        <ele>50</ele>
        <time>2015-03-07T08:18:36Z</time>
      </trkpt>
      <trkpt lat="48.38039" lon="2.80039">
        <ele>50</ele>
        <time>2015-03-07T08:18:41Z</time>
      </trkpt>
      <trkpt lat="48.38034" lon="2.80049">
        <ele>50</ele>
        <time>2015-03-07T08:18:46Z</time>
      </trkpt>
      <trkpt lat="48.38028" lon="2.80059">
        <ele>50</ele>
        <time>2015-03-07T08:18:52Z</time>
      </trkpt>
      <trkpt lat="48.38023" lon="2.80068">
        <ele>49</ele>
        <time>2015-03-07T08:18:57Z</time>
      </trkpt>
      <trkpt lat="48.38019" lon="2.80075">
        <ele>49</ele>
        <time>2015-03-07T08:19:01Z</time>
      </trkpt>
      <trkpt lat="48.38014" lon="2.80084">
        <ele>48</ele>
        <time>2015-03-07T08:19:06Z</time>
      </trkpt>
      <trkpt lat="48.38009" lon="2.80094">
        <ele>48</ele>
        <time>2015-03-07T08:19:12Z</time>
      </trkpt>
      <trkpt lat="48.38005" lon="2.80104">
        <ele>48</ele>
        <time>2015-03-07T08:19:18Z</time>
      </trkpt>
      <trkpt lat="48.38" lon="2.80115">
        <ele>48</ele>
        <time>2015-03-07T08:19:24Z</time>
      </trkpt>
      <trkpt lat="48.37995" lon="2.80126">
        <ele>48</ele>
        <time>2015-03-07T08:19:31Z</time>
      </trkpt>
      <trkpt lat="48.37991" lon="2.80135">
        <ele>48</ele>
        <time>2015-03-07T08:19:36Z</time>
      </trkpt>
      <trkpt lat="48.37985" lon="2.80144">
        <ele>48</ele>
        <time>2015-03-07T08:19:41Z</time>
      </trkpt>
      <trkpt lat="48.37981" lon="2.80156">
        <ele>48</ele>
        <time>2015-03-07T08:19:47Z</time>
      </trkpt>
      <trkpt lat="48.37977" lon="2.80165">
        <ele>49</ele>
        <time>2015-03-07T08:19:51Z</time>
      </trkpt>
      <trkpt lat="48.37971" lon="2.80174">
        <ele>49</ele>
        <time>2015-03-07T08:19:56Z</time>
      </trkpt>
      <trkpt lat="48.37966" lon="2.80185">
        <ele>49</ele>
        <time>2015-03-07T08:20:02Z</time>
      </trkpt>
      <trkpt lat="48.3796" lon="2.80194">
        <ele>49</ele>
        <time>2015-03-07T08:20:08Z</time>
      </trkpt>
      <trkpt lat="48.37955" lon="2.80204">
        <ele>49</ele>
        <time>2015-03-07T08:20:13Z</time>
      </trkpt>
      <trkpt lat="48.37951" lon="2.80213">
        <ele>49</ele>
        <time>2015-03-07T08:20:18Z</time>
      </trkpt>
      <trkpt lat="48.37947" lon="2.80223">
        <ele>50</ele>
        <time>2015-03-07T08:20:22Z</time>
      </trkpt>
      <trkpt lat="48.37942" lon="2.80234">
        <ele>50</ele>
        <time>2015-03-07T08:20:28Z</time>
      </trkpt>
      <trkpt lat="48.37939" lon="2.80245">
        <ele>51</ele>
        <time>2015-03-07T08:20:34Z</time>
      </trkpt>
      <trkpt lat="48.37936" lon="2.80255">
        <ele>52</ele>
        <time>2015-03-07T08:20:39Z</time>
      </trkpt>
      <trkpt lat="48.37931" lon="2.80265">
        <ele>52</ele>
        <time>2015-03-07T08:20:44Z</time>
      </trkpt>
      <trkpt lat="48.37927" lon="2.80275">
        <ele>52</ele>
        <time>2015-03-07T08:20:50Z</time>
      </trkpt>
      <trkpt lat="48.37921" lon="2.80284">
        <ele>52</ele>
        <time>2015-03-07T08:20:55Z</time>
      </trkpt>
      <trkpt lat="48.37917" lon="2.80295">
        <ele>51</ele>
        <time>2015-03-07T08:21:00Z</time>
      </trkpt>
      <trkpt lat="48.37912" lon="2.80305">
        <ele>51</ele>
        <time>2015-03-07T08:21:06Z</time>
      </trkpt>
      <trkpt lat="48.37906" lon="2.80313">
        <ele>50</ele>
        <time>2015-03-07T08:21:11Z</time>
      </trkpt>
      <trkpt lat="48.379" lon="2.80321">
        <ele>50</ele>
        <time>2015-03-07T08:21:17Z</time>
      </trkpt>
      <trkpt lat="48.37895" lon="2.80331">
        <ele>50</ele>
        <time>2015-03-07T08:21:23Z</time>
      </trkpt>
      <trkpt lat="48.37888" lon="2.8034">
        <ele>50</ele>
        <time>2015-03-07T08:21:28Z</time>
      </trkpt>
      <trkpt lat="48.37883" lon="2.8035">
        <ele>50</ele>
        <time>2015-03-07T08:21:33Z</time>
      </trkpt>
      <trkpt lat="48.37881" lon="2.80362">
        <ele>49</ele>
        <time>2015-03-07T08:21:39Z</time>
      </trkpt>
      <trkpt lat="48.37875" lon="2.80372">
        <ele>49</ele>
        <time>2015-03-07T08:21:45Z</time>
      </trkpt>
      <trkpt lat="48.37869" lon="2.80381">
        <ele>50</ele>
        <time>2015-03-07T08:21:50Z</time>
      </trkpt>
      <trkpt lat="48.37864" lon="2.80392">
        <ele>51</ele>
        <time>2015-03-07T08:21:55Z</time>
      </trkpt>
      <trkpt lat="48.37861" lon="2.80403">
        <ele>51</ele>
        <time>2015-03-07T08:22:00Z</time>
      </trkpt>
      <trkpt lat="48.37862" lon="2.80415">
        <ele>51</ele>
        <time>2015-03-07T08:22:05Z</time>
      </trkpt>
      <trkpt lat="48.37864" lon="2.80424">
        <ele>50</ele>
        <time>2015-03-07T08:22:09Z</time>
      </trkpt>
      <trkpt lat="48.37864" lon="2.80437">
        <ele>50</ele>
        <time>2015-03-07T08:22:15Z</time>
      </trkpt>
      <trkpt lat="48.37863" lon="2.80449">
        <ele>50</ele>
        <time>2015-03-07T08:22:20Z</time>
      </trkpt>
      <trkpt lat="48.37861" lon="2.80461">
        <ele>49</ele>
        <time>2015-03-07T08:22:25Z</time>
      </trkpt>
      <trkpt lat="48.37863" lon="2.80472">
        <ele>49</ele>
        <time>2015-03-07T08:22:31Z</time>
      </trkpt>
      <trkpt lat="48.37863" lon="2.80484">
        <ele>49</ele>
        <time>2015-03-07T08:22:35Z</time>
      </trkpt>
      <trkpt lat="48.37863" lon="2.80496">
        <ele>48</ele>
        <time>2015-03-07T08:22:41Z</time>
      </trkpt>
      <trkpt lat="48.37864" lon="2.80509">
        <ele>48</ele>
        <time>2015-03-07T08:22:47Z</time>
      </trkpt>
      <trkpt lat="48.37864" lon="2.80523">
        <ele>47</ele>
        <time>2015-03-07T08:22:53Z</time>
      </trkpt>
      <trkpt lat="48.37863" lon="2.80534">
        <ele>47</ele>
        <time>2015-03-07T08:22:58Z</time>
      </trkpt>
      <trkpt lat="48.37866" lon="2.80547">
        <ele>46</ele>
        <time>2015-03-07T08:23:04Z</time>
      </trkpt>
      <trkpt lat="48.37869" lon="2.80558">
        <ele>46</ele>
        <time>2015-03-07T08:23:09Z</time>
      </trkpt>
      <trkpt lat="48.37873" lon="2.8057">
        <ele>45</ele>
        <time>2015-03-07T08:23:14Z</time>
      </trkpt>
      <trkpt lat="48.37874" lon="2.80582">
        <ele>45</ele>
        <time>2015-03-07T08:23:20Z</time>
      </trkpt>
      <trkpt lat="48.37874" lon="2.80597">
        <ele>44</ele>
        <time>2015-03-07T08:23:25Z</time>
      </trkpt>
      <trkpt lat="48.37875" lon="2.80609">
        <ele>44</ele>
        <time>2015-03-07T08:23:30Z</time>
      </trkpt>
      <trkpt lat="48.37874" lon="2.8062">
        <ele>44</ele>
        <time>2015-03-07T08:23:35Z</time>
      </trkpt>
      <trkpt lat="48.37876" lon="2.80632">
        <ele>44</ele>
        <time>2015-03-07T08:23:41Z</time>
      </trkpt>
      <trkpt lat="48.37878" lon="2.80644">
        <ele>44</ele>
        <time>2015-03-07T08:23:47Z</time>
      </trkpt>
      <trkpt lat="48.37881" lon="2.80655">
        <ele>43</ele>
        <time>2015-03-07T08:23:53Z</time>
      </trkpt>
      <trkpt lat="48.37883" lon="2.80668">
        <ele>42</ele>
        <time>2015-03-07T08:23:58Z</time>
      </trkpt>
      <trkpt lat="48.37885" lon="2.8068">
        <ele>42</ele>
        <time>2015-03-07T08:24:03Z</time>
      </trkpt>
      <trkpt lat="48.37886" lon="2.80693">
        <ele>41</ele>
        <time>2015-03-07T08:24:08Z</time>
      </trkpt>
      <trkpt lat="48.37886" lon="2.80705">
        <ele>40</ele>
        <time>2015-03-07T08:24:13Z</time>
      </trkpt>
      <trkpt lat="48.37889" lon="2.80716">
        <ele>40</ele>
        <time>2015-03-07T08:24:18Z</time>
      </trkpt>
      <trkpt lat="48.3789" lon="2.80728">
        <ele>41</ele>
        <time>2015-03-07T08:24:23Z</time>
      </trkpt>
      <trkpt lat="48.37892" lon="2.8074">
        <ele>41</ele>
        <time>2015-03-07T08:24:28Z</time>
      </trkpt>
      <trkpt lat="48.37892" lon="2.80752">
        <ele>41</ele>
        <time>2015-03-07T08:24:33Z</time>
      </trkpt>
      <trkpt lat="48.37892" lon="2.80764">
        <ele>41</ele>
        <time>2015-03-07T08:24:38Z</time>
      </trkpt>
      <trkpt lat="48.37894" lon="2.80776">
        <ele>42</ele>
        <time>2015-03-07T08:24:45Z</time>
      </trkpt>
      <trkpt lat="48.37893" lon="2.80788">
        <ele>42</ele>
        <time>2015-03-07T08:24:50Z</time>
      </trkpt>
      <trkpt lat="48.37894" lon="2.80801">
        <ele>42</ele>
        <time>2015-03-07T08:24:56Z</time>
      </trkpt>
      <trkpt lat="48.37895" lon="2.80813">
        <ele>42</ele>
        <time>2015-03-07T08:25:02Z</time>
      </trkpt>
      <trkpt lat="48.37895" lon="2.80825">
        <ele>42</ele>
        <time>2015-03-07T08:25:07Z</time>
      </trkpt>
      <trkpt lat="48.37897" lon="2.80837">
        <ele>42</ele>
        <time>2015-03-07T08:25:13Z</time>
      </trkpt>
      <trkpt lat="48.37899" lon="2.8085">
        <ele>43</ele>
        <time>2015-03-07T08:25:18Z</time>
      </trkpt>
      <trkpt lat="48.37901" lon="2.8086">
        <ele>43</ele>
        <time>2015-03-07T08:25:23Z</time>
      </trkpt>
      <trkpt lat="48.37904" lon="2.80871">
        <ele>44</ele>
        <time>2015-03-07T08:25:28Z</time>
      </trkpt>
      <trkpt lat="48.37907" lon="2.80883">
        <ele>45</ele>
        <time>2015-03-07T08:25:34Z</time>
      </trkpt>
      <trkpt lat="48.3791" lon="2.80895">
        <ele>46</ele>
        <time>2015-03-07T08:25:39Z</time>
      </trkpt>
      <trkpt lat="48.37913" lon="2.80906">
        <ele>47</ele>
        <time>2015-03-07T08:25:44Z</time>
      </trkpt>
      <trkpt lat="48.37917" lon="2.80916">
        <ele>47</ele>
        <time>2015-03-07T08:25:49Z</time>
      </trkpt>
      <trkpt lat="48.37919" lon="2.80927">
        <ele>48</ele>
        <time>2015-03-07T08:25:54Z</time>
      </trkpt>
      <trkpt lat="48.37922" lon="2.80939">
        <ele>49</ele>
        <time>2015-03-07T08:26:00Z</time>
      </trkpt>
      <trkpt lat="48.37925" lon="2.80952">
        <ele>50</ele>
        <time>2015-03-07T08:26:05Z</time>
      </trkpt>
      <trkpt lat="48.37929" lon="2.80963">
        <ele>51</ele>
        <time>2015-03-07T08:26:09Z</time>
      </trkpt>
      <trkpt lat="48.37932" lon="2.80976">
        <ele>51</ele>
        <time>2015-03-07T08:26:14Z</time>
      </trkpt>
      <trkpt lat="48.37937" lon="2.80987">
        <ele>51</ele>
        <time>2015-03-07T08:26:20Z</time>
      </trkpt>
      <trkpt lat="48.37941" lon="2.80998">
        <ele>52</ele>
        <time>2015-03-07T08:26:25Z</time>
      </trkpt>
      <trkpt lat="48.37945" lon="2.81008">
        <ele>52</ele>
        <time>2015-03-07T08:26:29Z</time>
      </trkpt>
      <trkpt lat="48.37949" lon="2.81018">
        <ele>52</ele>
        <time>2015-03-07T08:26:34Z</time>
      </trkpt>
      <trkpt lat="48.37953" lon="2.81029">
        <ele>52</ele>
        <time>2015-03-07T08:26:40Z</time>
      </trkpt>
      <trkpt lat="48.37956" lon="2.8104">
        <ele>52</ele>
        <time>2015-03-07T08:26:46Z</time>
      </trkpt>
      <trkpt lat="48.3796" lon="2.8105">
        <ele>52</ele>
        <time>2015-03-07T08:26:51Z</time>
      </trkpt>
      <trkpt lat="48.37965" lon="2.8106">
        <ele>52</ele>
        <time>2015-03-07T08:26:57Z</time>
      </trkpt>
      <trkpt lat="48.3797" lon="2.81069">
        <ele>52</ele>
        <time>2015-03-07T08:27:03Z</time>
      </trkpt>
      <trkpt lat="48.37975" lon="2.81078">
        <ele>52</ele>
        <time>2015-03-07T08:27:07Z</time>
      </trkpt>
      <trkpt lat="48.37979" lon="2.81088">
        <ele>51</ele>
        <time>2015-03-07T08:27:12Z</time>
      </trkpt>
      <trkpt lat="48.37985" lon="2.81096">
        <ele>51</ele>
        <time>2015-03-07T08:27:17Z</time>
      </trkpt>
      <trkpt lat="48.37991" lon="2.81106">
        <ele>51</ele>
        <time>2015-03-07T08:27:22Z</time>
      </trkpt>
      <trkpt lat="48.37995" lon="2.81116">
        <ele>50</ele>
        <time>2015-03-07T08:27:27Z</time>
      </trkpt>
      <trkpt lat="48.37999" lon="2.81128">
        <ele>50</ele>
        <time>2015-03-07T08:27:33Z</time>
      </trkpt>
      <trkpt lat="48.38003" lon="2.81139">
        <ele>49</ele>
        <time>2015-03-07T08:27:38Z</time>
      </trkpt>
      <trkpt lat="48.38008" lon="2.81149">
        <ele>49</ele>
        <time>2015-03-07T08:27:43Z</time>
      </trkpt>
      <trkpt lat="48.38013" lon="2.81159">
        <ele>48</ele>
        <time>2015-03-07T08:27:48Z</time>
      </trkpt>
      <trkpt lat="48.38018" lon="2.81168">
        <ele>48</ele>
        <time>2015-03-07T08:27:54Z</time>
      </trkpt>
      <trkpt lat="48.38024" lon="2.81176">
        <ele>47</ele>
        <time>2015-03-07T08:28:00Z</time>
      </trkpt>
      <trkpt lat="48.38031" lon="2.81183">
        <ele>46</ele>
        <time>2015-03-07T08:28:06Z</time>
      </trkpt>
      <trkpt lat="48.38036" lon="2.81193">
        <ele>47</ele>
        <time>2015-03-07T08:28:11Z</time>
      </trkpt>
      <trkpt lat="48.38036" lon="2.81206">
        <ele>47</ele>
        <time>2015-03-07T08:28:17Z</time>
      </trkpt>
      <trkpt lat="48.38031" lon="2.81217">
        <ele>47</ele>
        <time>2015-03-07T08:28:22Z</time>
      </trkpt>
      <trkpt lat="48.38027" lon="2.81228">
        <ele>47</ele>
        <time>2015-03-07T08:28:28Z</time>
      </trkpt>
      <trkpt lat="48.38024" lon="2.8124">
        <ele>46</ele>
        <time>2015-03-07T08:28:34Z</time>
      </trkpt>
      <trkpt lat="48.3802" lon="2.81251">
        <ele>46</ele>
        <time>2015-03-07T08:28:38Z</time>
      </trkpt>
      <trkpt lat="48.38016" lon="2.81261">
        <ele>45</ele>
        <time>2015-03-07T08:28:42Z</time>
      </trkpt>
      <trkpt lat="48.38011" lon="2.81272">
        <ele>45</ele>
        <time>2015-03-07T08:28:49Z</time>
      </trkpt>
      <trkpt lat="48.38007" lon="2.81283">
        <ele>45</ele>
        <time>2015-03-07T08:28:55Z</time>
      </trkpt>
      <trkpt lat="48.38003" lon="2.81293">
        <ele>44</ele>
        <time>2015-03-07T08:29:00Z</time>
      </trkpt>
      <trkpt lat="48.38" lon="2.81304">
        <ele>44</ele>
        <time>2015-03-07T08:29:04Z</time>
      </trkpt>
      <trkpt lat="48.37995" lon="2.81315">
        <ele>43</ele>
        <time>2015-03-07T08:29:10Z</time>
      </trkpt>
      <trkpt lat="48.3799" lon="2.81323">
        <ele>42</ele>
        <time>2015-03-07T08:29:16Z</time>
      </trkpt>
      <trkpt lat="48.37985" lon="2.81332">
        <ele>41</ele>
        <time>2015-03-07T08:29:21Z</time>
      </trkpt>
      <trkpt lat="48.37981" lon="2.81344">
        <ele>40</ele>
        <time>2015-03-07T08:29:26Z</time>
      </trkpt>
      <trkpt lat="48.37978" lon="2.81355">
        <ele>40</ele>
        <time>2015-03-07T08:29:32Z</time>
      </trkpt>
      <trkpt lat="48.37972" lon="2.81365">
        <ele>39</ele>
        <time>2015-03-07T08:29:39Z</time>
      </trkpt>
      <trkpt lat="48.37968" lon="2.81375">
        <ele>38</ele>
        <time>2015-03-07T08:29:45Z</time>
      </trkpt>
      <trkpt lat="48.37965" lon="2.81385">
        <ele>37</ele>
        <time>2015-03-07T08:29:49Z</time>
      </trkpt>
      <trkpt lat="48.37962" lon="2.81397">
        <ele>37</ele>
        <time>2015-03-07T08:29:54Z</time>
      </trkpt>
      <trkpt lat="48.37957" lon="2.81409">
        <ele>37</ele>
        <time>2015-03-07T08:29:58Z</time>
      </trkpt>
      <trkpt lat="48.37954" lon="2.81419">
        <ele>37</ele>
        <time>2015-03-07T08:30:02Z</time>
      </trkpt>
      <trkpt lat="48.37948" lon="2.81429">
        <ele>37</ele>
        <time>2015-03-07T08:30:07Z</time>
      </trkpt>
      <trkpt lat="48.37943" lon="2.81436">
        <ele>37</ele>
        <time>2015-03-07T08:30:12Z</time>
      </trkpt>
      <trkpt lat="48.37937" lon="2.81446">
        <ele>37</ele>
        <time>2015-03-07T08:30:18Z</time>
      </trkpt>
      <trkpt lat="48.37935" lon="2.81458">
        <ele>38</ele>
        <time>2015-03-07T08:30:23Z</time>
      </trkpt>
      <trkpt lat="48.37931" lon="2.8147">
        <ele>39</ele>
        <time>2015-03-07T08:30:28Z</time>
      </trkpt>
      <trkpt lat="48.37926" lon="2.81481">
        <ele>39</ele>
        <time>2015-03-07T08:30:33Z</time>
      </trkpt>
      <trkpt lat="48.37921" lon="2.8149">
        <ele>40</ele>
        <time>2015-03-07T08:30:38Z</time>
      </trkpt>
      <trkpt lat="48.37916" lon="2.815">
        <ele>41</ele>
        <time>2015-03-07T08:30:43Z</time>
      </trkpt>
      <trkpt lat="48.37911" lon="2.81512">
        <ele>41</ele>
        <time>2015-03-07T08:30:49Z</time>
      </trkpt>
      <trkpt lat="48.37908" lon="2.81523">
        <ele>41</ele>
        <time>2015-03-07T08:30:55Z</time>
      </trkpt>
      <trkpt lat="48.37909" lon="2.81536">
        <ele>41</ele>
        <time>2015-03-07T08:31:03Z</time>
      </trkpt>
      <trkpt lat="48.37907" lon="2.81546">
        <ele>40</ele>
        <time>2015-03-07T08:31:08Z</time>
      </trkpt>
      <trkpt lat="48.37902" lon="2.81555">
        <ele>40</ele>
        <time>2015-03-07T08:31:12Z</time>
      </trkpt>
      <trkpt lat="48.37896" lon="2.81564">
        <ele>38</ele>
        <time>2015-03-07T08:31:17Z</time>
      </trkpt>
      <trkpt lat="48.37891" lon="2.81574">
        <ele>37</ele>
        <time>2015-03-07T08:31:22Z</time>
      </trkpt>
      <trkpt lat="48.37886" lon="2.81584">
        <ele>35</ele>
        <time>2015-03-07T08:31:28Z</time>
      </trkpt>
      <trkpt lat="48.37879" lon="2.81592">
        <ele>35</ele>
        <time>2015-03-07T08:31:33Z</time>
      </trkpt>
      <trkpt lat="48.37876" lon="2.81602">
        <ele>33</ele>
        <time>2015-03-07T08:31:43Z</time>
      </trkpt>
      <trkpt lat="48.37865" lon="2.81606">
        <ele>32</ele>
        <time>2015-03-07T08:31:47Z</time>
      </trkpt>
      <trkpt lat="48.37856" lon="2.81611">
        <ele>32</ele>
        <time>2015-03-07T08:31:51Z</time>
      </trkpt>
      <trkpt lat="48.3785" lon="2.81619">
        <ele>31</ele>
        <time>2015-03-07T08:31:57Z</time>
      </trkpt>
      <trkpt lat="48.37844" lon="2.81631">
        <ele>30</ele>
        <time>2015-03-07T08:32:01Z</time>
      </trkpt>
      <trkpt lat="48.3784" lon="2.81641">
        <ele>29</ele>
        <time>2015-03-07T08:32:07Z</time>
      </trkpt>
      <trkpt lat="48.37835" lon="2.81651">
        <ele>28</ele>
        <time>2015-03-07T08:32:12Z</time>
      </trkpt>
      <trkpt lat="48.37831" lon="2.81667">
        <ele>29</ele>
        <time>2015-03-07T08:32:17Z</time>
      </trkpt>
      <trkpt lat="48.37826" lon="2.81682">
        <ele>31</ele>
        <time>2015-03-07T08:32:22Z</time>
      </trkpt>
      <trkpt lat="48.37823" lon="2.81697">
        <ele>32</ele>
        <time>2015-03-07T08:32:26Z</time>
      </trkpt>
      <trkpt lat="48.37821" lon="2.8171">
        <ele>34</ele>
        <time>2015-03-07T08:32:31Z</time>
      </trkpt>
      <trkpt lat="48.37818" lon="2.81721">
        <ele>36</ele>
        <time>2015-03-07T08:32:38Z</time>
      </trkpt>
      <trkpt lat="48.37812" lon="2.81729">
        <ele>38</ele>
        <time>2015-03-07T08:32:44Z</time>
      </trkpt>
      <trkpt lat="48.37805" lon="2.81738">
        <ele>38</ele>
        <time>2015-03-07T08:32:49Z</time>
      </trkpt>
      <trkpt lat="48.37799" lon="2.81747">
        <ele>39</ele>
        <time>2015-03-07T08:32:55Z</time>
      </trkpt>
      <trkpt lat="48.37793" lon="2.81756">
        <ele>39</ele>
        <time>2015-03-07T08:33:00Z</time>
      </trkpt>
      <trkpt lat="48.37786" lon="2.81765">
        <ele>40</ele>
        <time>2015-03-07T08:33:05Z</time>
      </trkpt>
      <trkpt lat="48.37781" lon="2.81772">
        <ele>41</ele>
        <time>2015-03-07T08:33:10Z</time>
      </trkpt>
      <trkpt lat="48.37774" lon="2.81778">
        <ele>41</ele>
        <time>2015-03-07T08:33:15Z</time>
      </trkpt>
      <trkpt lat="48.37767" lon="2.81787">
        <ele>42</ele>
        <time>2015-03-07T08:33:21Z</time>
      </trkpt>
      <trkpt lat="48.3776" lon="2.81795">
        <ele>42</ele>
        <time>2015-03-07T08:33:26Z</time>
      </trkpt>
      <trkpt lat="48.37753" lon="2.81802">
        <ele>42</ele>
        <time>2015-03-07T08:33:31Z</time>
      </trkpt>
      <trkpt lat="48.37747" lon="2.81808">
        <ele>42</ele>
        <time>2015-03-07T08:33:35Z</time>
      </trkpt>
      <trkpt lat="48.3774" lon="2.81812">
        <ele>42</ele>
        <time>2015-03-07T08:33:40Z</time>
      </trkpt>
      <trkpt lat="48.37732" lon="2.81816">
        <ele>42</ele>
        <time>2015-03-07T08:33:45Z</time>
      </trkpt>
      <trkpt lat="48.37723" lon="2.81819">
        <ele>42</ele>
        <time>2015-03-07T08:33:50Z</time>
      </trkpt>
      <trkpt lat="48.37715" lon="2.81822">
        <ele>42</ele>
        <time>2015-03-07T08:33:55Z</time>
      </trkpt>
      <trkpt lat="48.37708" lon="2.81828">
        <ele>42</ele>
        <time>2015-03-07T08:34:01Z</time>
      </trkpt>
      <trkpt lat="48.377" lon="2.81833">
        <ele>43</ele>
        <time>2015-03-07T08:34:06Z</time>
      </trkpt>
      <trkpt lat="48.37693" lon="2.81837">
        <ele>43</ele>
        <time>2015-03-07T08:34:11Z</time>
      </trkpt>
      <trkpt lat="48.37685" lon="2.81841">
        <ele>43</ele>
        <time>2015-03-07T08:34:16Z</time>
      </trkpt>
      <trkpt lat="48.37677" lon="2.81846">
        <ele>43</ele>
        <time>2015-03-07T08:34:21Z</time>
      </trkpt>
      <trkpt lat="48.3767" lon="2.81852">
        <ele>44</ele>
        <time>2015-03-07T08:34:28Z</time>
      </trkpt>
      <trkpt lat="48.37662" lon="2.81855">
        <ele>44</ele>
        <time>2015-03-07T08:34:34Z</time>
      </trkpt>
      <trkpt lat="48.37655" lon="2.81857">
        <ele>44</ele>
        <time>2015-03-07T08:34:39Z</time>
      </trkpt>
      <trkpt lat="48.37645" lon="2.81858">
        <ele>45</ele>
        <time>2015-03-07T08:34:44Z</time>
      </trkpt>
      <trkpt lat="48.37637" lon="2.8186">
        <ele>45</ele>
        <time>2015-03-07T08:34:50Z</time>
      </trkpt>
      <trkpt lat="48.37628" lon="2.81862">
        <ele>46</ele>
        <time>2015-03-07T08:34:55Z</time>
      </trkpt>
      <trkpt lat="48.3762" lon="2.81865">
        <ele>46</ele>
        <time>2015-03-07T08:35:00Z</time>
      </trkpt>
      <trkpt lat="48.37611" lon="2.81867">
        <ele>46</ele>
        <time>2015-03-07T08:35:07Z</time>
      </trkpt>
      <trkpt lat="48.37602" lon="2.81868">
        <ele>46</ele>
        <time>2015-03-07T08:35:13Z</time>
      </trkpt>
      <trkpt lat="48.37595" lon="2.81868">
        <ele>45</ele>
        <time>2015-03-07T08:35:19Z</time>
      </trkpt>
      <trkpt lat="48.37586" lon="2.8187">
        <ele>45</ele>
        <time>2015-03-07T08:35:28Z</time>
      </trkpt>
      <trkpt lat="48.37578" lon="2.81868">
        <ele>44</ele>
        <time>2015-03-07T08:35:33Z</time>
      </trkpt>
      <trkpt lat="48.37571" lon="2.81869">
        <ele>44</ele>
        <time>2015-03-07T08:35:38Z</time>
      </trkpt>
      <trkpt lat="48.37562" lon="2.8187">
        <ele>44</ele>
        <time>2015-03-07T08:35:43Z</time>
      </trkpt>
      <trkpt lat="48.37555" lon="2.81872">
        <ele>44</ele>
        <time>2015-03-07T08:35:50Z</time>
      </trkpt>
      <trkpt lat="48.37547" lon="2.81871">
        <ele>43</ele>
        <time>2015-03-07T08:35:55Z</time>
      </trkpt>
      <trkpt lat="48.37539" lon="2.81871">
        <ele>43</ele>
        <time>2015-03-07T08:35:59Z</time>
      </trkpt>
      <trkpt lat="48.3753" lon="2.81869">
        <ele>43</ele>
        <time>2015-03-07T08:36:04Z</time>
      </trkpt>
      <trkpt lat="48.37523" lon="2.81867">
        <ele>43</ele>
        <time>2015-03-07T08:36:08Z</time>
      </trkpt>
      <trkpt lat="48.37515" lon="2.81865">
        <ele>44</ele>
        <time>2015-03-07T08:36:13Z</time>
      </trkpt>
      <trkpt lat="48.37505" lon="2.81865">
        <ele>44</ele>
        <time>2015-03-07T08:36:18Z</time>
      </trkpt>
      <trkpt lat="48.37497" lon="2.81866">
        <ele>44</ele>
        <time>2015-03-07T08:36:23Z</time>
      </trkpt>
      <trkpt lat="48.37489" lon="2.81867">
        <ele>44</ele>
        <time>2015-03-07T08:36:27Z</time>
      </trkpt>
      <trkpt lat="48.37481" lon="2.81869">
        <ele>44</ele>
        <time>2015-03-07T08:36:32Z</time>
      </trkpt>
      <trkpt lat="48.37472" lon="2.81871">
        <ele>44</ele>
        <time>2015-03-07T08:36:37Z</time>
      </trkpt>
      <trkpt lat="48.37463" lon="2.81871">
        <ele>44</ele>
        <time>2015-03-07T08:36:44Z</time>
      </trkpt>
      <trkpt lat="48.37456" lon="2.81875">
        <ele>45</ele>
        <time>2015-03-07T08:36:50Z</time>
      </trkpt>
      <trkpt lat="48.3745" lon="2.81885">
        <ele>46</ele>
        <time>2015-03-07T08:36:59Z</time>
      </trkpt>
      <trkpt lat="48.37443" lon="2.81885">
        <ele>46</ele>
        <time>2015-03-07T08:37:04Z</time>
      </trkpt>
      <trkpt lat="48.37434" lon="2.81885">
        <ele>46</ele>
        <time>2015-03-07T08:37:09Z</time>
      </trkpt>
      <trkpt lat="48.37426" lon="2.81887">
        <ele>46</ele>
        <time>2015-03-07T08:37:15Z</time>
      </trkpt>
      <trkpt lat="48.37418" lon="2.81887">
        <ele>45</ele>
        <time>2015-03-07T08:37:20Z</time>
      </trkpt>
      <trkpt lat="48.37407" lon="2.81891">
        <ele>45</ele>
        <time>2015-03-07T08:37:25Z</time>
      </trkpt>
      <trkpt lat="48.374" lon="2.81894">
        <ele>46</ele>
        <time>2015-03-07T08:37:30Z</time>
      </trkpt>
      <trkpt lat="48.37393" lon="2.81894">
        <ele>46</ele>
        <time>2015-03-07T08:37:35Z</time>
      </trkpt>
      <trkpt lat="48.37385" lon="2.81894">
        <ele>47</ele>
        <time>2015-03-07T08:37:40Z</time>
      </trkpt>
      <trkpt lat="48.37378" lon="2.81896">
        <ele>47</ele>
        <time>2015-03-07T08:37:47Z</time>
      </trkpt>
      <trkpt lat="48.3737" lon="2.81896">
        <ele>47</ele>
        <time>2015-03-07T08:37:51Z</time>
      </trkpt>
      <trkpt lat="48.37362" lon="2.81896">
        <ele>47</ele>
        <time>2015-03-07T08:37:56Z</time>
      </trkpt>
      <trkpt lat="48.37354" lon="2.81898">
        <ele>48</ele>
        <time>2015-03-07T08:38:00Z</time>
      </trkpt>
      <trkpt lat="48.37346" lon="2.81898">
        <ele>48</ele>
        <time>2015-03-07T08:38:05Z</time>
      </trkpt>
      <trkpt lat="48.3734" lon="2.81902">
        <ele>48</ele>
        <time>2015-03-07T08:38:09Z</time>
      </trkpt>
      <trkpt lat="48.37332" lon="2.81903">
        <ele>49</ele>
        <time>2015-03-07T08:38:13Z</time>
      </trkpt>
      <trkpt lat="48.37324" lon="2.81902">
        <ele>49</ele>
        <time>2015-03-07T08:38:18Z</time>
      </trkpt>
      <trkpt lat="48.37316" lon="2.81905">
        <ele>49</ele>
        <time>2015-03-07T08:38:26Z</time>
      </trkpt>
      <trkpt lat="48.37307" lon="2.81904">
        <ele>50</ele>
        <time>2015-03-07T08:38:33Z</time>
      </trkpt>
      <trkpt lat="48.37299" lon="2.81904">
        <ele>50</ele>
        <time>2015-03-07T08:38:40Z</time>
      </trkpt>
      <trkpt lat="48.37293" lon="2.81897">
        <ele>50</ele>
        <time>2015-03-07T08:38:47Z</time>
      </trkpt>
      <trkpt lat="48.37289" lon="2.81888">
        <ele>50</ele>
        <time>2015-03-07T08:38:52Z</time>
      </trkpt>
      <trkpt lat="48.3729" lon="2.81875">
        <ele>50</ele>
        <time>2015-03-07T08:38:59Z</time>
      </trkpt>
      <trkpt lat="48.37294" lon="2.81863">
        <ele>50</ele>
        <time>2015-03-07T08:39:04Z</time>
      </trkpt>
      <trkpt lat="48.37286" lon="2.81858">
        <ele>50</ele>
        <time>2015-03-07T08:39:22Z</time>
      </trkpt>
      <trkpt lat="48.37278" lon="2.81856">
        <ele>50</ele>
        <time>2015-03-07T08:39:34Z</time>
      </trkpt>
      <trkpt lat="48.37269" lon="2.81856">
        <ele>50</ele>
        <time>2015-03-07T08:39:40Z</time>
      </trkpt>
      <trkpt lat="48.37262" lon="2.81849">
        <ele>50</ele>
        <time>2015-03-07T08:40:04Z</time>
      </trkpt>
      <trkpt lat="48.37254" lon="2.81848">
        <ele>48</ele>
        <time>2015-03-07T08:40:10Z</time>
      </trkpt>
      <trkpt lat="48.37244" lon="2.81856">
        <ele>48</ele>
        <time>2015-03-07T08:40:15Z</time>
      </trkpt>
      <trkpt lat="48.37233" lon="2.81862">
        <ele>48</ele>
        <time>2015-03-07T08:40:19Z</time>
      </trkpt>
      <trkpt lat="48.37225" lon="2.81865">
        <ele>49</ele>
        <time>2015-03-07T08:40:24Z</time>
      </trkpt>
      <trkpt lat="48.37218" lon="2.81861">
        <ele>52</ele>
        <time>2015-03-07T08:40:45Z</time>
      </trkpt>
      <trkpt lat="48.37211" lon="2.81856">
        <ele>53</ele>
        <time>2015-03-07T08:40:53Z</time>
      </trkpt>
      <trkpt lat="48.37198" lon="2.81847">
        <ele>53</ele>
        <time>2015-03-07T08:40:58Z</time>
      </trkpt>
      <trkpt lat="48.37195" lon="2.81835">
        <ele>53</ele>
        <time>2015-03-07T08:41:04Z</time>
      </trkpt>
      <trkpt lat="48.37187" lon="2.81831">
        <ele>53</ele>
        <time>2015-03-07T08:41:11Z</time>
      </trkpt>
      <trkpt lat="48.37174" lon="2.81834">
        <ele>54</ele>
        <time>2015-03-07T08:41:15Z</time>
      </trkpt>
      <trkpt lat="48.37165" lon="2.8184">
        <ele>54</ele>
        <time>2015-03-07T08:41:19Z</time>
      </trkpt>
      <trkpt lat="48.37159" lon="2.81849">
        <ele>54</ele>
        <time>2015-03-07T08:41:24Z</time>
      </trkpt>
      <trkpt lat="48.37151" lon="2.81854">
        <ele>55</ele>
        <time>2015-03-07T08:41:31Z</time>
      </trkpt>
      <trkpt lat="48.37142" lon="2.81861">
        <ele>56</ele>
        <time>2015-03-07T08:41:36Z</time>
      </trkpt>
      <trkpt lat="48.37135" lon="2.81869">
        <ele>56</ele>
        <time>2015-03-07T08:41:41Z</time>
      </trkpt>
      <trkpt lat="48.37126" lon="2.81872">
        <ele>58</ele>
        <time>2015-03-07T08:41:51Z</time>
      </trkpt>
      <trkpt lat="48.37119" lon="2.81869">
        <ele>58</ele>
        <time>2015-03-07T08:41:59Z</time>
      </trkpt>
      <trkpt lat="48.37111" lon="2.81868">
        <ele>59</ele>
        <time>2015-03-07T08:42:08Z</time>
      </trkpt>
      <trkpt lat="48.37102" lon="2.81867">
        <ele>59</ele>
        <time>2015-03-07T08:42:13Z</time>
      </trkpt>
      <trkpt lat="48.37109" lon="2.81875">
        <ele>58</ele>
        <time>2015-03-07T08:42:24Z</time>
      </trkpt>
      <trkpt lat="48.37117" lon="2.81875">
        <ele>57</ele>
        <time>2015-03-07T08:42:30Z</time>
      </trkpt>
      <trkpt lat="48.37125" lon="2.81879">
        <ele>57</ele>
        <time>2015-03-07T08:42:35Z</time>
      </trkpt>
      <trkpt lat="48.37134" lon="2.81877">
        <ele>57</ele>
        <time>2015-03-07T08:42:41Z</time>
      </trkpt>
      <trkpt lat="48.3714" lon="2.81872">
        <ele>56</ele>
        <time>2015-03-07T08:42:46Z</time>
      </trkpt>
      <trkpt lat="48.37149" lon="2.81867">
        <ele>56</ele>
        <time>2015-03-07T08:42:51Z</time>
      </trkpt>
      <trkpt lat="48.37156" lon="2.81865">
        <ele>55</ele>
        <time>2015-03-07T08:42:55Z</time>
      </trkpt>
      <trkpt lat="48.37164" lon="2.81857">
        <ele>55</ele>
        <time>2015-03-07T08:43:00Z</time>
      </trkpt>
      <trkpt lat="48.37172" lon="2.81852">
        <ele>55</ele>
        <time>2015-03-07T08:43:05Z</time>
      </trkpt>
      <trkpt lat="48.3718" lon="2.8185">
        <ele>55</ele>
        <time>2015-03-07T08:43:11Z</time>
      </trkpt>
      <trkpt lat="48.3719" lon="2.8185">
        <ele>54</ele>
        <time>2015-03-07T08:43:16Z</time>
      </trkpt>
      <trkpt lat="48.37196" lon="2.81846">
        <ele>55</ele>
        <time>2015-03-07T08:43:25Z</time>
      </trkpt>
      <trkpt lat="48.37211" lon="2.81843">
        <ele>55</ele>
        <time>2015-03-07T08:43:29Z</time>
      </trkpt>
      <trkpt lat="48.3722" lon="2.81847">
        <ele>56</ele>
        <time>2015-03-07T08:43:38Z</time>
      </trkpt>
      <trkpt lat="48.37228" lon="2.81848">
        <ele>57</ele>
        <time>2015-03-07T08:43:43Z</time>
      </trkpt>
      <trkpt lat="48.37235" lon="2.81852">
        <ele>57</ele>
        <time>2015-03-07T08:43:50Z</time>
      </trkpt>
      <trkpt lat="48.37243" lon="2.81856">
        <ele>57</ele>
        <time>2015-03-07T08:43:55Z</time>
      </trkpt>
      <trkpt lat="48.37252" lon="2.81858">
        <ele>57</ele>
        <time>2015-03-07T08:43:59Z</time>
      </trkpt>
      <trkpt lat="48.37262" lon="2.81861">
        <ele>57</ele>
        <time>2015-03-07T08:44:04Z</time>
      </trkpt>
      <trkpt lat="48.37265" lon="2.81871">
        <ele>56</ele>
        <time>2015-03-07T08:44:13Z</time>
      </trkpt>
      <trkpt lat="48.37268" lon="2.81882">
        <ele>55</ele>
        <time>2015-03-07T08:44:18Z</time>
      </trkpt>
      <trkpt lat="48.3726" lon="2.81881">
        <ele>53</ele>
        <time>2015-03-07T08:44:27Z</time>
      </trkpt>
      <trkpt lat="48.3726" lon="2.81893">
        <ele>49</ele>
        <time>2015-03-07T08:45:01Z</time>
      </trkpt>
      <trkpt lat="48.37257" lon="2.81903">
        <ele>49</ele>
        <time>2015-03-07T08:45:07Z</time>
      </trkpt>
      <trkpt lat="48.37254" lon="2.81914">
        <ele>49</ele>
        <time>2015-03-07T08:45:11Z</time>
      </trkpt>
      <trkpt lat="48.37251" lon="2.81925">
        <ele>49</ele>
        <time>2015-03-07T08:45:16Z</time>
      </trkpt>
      <trkpt lat="48.37247" lon="2.81935">
        <ele>49</ele>
        <time>2015-03-07T08:45:21Z</time>
      </trkpt>
      <trkpt lat="48.37244" lon="2.81948">
        <ele>50</ele>
        <time>2015-03-07T08:45:28Z</time>
      </trkpt>
      <trkpt lat="48.37244" lon="2.81961">
        <ele>50</ele>
        <time>2015-03-07T08:45:34Z</time>
      </trkpt>
      <trkpt lat="48.37245" lon="2.81972">
        <ele>50</ele>
        <time>2015-03-07T08:45:41Z</time>
      </trkpt>
      <trkpt lat="48.37244" lon="2.81984">
        <ele>50</ele>
        <time>2015-03-07T08:45:46Z</time>
      </trkpt>
      <trkpt lat="48.37243" lon="2.81997">
        <ele>50</ele>
        <time>2015-03-07T08:45:53Z</time>
      </trkpt>
      <trkpt lat="48.37243" lon="2.82009">
        <ele>50</ele>
        <time>2015-03-07T08:45:58Z</time>
      </trkpt>
      <trkpt lat="48.37242" lon="2.82024">
        <ele>49</ele>
        <time>2015-03-07T08:46:02Z</time>
      </trkpt>
      <trkpt lat="48.37244" lon="2.82037">
        <ele>49</ele>
        <time>2015-03-07T08:46:07Z</time>
      </trkpt>
      <trkpt lat="48.37245" lon="2.82049">
        <ele>49</ele>
        <time>2015-03-07T08:46:12Z</time>
      </trkpt>
      <trkpt lat="48.37244" lon="2.82062">
        <ele>49</ele>
        <time>2015-03-07T08:46:18Z</time>
      </trkpt>
      <trkpt lat="48.37242" lon="2.82074">
        <ele>49</ele>
        <time>2015-03-07T08:46:24Z</time>
      </trkpt>
      <trkpt lat="48.37244" lon="2.82087">
        <ele>49</ele>
        <time>2015-03-07T08:46:33Z</time>
      </trkpt>
      <trkpt lat="48.37245" lon="2.82099">
        <ele>49</ele>
        <time>2015-03-07T08:46:42Z</time>
      </trkpt>
      <trkpt lat="48.37246" lon="2.82111">
        <ele>48</ele>
        <time>2015-03-07T08:46:47Z</time>
      </trkpt>
      <trkpt lat="48.37244" lon="2.82123">
        <ele>48</ele>
        <time>2015-03-07T08:46:56Z</time>
      </trkpt>
      <trkpt lat="48.37236" lon="2.82125">
        <ele>47</ele>
        <time>2015-03-07T08:47:01Z</time>
      </trkpt>
      <trkpt lat="48.37228" lon="2.82125">
        <ele>47</ele>
        <time>2015-03-07T08:47:07Z</time>
      </trkpt>
      <trkpt lat="48.3722" lon="2.82125">
        <ele>47</ele>
        <time>2015-03-07T08:47:12Z</time>
      </trkpt>
      <trkpt lat="48.37214" lon="2.82134">
        <ele>47</ele>
        <time>2015-03-07T08:47:17Z</time>
      </trkpt>
      <trkpt lat="48.37213" lon="2.82148">
        <ele>48</ele>
        <time>2015-03-07T08:47:24Z</time>
      </trkpt>
      <trkpt lat="48.37211" lon="2.82159">
        <ele>48</ele>
        <time>2015-03-07T08:47:30Z</time>
      </trkpt>
      <trkpt lat="48.37207" lon="2.8217">
        <ele>49</ele>
        <time>2015-03-07T08:47:35Z</time>
      </trkpt>
      <trkpt lat="48.37204" lon="2.82182">
        <ele>50</ele>
        <time>2015-03-07T08:47:41Z</time>
      </trkpt>
      <trkpt lat="48.37201" lon="2.82194">
        <ele>50</ele>
        <time>2015-03-07T08:47:45Z</time>
      </trkpt>
      <trkpt lat="48.37197" lon="2.82206">
        <ele>50</ele>
        <time>2015-03-07T08:47:50Z</time>
      </trkpt>
      <trkpt lat="48.37192" lon="2.82217">
        <ele>50</ele>
        <time>2015-03-07T08:47:55Z</time>
      </trkpt>
      <trkpt lat="48.3719" lon="2.8223">
        <ele>49</ele>
        <time>2015-03-07T08:48:01Z</time>
      </trkpt>
      <trkpt lat="48.37188" lon="2.82241">
        <ele>49</ele>
        <time>2015-03-07T08:48:07Z</time>
      </trkpt>
      <trkpt lat="48.37184" lon="2.82253">
        <ele>49</ele>
        <time>2015-03-07T08:48:12Z</time>
      </trkpt>
      <trkpt lat="48.37179" lon="2.82261">
        <ele>49</ele>
        <time>2015-03-07T08:48:17Z</time>
      </trkpt>
      <trkpt lat="48.37175" lon="2.82273">
        <ele>49</ele>
        <time>2015-03-07T08:48:23Z</time>
      </trkpt>
      <trkpt lat="48.37172" lon="2.82285">
        <ele>49</ele>
        <time>2015-03-07T08:48:29Z</time>
      </trkpt>
      <trkpt lat="48.37168" lon="2.82295">
        <ele>49</ele>
        <time>2015-03-07T08:48:34Z</time>
      </trkpt>
      <trkpt lat="48.37168" lon="2.82307">
        <ele>49</ele>
        <time>2015-03-07T08:48:39Z</time>
      </trkpt>
      <trkpt lat="48.37166" lon="2.8232">
        <ele>49</ele>
        <time>2015-03-07T08:48:44Z</time>
      </trkpt>
      <trkpt lat="48.3716" lon="2.82328">
        <ele>49</ele>
        <time>2015-03-07T08:48:51Z</time>
      </trkpt>
      <trkpt lat="48.37158" lon="2.82339">
        <ele>49</ele>
        <time>2015-03-07T08:48:55Z</time>
      </trkpt>
      <trkpt lat="48.37157" lon="2.8235">
        <ele>49</ele>
        <time>2015-03-07T08:48:59Z</time>
      </trkpt>
      <trkpt lat="48.37156" lon="2.82362">
        <ele>48</ele>
        <time>2015-03-07T08:49:04Z</time>
      </trkpt>
      <trkpt lat="48.37151" lon="2.82373">
        <ele>47</ele>
        <time>2015-03-07T08:49:12Z</time>
      </trkpt>
      <trkpt lat="48.37147" lon="2.82384">
        <ele>47</ele>
        <time>2015-03-07T08:49:17Z</time>
      </trkpt>
      <trkpt lat="48.37147" lon="2.82398">
        <ele>46</ele>
        <time>2015-03-07T08:49:22Z</time>
      </trkpt>
      <trkpt lat="48.37144" lon="2.8241">
        <ele>47</ele>
        <time>2015-03-07T08:49:27Z</time>
      </trkpt>
      <trkpt lat="48.37137" lon="2.82418">
        <ele>47</ele>
        <time>2015-03-07T08:49:33Z</time>
      </trkpt>
      <trkpt lat="48.37132" lon="2.82428">
        <ele>47</ele>
        <time>2015-03-07T08:49:40Z</time>
      </trkpt>
      <trkpt lat="48.37127" lon="2.82439">
        <ele>48</ele>
        <time>2015-03-07T08:49:45Z</time>
      </trkpt>
      <trkpt lat="48.37127" lon="2.82451">
        <ele>48</ele>
        <time>2015-03-07T08:49:51Z</time>
      </trkpt>
      <trkpt lat="48.37122" lon="2.82462">
        <ele>48</ele>
        <time>2015-03-07T08:49:58Z</time>
      </trkpt>
      <trkpt lat="48.37114" lon="2.82468">
        <ele>48</ele>
        <time>2015-03-07T08:50:02Z</time>
      </trkpt>
      <trkpt lat="48.37117" lon="2.82478">
        <ele>48</ele>
        <time>2015-03-07T08:50:06Z</time>
      </trkpt>
      <trkpt lat="48.37119" lon="2.82489">
        <ele>48</ele>
        <time>2015-03-07T08:50:10Z</time>
      </trkpt>
      <trkpt lat="48.37119" lon="2.825">
        <ele>48</ele>
        <time>2015-03-07T08:50:15Z</time>
      </trkpt>
      <trkpt lat="48.37117" lon="2.82511">
        <ele>48</ele>
        <time>2015-03-07T08:50:19Z</time>
      </trkpt>
      <trkpt lat="48.37113" lon="2.82521">
        <ele>47</ele>
        <time>2015-03-07T08:50:27Z</time>
      </trkpt>
      <trkpt lat="48.37108" lon="2.8253">
        <ele>47</ele>
        <time>2015-03-07T08:50:31Z</time>
      </trkpt>
      <trkpt lat="48.37106" lon="2.82547">
        <ele>47</ele>
        <time>2015-03-07T08:50:36Z</time>
      </trkpt>
      <trkpt lat="48.37097" lon="2.82554">
        <ele>47</ele>
        <time>2015-03-07T08:50:41Z</time>
      </trkpt>
      <trkpt lat="48.37088" lon="2.82553">
        <ele>47</ele>
        <time>2015-03-07T08:50:46Z</time>
      </trkpt>
      <trkpt lat="48.37078" lon="2.82554">
        <ele>47</ele>
        <time>2015-03-07T08:50:51Z</time>
      </trkpt>
      <trkpt lat="48.37071" lon="2.82563">
        <ele>46</ele>
        <time>2015-03-07T08:50:57Z</time>
      </trkpt>
      <trkpt lat="48.37063" lon="2.82566">
        <ele>46</ele>
        <time>2015-03-07T08:51:03Z</time>
      </trkpt>
      <trkpt lat="48.37054" lon="2.82567">
        <ele>46</ele>
        <time>2015-03-07T08:51:08Z</time>
      </trkpt>
      <trkpt lat="48.37046" lon="2.8257">
        <ele>47</ele>
        <time>2015-03-07T08:51:13Z</time>
      </trkpt>
      <trkpt lat="48.37038" lon="2.82572">
        <ele>47</ele>
        <time>2015-03-07T08:51:18Z</time>
      </trkpt>
      <trkpt lat="48.3703" lon="2.82578">
        <ele>47</ele>
        <time>2015-03-07T08:51:24Z</time>
      </trkpt>
      <trkpt lat="48.37023" lon="2.82583">
        <ele>46</ele>
        <time>2015-03-07T08:51:30Z</time>
      </trkpt>
      <trkpt lat="48.37014" lon="2.82586">
        <ele>46</ele>
        <time>2015-03-07T08:51:36Z</time>
      </trkpt>
      <trkpt lat="48.37006" lon="2.8259">
        <ele>46</ele>
        <time>2015-03-07T08:51:40Z</time>
      </trkpt>
      <trkpt lat="48.36997" lon="2.82591">
        <ele>46</ele>
        <time>2015-03-07T08:51:47Z</time>
      </trkpt>
      <trkpt lat="48.36989" lon="2.82592">
        <ele>46</ele>
        <time>2015-03-07T08:51:52Z</time>
      </trkpt>
      <trkpt lat="48.36981" lon="2.82597">
        <ele>46</ele>
        <time>2015-03-07T08:51:57Z</time>
      </trkpt>
      <trkpt lat="48.36973" lon="2.82598">
        <ele>46</ele>
        <time>2015-03-07T08:52:02Z</time>
      </trkpt>
      <trkpt lat="48.36963" lon="2.82598">
        <ele>46</ele>
        <time>2015-03-07T08:52:07Z</time>
      </trkpt>
      <trkpt lat="48.36955" lon="2.82602">
        <ele>46</ele>
        <time>2015-03-07T08:52:13Z</time>
      </trkpt>
      <trkpt lat="48.36946" lon="2.82604">
        <ele>46</ele>
        <time>2015-03-07T08:52:19Z</time>
      </trkpt>
      <trkpt lat="48.36939" lon="2.82608">
        <ele>46</ele>
        <time>2015-03-07T08:52:25Z</time>
      </trkpt>
      <trkpt lat="48.36931" lon="2.82613">
        <ele>47</ele>
        <time>2015-03-07T08:52:31Z</time>
      </trkpt>
      <trkpt lat="48.36924" lon="2.82617">
        <ele>47</ele>
        <time>2015-03-07T08:52:36Z</time>
      </trkpt>
      <trkpt lat="48.36916" lon="2.82619">
        <ele>47</ele>
        <time>2015-03-07T08:52:40Z</time>
      </trkpt>
      <trkpt lat="48.36908" lon="2.82624">
        <ele>46</ele>
        <time>2015-03-07T08:52:46Z</time>
      </trkpt>
      <trkpt lat="48.369" lon="2.82626">
        <ele>46</ele>
        <time>2015-03-07T08:52:52Z</time>
      </trkpt>
      <trkpt lat="48.36891" lon="2.82629">
        <ele>46</ele>
        <time>2015-03-07T08:52:57Z</time>
      </trkpt>
      <trkpt lat="48.36883" lon="2.82632">
        <ele>46</ele>
        <time>2015-03-07T08:53:03Z</time>
      </trkpt>
      <trkpt lat="48.36875" lon="2.82635">
        <ele>46</ele>
        <time>2015-03-07T08:53:08Z</time>
      </trkpt>
      <trkpt lat="48.36868" lon="2.82637">
        <ele>46</ele>
        <time>2015-03-07T08:53:13Z</time>
      </trkpt>
      <trkpt lat="48.3686" lon="2.8264">
        <ele>46</ele>
        <time>2015-03-07T08:53:17Z</time>
      </trkpt>
      <trkpt lat="48.36852" lon="2.82642">
        <ele>46</ele>
        <time>2015-03-07T08:53:23Z</time>
      </trkpt>
      <trkpt lat="48.36844" lon="2.82645">
        <ele>46</ele>
        <time>2015-03-07T08:53:29Z</time>
      </trkpt>
      <trkpt lat="48.36836" lon="2.82647">
        <ele>46</ele>
        <time>2015-03-07T08:53:34Z</time>
      </trkpt>
      <trkpt lat="48.36829" lon="2.82651">
        <ele>46</ele>
        <time>2015-03-07T08:53:40Z</time>
      </trkpt>
      <trkpt lat="48.36822" lon="2.82656">
        <ele>45</ele>
        <time>2015-03-07T08:53:46Z</time>
      </trkpt>
      <trkpt lat="48.36816" lon="2.82662">
        <ele>46</ele>
        <time>2015-03-07T08:53:51Z</time>
      </trkpt>
      <trkpt lat="48.36808" lon="2.82672">
        <ele>46</ele>
        <time>2015-03-07T08:53:56Z</time>
      </trkpt>
      <trkpt lat="48.368" lon="2.82674">
        <ele>46</ele>
        <time>2015-03-07T08:54:01Z</time>
      </trkpt>
      <trkpt lat="48.36792" lon="2.82671">
        <ele>47</ele>
        <time>2015-03-07T08:54:07Z</time>
      </trkpt>
      <trkpt lat="48.36783" lon="2.82675">
        <ele>47</ele>
        <time>2015-03-07T08:54:13Z</time>
      </trkpt>
      <trkpt lat="48.36775" lon="2.82678">
        <ele>46</ele>
        <time>2015-03-07T08:54:18Z</time>
      </trkpt>
      <trkpt lat="48.36767" lon="2.82681">
        <ele>47</ele>
        <time>2015-03-07T08:54:25Z</time>
      </trkpt>
      <trkpt lat="48.36759" lon="2.82683">
        <ele>47</ele>
        <time>2015-03-07T08:54:31Z</time>
      </trkpt>
      <trkpt lat="48.36752" lon="2.82686">
        <ele>46</ele>
        <time>2015-03-07T08:54:36Z</time>
      </trkpt>
      <trkpt lat="48.36745" lon="2.82689">
        <ele>45</ele>
        <time>2015-03-07T08:54:45Z</time>
      </trkpt>
      <trkpt lat="48.36737" lon="2.82694">
        <ele>45</ele>
        <time>2015-03-07T08:54:49Z</time>
      </trkpt>
      <trkpt lat="48.36729" lon="2.827">
        <ele>44</ele>
        <time>2015-03-07T08:54:56Z</time>
      </trkpt>
      <trkpt lat="48.36721" lon="2.82703">
        <ele>43</ele>
        <time>2015-03-07T08:55:00Z</time>
      </trkpt>
      <trkpt lat="48.36714" lon="2.82707">
        <ele>42</ele>
        <time>2015-03-07T08:55:06Z</time>
      </trkpt>
      <trkpt lat="48.367" lon="2.82709">
        <ele>41</ele>
        <time>2015-03-07T08:55:11Z</time>
      </trkpt>
      <trkpt lat="48.3669" lon="2.82711">
        <ele>42</ele>
        <time>2015-03-07T08:55:15Z</time>
      </trkpt>
      <trkpt lat="48.36682" lon="2.82712">
        <ele>42</ele>
        <time>2015-03-07T08:55:19Z</time>
      </trkpt>
      <trkpt lat="48.36674" lon="2.82714">
        <ele>42</ele>
        <time>2015-03-07T08:55:26Z</time>
      </trkpt>
      <trkpt lat="48.36666" lon="2.82715">
        <ele>41</ele>
        <time>2015-03-07T08:55:31Z</time>
      </trkpt>
      <trkpt lat="48.36658" lon="2.82719">
        <ele>40</ele>
        <time>2015-03-07T08:55:36Z</time>
      </trkpt>
      <trkpt lat="48.36649" lon="2.82721">
        <ele>40</ele>
        <time>2015-03-07T08:55:40Z</time>
      </trkpt>
      <trkpt lat="48.36641" lon="2.82722">
        <ele>41</ele>
        <time>2015-03-07T08:55:45Z</time>
      </trkpt>
      <trkpt lat="48.36632" lon="2.82724">
        <ele>41</ele>
        <time>2015-03-07T08:55:51Z</time>
      </trkpt>
      <trkpt lat="48.36624" lon="2.82726">
        <ele>42</ele>
        <time>2015-03-07T08:55:58Z</time>
      </trkpt>
      <trkpt lat="48.36617" lon="2.82729">
        <ele>43</ele>
        <time>2015-03-07T08:56:04Z</time>
      </trkpt>
      <trkpt lat="48.36608" lon="2.82733">
        <ele>43</ele>
        <time>2015-03-07T08:56:10Z</time>
      </trkpt>
      <trkpt lat="48.36601" lon="2.82735">
        <ele>42</ele>
        <time>2015-03-07T08:56:17Z</time>
      </trkpt>
      <trkpt lat="48.36592" lon="2.82738">
        <ele>42</ele>
        <time>2015-03-07T08:56:22Z</time>
      </trkpt>
      <trkpt lat="48.36584" lon="2.8274">
        <ele>43</ele>
        <time>2015-03-07T08:56:28Z</time>
      </trkpt>
      <trkpt lat="48.36573" lon="2.8274">
        <ele>43</ele>
        <time>2015-03-07T08:56:33Z</time>
      </trkpt>
      <trkpt lat="48.36565" lon="2.82742">
        <ele>43</ele>
        <time>2015-03-07T08:56:38Z</time>
      </trkpt>
      <trkpt lat="48.36558" lon="2.82742">
        <ele>44</ele>
        <time>2015-03-07T08:56:43Z</time>
      </trkpt>
      <trkpt lat="48.36549" lon="2.82743">
        <ele>46</ele>
        <time>2015-03-07T08:56:50Z</time>
      </trkpt>
      <trkpt lat="48.36541" lon="2.82739">
        <ele>47</ele>
        <time>2015-03-07T08:56:58Z</time>
      </trkpt>
      <trkpt lat="48.36533" lon="2.82737">
        <ele>48</ele>
        <time>2015-03-07T08:57:03Z</time>
      </trkpt>
      <trkpt lat="48.36525" lon="2.82734">
        <ele>48</ele>
        <time>2015-03-07T08:57:07Z</time>
      </trkpt>
      <trkpt lat="48.36518" lon="2.82731">
        <ele>48</ele>
        <time>2015-03-07T08:57:12Z</time>
      </trkpt>
      <trkpt lat="48.3651" lon="2.82728">
        <ele>49</ele>
        <time>2015-03-07T08:57:18Z</time>
      </trkpt>
      <trkpt lat="48.36503" lon="2.82723">
        <ele>49</ele>
        <time>2015-03-07T08:57:22Z</time>
      </trkpt>
      <trkpt lat="48.36496" lon="2.82717">
        <ele>49</ele>
        <time>2015-03-07T08:57:27Z</time>
      </trkpt>
      <trkpt lat="48.36487" lon="2.82712">
        <ele>49</ele>
        <time>2015-03-07T08:57:32Z</time>
      </trkpt>
      <trkpt lat="48.3648" lon="2.82708">
        <ele>48</ele>
        <time>2015-03-07T08:57:37Z</time>
      </trkpt>
      <trkpt lat="48.36473" lon="2.82701">
        <ele>48</ele>
        <time>2015-03-07T08:57:42Z</time>
      </trkpt>
      <trkpt lat="48.36465" lon="2.82695">
        <ele>49</ele>
        <time>2015-03-07T08:57:49Z</time>
      </trkpt>
      <trkpt lat="48.36456" lon="2.82692">
        <ele>49</ele>
        <time>2015-03-07T08:57:57Z</time>
      </trkpt>
      <trkpt lat="48.36447" lon="2.82689">
        <ele>49</ele>
        <time>2015-03-07T08:58:03Z</time>
      </trkpt>
      <trkpt lat="48.36439" lon="2.82685">
        <ele>48</ele>
        <time>2015-03-07T08:58:10Z</time>
      </trkpt>
      <trkpt lat="48.36431" lon="2.82682">
        <ele>47</ele>
        <time>2015-03-07T08:58:17Z</time>
      </trkpt>
      <trkpt lat="48.36424" lon="2.82676">
        <ele>45</ele>
        <time>2015-03-07T08:58:27Z</time>
      </trkpt>
      <trkpt lat="48.36416" lon="2.82673">
        <ele>44</ele>
        <time>2015-03-07T08:58:32Z</time>
      </trkpt>
      <trkpt lat="48.36408" lon="2.82671">
        <ele>44</ele>
        <time>2015-03-07T08:58:37Z</time>
      </trkpt>
      <trkpt lat="48.36401" lon="2.82669">
        <ele>43</ele>
        <time>2015-03-07T08:58:41Z</time>
      </trkpt>
      <trkpt lat="48.36393" lon="2.82666">
        <ele>43</ele>
        <time>2015-03-07T08:58:46Z</time>
      </trkpt>
      <trkpt lat="48.36386" lon="2.8266">
        <ele>43</ele>
        <time>2015-03-07T08:58:52Z</time>
      </trkpt>
      <trkpt lat="48.36378" lon="2.82654">
        <ele>43</ele>
        <time>2015-03-07T08:58:58Z</time>
      </trkpt>
      <trkpt lat="48.3637" lon="2.82648">
        <ele>44</ele>
        <time>2015-03-07T08:59:04Z</time>
      </trkpt>
      <trkpt lat="48.36363" lon="2.82644">
        <ele>44</ele>
        <time>2015-03-07T08:59:08Z</time>
      </trkpt>
      <trkpt lat="48.36356" lon="2.8264">
        <ele>44</ele>
        <time>2015-03-07T08:59:12Z</time>
      </trkpt>
      <trkpt lat="48.36349" lon="2.82634">
        <ele>44</ele>
        <time>2015-03-07T08:59:16Z</time>
      </trkpt>
      <trkpt lat="48.36341" lon="2.82629">
        <ele>45</ele>
        <time>2015-03-07T08:59:21Z</time>
      </trkpt>
      <trkpt lat="48.36333" lon="2.82626">
        <ele>45</ele>
        <time>2015-03-07T08:59:27Z</time>
      </trkpt>
      <trkpt lat="48.36323" lon="2.8262">
        <ele>46</ele>
        <time>2015-03-07T08:59:32Z</time>
      </trkpt>
      <trkpt lat="48.36314" lon="2.82613">
        <ele>47</ele>
        <time>2015-03-07T08:59:37Z</time>
      </trkpt>
      <trkpt lat="48.36307" lon="2.82607">
        <ele>47</ele>
        <time>2015-03-07T08:59:41Z</time>
      </trkpt>
      <trkpt lat="48.363" lon="2.82601">
        <ele>48</ele>
        <time>2015-03-07T08:59:47Z</time>
      </trkpt>
      <trkpt lat="48.36292" lon="2.82597">
        <ele>49</ele>
        <time>2015-03-07T08:59:52Z</time>
      </trkpt>
      <trkpt lat="48.36286" lon="2.82592">
        <ele>49</ele>
        <time>2015-03-07T08:59:56Z</time>
      </trkpt>
      <trkpt lat="48.36279" lon="2.82585">
        <ele>50</ele>
        <time>2015-03-07T09:00:02Z</time>
      </trkpt>
      <trkpt lat="48.36272" lon="2.82581">
        <ele>50</ele>
        <time>2015-03-07T09:00:09Z</time>
      </trkpt>
      <trkpt lat="48.36265" lon="2.82573">
        <ele>50</ele>
        <time>2015-03-07T09:00:13Z</time>
      </trkpt>
      <trkpt lat="48.36257" lon="2.82566">
        <ele>50</ele>
        <time>2015-03-07T09:00:17Z</time>
      </trkpt>
      <trkpt lat="48.36249" lon="2.8256">
        <ele>50</ele>
        <time>2015-03-07T09:00:23Z</time>
      </trkpt>
      <trkpt lat="48.36242" lon="2.82556">
        <ele>49</ele>
        <time>2015-03-07T09:00:29Z</time>
      </trkpt>
      <trkpt lat="48.36234" lon="2.8255">
        <ele>48</ele>
        <time>2015-03-07T09:00:35Z</time>
      </trkpt>
      <trkpt lat="48.36227" lon="2.82545">
        <ele>48</ele>
        <time>2015-03-07T09:00:40Z</time>
      </trkpt>
      <trkpt lat="48.36221" lon="2.82542">
        <ele>47</ele>
        <time>2015-03-07T09:00:45Z</time>
      </trkpt>
      <trkpt lat="48.36211" lon="2.82538">
        <ele>47</ele>
        <time>2015-03-07T09:00:50Z</time>
      </trkpt>
      <trkpt lat="48.36203" lon="2.82536">
        <ele>47</ele>
        <time>2015-03-07T09:00:56Z</time>
      </trkpt>
      <trkpt lat="48.36196" lon="2.82532">
        <ele>46</ele>
        <time>2015-03-07T09:01:02Z</time>
      </trkpt>
      <trkpt lat="48.36189" lon="2.82526">
        <ele>47</ele>
        <time>2015-03-07T09:01:08Z</time>
      </trkpt>
      <trkpt lat="48.36182" lon="2.82521">
        <ele>47</ele>
        <time>2015-03-07T09:01:13Z</time>
      </trkpt>
      <trkpt lat="48.36175" lon="2.82515">
        <ele>46</ele>
        <time>2015-03-07T09:01:18Z</time>
      </trkpt>
      <trkpt lat="48.36167" lon="2.82508">
        <ele>46</ele>
        <time>2015-03-07T09:01:27Z</time>
      </trkpt>
      <trkpt lat="48.36162" lon="2.82504">
        <ele>46</ele>
        <time>2015-03-07T09:01:32Z</time>
      </trkpt>
      <trkpt lat="48.36152" lon="2.82501">
        <ele>46</ele>
        <time>2015-03-07T09:01:36Z</time>
      </trkpt>
      <trkpt lat="48.36145" lon="2.82498">
        <ele>47</ele>
        <time>2015-03-07T09:01:41Z</time>
      </trkpt>
      <trkpt lat="48.36135" lon="2.82492">
        <ele>47</ele>
        <time>2015-03-07T09:01:46Z</time>
      </trkpt>
      <trkpt lat="48.36128" lon="2.82486">
        <ele>47</ele>
        <time>2015-03-07T09:01:51Z</time>
      </trkpt>
      <trkpt lat="48.3612" lon="2.82481">
        <ele>47</ele>
        <time>2015-03-07T09:01:57Z</time>
      </trkpt>
      <trkpt lat="48.36113" lon="2.82475">
        <ele>47</ele>
        <time>2015-03-07T09:02:03Z</time>
      </trkpt>
      <trkpt lat="48.36106" lon="2.82467">
        <ele>46</ele>
        <time>2015-03-07T09:02:08Z</time>
      </trkpt>
      <trkpt lat="48.361" lon="2.82462">
        <ele>46</ele>
        <time>2015-03-07T09:02:12Z</time>
      </trkpt>
      <trkpt lat="48.36093" lon="2.82456">
        <ele>46</ele>
        <time>2015-03-07T09:02:17Z</time>
      </trkpt>
      <trkpt lat="48.36085" lon="2.82452">
        <ele>46</ele>
        <time>2015-03-07T09:02:23Z</time>
      </trkpt>
      <trkpt lat="48.36078" lon="2.82447">
        <ele>46</ele>
        <time>2015-03-07T09:02:27Z</time>
      </trkpt>
      <trkpt lat="48.36071" lon="2.82442">
        <ele>47</ele>
        <time>2015-03-07T09:02:31Z</time>
      </trkpt>
      <trkpt lat="48.36063" lon="2.82439">
        <ele>47</ele>
        <time>2015-03-07T09:02:37Z</time>
      </trkpt>
      <trkpt lat="48.36055" lon="2.82434">
        <ele>47</ele>
        <time>2015-03-07T09:02:43Z</time>
      </trkpt>
      <trkpt lat="48.36047" lon="2.82428">
        <ele>47</ele>
        <time>2015-03-07T09:02:50Z</time>
      </trkpt>
      <trkpt lat="48.3604" lon="2.82422">
        <ele>47</ele>
        <time>2015-03-07T09:02:55Z</time>
      </trkpt>
      <trkpt lat="48.36033" lon="2.82417">
        <ele>47</ele>
        <time>2015-03-07T09:03:00Z</time>
      </trkpt>
      <trkpt lat="48.36025" lon="2.82411">
        <ele>47</ele>
        <time>2015-03-07T09:03:05Z</time>
      </trkpt>
      <trkpt lat="48.36017" lon="2.82406">
        <ele>48</ele>
        <time>2015-03-07T09:03:09Z</time>
      </trkpt>
      <trkpt lat="48.36009" lon="2.82401">
        <ele>48</ele>
        <time>2015-03-07T09:03:14Z</time>
      </trkpt>
      <trkpt lat="48.36003" lon="2.82394">
        <ele>48</ele>
        <time>2015-03-07T09:03:19Z</time>
      </trkpt>
      <trkpt lat="48.35995" lon="2.82386">
        <ele>49</ele>
        <time>2015-03-07T09:03:25Z</time>
      </trkpt>
      <trkpt lat="48.35989" lon="2.82377">
        <ele>49</ele>
        <time>2015-03-07T09:03:31Z</time>
      </trkpt>
      <trkpt lat="48.35981" lon="2.82373">
        <ele>50</ele>
        <time>2015-03-07T09:03:36Z</time>
      </trkpt>
      <trkpt lat="48.35974" lon="2.82369">
        <ele>50</ele>
        <time>2015-03-07T09:03:41Z</time>
      </trkpt>
      <trkpt lat="48.35967" lon="2.82364">
        <ele>51</ele>
        <time>2015-03-07T09:03:47Z</time>
      </trkpt>
      <trkpt lat="48.35958" lon="2.82355">
        <ele>52</ele>
        <time>2015-03-07T09:03:52Z</time>
      </trkpt>
      <trkpt lat="48.35953" lon="2.82345">
        <ele>52</ele>
        <time>2015-03-07T09:03:56Z</time>
      </trkpt>
      <trkpt lat="48.35947" lon="2.82335">
        <ele>52</ele>
        <time>2015-03-07T09:04:02Z</time>
      </trkpt>
      <trkpt lat="48.35941" lon="2.82327">
        <ele>52</ele>
        <time>2015-03-07T09:04:07Z</time>
      </trkpt>
      <trkpt lat="48.35934" lon="2.8232">
        <ele>52</ele>
        <time>2015-03-07T09:04:11Z</time>
      </trkpt>
      <trkpt lat="48.35927" lon="2.82315">
        <ele>52</ele>
        <time>2015-03-07T09:04:17Z</time>
      </trkpt>
      <trkpt lat="48.35922" lon="2.82307">
        <ele>51</ele>
        <time>2015-03-07T09:04:32Z</time>
      </trkpt>
      <trkpt lat="48.35914" lon="2.82301">
        <ele>51</ele>
        <time>2015-03-07T09:04:37Z</time>
      </trkpt>
      <trkpt lat="48.35906" lon="2.82291">
        <ele>52</ele>
        <time>2015-03-07T09:04:42Z</time>
      </trkpt>
      <trkpt lat="48.359" lon="2.82283">
        <ele>53</ele>
        <time>2015-03-07T09:04:49Z</time>
      </trkpt>
      <trkpt lat="48.35893" lon="2.82276">
        <ele>53</ele>
        <time>2015-03-07T09:04:56Z</time>
      </trkpt>
      <trkpt lat="48.35886" lon="2.8227">
        <ele>53</ele>
        <time>2015-03-07T09:05:01Z</time>
      </trkpt>
      <trkpt lat="48.3588" lon="2.82263">
        <ele>53</ele>
        <time>2015-03-07T09:05:05Z</time>
      </trkpt>
      <trkpt lat="48.35873" lon="2.82256">
        <ele>52</ele>
        <time>2015-03-07T09:05:10Z</time>
      </trkpt>
      <trkpt lat="48.35865" lon="2.82248">
        <ele>52</ele>
        <time>2015-03-07T09:05:15Z</time>
      </trkpt>
      <trkpt lat="48.35859" lon="2.82242">
        <ele>51</ele>
        <time>2015-03-07T09:05:20Z</time>
      </trkpt>
      <trkpt lat="48.35851" lon="2.82235">
        <ele>51</ele>
        <time>2015-03-07T09:05:27Z</time>
      </trkpt>
      <trkpt lat="48.35846" lon="2.82227">
        <ele>51</ele>
        <time>2015-03-07T09:05:32Z</time>
      </trkpt>
      <trkpt lat="48.35839" lon="2.82213">
        <ele>51</ele>
        <time>2015-03-07T09:05:37Z</time>
      </trkpt>
      <trkpt lat="48.35832" lon="2.82207">
        <ele>50</ele>
        <time>2015-03-07T09:05:42Z</time>
      </trkpt>
      <trkpt lat="48.35826" lon="2.82201">
        <ele>50</ele>
        <time>2015-03-07T09:05:46Z</time>
      </trkpt>
      <trkpt lat="48.35819" lon="2.82196">
        <ele>50</ele>
        <time>2015-03-07T09:05:50Z</time>
      </trkpt>
      <trkpt lat="48.35811" lon="2.8219">
        <ele>50</ele>
        <time>2015-03-07T09:05:55Z</time>
      </trkpt>
      <trkpt lat="48.35804" lon="2.82184">
        <ele>50</ele>
        <time>2015-03-07T09:06:02Z</time>
      </trkpt>
      <trkpt lat="48.35797" lon="2.82177">
        <ele>51</ele>
        <time>2015-03-07T09:06:11Z</time>
      </trkpt>
      <trkpt lat="48.35791" lon="2.82168">
        <ele>51</ele>
        <time>2015-03-07T09:06:16Z</time>
      </trkpt>
      <trkpt lat="48.35786" lon="2.82159">
        <ele>51</ele>
        <time>2015-03-07T09:06:22Z</time>
      </trkpt>
      <trkpt lat="48.35779" lon="2.8215">
        <ele>50</ele>
        <time>2015-03-07T09:06:27Z</time>
      </trkpt>
      <trkpt lat="48.35772" lon="2.82142">
        <ele>49</ele>
        <time>2015-03-07T09:06:32Z</time>
      </trkpt>
      <trkpt lat="48.35765" lon="2.82135">
        <ele>49</ele>
        <time>2015-03-07T09:06:37Z</time>
      </trkpt>
      <trkpt lat="48.35756" lon="2.82129">
        <ele>49</ele>
        <time>2015-03-07T09:06:42Z</time>
      </trkpt>
      <trkpt lat="48.35749" lon="2.82122">
        <ele>49</ele>
        <time>2015-03-07T09:06:48Z</time>
      </trkpt>
      <trkpt lat="48.35742" lon="2.82112">
        <ele>49</ele>
        <time>2015-03-07T09:06:53Z</time>
      </trkpt>
      <trkpt lat="48.35736" lon="2.82106">
        <ele>49</ele>
        <time>2015-03-07T09:06:57Z</time>
      </trkpt>
      <trkpt lat="48.35729" lon="2.82099">
        <ele>50</ele>
        <time>2015-03-07T09:07:03Z</time>
      </trkpt>
      <trkpt lat="48.35721" lon="2.82092">
        <ele>50</ele>
        <time>2015-03-07T09:07:08Z</time>
      </trkpt>
      <trkpt lat="48.35715" lon="2.82086">
        <ele>50</ele>
        <time>2015-03-07T09:07:12Z</time>
      </trkpt>
      <trkpt lat="48.35707" lon="2.8208">
        <ele>51</ele>
        <time>2015-03-07T09:07:18Z</time>
      </trkpt>
      <trkpt lat="48.35701" lon="2.82073">
        <ele>52</ele>
        <time>2015-03-07T09:07:24Z</time>
      </trkpt>
      <trkpt lat="48.35695" lon="2.82065">
        <ele>52</ele>
        <time>2015-03-07T09:07:30Z</time>
      </trkpt>
      <trkpt lat="48.35688" lon="2.82058">
        <ele>52</ele>
        <time>2015-03-07T09:07:36Z</time>
      </trkpt>
      <trkpt lat="48.35682" lon="2.82051">
        <ele>51</ele>
        <time>2015-03-07T09:07:42Z</time>
      </trkpt>
      <trkpt lat="48.35675" lon="2.82044">
        <ele>51</ele>
        <time>2015-03-07T09:07:49Z</time>
      </trkpt>
      <trkpt lat="48.35668" lon="2.82039">
        <ele>51</ele>
        <time>2015-03-07T09:07:54Z</time>
      </trkpt>
      <trkpt lat="48.35661" lon="2.82031">
        <ele>50</ele>
        <time>2015-03-07T09:08:01Z</time>
      </trkpt>
      <trkpt lat="48.35655" lon="2.82023">
        <ele>50</ele>
        <time>2015-03-07T09:08:07Z</time>
      </trkpt>
      <trkpt lat="48.35649" lon="2.82013">
        <ele>49</ele>
        <time>2015-03-07T09:08:16Z</time>
      </trkpt>
      <trkpt lat="48.35641" lon="2.82007">
        <ele>48</ele>
        <time>2015-03-07T09:08:22Z</time>
      </trkpt>
      <trkpt lat="48.35635" lon="2.81999">
        <ele>47</ele>
        <time>2015-03-07T09:08:27Z</time>
      </trkpt>
      <trkpt lat="48.35626" lon="2.81989">
        <ele>47</ele>
        <time>2015-03-07T09:08:32Z</time>
      </trkpt>
      <trkpt lat="48.35619" lon="2.81985">
        <ele>47</ele>
        <time>2015-03-07T09:08:41Z</time>
      </trkpt>
      <trkpt lat="48.35609" lon="2.81974">
        <ele>46</ele>
        <time>2015-03-07T09:08:46Z</time>
      </trkpt>
      <trkpt lat="48.35604" lon="2.81966">
        <ele>46</ele>
        <time>2015-03-07T09:08:50Z</time>
      </trkpt>
      <trkpt lat="48.35599" lon="2.81957">
        <ele>46</ele>
        <time>2015-03-07T09:08:54Z</time>
      </trkpt>
      <trkpt lat="48.35594" lon="2.81949">
        <ele>46</ele>
        <time>2015-03-07T09:09:00Z</time>
      </trkpt>
      <trkpt lat="48.35587" lon="2.81942">
        <ele>45</ele>
        <time>2015-03-07T09:09:05Z</time>
      </trkpt>
      <trkpt lat="48.35581" lon="2.81935">
        <ele>45</ele>
        <time>2015-03-07T09:09:11Z</time>
      </trkpt>
      <trkpt lat="48.35574" lon="2.81927">
        <ele>45</ele>
        <time>2015-03-07T09:09:17Z</time>
      </trkpt>
      <trkpt lat="48.35568" lon="2.81917">
        <ele>45</ele>
        <time>2015-03-07T09:09:21Z</time>
      </trkpt>
      <trkpt lat="48.35562" lon="2.81908">
        <ele>45</ele>
        <time>2015-03-07T09:09:25Z</time>
      </trkpt>
      <trkpt lat="48.35556" lon="2.81899">
        <ele>45</ele>
        <time>2015-03-07T09:09:30Z</time>
      </trkpt>
      <trkpt lat="48.35549" lon="2.81891">
        <ele>45</ele>
        <time>2015-03-07T09:09:37Z</time>
      </trkpt>
      <trkpt lat="48.35544" lon="2.81881">
        <ele>44</ele>
        <time>2015-03-07T09:09:43Z</time>
      </trkpt>
      <trkpt lat="48.35538" lon="2.81869">
        <ele>44</ele>
        <time>2015-03-07T09:09:47Z</time>
      </trkpt>
      <trkpt lat="48.35534" lon="2.8186">
        <ele>45</ele>
        <time>2015-03-07T09:09:51Z</time>
      </trkpt>
      <trkpt lat="48.35528" lon="2.81851">
        <ele>45</ele>
        <time>2015-03-07T09:09:56Z</time>
      </trkpt>
      <trkpt lat="48.35523" lon="2.8184">
        <ele>46</ele>
        <time>2015-03-07T09:10:06Z</time>
      </trkpt>
      <trkpt lat="48.35517" lon="2.81831">
        <ele>46</ele>
        <time>2015-03-07T09:10:10Z</time>
      </trkpt>
      <trkpt lat="48.35509" lon="2.81827">
        <ele>47</ele>
        <time>2015-03-07T09:10:16Z</time>
      </trkpt>
      <trkpt lat="48.35502" lon="2.81818">
        <ele>48</ele>
        <time>2015-03-07T09:10:23Z</time>
      </trkpt>
      <trkpt lat="48.35498" lon="2.81808">
        <ele>50</ele>
        <time>2015-03-07T09:10:33Z</time>
      </trkpt>
      <trkpt lat="48.35492" lon="2.81801">
        <ele>51</ele>
        <time>2015-03-07T09:10:42Z</time>
      </trkpt>
      <trkpt lat="48.35486" lon="2.81792">
        <ele>52</ele>
        <time>2015-03-07T09:10:46Z</time>
      </trkpt>
      <trkpt lat="48.3548" lon="2.81783">
        <ele>52</ele>
        <time>2015-03-07T09:10:52Z</time>
      </trkpt>
      <trkpt lat="48.35475" lon="2.81773">
        <ele>51</ele>
        <time>2015-03-07T09:10:57Z</time>
      </trkpt>
      <trkpt lat="48.35468" lon="2.81763">
        <ele>51</ele>
        <time>2015-03-07T09:11:03Z</time>
      </trkpt>
      <trkpt lat="48.35461" lon="2.81751">
        <ele>50</ele>
        <time>2015-03-07T09:11:08Z</time>
      </trkpt>
      <trkpt lat="48.35457" lon="2.81743">
        <ele>50</ele>
        <time>2015-03-07T09:11:12Z</time>
      </trkpt>
      <trkpt lat="48.35449" lon="2.81727">
        <ele>50</ele>
        <time>2015-03-07T09:11:17Z</time>
      </trkpt>
      <trkpt lat="48.35443" lon="2.81716">
        <ele>50</ele>
        <time>2015-03-07T09:11:21Z</time>
      </trkpt>
      <trkpt lat="48.35437" lon="2.81708">
        <ele>50</ele>
        <time>2015-03-07T09:11:26Z</time>
      </trkpt>
      <trkpt lat="48.3543" lon="2.817">
        <ele>50</ele>
        <time>2015-03-07T09:11:31Z</time>
      </trkpt>
      <trkpt lat="48.35424" lon="2.81691">
        <ele>50</ele>
        <time>2015-03-07T09:11:39Z</time>
      </trkpt>
      <trkpt lat="48.3542" lon="2.8168">
        <ele>51</ele>
        <time>2015-03-07T09:11:46Z</time>
      </trkpt>
      <trkpt lat="48.35414" lon="2.81672">
        <ele>51</ele>
        <time>2015-03-07T09:11:51Z</time>
      </trkpt>
      <trkpt lat="48.35409" lon="2.81665">
        <ele>51</ele>
        <time>2015-03-07T09:11:57Z</time>
      </trkpt>
      <trkpt lat="48.35401" lon="2.8166">
        <ele>51</ele>
        <time>2015-03-07T09:12:04Z</time>
      </trkpt>
      <trkpt lat="48.35394" lon="2.81653">
        <ele>51</ele>
        <time>2015-03-07T09:12:10Z</time>
      </trkpt>
      <trkpt lat="48.35388" lon="2.81638">
        <ele>51</ele>
        <time>2015-03-07T09:12:15Z</time>
      </trkpt>
      <trkpt lat="48.35382" lon="2.81626">
        <ele>51</ele>
        <time>2015-03-07T09:12:19Z</time>
      </trkpt>
      <trkpt lat="48.35376" lon="2.81615">
        <ele>51</ele>
        <time>2015-03-07T09:12:23Z</time>
      </trkpt>
      <trkpt lat="48.35366" lon="2.81599">
        <ele>51</ele>
        <time>2015-03-07T09:12:28Z</time>
      </trkpt>
      <trkpt lat="48.35361" lon="2.81589">
        <ele>51</ele>
        <time>2015-03-07T09:12:33Z</time>
      </trkpt>
      <trkpt lat="48.35357" lon="2.81579">
        <ele>52</ele>
        <time>2015-03-07T09:12:38Z</time>
      </trkpt>
      <trkpt lat="48.35351" lon="2.8157">
        <ele>52</ele>
        <time>2015-03-07T09:12:44Z</time>
      </trkpt>
      <trkpt lat="48.35347" lon="2.81562">
        <ele>52</ele>
        <time>2015-03-07T09:12:49Z</time>
      </trkpt>
      <trkpt lat="48.35342" lon="2.81551">
        <ele>52</ele>
        <time>2015-03-07T09:12:55Z</time>
      </trkpt>
      <trkpt lat="48.35338" lon="2.8154">
        <ele>53</ele>
        <time>2015-03-07T09:13:02Z</time>
      </trkpt>
      <trkpt lat="48.35332" lon="2.81531">
        <ele>54</ele>
        <time>2015-03-07T09:13:08Z</time>
      </trkpt>
      <trkpt lat="48.35326" lon="2.81522">
        <ele>54</ele>
        <time>2015-03-07T09:13:13Z</time>
      </trkpt>
      <trkpt lat="48.35321" lon="2.81513">
        <ele>55</ele>
        <time>2015-03-07T09:13:18Z</time>
      </trkpt>
      <trkpt lat="48.35315" lon="2.81504">
        <ele>55</ele>
        <time>2015-03-07T09:13:22Z</time>
      </trkpt>
      <trkpt lat="48.35309" lon="2.81496">
        <ele>55</ele>
        <time>2015-03-07T09:13:28Z</time>
      </trkpt>
      <trkpt lat="48.35304" lon="2.81486">
        <ele>55</ele>
        <time>2015-03-07T09:13:34Z</time>
      </trkpt>
      <trkpt lat="48.35299" lon="2.81475">
        <ele>56</ele>
        <time>2015-03-07T09:13:41Z</time>
      </trkpt>
      <trkpt lat="48.35295" lon="2.81465">
        <ele>56</ele>
        <time>2015-03-07T09:13:47Z</time>
      </trkpt>
      <trkpt lat="48.3529" lon="2.81454">
        <ele>56</ele>
        <time>2015-03-07T09:13:54Z</time>
      </trkpt>
      <trkpt lat="48.35283" lon="2.81446">
        <ele>56</ele>
        <time>2015-03-07T09:13:59Z</time>
      </trkpt>
      <trkpt lat="48.35278" lon="2.81439">
        <ele>57</ele>
        <time>2015-03-07T09:14:03Z</time>
      </trkpt>
      <trkpt lat="48.35272" lon="2.81431">
        <ele>57</ele>
        <time>2015-03-07T09:14:09Z</time>
      </trkpt>
      <trkpt lat="48.35266" lon="2.81421">
        <ele>58</ele>
        <time>2015-03-07T09:14:14Z</time>
      </trkpt>
      <trkpt lat="48.35262" lon="2.81413">
        <ele>59</ele>
        <time>2015-03-07T09:14:19Z</time>
      </trkpt>
      <trkpt lat="48.35255" lon="2.81401">
        <ele>60</ele>
        <time>2015-03-07T09:14:24Z</time>
      </trkpt>
      <trkpt lat="48.35251" lon="2.8139">
        <ele>60</ele>
        <time>2015-03-07T09:14:29Z</time>
      </trkpt>
      <trkpt lat="48.35243" lon="2.81383">
        <ele>60</ele>
        <time>2015-03-07T09:14:35Z</time>
      </trkpt>
      <trkpt lat="48.35238" lon="2.81373">
        <ele>61</ele>
        <time>2015-03-07T09:14:42Z</time>
      </trkpt>
      <trkpt lat="48.35232" lon="2.81362">
        <ele>61</ele>
        <time>2015-03-07T09:14:47Z</time>
      </trkpt>
      <trkpt lat="48.35227" lon="2.81353">
        <ele>60</ele>
        <time>2015-03-07T09:14:52Z</time>
      </trkpt>
      <trkpt lat="48.35221" lon="2.81343">
        <ele>60</ele>
        <time>2015-03-07T09:14:58Z</time>
      </trkpt>
      <trkpt lat="48.35217" lon="2.81332">
        <ele>61</ele>
        <time>2015-03-07T09:15:03Z</time>
      </trkpt>
      <trkpt lat="48.35213" lon="2.81322">
        <ele>61</ele>
        <time>2015-03-07T09:15:08Z</time>
      </trkpt>
      <trkpt lat="48.35209" lon="2.81311">
        <ele>62</ele>
        <time>2015-03-07T09:15:14Z</time>
      </trkpt>
      <trkpt lat="48.35204" lon="2.81301">
        <ele>62</ele>
        <time>2015-03-07T09:15:20Z</time>
      </trkpt>
      <trkpt lat="48.35201" lon="2.81288">
        <ele>63</ele>
        <time>2015-03-07T09:15:27Z</time>
      </trkpt>
      <trkpt lat="48.35201" lon="2.81276">
        <ele>64</ele>
        <time>2015-03-07T09:15:33Z</time>
      </trkpt>
      <trkpt lat="48.35196" lon="2.81265">
        <ele>64</ele>
        <time>2015-03-07T09:15:38Z</time>
      </trkpt>
      <trkpt lat="48.3519" lon="2.81255">
        <ele>65</ele>
        <time>2015-03-07T09:15:43Z</time>
      </trkpt>
      <trkpt lat="48.35186" lon="2.81243">
        <ele>65</ele>
        <time>2015-03-07T09:15:48Z</time>
      </trkpt>
      <trkpt lat="48.35181" lon="2.81233">
        <ele>65</ele>
        <time>2015-03-07T09:15:53Z</time>
      </trkpt>
      <trkpt lat="48.35176" lon="2.81223">
        <ele>65</ele>
        <time>2015-03-07T09:15:59Z</time>
      </trkpt>
      <trkpt lat="48.35173" lon="2.81211">
        <ele>65</ele>
        <time>2015-03-07T09:16:05Z</time>
      </trkpt>
      <trkpt lat="48.35167" lon="2.812">
        <ele>66</ele>
        <time>2015-03-07T09:16:11Z</time>
      </trkpt>
      <trkpt lat="48.35162" lon="2.8119">
        <ele>66</ele>
        <time>2015-03-07T09:16:16Z</time>
      </trkpt>
      <trkpt lat="48.35157" lon="2.81178">
        <ele>66</ele>
        <time>2015-03-07T09:16:21Z</time>
      </trkpt>
      <trkpt lat="48.35152" lon="2.81169">
        <ele>66</ele>
        <time>2015-03-07T09:16:25Z</time>
      </trkpt>
      <trkpt lat="48.35147" lon="2.81158">
        <ele>65</ele>
        <time>2015-03-07T09:16:31Z</time>
      </trkpt>
      <trkpt lat="48.35141" lon="2.81148">
        <ele>64</ele>
        <time>2015-03-07T09:16:38Z</time>
      </trkpt>
      <trkpt lat="48.35136" lon="2.81139">
        <ele>63</ele>
        <time>2015-03-07T09:16:43Z</time>
      </trkpt>
      <trkpt lat="48.3513" lon="2.81128">
        <ele>62</ele>
        <time>2015-03-07T09:16:48Z</time>
      </trkpt>
      <trkpt lat="48.35125" lon="2.81121">
        <ele>61</ele>
        <time>2015-03-07T09:16:53Z</time>
      </trkpt>
      <trkpt lat="48.35123" lon="2.81118">
        <ele>61</ele>
        <time>2015-03-07T09:16:55Z</time>
      </trkpt>
      <trkpt lat="48.35123" lon="2.81118">
        <ele>61</ele>
        <time>2015-03-07T09:16:55Z</time>
      </trkpt>
      <trkpt lat="48.351" lon="2.81084">
        <ele>104</ele>
        <time>2015-03-07T09:18:08Z</time>
      </trkpt>
      <trkpt lat="48.35106" lon="2.8108">
        <ele>55</ele>
        <time>2015-03-07T09:18:28Z</time>
      </trkpt>
      <trkpt lat="48.35102" lon="2.81057">
        <ele>49</ele>
        <time>2015-03-07T09:18:33Z</time>
      </trkpt>
      <trkpt lat="48.35097" lon="2.81049">
        <ele>46</ele>
        <time>2015-03-07T09:19:06Z</time>
      </trkpt>
      <trkpt lat="48.35078" lon="2.8105">
        <ele>46</ele>
        <time>2015-03-07T09:19:11Z</time>
      </trkpt>
      <trkpt lat="48.3507" lon="2.81054">
        <ele>47</ele>
        <time>2015-03-07T09:19:16Z</time>
      </trkpt>
      <trkpt lat="48.35076" lon="2.81063">
        <ele>47</ele>
        <time>2015-03-07T09:19:26Z</time>
      </trkpt>
      <trkpt lat="48.35082" lon="2.81072">
        <ele>47</ele>
        <time>2015-03-07T09:19:30Z</time>
      </trkpt>
      <trkpt lat="48.35088" lon="2.81086">
        <ele>47</ele>
        <time>2015-03-07T09:19:35Z</time>
      </trkpt>
      <trkpt lat="48.35091" lon="2.81098">
        <ele>48</ele>
        <time>2015-03-07T09:19:40Z</time>
      </trkpt>
      <trkpt lat="48.35095" lon="2.81107">
        <ele>48</ele>
        <time>2015-03-07T09:19:45Z</time>
      </trkpt>
      <trkpt lat="48.351" lon="2.81117">
        <ele>48</ele>
        <time>2015-03-07T09:19:50Z</time>
      </trkpt>
      <trkpt lat="48.351" lon="2.8113">
        <ele>48</ele>
        <time>2015-03-07T09:19:56Z</time>
      </trkpt>
      <trkpt lat="48.35103" lon="2.8114">
        <ele>48</ele>
        <time>2015-03-07T09:20:03Z</time>
      </trkpt>
      <trkpt lat="48.35107" lon="2.81154">
        <ele>48</ele>
        <time>2015-03-07T09:20:08Z</time>
      </trkpt>
      <trkpt lat="48.35111" lon="2.81163">
        <ele>47</ele>
        <time>2015-03-07T09:20:13Z</time>
      </trkpt>
      <trkpt lat="48.35114" lon="2.81175">
        <ele>47</ele>
        <time>2015-03-07T09:20:18Z</time>
      </trkpt>
      <trkpt lat="48.35119" lon="2.81186">
        <ele>47</ele>
        <time>2015-03-07T09:20:23Z</time>
      </trkpt>
      <trkpt lat="48.35123" lon="2.81196">
        <ele>47</ele>
        <time>2015-03-07T09:20:27Z</time>
      </trkpt>
      <trkpt lat="48.35128" lon="2.81205">
        <ele>47</ele>
        <time>2015-03-07T09:20:32Z</time>
      </trkpt>
      <trkpt lat="48.35132" lon="2.81217">
        <ele>47</ele>
        <time>2015-03-07T09:20:38Z</time>
      </trkpt>
      <trkpt lat="48.35137" lon="2.81228">
        <ele>47</ele>
        <time>2015-03-07T09:20:43Z</time>
      </trkpt>
      <trkpt lat="48.35142" lon="2.81237">
        <ele>47</ele>
        <time>2015-03-07T09:20:47Z</time>
      </trkpt>
      <trkpt lat="48.35146" lon="2.81248">
        <ele>47</ele>
        <time>2015-03-07T09:20:55Z</time>
      </trkpt>
      <trkpt lat="48.35149" lon="2.81257">
        <ele>48</ele>
        <time>2015-03-07T09:21:00Z</time>
      </trkpt>
      <trkpt lat="48.35152" lon="2.81271">
        <ele>48</ele>
        <time>2015-03-07T09:21:05Z</time>
      </trkpt>
      <trkpt lat="48.35156" lon="2.81282">
        <ele>48</ele>
        <time>2015-03-07T09:21:10Z</time>
      </trkpt>
      <trkpt lat="48.3516" lon="2.81292">
        <ele>48</ele>
        <time>2015-03-07T09:21:14Z</time>
      </trkpt>
      <trkpt lat="48.35165" lon="2.81301">
        <ele>48</ele>
        <time>2015-03-07T09:21:19Z</time>
      </trkpt>
      <trkpt lat="48.35169" lon="2.81309">
        <ele>48</ele>
        <time>2015-03-07T09:21:24Z</time>
      </trkpt>
      <trkpt lat="48.35176" lon="2.81319">
        <ele>47</ele>
        <time>2015-03-07T09:21:29Z</time>
      </trkpt>
      <trkpt lat="48.35181" lon="2.8133">
        <ele>47</ele>
        <time>2015-03-07T09:21:35Z</time>
      </trkpt>
      <trkpt lat="48.35186" lon="2.81341">
        <ele>47</ele>
        <time>2015-03-07T09:21:40Z</time>
      </trkpt>
      <trkpt lat="48.3519" lon="2.8135">
        <ele>46</ele>
        <time>2015-03-07T09:21:45Z</time>
      </trkpt>
      <trkpt lat="48.35194" lon="2.81359">
        <ele>47</ele>
        <time>2015-03-07T09:21:50Z</time>
      </trkpt>
      <trkpt lat="48.35199" lon="2.81369">
        <ele>47</ele>
        <time>2015-03-07T09:21:56Z</time>
      </trkpt>
      <trkpt lat="48.35205" lon="2.81379">
        <ele>46</ele>
        <time>2015-03-07T09:22:03Z</time>
      </trkpt>
      <trkpt lat="48.35209" lon="2.81389">
        <ele>46</ele>
        <time>2015-03-07T09:22:09Z</time>
      </trkpt>
      <trkpt lat="48.35214" lon="2.81399">
        <ele>46</ele>
        <time>2015-03-07T09:22:15Z</time>
      </trkpt>
      <trkpt lat="48.35219" lon="2.8141">
        <ele>46</ele>
        <time>2015-03-07T09:22:22Z</time>
      </trkpt>
      <trkpt lat="48.35224" lon="2.8142">
        <ele>46</ele>
        <time>2015-03-07T09:22:27Z</time>
      </trkpt>
      <trkpt lat="48.3523" lon="2.8143">
        <ele>47</ele>
        <time>2015-03-07T09:22:34Z</time>
      </trkpt>
      <trkpt lat="48.35235" lon="2.8144">
        <ele>47</ele>
        <time>2015-03-07T09:22:39Z</time>
      </trkpt>
      <trkpt lat="48.35242" lon="2.8145">
        <ele>47</ele>
        <time>2015-03-07T09:22:44Z</time>
      </trkpt>
      <trkpt lat="48.35248" lon="2.81457">
        <ele>47</ele>
        <time>2015-03-07T09:22:49Z</time>
      </trkpt>
      <trkpt lat="48.35254" lon="2.81467">
        <ele>48</ele>
        <time>2015-03-07T09:22:55Z</time>
      </trkpt>
      <trkpt lat="48.3526" lon="2.81476">
        <ele>48</ele>
        <time>2015-03-07T09:23:01Z</time>
      </trkpt>
      <trkpt lat="48.35267" lon="2.81484">
        <ele>48</ele>
        <time>2015-03-07T09:23:06Z</time>
      </trkpt>
      <trkpt lat="48.35271" lon="2.81493">
        <ele>47</ele>
        <time>2015-03-07T09:23:12Z</time>
      </trkpt>
      <trkpt lat="48.35276" lon="2.81502">
        <ele>47</ele>
        <time>2015-03-07T09:23:17Z</time>
      </trkpt>
      <trkpt lat="48.35281" lon="2.81512">
        <ele>47</ele>
        <time>2015-03-07T09:23:24Z</time>
      </trkpt>
      <trkpt lat="48.35286" lon="2.81521">
        <ele>47</ele>
        <time>2015-03-07T09:23:31Z</time>
      </trkpt>
      <trkpt lat="48.35291" lon="2.81532">
        <ele>48</ele>
        <time>2015-03-07T09:23:36Z</time>
      </trkpt>
      <trkpt lat="48.35296" lon="2.81543">
        <ele>48</ele>
        <time>2015-03-07T09:23:41Z</time>
      </trkpt>
      <trkpt lat="48.35302" lon="2.81552">
        <ele>49</ele>
        <time>2015-03-07T09:23:46Z</time>
      </trkpt>
      <trkpt lat="48.35308" lon="2.8156">
        <ele>49</ele>
        <time>2015-03-07T09:23:51Z</time>
      </trkpt>
      <trkpt lat="48.35314" lon="2.81569">
        <ele>50</ele>
        <time>2015-03-07T09:23:56Z</time>
      </trkpt>
      <trkpt lat="48.3532" lon="2.81577">
        <ele>50</ele>
        <time>2015-03-07T09:24:01Z</time>
      </trkpt>
      <trkpt lat="48.35326" lon="2.81585">
        <ele>50</ele>
        <time>2015-03-07T09:24:06Z</time>
      </trkpt>
      <trkpt lat="48.35332" lon="2.81595">
        <ele>50</ele>
        <time>2015-03-07T09:24:12Z</time>
      </trkpt>
      <trkpt lat="48.35337" lon="2.81604">
        <ele>50</ele>
        <time>2015-03-07T09:24:18Z</time>
      </trkpt>
      <trkpt lat="48.35341" lon="2.81616">
        <ele>50</ele>
        <time>2015-03-07T09:24:24Z</time>
      </trkpt>
      <trkpt lat="48.35346" lon="2.81627">
        <ele>50</ele>
        <time>2015-03-07T09:24:29Z</time>
      </trkpt>
      <trkpt lat="48.35352" lon="2.81636">
        <ele>50</ele>
        <time>2015-03-07T09:24:34Z</time>
      </trkpt>
      <trkpt lat="48.35357" lon="2.81647">
        <ele>49</ele>
        <time>2015-03-07T09:24:39Z</time>
      </trkpt>
      <trkpt lat="48.35361" lon="2.81657">
        <ele>49</ele>
        <time>2015-03-07T09:24:51Z</time>
      </trkpt>
      <trkpt lat="48.35368" lon="2.81663">
        <ele>48</ele>
        <time>2015-03-07T09:24:56Z</time>
      </trkpt>
      <trkpt lat="48.35377" lon="2.81669">
        <ele>48</ele>
        <time>2015-03-07T09:25:01Z</time>
      </trkpt>
      <trkpt lat="48.35376" lon="2.81683">
        <ele>47</ele>
        <time>2015-03-07T09:25:26Z</time>
      </trkpt>
      <trkpt lat="48.35379" lon="2.81693">
        <ele>43</ele>
        <time>2015-03-07T09:25:40Z</time>
      </trkpt>
      <trkpt lat="48.35384" lon="2.81702">
        <ele>42</ele>
        <time>2015-03-07T09:25:45Z</time>
      </trkpt>
      <trkpt lat="48.35392" lon="2.81708">
        <ele>41</ele>
        <time>2015-03-07T09:25:51Z</time>
      </trkpt>
      <trkpt lat="48.35398" lon="2.81718">
        <ele>40</ele>
        <time>2015-03-07T09:25:57Z</time>
      </trkpt>
      <trkpt lat="48.35403" lon="2.81726">
        <ele>40</ele>
        <time>2015-03-07T09:26:02Z</time>
      </trkpt>
      <trkpt lat="48.35406" lon="2.81739">
        <ele>40</ele>
        <time>2015-03-07T09:26:08Z</time>
      </trkpt>
      <trkpt lat="48.35405" lon="2.8175">
        <ele>41</ele>
        <time>2015-03-07T09:26:17Z</time>
      </trkpt>
      <trkpt lat="48.354" lon="2.81761">
        <ele>42</ele>
        <time>2015-03-07T09:26:25Z</time>
      </trkpt>
      <trkpt lat="48.35395" lon="2.81769">
        <ele>42</ele>
        <time>2015-03-07T09:26:30Z</time>
      </trkpt>
      <trkpt lat="48.35391" lon="2.81783">
        <ele>42</ele>
        <time>2015-03-07T09:26:35Z</time>
      </trkpt>
      <trkpt lat="48.35388" lon="2.81795">
        <ele>42</ele>
        <time>2015-03-07T09:26:42Z</time>
      </trkpt>
      <trkpt lat="48.35386" lon="2.81808">
        <ele>42</ele>
        <time>2015-03-07T09:26:46Z</time>
      </trkpt>
      <trkpt lat="48.35383" lon="2.81819">
        <ele>42</ele>
        <time>2015-03-07T09:26:51Z</time>
      </trkpt>
      <trkpt lat="48.35379" lon="2.81831">
        <ele>42</ele>
        <time>2015-03-07T09:26:57Z</time>
      </trkpt>
      <trkpt lat="48.35376" lon="2.81843">
        <ele>40</ele>
        <time>2015-03-07T09:27:04Z</time>
      </trkpt>
      <trkpt lat="48.35373" lon="2.81854">
        <ele>40</ele>
        <time>2015-03-07T09:27:09Z</time>
      </trkpt>
      <trkpt lat="48.35371" lon="2.81866">
        <ele>40</ele>
        <time>2015-03-07T09:27:15Z</time>
      </trkpt>
      <trkpt lat="48.35366" lon="2.81875">
        <ele>41</ele>
        <time>2015-03-07T09:27:20Z</time>
      </trkpt>
      <trkpt lat="48.3536" lon="2.81884">
        <ele>41</ele>
        <time>2015-03-07T09:27:26Z</time>
      </trkpt>
      <trkpt lat="48.35354" lon="2.81893">
        <ele>41</ele>
        <time>2015-03-07T09:27:31Z</time>
      </trkpt>
      <trkpt lat="48.35349" lon="2.81904">
        <ele>42</ele>
        <time>2015-03-07T09:27:37Z</time>
      </trkpt>
      <trkpt lat="48.35343" lon="2.81911">
        <ele>42</ele>
        <time>2015-03-07T09:27:42Z</time>
      </trkpt>
      <trkpt lat="48.35335" lon="2.81914">
        <ele>43</ele>
        <time>2015-03-07T09:27:48Z</time>
      </trkpt>
      <trkpt lat="48.35331" lon="2.81925">
        <ele>44</ele>
        <time>2015-03-07T09:27:56Z</time>
      </trkpt>
      <trkpt lat="48.35336" lon="2.81936">
        <ele>44</ele>
        <time>2015-03-07T09:28:02Z</time>
      </trkpt>
      <trkpt lat="48.35339" lon="2.81948">
        <ele>45</ele>
        <time>2015-03-07T09:28:08Z</time>
      </trkpt>
      <trkpt lat="48.35341" lon="2.81961">
        <ele>45</ele>
        <time>2015-03-07T09:28:14Z</time>
      </trkpt>
      <trkpt lat="48.35335" lon="2.8197">
        <ele>45</ele>
        <time>2015-03-07T09:28:19Z</time>
      </trkpt>
      <trkpt lat="48.35331" lon="2.81982">
        <ele>45</ele>
        <time>2015-03-07T09:28:25Z</time>
      </trkpt>
      <trkpt lat="48.35329" lon="2.81995">
        <ele>46</ele>
        <time>2015-03-07T09:28:31Z</time>
      </trkpt>
      <trkpt lat="48.35329" lon="2.82006">
        <ele>47</ele>
        <time>2015-03-07T09:28:37Z</time>
      </trkpt>
      <trkpt lat="48.35327" lon="2.82018">
        <ele>48</ele>
        <time>2015-03-07T09:28:44Z</time>
      </trkpt>
      <trkpt lat="48.35324" lon="2.82027">
        <ele>48</ele>
        <time>2015-03-07T09:28:48Z</time>
      </trkpt>
      <trkpt lat="48.35313" lon="2.82036">
        <ele>49</ele>
        <time>2015-03-07T09:28:53Z</time>
      </trkpt>
      <trkpt lat="48.35305" lon="2.82035">
        <ele>49</ele>
        <time>2015-03-07T09:28:58Z</time>
      </trkpt>
      <trkpt lat="48.35298" lon="2.82027">
        <ele>52</ele>
        <time>2015-03-07T09:29:08Z</time>
      </trkpt>
      <trkpt lat="48.3529" lon="2.82023">
        <ele>53</ele>
        <time>2015-03-07T09:29:13Z</time>
      </trkpt>
      <trkpt lat="48.35282" lon="2.82017">
        <ele>54</ele>
        <time>2015-03-07T09:29:20Z</time>
      </trkpt>
      <trkpt lat="48.35276" lon="2.82009">
        <ele>55</ele>
        <time>2015-03-07T09:29:26Z</time>
      </trkpt>
      <trkpt lat="48.35268" lon="2.82003">
        <ele>57</ele>
        <time>2015-03-07T09:29:33Z</time>
      </trkpt>
      <trkpt lat="48.35262" lon="2.81994">
        <ele>58</ele>
        <time>2015-03-07T09:29:38Z</time>
      </trkpt>
      <trkpt lat="48.35256" lon="2.81985">
        <ele>59</ele>
        <time>2015-03-07T09:29:43Z</time>
      </trkpt>
      <trkpt lat="48.35249" lon="2.81979">
        <ele>60</ele>
        <time>2015-03-07T09:29:49Z</time>
      </trkpt>
      <trkpt lat="48.35243" lon="2.81974">
        <ele>61</ele>
        <time>2015-03-07T09:29:53Z</time>
      </trkpt>
      <trkpt lat="48.35235" lon="2.81976">
        <ele>61</ele>
        <time>2015-03-07T09:29:58Z</time>
      </trkpt>
      <trkpt lat="48.35232" lon="2.81988">
        <ele>62</ele>
        <time>2015-03-07T09:30:04Z</time>
      </trkpt>
      <trkpt lat="48.35227" lon="2.82">
        <ele>63</ele>
        <time>2015-03-07T09:30:10Z</time>
      </trkpt>
      <trkpt lat="48.35224" lon="2.82013">
        <ele>64</ele>
        <time>2015-03-07T09:30:15Z</time>
      </trkpt>
      <trkpt lat="48.35221" lon="2.82023">
        <ele>64</ele>
        <time>2015-03-07T09:30:19Z</time>
      </trkpt>
      <trkpt lat="48.3522" lon="2.82035">
        <ele>65</ele>
        <time>2015-03-07T09:30:24Z</time>
      </trkpt>
      <trkpt lat="48.35218" lon="2.82047">
        <ele>66</ele>
        <time>2015-03-07T09:30:30Z</time>
      </trkpt>
      <trkpt lat="48.35215" lon="2.82059">
        <ele>67</ele>
        <time>2015-03-07T09:30:36Z</time>
      </trkpt>
      <trkpt lat="48.35211" lon="2.82069">
        <ele>68</ele>
        <time>2015-03-07T09:30:41Z</time>
      </trkpt>
      <trkpt lat="48.35208" lon="2.82081">
        <ele>68</ele>
        <time>2015-03-07T09:30:46Z</time>
      </trkpt>
      <trkpt lat="48.35205" lon="2.82091">
        <ele>69</ele>
        <time>2015-03-07T09:30:51Z</time>
      </trkpt>
      <trkpt lat="48.352" lon="2.82103">
        <ele>69</ele>
        <time>2015-03-07T09:30:56Z</time>
      </trkpt>
      <trkpt lat="48.35194" lon="2.82112">
        <ele>70</ele>
        <time>2015-03-07T09:31:02Z</time>
      </trkpt>
      <trkpt lat="48.35187" lon="2.82119">
        <ele>70</ele>
        <time>2015-03-07T09:31:08Z</time>
      </trkpt>
      <trkpt lat="48.3518" lon="2.82126">
        <ele>70</ele>
        <time>2015-03-07T09:31:14Z</time>
      </trkpt>
      <trkpt lat="48.35173" lon="2.82133">
        <ele>71</ele>
        <time>2015-03-07T09:31:20Z</time>
      </trkpt>
      <trkpt lat="48.35166" lon="2.82137">
        <ele>71</ele>
        <time>2015-03-07T09:31:26Z</time>
      </trkpt>
      <trkpt lat="48.35156" lon="2.82141">
        <ele>71</ele>
        <time>2015-03-07T09:31:31Z</time>
      </trkpt>
      <trkpt lat="48.35148" lon="2.82141">
        <ele>71</ele>
        <time>2015-03-07T09:31:36Z</time>
      </trkpt>
      <trkpt lat="48.3514" lon="2.82143">
        <ele>71</ele>
        <time>2015-03-07T09:31:41Z</time>
      </trkpt>
      <trkpt lat="48.35133" lon="2.82148">
        <ele>72</ele>
        <time>2015-03-07T09:31:46Z</time>
      </trkpt>
      <trkpt lat="48.35125" lon="2.82151">
        <ele>72</ele>
        <time>2015-03-07T09:31:51Z</time>
      </trkpt>
      <trkpt lat="48.35116" lon="2.82154">
        <ele>72</ele>
        <time>2015-03-07T09:31:57Z</time>
      </trkpt>
      <trkpt lat="48.35109" lon="2.82156">
        <ele>72</ele>
        <time>2015-03-07T09:32:03Z</time>
      </trkpt>
      <trkpt lat="48.351" lon="2.82159">
        <ele>72</ele>
        <time>2015-03-07T09:32:08Z</time>
      </trkpt>
      <trkpt lat="48.35092" lon="2.82163">
        <ele>72</ele>
        <time>2015-03-07T09:32:14Z</time>
      </trkpt>
      <trkpt lat="48.35085" lon="2.82167">
        <ele>73</ele>
        <time>2015-03-07T09:32:19Z</time>
      </trkpt>
      <trkpt lat="48.35076" lon="2.82172">
        <ele>73</ele>
        <time>2015-03-07T09:32:25Z</time>
      </trkpt>
      <trkpt lat="48.35068" lon="2.82176">
        <ele>73</ele>
        <time>2015-03-07T09:32:31Z</time>
      </trkpt>
      <trkpt lat="48.35061" lon="2.82182">
        <ele>73</ele>
        <time>2015-03-07T09:32:37Z</time>
      </trkpt>
      <trkpt lat="48.35052" lon="2.82188">
        <ele>72</ele>
        <time>2015-03-07T09:32:43Z</time>
      </trkpt>
      <trkpt lat="48.35045" lon="2.82194">
        <ele>71</ele>
        <time>2015-03-07T09:32:49Z</time>
      </trkpt>
      <trkpt lat="48.35037" lon="2.822">
        <ele>71</ele>
        <time>2015-03-07T09:32:54Z</time>
      </trkpt>
      <trkpt lat="48.3503" lon="2.82205">
        <ele>71</ele>
        <time>2015-03-07T09:32:59Z</time>
      </trkpt>
      <trkpt lat="48.35024" lon="2.82211">
        <ele>71</ele>
        <time>2015-03-07T09:33:04Z</time>
      </trkpt>
      <trkpt lat="48.35017" lon="2.82215">
        <ele>71</ele>
        <time>2015-03-07T09:33:09Z</time>
      </trkpt>
      <trkpt lat="48.35009" lon="2.82221">
        <ele>71</ele>
        <time>2015-03-07T09:33:14Z</time>
      </trkpt>
      <trkpt lat="48.35002" lon="2.82227">
        <ele>71</ele>
        <time>2015-03-07T09:33:20Z</time>
      </trkpt>
      <trkpt lat="48.34995" lon="2.82232">
        <ele>71</ele>
        <time>2015-03-07T09:33:25Z</time>
      </trkpt>
      <trkpt lat="48.34989" lon="2.82238">
        <ele>72</ele>
        <time>2015-03-07T09:33:30Z</time>
      </trkpt>
      <trkpt lat="48.34981" lon="2.82243">
        <ele>72</ele>
        <time>2015-03-07T09:33:35Z</time>
      </trkpt>
      <trkpt lat="48.34974" lon="2.82248">
        <ele>72</ele>
        <time>2015-03-07T09:33:41Z</time>
      </trkpt>
      <trkpt lat="48.34967" lon="2.82253">
        <ele>72</ele>
        <time>2015-03-07T09:33:46Z</time>
      </trkpt>
      <trkpt lat="48.3496" lon="2.82256">
        <ele>73</ele>
        <time>2015-03-07T09:33:51Z</time>
      </trkpt>
      <trkpt lat="48.34952" lon="2.82259">
        <ele>73</ele>
        <time>2015-03-07T09:33:56Z</time>
      </trkpt>
      <trkpt lat="48.34945" lon="2.82264">
        <ele>73</ele>
        <time>2015-03-07T09:34:01Z</time>
      </trkpt>
      <trkpt lat="48.34937" lon="2.82267">
        <ele>73</ele>
        <time>2015-03-07T09:34:07Z</time>
      </trkpt>
      <trkpt lat="48.3493" lon="2.82271">
        <ele>74</ele>
        <time>2015-03-07T09:34:13Z</time>
      </trkpt>
      <trkpt lat="48.34923" lon="2.82277">
        <ele>74</ele>
        <time>2015-03-07T09:34:19Z</time>
      </trkpt>
      <trkpt lat="48.34915" lon="2.82286">
        <ele>75</ele>
        <time>2015-03-07T09:34:25Z</time>
      </trkpt>
      <trkpt lat="48.34908" lon="2.82291">
        <ele>75</ele>
        <time>2015-03-07T09:34:30Z</time>
      </trkpt>
      <trkpt lat="48.349" lon="2.82292">
        <ele>75</ele>
        <time>2015-03-07T09:34:36Z</time>
      </trkpt>
      <trkpt lat="48.34893" lon="2.82283">
        <ele>76</ele>
        <time>2015-03-07T09:34:43Z</time>
      </trkpt>
      <trkpt lat="48.34892" lon="2.82271">
        <ele>76</ele>
        <time>2015-03-07T09:34:49Z</time>
      </trkpt>
      <trkpt lat="48.34892" lon="2.82258">
        <ele>76</ele>
        <time>2015-03-07T09:34:55Z</time>
      </trkpt>
      <trkpt lat="48.34893" lon="2.82246">
        <ele>76</ele>
        <time>2015-03-07T09:35:00Z</time>
      </trkpt>
      <trkpt lat="48.34894" lon="2.82234">
        <ele>76</ele>
        <time>2015-03-07T09:35:06Z</time>
      </trkpt>
      <trkpt lat="48.34894" lon="2.82223">
        <ele>76</ele>
        <time>2015-03-07T09:35:11Z</time>
      </trkpt>
      <trkpt lat="48.34896" lon="2.82212">
        <ele>76</ele>
        <time>2015-03-07T09:35:16Z</time>
      </trkpt>
      <trkpt lat="48.34897" lon="2.82201">
        <ele>75</ele>
        <time>2015-03-07T09:35:21Z</time>
      </trkpt>
      <trkpt lat="48.34899" lon="2.82188">
        <ele>76</ele>
        <time>2015-03-07T09:35:27Z</time>
      </trkpt>
      <trkpt lat="48.349" lon="2.82176">
        <ele>76</ele>
        <time>2015-03-07T09:35:32Z</time>
      </trkpt>
      <trkpt lat="48.34899" lon="2.82164">
        <ele>76</ele>
        <time>2015-03-07T09:35:37Z</time>
      </trkpt>
      <trkpt lat="48.349" lon="2.82151">
        <ele>76</ele>
        <time>2015-03-07T09:35:44Z</time>
      </trkpt>
      <trkpt lat="48.34901" lon="2.82137">
        <ele>75</ele>
        <time>2015-03-07T09:35:49Z</time>
      </trkpt>
      <trkpt lat="48.34903" lon="2.82125">
        <ele>75</ele>
        <time>2015-03-07T09:35:55Z</time>
      </trkpt>
      <trkpt lat="48.34903" lon="2.82114">
        <ele>75</ele>
        <time>2015-03-07T09:36:00Z</time>
      </trkpt>
      <trkpt lat="48.34903" lon="2.82101">
        <ele>75</ele>
        <time>2015-03-07T09:36:05Z</time>
      </trkpt>
      <trkpt lat="48.34903" lon="2.82088">
        <ele>75</ele>
        <time>2015-03-07T09:36:12Z</time>
      </trkpt>
      <trkpt lat="48.34899" lon="2.82078">
        <ele>75</ele>
        <time>2015-03-07T09:36:18Z</time>
      </trkpt>
      <trkpt lat="48.34891" lon="2.82074">
        <ele>76</ele>
        <time>2015-03-07T09:36:24Z</time>
      </trkpt>
      <trkpt lat="48.34883" lon="2.82072">
        <ele>76</ele>
        <time>2015-03-07T09:36:29Z</time>
      </trkpt>
      <trkpt lat="48.34875" lon="2.82069">
        <ele>77</ele>
        <time>2015-03-07T09:36:34Z</time>
      </trkpt>
      <trkpt lat="48.34867" lon="2.82066">
        <ele>77</ele>
        <time>2015-03-07T09:36:39Z</time>
      </trkpt>
      <trkpt lat="48.34859" lon="2.82065">
        <ele>77</ele>
        <time>2015-03-07T09:36:45Z</time>
      </trkpt>
      <trkpt lat="48.34851" lon="2.82066">
        <ele>78</ele>
        <time>2015-03-07T09:36:50Z</time>
      </trkpt>
      <trkpt lat="48.34844" lon="2.82068">
        <ele>79</ele>
        <time>2015-03-07T09:36:57Z</time>
      </trkpt>
      <trkpt lat="48.34835" lon="2.82068">
        <ele>79</ele>
        <time>2015-03-07T09:37:03Z</time>
      </trkpt>
      <trkpt lat="48.34827" lon="2.82064">
        <ele>80</ele>
        <time>2015-03-07T09:37:09Z</time>
      </trkpt>
      <trkpt lat="48.34819" lon="2.82063">
        <ele>80</ele>
        <time>2015-03-07T09:37:15Z</time>
      </trkpt>
      <trkpt lat="48.34811" lon="2.82066">
        <ele>81</ele>
        <time>2015-03-07T09:37:21Z</time>
      </trkpt>
      <trkpt lat="48.34803" lon="2.82068">
        <ele>82</ele>
        <time>2015-03-07T09:37:27Z</time>
      </trkpt>
      <trkpt lat="48.34795" lon="2.82067">
        <ele>82</ele>
        <time>2015-03-07T09:37:33Z</time>
      </trkpt>
      <trkpt lat="48.34788" lon="2.82066">
        <ele>83</ele>
        <time>2015-03-07T09:37:38Z</time>
      </trkpt>
      <trkpt lat="48.3478" lon="2.82064">
        <ele>83</ele>
        <time>2015-03-07T09:37:42Z</time>
      </trkpt>
      <trkpt lat="48.34773" lon="2.82064">
        <ele>84</ele>
        <time>2015-03-07T09:37:46Z</time>
      </trkpt>
      <trkpt lat="48.34765" lon="2.82065">
        <ele>85</ele>
        <time>2015-03-07T09:37:51Z</time>
      </trkpt>
      <trkpt lat="48.34757" lon="2.82062">
        <ele>85</ele>
        <time>2015-03-07T09:37:57Z</time>
      </trkpt>
      <trkpt lat="48.34748" lon="2.82062">
        <ele>86</ele>
        <time>2015-03-07T09:38:02Z</time>
      </trkpt>
      <trkpt lat="48.3474" lon="2.82063">
        <ele>87</ele>
        <time>2015-03-07T09:38:08Z</time>
      </trkpt>
      <trkpt lat="48.34731" lon="2.82064">
        <ele>87</ele>
        <time>2015-03-07T09:38:15Z</time>
      </trkpt>
      <trkpt lat="48.34723" lon="2.82066">
        <ele>88</ele>
        <time>2015-03-07T09:38:21Z</time>
      </trkpt>
      <trkpt lat="48.34715" lon="2.82069">
        <ele>88</ele>
        <time>2015-03-07T09:38:26Z</time>
      </trkpt>
      <trkpt lat="48.34707" lon="2.82072">
        <ele>88</ele>
        <time>2015-03-07T09:38:32Z</time>
      </trkpt>
      <trkpt lat="48.34699" lon="2.82074">
        <ele>89</ele>
        <time>2015-03-07T09:38:37Z</time>
      </trkpt>
      <trkpt lat="48.34691" lon="2.82076">
        <ele>89</ele>
        <time>2015-03-07T09:38:43Z</time>
      </trkpt>
      <trkpt lat="48.34683" lon="2.82078">
        <ele>89</ele>
        <time>2015-03-07T09:38:50Z</time>
      </trkpt>
      <trkpt lat="48.34675" lon="2.8208">
        <ele>89</ele>
        <time>2015-03-07T09:38:55Z</time>
      </trkpt>
      <trkpt lat="48.34666" lon="2.82081">
        <ele>88</ele>
        <time>2015-03-07T09:39:01Z</time>
      </trkpt>
      <trkpt lat="48.34657" lon="2.82084">
        <ele>88</ele>
        <time>2015-03-07T09:39:06Z</time>
      </trkpt>
      <trkpt lat="48.3465" lon="2.82086">
        <ele>89</ele>
        <time>2015-03-07T09:39:12Z</time>
      </trkpt>
      <trkpt lat="48.34642" lon="2.82087">
        <ele>89</ele>
        <time>2015-03-07T09:39:17Z</time>
      </trkpt>
      <trkpt lat="48.34635" lon="2.82091">
        <ele>90</ele>
        <time>2015-03-07T09:39:22Z</time>
      </trkpt>
      <trkpt lat="48.34627" lon="2.82092">
        <ele>91</ele>
        <time>2015-03-07T09:39:27Z</time>
      </trkpt>
      <trkpt lat="48.34618" lon="2.82095">
        <ele>91</ele>
        <time>2015-03-07T09:39:33Z</time>
      </trkpt>
      <trkpt lat="48.3461" lon="2.82101">
        <ele>93</ele>
        <time>2015-03-07T09:39:40Z</time>
      </trkpt>
      <trkpt lat="48.34603" lon="2.82104">
        <ele>93</ele>
        <time>2015-03-07T09:39:45Z</time>
      </trkpt>
      <trkpt lat="48.34595" lon="2.82106">
        <ele>93</ele>
        <time>2015-03-07T09:39:50Z</time>
      </trkpt>
      <trkpt lat="48.34588" lon="2.82107">
        <ele>93</ele>
        <time>2015-03-07T09:39:56Z</time>
      </trkpt>
      <trkpt lat="48.3458" lon="2.82111">
        <ele>93</ele>
        <time>2015-03-07T09:40:02Z</time>
      </trkpt>
      <trkpt lat="48.34572" lon="2.82112">
        <ele>94</ele>
        <time>2015-03-07T09:40:07Z</time>
      </trkpt>
      <trkpt lat="48.34563" lon="2.82113">
        <ele>94</ele>
        <time>2015-03-07T09:40:13Z</time>
      </trkpt>
      <trkpt lat="48.34555" lon="2.82115">
        <ele>94</ele>
        <time>2015-03-07T09:40:20Z</time>
      </trkpt>
      <trkpt lat="48.34546" lon="2.82117">
        <ele>94</ele>
        <time>2015-03-07T09:40:25Z</time>
      </trkpt>
      <trkpt lat="48.34539" lon="2.82119">
        <ele>94</ele>
        <time>2015-03-07T09:40:30Z</time>
      </trkpt>
      <trkpt lat="48.3453" lon="2.82121">
        <ele>94</ele>
        <time>2015-03-07T09:40:36Z</time>
      </trkpt>
      <trkpt lat="48.34521" lon="2.82124">
        <ele>94</ele>
        <time>2015-03-07T09:40:42Z</time>
      </trkpt>
      <trkpt lat="48.34513" lon="2.82127">
        <ele>94</ele>
        <time>2015-03-07T09:40:48Z</time>
      </trkpt>
      <trkpt lat="48.34505" lon="2.82131">
        <ele>95</ele>
        <time>2015-03-07T09:40:53Z</time>
      </trkpt>
      <trkpt lat="48.34497" lon="2.82137">
        <ele>95</ele>
        <time>2015-03-07T09:40:59Z</time>
      </trkpt>
      <trkpt lat="48.34491" lon="2.82143">
        <ele>95</ele>
        <time>2015-03-07T09:41:04Z</time>
      </trkpt>
      <trkpt lat="48.34485" lon="2.82153">
        <ele>95</ele>
        <time>2015-03-07T09:41:10Z</time>
      </trkpt>
      <trkpt lat="48.34478" lon="2.8216">
        <ele>96</ele>
        <time>2015-03-07T09:41:16Z</time>
      </trkpt>
      <trkpt lat="48.34471" lon="2.82166">
        <ele>96</ele>
        <time>2015-03-07T09:41:22Z</time>
      </trkpt>
      <trkpt lat="48.34464" lon="2.82173">
        <ele>96</ele>
        <time>2015-03-07T09:41:29Z</time>
      </trkpt>
      <trkpt lat="48.34457" lon="2.82179">
        <ele>96</ele>
        <time>2015-03-07T09:41:34Z</time>
      </trkpt>
      <trkpt lat="48.34448" lon="2.82184">
        <ele>96</ele>
        <time>2015-03-07T09:41:41Z</time>
      </trkpt>
      <trkpt lat="48.34442" lon="2.82189">
        <ele>95</ele>
        <time>2015-03-07T09:41:46Z</time>
      </trkpt>
      <trkpt lat="48.34434" lon="2.82194">
        <ele>95</ele>
        <time>2015-03-07T09:41:52Z</time>
      </trkpt>
      <trkpt lat="48.34427" lon="2.822">
        <ele>95</ele>
        <time>2015-03-07T09:41:57Z</time>
      </trkpt>
      <trkpt lat="48.34419" lon="2.82205">
        <ele>95</ele>
        <time>2015-03-07T09:42:03Z</time>
      </trkpt>
      <trkpt lat="48.34412" lon="2.82211">
        <ele>96</ele>
        <time>2015-03-07T09:42:09Z</time>
      </trkpt>
      <trkpt lat="48.34404" lon="2.82217">
        <ele>96</ele>
        <time>2015-03-07T09:42:15Z</time>
      </trkpt>
      <trkpt lat="48.34397" lon="2.82224">
        <ele>96</ele>
        <time>2015-03-07T09:42:21Z</time>
      </trkpt>
      <trkpt lat="48.34389" lon="2.8223">
        <ele>97</ele>
        <time>2015-03-07T09:42:27Z</time>
      </trkpt>
      <trkpt lat="48.34382" lon="2.82236">
        <ele>96</ele>
        <time>2015-03-07T09:42:33Z</time>
      </trkpt>
      <trkpt lat="48.34375" lon="2.82242">
        <ele>97</ele>
        <time>2015-03-07T09:42:39Z</time>
      </trkpt>
      <trkpt lat="48.34368" lon="2.82249">
        <ele>97</ele>
        <time>2015-03-07T09:42:45Z</time>
      </trkpt>
      <trkpt lat="48.34362" lon="2.82255">
        <ele>97</ele>
        <time>2015-03-07T09:42:50Z</time>
      </trkpt>
      <trkpt lat="48.34355" lon="2.8226">
        <ele>97</ele>
        <time>2015-03-07T09:42:55Z</time>
      </trkpt>
      <trkpt lat="48.34347" lon="2.82265">
        <ele>98</ele>
        <time>2015-03-07T09:43:00Z</time>
      </trkpt>
      <trkpt lat="48.3434" lon="2.8227">
        <ele>98</ele>
        <time>2015-03-07T09:43:05Z</time>
      </trkpt>
      <trkpt lat="48.34332" lon="2.82274">
        <ele>98</ele>
        <time>2015-03-07T09:43:11Z</time>
      </trkpt>
      <trkpt lat="48.34324" lon="2.82281">
        <ele>98</ele>
        <time>2015-03-07T09:43:17Z</time>
      </trkpt>
      <trkpt lat="48.34317" lon="2.82286">
        <ele>98</ele>
        <time>2015-03-07T09:43:23Z</time>
      </trkpt>
      <trkpt lat="48.3431" lon="2.82292">
        <ele>98</ele>
        <time>2015-03-07T09:43:28Z</time>
      </trkpt>
      <trkpt lat="48.34304" lon="2.82299">
        <ele>98</ele>
        <time>2015-03-07T09:43:33Z</time>
      </trkpt>
      <trkpt lat="48.34297" lon="2.82308">
        <ele>97</ele>
        <time>2015-03-07T09:43:39Z</time>
      </trkpt>
      <trkpt lat="48.34291" lon="2.82314">
        <ele>97</ele>
        <time>2015-03-07T09:43:44Z</time>
      </trkpt>
      <trkpt lat="48.34283" lon="2.82318">
        <ele>97</ele>
        <time>2015-03-07T09:43:50Z</time>
      </trkpt>
      <trkpt lat="48.34276" lon="2.82325">
        <ele>97</ele>
        <time>2015-03-07T09:43:56Z</time>
      </trkpt>
      <trkpt lat="48.34269" lon="2.82331">
        <ele>96</ele>
        <time>2015-03-07T09:44:03Z</time>
      </trkpt>
      <trkpt lat="48.34262" lon="2.82338">
        <ele>96</ele>
        <time>2015-03-07T09:44:10Z</time>
      </trkpt>
      <trkpt lat="48.34254" lon="2.82343">
        <ele>95</ele>
        <time>2015-03-07T09:44:16Z</time>
      </trkpt>
      <trkpt lat="48.34248" lon="2.8235">
        <ele>95</ele>
        <time>2015-03-07T09:44:21Z</time>
      </trkpt>
      <trkpt lat="48.34242" lon="2.82357">
        <ele>96</ele>
        <time>2015-03-07T09:44:26Z</time>
      </trkpt>
      <trkpt lat="48.34234" lon="2.82365">
        <ele>97</ele>
        <time>2015-03-07T09:44:31Z</time>
      </trkpt>
      <trkpt lat="48.34227" lon="2.82372">
        <ele>97</ele>
        <time>2015-03-07T09:44:37Z</time>
      </trkpt>
      <trkpt lat="48.34219" lon="2.82378">
        <ele>98</ele>
        <time>2015-03-07T09:44:43Z</time>
      </trkpt>
      <trkpt lat="48.34212" lon="2.82383">
        <ele>98</ele>
        <time>2015-03-07T09:44:49Z</time>
      </trkpt>
      <trkpt lat="48.34206" lon="2.82389">
        <ele>99</ele>
        <time>2015-03-07T09:44:54Z</time>
      </trkpt>
      <trkpt lat="48.34199" lon="2.82396">
        <ele>99</ele>
        <time>2015-03-07T09:45:00Z</time>
      </trkpt>
      <trkpt lat="48.34191" lon="2.82401">
        <ele>100</ele>
        <time>2015-03-07T09:45:06Z</time>
      </trkpt>
      <trkpt lat="48.34184" lon="2.82407">
        <ele>99</ele>
        <time>2015-03-07T09:45:13Z</time>
      </trkpt>
      <trkpt lat="48.34177" lon="2.82413">
        <ele>99</ele>
        <time>2015-03-07T09:45:19Z</time>
      </trkpt>
      <trkpt lat="48.3417" lon="2.82418">
        <ele>99</ele>
        <time>2015-03-07T09:45:25Z</time>
      </trkpt>
      <trkpt lat="48.34163" lon="2.82425">
        <ele>100</ele>
        <time>2015-03-07T09:45:31Z</time>
      </trkpt>
      <trkpt lat="48.34155" lon="2.82427">
        <ele>100</ele>
        <time>2015-03-07T09:45:36Z</time>
      </trkpt>
      <trkpt lat="48.34146" lon="2.8243">
        <ele>99</ele>
        <time>2015-03-07T09:45:41Z</time>
      </trkpt>
      <trkpt lat="48.34139" lon="2.82436">
        <ele>98</ele>
        <time>2015-03-07T09:45:49Z</time>
      </trkpt>
      <trkpt lat="48.34133" lon="2.82444">
        <ele>98</ele>
        <time>2015-03-07T09:45:54Z</time>
      </trkpt>
      <trkpt lat="48.34126" lon="2.82452">
        <ele>98</ele>
        <time>2015-03-07T09:46:00Z</time>
      </trkpt>
      <trkpt lat="48.34119" lon="2.82459">
        <ele>97</ele>
        <time>2015-03-07T09:46:06Z</time>
      </trkpt>
      <trkpt lat="48.34111" lon="2.82464">
        <ele>97</ele>
        <time>2015-03-07T09:46:12Z</time>
      </trkpt>
      <trkpt lat="48.34104" lon="2.82471">
        <ele>97</ele>
        <time>2015-03-07T09:46:18Z</time>
      </trkpt>
      <trkpt lat="48.34097" lon="2.82478">
        <ele>97</ele>
        <time>2015-03-07T09:46:24Z</time>
      </trkpt>
      <trkpt lat="48.34091" lon="2.82485">
        <ele>98</ele>
        <time>2015-03-07T09:46:31Z</time>
      </trkpt>
      <trkpt lat="48.34083" lon="2.82492">
        <ele>98</ele>
        <time>2015-03-07T09:46:36Z</time>
      </trkpt>
      <trkpt lat="48.34076" lon="2.82498">
        <ele>98</ele>
        <time>2015-03-07T09:46:41Z</time>
      </trkpt>
      <trkpt lat="48.34068" lon="2.82503">
        <ele>98</ele>
        <time>2015-03-07T09:46:48Z</time>
      </trkpt>
      <trkpt lat="48.3406" lon="2.82508">
        <ele>98</ele>
        <time>2015-03-07T09:46:54Z</time>
      </trkpt>
      <trkpt lat="48.34053" lon="2.82515">
        <ele>98</ele>
        <time>2015-03-07T09:47:00Z</time>
      </trkpt>
      <trkpt lat="48.34047" lon="2.82522">
        <ele>98</ele>
        <time>2015-03-07T09:47:06Z</time>
      </trkpt>
      <trkpt lat="48.3404" lon="2.82528">
        <ele>97</ele>
        <time>2015-03-07T09:47:11Z</time>
      </trkpt>
      <trkpt lat="48.34033" lon="2.82533">
        <ele>98</ele>
        <time>2015-03-07T09:47:16Z</time>
      </trkpt>
      <trkpt lat="48.34026" lon="2.82539">
        <ele>98</ele>
        <time>2015-03-07T09:47:21Z</time>
      </trkpt>
      <trkpt lat="48.34019" lon="2.82546">
        <ele>97</ele>
        <time>2015-03-07T09:47:29Z</time>
      </trkpt>
      <trkpt lat="48.34012" lon="2.82552">
        <ele>97</ele>
        <time>2015-03-07T09:47:34Z</time>
      </trkpt>
      <trkpt lat="48.34005" lon="2.82555">
        <ele>97</ele>
        <time>2015-03-07T09:47:39Z</time>
      </trkpt>
      <trkpt lat="48.33997" lon="2.82559">
        <ele>97</ele>
        <time>2015-03-07T09:47:45Z</time>
      </trkpt>
      <trkpt lat="48.33989" lon="2.82561">
        <ele>97</ele>
        <time>2015-03-07T09:47:50Z</time>
      </trkpt>
      <trkpt lat="48.33982" lon="2.82557">
        <ele>96</ele>
        <time>2015-03-07T09:47:56Z</time>
      </trkpt>
      <trkpt lat="48.33973" lon="2.82554">
        <ele>96</ele>
        <time>2015-03-07T09:48:02Z</time>
      </trkpt>
      <trkpt lat="48.33966" lon="2.8255">
        <ele>95</ele>
        <time>2015-03-07T09:48:07Z</time>
      </trkpt>
      <trkpt lat="48.33958" lon="2.82546">
        <ele>95</ele>
        <time>2015-03-07T09:48:12Z</time>
      </trkpt>
      <trkpt lat="48.33951" lon="2.82541">
        <ele>94</ele>
        <time>2015-03-07T09:48:18Z</time>
      </trkpt>
      <trkpt lat="48.33945" lon="2.82536">
        <ele>94</ele>
        <time>2015-03-07T09:48:23Z</time>
      </trkpt>
      <trkpt lat="48.33936" lon="2.82531">
        <ele>93</ele>
        <time>2015-03-07T09:48:28Z</time>
      </trkpt>
      <trkpt lat="48.3393" lon="2.82527">
        <ele>93</ele>
        <time>2015-03-07T09:48:33Z</time>
      </trkpt>
      <trkpt lat="48.33921" lon="2.82521">
        <ele>93</ele>
        <time>2015-03-07T09:48:39Z</time>
      </trkpt>
      <trkpt lat="48.33914" lon="2.82518">
        <ele>92</ele>
        <time>2015-03-07T09:48:45Z</time>
      </trkpt>
      <trkpt lat="48.33906" lon="2.82515">
        <ele>92</ele>
        <time>2015-03-07T09:48:51Z</time>
      </trkpt>
      <trkpt lat="48.33899" lon="2.82511">
        <ele>91</ele>
        <time>2015-03-07T09:48:56Z</time>
      </trkpt>
      <trkpt lat="48.33892" lon="2.82507">
        <ele>91</ele>
        <time>2015-03-07T09:49:01Z</time>
      </trkpt>
      <trkpt lat="48.33884" lon="2.82503">
        <ele>90</ele>
        <time>2015-03-07T09:49:06Z</time>
      </trkpt>
      <trkpt lat="48.33877" lon="2.82498">
        <ele>90</ele>
        <time>2015-03-07T09:49:11Z</time>
      </trkpt>
      <trkpt lat="48.3387" lon="2.82493">
        <ele>91</ele>
        <time>2015-03-07T09:49:16Z</time>
      </trkpt>
      <trkpt lat="48.33863" lon="2.8249">
        <ele>91</ele>
        <time>2015-03-07T09:49:22Z</time>
      </trkpt>
      <trkpt lat="48.33855" lon="2.82488">
        <ele>91</ele>
        <time>2015-03-07T09:49:28Z</time>
      </trkpt>
      <trkpt lat="48.33846" lon="2.82486">
        <ele>90</ele>
        <time>2015-03-07T09:49:34Z</time>
      </trkpt>
      <trkpt lat="48.33838" lon="2.82487">
        <ele>90</ele>
        <time>2015-03-07T09:49:39Z</time>
      </trkpt>
      <trkpt lat="48.33829" lon="2.82488">
        <ele>89</ele>
        <time>2015-03-07T09:49:46Z</time>
      </trkpt>
      <trkpt lat="48.3382" lon="2.82488">
        <ele>89</ele>
        <time>2015-03-07T09:49:52Z</time>
      </trkpt>
      <trkpt lat="48.33812" lon="2.82488">
        <ele>89</ele>
        <time>2015-03-07T09:49:57Z</time>
      </trkpt>
      <trkpt lat="48.33803" lon="2.8249">
        <ele>90</ele>
        <time>2015-03-07T09:50:03Z</time>
      </trkpt>
      <trkpt lat="48.33795" lon="2.82497">
        <ele>90</ele>
        <time>2015-03-07T09:50:10Z</time>
      </trkpt>
      <trkpt lat="48.33787" lon="2.825">
        <ele>90</ele>
        <time>2015-03-07T09:50:16Z</time>
      </trkpt>
      <trkpt lat="48.3378" lon="2.82504">
        <ele>90</ele>
        <time>2015-03-07T09:50:22Z</time>
      </trkpt>
      <trkpt lat="48.33771" lon="2.82506">
        <ele>90</ele>
        <time>2015-03-07T09:50:28Z</time>
      </trkpt>
      <trkpt lat="48.33763" lon="2.82507">
        <ele>90</ele>
        <time>2015-03-07T09:50:32Z</time>
      </trkpt>
      <trkpt lat="48.33755" lon="2.82509">
        <ele>91</ele>
        <time>2015-03-07T09:50:38Z</time>
      </trkpt>
      <trkpt lat="48.33747" lon="2.82511">
        <ele>90</ele>
        <time>2015-03-07T09:50:44Z</time>
      </trkpt>
      <trkpt lat="48.33739" lon="2.82513">
        <ele>90</ele>
        <time>2015-03-07T09:50:49Z</time>
      </trkpt>
      <trkpt lat="48.33732" lon="2.82516">
        <ele>90</ele>
        <time>2015-03-07T09:50:54Z</time>
      </trkpt>
      <trkpt lat="48.33723" lon="2.82518">
        <ele>89</ele>
        <time>2015-03-07T09:50:59Z</time>
      </trkpt>
      <trkpt lat="48.33715" lon="2.8252">
        <ele>89</ele>
        <time>2015-03-07T09:51:05Z</time>
      </trkpt>
      <trkpt lat="48.33708" lon="2.82526">
        <ele>88</ele>
        <time>2015-03-07T09:51:12Z</time>
      </trkpt>
      <trkpt lat="48.337" lon="2.82529">
        <ele>88</ele>
        <time>2015-03-07T09:51:18Z</time>
      </trkpt>
      <trkpt lat="48.33692" lon="2.82531">
        <ele>88</ele>
        <time>2015-03-07T09:51:24Z</time>
      </trkpt>
      <trkpt lat="48.33684" lon="2.82533">
        <ele>88</ele>
        <time>2015-03-07T09:51:29Z</time>
      </trkpt>
      <trkpt lat="48.33675" lon="2.82535">
        <ele>88</ele>
        <time>2015-03-07T09:51:35Z</time>
      </trkpt>
      <trkpt lat="48.33667" lon="2.82537">
        <ele>88</ele>
        <time>2015-03-07T09:51:40Z</time>
      </trkpt>
      <trkpt lat="48.33659" lon="2.82541">
        <ele>87</ele>
        <time>2015-03-07T09:51:47Z</time>
      </trkpt>
      <trkpt lat="48.33652" lon="2.82546">
        <ele>87</ele>
        <time>2015-03-07T09:51:53Z</time>
      </trkpt>
      <trkpt lat="48.33643" lon="2.8255">
        <ele>87</ele>
        <time>2015-03-07T09:52:00Z</time>
      </trkpt>
      <trkpt lat="48.33636" lon="2.82553">
        <ele>86</ele>
        <time>2015-03-07T09:52:05Z</time>
      </trkpt>
      <trkpt lat="48.33628" lon="2.82556">
        <ele>86</ele>
        <time>2015-03-07T09:52:10Z</time>
      </trkpt>
      <trkpt lat="48.33619" lon="2.82558">
        <ele>85</ele>
        <time>2015-03-07T09:52:15Z</time>
      </trkpt>
      <trkpt lat="48.33611" lon="2.82562">
        <ele>85</ele>
        <time>2015-03-07T09:52:20Z</time>
      </trkpt>
      <trkpt lat="48.33604" lon="2.82567">
        <ele>84</ele>
        <time>2015-03-07T09:52:25Z</time>
      </trkpt>
      <trkpt lat="48.33596" lon="2.82572">
        <ele>84</ele>
        <time>2015-03-07T09:52:31Z</time>
      </trkpt>
      <trkpt lat="48.33589" lon="2.82578">
        <ele>83</ele>
        <time>2015-03-07T09:52:39Z</time>
      </trkpt>
      <trkpt lat="48.3358" lon="2.82582">
        <ele>82</ele>
        <time>2015-03-07T09:52:45Z</time>
      </trkpt>
      <trkpt lat="48.33573" lon="2.82584">
        <ele>82</ele>
        <time>2015-03-07T09:52:50Z</time>
      </trkpt>
      <trkpt lat="48.33564" lon="2.82584">
        <ele>82</ele>
        <time>2015-03-07T09:52:56Z</time>
      </trkpt>
      <trkpt lat="48.33557" lon="2.82587">
        <ele>82</ele>
        <time>2015-03-07T09:53:02Z</time>
      </trkpt>
      <trkpt lat="48.3355" lon="2.82588">
        <ele>83</ele>
        <time>2015-03-07T09:53:07Z</time>
      </trkpt>
      <trkpt lat="48.33542" lon="2.82594">
        <ele>83</ele>
        <time>2015-03-07T09:53:13Z</time>
      </trkpt>
      <trkpt lat="48.33534" lon="2.82599">
        <ele>83</ele>
        <time>2015-03-07T09:53:19Z</time>
      </trkpt>
      <trkpt lat="48.33525" lon="2.82601">
        <ele>83</ele>
        <time>2015-03-07T09:53:24Z</time>
      </trkpt>
      <trkpt lat="48.33517" lon="2.82604">
        <ele>84</ele>
        <time>2015-03-07T09:53:31Z</time>
      </trkpt>
      <trkpt lat="48.33508" lon="2.82605">
        <ele>84</ele>
        <time>2015-03-07T09:53:38Z</time>
      </trkpt>
      <trkpt lat="48.335" lon="2.82608">
        <ele>85</ele>
        <time>2015-03-07T09:53:44Z</time>
      </trkpt>
      <trkpt lat="48.33492" lon="2.82612">
        <ele>85</ele>
        <time>2015-03-07T09:53:49Z</time>
      </trkpt>
      <trkpt lat="48.33484" lon="2.82616">
        <ele>85</ele>
        <time>2015-03-07T09:53:55Z</time>
      </trkpt>
      <trkpt lat="48.33475" lon="2.82619">
        <ele>85</ele>
        <time>2015-03-07T09:54:02Z</time>
      </trkpt>
      <trkpt lat="48.33468" lon="2.82621">
        <ele>85</ele>
        <time>2015-03-07T09:54:08Z</time>
      </trkpt>
      <trkpt lat="48.3346" lon="2.82623">
        <ele>86</ele>
        <time>2015-03-07T09:54:13Z</time>
      </trkpt>
      <trkpt lat="48.33453" lon="2.82625">
        <ele>86</ele>
        <time>2015-03-07T09:54:18Z</time>
      </trkpt>
      <trkpt lat="48.33445" lon="2.82629">
        <ele>86</ele>
        <time>2015-03-07T09:54:23Z</time>
      </trkpt>
      <trkpt lat="48.33438" lon="2.82632">
        <ele>87</ele>
        <time>2015-03-07T09:54:30Z</time>
      </trkpt>
      <trkpt lat="48.3343" lon="2.82636">
        <ele>87</ele>
        <time>2015-03-07T09:54:36Z</time>
      </trkpt>
      <trkpt lat="48.33421" lon="2.8264">
        <ele>87</ele>
        <time>2015-03-07T09:54:43Z</time>
      </trkpt>
      <trkpt lat="48.33413" lon="2.82644">
        <ele>87</ele>
        <time>2015-03-07T09:54:49Z</time>
      </trkpt>
      <trkpt lat="48.33405" lon="2.82648">
        <ele>86</ele>
        <time>2015-03-07T09:54:57Z</time>
      </trkpt>
      <trkpt lat="48.33397" lon="2.82649">
        <ele>87</ele>
        <time>2015-03-07T09:55:02Z</time>
      </trkpt>
      <trkpt lat="48.33389" lon="2.82649">
        <ele>87</ele>
        <time>2015-03-07T09:55:06Z</time>
      </trkpt>
      <trkpt lat="48.33381" lon="2.8265">
        <ele>87</ele>
        <time>2015-03-07T09:55:11Z</time>
      </trkpt>
      <trkpt lat="48.33373" lon="2.82652">
        <ele>86</ele>
        <time>2015-03-07T09:55:17Z</time>
      </trkpt>
      <trkpt lat="48.33365" lon="2.82657">
        <ele>86</ele>
        <time>2015-03-07T09:55:25Z</time>
      </trkpt>
      <trkpt lat="48.33364" lon="2.8267">
        <ele>86</ele>
        <time>2015-03-07T09:55:31Z</time>
      </trkpt>
      <trkpt lat="48.33369" lon="2.82681">
        <ele>85</ele>
        <time>2015-03-07T09:55:38Z</time>
      </trkpt>
      <trkpt lat="48.33375" lon="2.8269">
        <ele>84</ele>
        <time>2015-03-07T09:55:44Z</time>
      </trkpt>
      <trkpt lat="48.3338" lon="2.82699">
        <ele>83</ele>
        <time>2015-03-07T09:55:50Z</time>
      </trkpt>
      <trkpt lat="48.33387" lon="2.82707">
        <ele>82</ele>
        <time>2015-03-07T09:55:56Z</time>
      </trkpt>
      <trkpt lat="48.33393" lon="2.82715">
        <ele>80</ele>
        <time>2015-03-07T09:56:02Z</time>
      </trkpt>
      <trkpt lat="48.334" lon="2.82722">
        <ele>79</ele>
        <time>2015-03-07T09:56:08Z</time>
      </trkpt>
      <trkpt lat="48.33404" lon="2.82733">
        <ele>79</ele>
        <time>2015-03-07T09:56:13Z</time>
      </trkpt>
      <trkpt lat="48.33409" lon="2.82744">
        <ele>78</ele>
        <time>2015-03-07T09:56:18Z</time>
      </trkpt>
      <trkpt lat="48.33413" lon="2.82754">
        <ele>78</ele>
        <time>2015-03-07T09:56:25Z</time>
      </trkpt>
      <trkpt lat="48.33419" lon="2.82762">
        <ele>78</ele>
        <time>2015-03-07T09:56:34Z</time>
      </trkpt>
      <trkpt lat="48.33425" lon="2.82772">
        <ele>79</ele>
        <time>2015-03-07T09:56:39Z</time>
      </trkpt>
      <trkpt lat="48.33428" lon="2.82786">
        <ele>79</ele>
        <time>2015-03-07T09:56:44Z</time>
      </trkpt>
      <trkpt lat="48.33431" lon="2.82797">
        <ele>79</ele>
        <time>2015-03-07T09:56:49Z</time>
      </trkpt>
      <trkpt lat="48.33433" lon="2.82808">
        <ele>79</ele>
        <time>2015-03-07T09:56:54Z</time>
      </trkpt>
      <trkpt lat="48.33437" lon="2.82819">
        <ele>79</ele>
        <time>2015-03-07T09:56:59Z</time>
      </trkpt>
      <trkpt lat="48.33441" lon="2.8283">
        <ele>79</ele>
        <time>2015-03-07T09:57:07Z</time>
      </trkpt>
      <trkpt lat="48.33447" lon="2.8284">
        <ele>80</ele>
        <time>2015-03-07T09:57:14Z</time>
      </trkpt>
      <trkpt lat="48.33453" lon="2.8285">
        <ele>80</ele>
        <time>2015-03-07T09:57:19Z</time>
      </trkpt>
      <trkpt lat="48.33458" lon="2.8286">
        <ele>80</ele>
        <time>2015-03-07T09:57:24Z</time>
      </trkpt>
      <trkpt lat="48.33464" lon="2.82869">
        <ele>80</ele>
        <time>2015-03-07T09:57:34Z</time>
      </trkpt>
      <trkpt lat="48.33471" lon="2.82876">
        <ele>80</ele>
        <time>2015-03-07T09:57:41Z</time>
      </trkpt>
      <trkpt lat="48.33476" lon="2.82883">
        <ele>80</ele>
        <time>2015-03-07T09:57:46Z</time>
      </trkpt>
      <trkpt lat="48.33481" lon="2.82893">
        <ele>80</ele>
        <time>2015-03-07T09:57:51Z</time>
      </trkpt>
      <trkpt lat="48.33485" lon="2.82905">
        <ele>80</ele>
        <time>2015-03-07T09:57:57Z</time>
      </trkpt>
      <trkpt lat="48.33489" lon="2.82916">
        <ele>80</ele>
        <time>2015-03-07T09:58:03Z</time>
      </trkpt>
      <trkpt lat="48.33493" lon="2.82925">
        <ele>81</ele>
        <time>2015-03-07T09:58:08Z</time>
      </trkpt>
      <trkpt lat="48.33499" lon="2.82933">
        <ele>81</ele>
        <time>2015-03-07T09:58:13Z</time>
      </trkpt>
      <trkpt lat="48.33504" lon="2.82942">
        <ele>81</ele>
        <time>2015-03-07T09:58:18Z</time>
      </trkpt>
      <trkpt lat="48.33507" lon="2.82955">
        <ele>80</ele>
        <time>2015-03-07T09:58:23Z</time>
      </trkpt>
      <trkpt lat="48.33512" lon="2.82964">
        <ele>80</ele>
        <time>2015-03-07T09:58:28Z</time>
      </trkpt>
      <trkpt lat="48.33517" lon="2.82974">
        <ele>79</ele>
        <time>2015-03-07T09:58:34Z</time>
      </trkpt>
      <trkpt lat="48.33522" lon="2.82983">
        <ele>79</ele>
        <time>2015-03-07T09:58:39Z</time>
      </trkpt>
      <trkpt lat="48.33526" lon="2.82995">
        <ele>78</ele>
        <time>2015-03-07T09:58:45Z</time>
      </trkpt>
      <trkpt lat="48.33529" lon="2.83005">
        <ele>78</ele>
        <time>2015-03-07T09:58:50Z</time>
      </trkpt>
      <trkpt lat="48.33532" lon="2.83016">
        <ele>78</ele>
        <time>2015-03-07T09:58:55Z</time>
      </trkpt>
      <trkpt lat="48.33536" lon="2.83027">
        <ele>78</ele>
        <time>2015-03-07T09:58:59Z</time>
      </trkpt>
      <trkpt lat="48.3354" lon="2.83037">
        <ele>78</ele>
        <time>2015-03-07T09:59:05Z</time>
      </trkpt>
      <trkpt lat="48.33545" lon="2.83045">
        <ele>77</ele>
        <time>2015-03-07T09:59:10Z</time>
      </trkpt>
      <trkpt lat="48.3355" lon="2.83055">
        <ele>77</ele>
        <time>2015-03-07T09:59:14Z</time>
      </trkpt>
      <trkpt lat="48.33556" lon="2.83062">
        <ele>76</ele>
        <time>2015-03-07T09:59:20Z</time>
      </trkpt>
      <trkpt lat="48.33563" lon="2.8307">
        <ele>76</ele>
        <time>2015-03-07T09:59:27Z</time>
      </trkpt>
      <trkpt lat="48.33568" lon="2.83079">
        <ele>75</ele>
        <time>2015-03-07T09:59:33Z</time>
      </trkpt>
      <trkpt lat="48.33573" lon="2.83087">
        <ele>75</ele>
        <time>2015-03-07T09:59:37Z</time>
      </trkpt>
      <trkpt lat="48.33579" lon="2.83096">
        <ele>75</ele>
        <time>2015-03-07T09:59:43Z</time>
      </trkpt>
      <trkpt lat="48.33583" lon="2.83106">
        <ele>74</ele>
        <time>2015-03-07T09:59:48Z</time>
      </trkpt>
      <trkpt lat="48.33587" lon="2.83116">
        <ele>74</ele>
        <time>2015-03-07T09:59:53Z</time>
      </trkpt>
      <trkpt lat="48.3359" lon="2.83128">
        <ele>73</ele>
        <time>2015-03-07T09:59:59Z</time>
      </trkpt>
      <trkpt lat="48.33596" lon="2.83138">
        <ele>73</ele>
        <time>2015-03-07T10:00:05Z</time>
      </trkpt>
      <trkpt lat="48.33602" lon="2.83148">
        <ele>72</ele>
        <time>2015-03-07T10:00:11Z</time>
      </trkpt>
      <trkpt lat="48.33608" lon="2.83157">
        <ele>71</ele>
        <time>2015-03-07T10:00:20Z</time>
      </trkpt>
      <trkpt lat="48.33613" lon="2.83167">
        <ele>71</ele>
        <time>2015-03-07T10:00:25Z</time>
      </trkpt>
      <trkpt lat="48.33618" lon="2.83181">
        <ele>71</ele>
        <time>2015-03-07T10:00:30Z</time>
      </trkpt>
      <trkpt lat="48.33619" lon="2.83193">
        <ele>70</ele>
        <time>2015-03-07T10:00:36Z</time>
      </trkpt>
      <trkpt lat="48.33622" lon="2.83206">
        <ele>70</ele>
        <time>2015-03-07T10:00:45Z</time>
      </trkpt>
      <trkpt lat="48.33625" lon="2.83216">
        <ele>69</ele>
        <time>2015-03-07T10:00:51Z</time>
      </trkpt>
      <trkpt lat="48.33627" lon="2.83227">
        <ele>69</ele>
        <time>2015-03-07T10:00:58Z</time>
      </trkpt>
      <trkpt lat="48.33626" lon="2.83241">
        <ele>69</ele>
        <time>2015-03-07T10:01:06Z</time>
      </trkpt>
      <trkpt lat="48.33626" lon="2.83251">
        <ele>69</ele>
        <time>2015-03-07T10:01:10Z</time>
      </trkpt>
      <trkpt lat="48.33627" lon="2.83264">
        <ele>69</ele>
        <time>2015-03-07T10:01:14Z</time>
      </trkpt>
      <trkpt lat="48.33628" lon="2.83276">
        <ele>69</ele>
        <time>2015-03-07T10:01:19Z</time>
      </trkpt>
      <trkpt lat="48.33627" lon="2.83288">
        <ele>69</ele>
        <time>2015-03-07T10:01:27Z</time>
      </trkpt>
      <trkpt lat="48.33624" lon="2.833">
        <ele>69</ele>
        <time>2015-03-07T10:01:34Z</time>
      </trkpt>
      <trkpt lat="48.33623" lon="2.83313">
        <ele>69</ele>
        <time>2015-03-07T10:01:41Z</time>
      </trkpt>
      <trkpt lat="48.33624" lon="2.83326">
        <ele>69</ele>
        <time>2015-03-07T10:01:48Z</time>
      </trkpt>
      <trkpt lat="48.33624" lon="2.83339">
        <ele>69</ele>
        <time>2015-03-07T10:01:54Z</time>
      </trkpt>
      <trkpt lat="48.33624" lon="2.83351">
        <ele>69</ele>
        <time>2015-03-07T10:01:58Z</time>
      </trkpt>
      <trkpt lat="48.33625" lon="2.83364">
        <ele>70</ele>
        <time>2015-03-07T10:02:05Z</time>
      </trkpt>
      <trkpt lat="48.33626" lon="2.83375">
        <ele>70</ele>
        <time>2015-03-07T10:02:10Z</time>
      </trkpt>
      <trkpt lat="48.3363" lon="2.83386">
        <ele>70</ele>
        <time>2015-03-07T10:02:15Z</time>
      </trkpt>
      <trkpt lat="48.33635" lon="2.83397">
        <ele>71</ele>
        <time>2015-03-07T10:02:20Z</time>
      </trkpt>
      <trkpt lat="48.33639" lon="2.83409">
        <ele>70</ele>
        <time>2015-03-07T10:02:26Z</time>
      </trkpt>
      <trkpt lat="48.33642" lon="2.83422">
        <ele>70</ele>
        <time>2015-03-07T10:02:31Z</time>
      </trkpt>
      <trkpt lat="48.33644" lon="2.83434">
        <ele>70</ele>
        <time>2015-03-07T10:02:36Z</time>
      </trkpt>
      <trkpt lat="48.33647" lon="2.83447">
        <ele>70</ele>
        <time>2015-03-07T10:02:43Z</time>
      </trkpt>
      <trkpt lat="48.33651" lon="2.83458">
        <ele>70</ele>
        <time>2015-03-07T10:02:49Z</time>
      </trkpt>
      <trkpt lat="48.33655" lon="2.83468">
        <ele>70</ele>
        <time>2015-03-07T10:02:55Z</time>
      </trkpt>
      <trkpt lat="48.33661" lon="2.83476">
        <ele>71</ele>
        <time>2015-03-07T10:03:01Z</time>
      </trkpt>
      <trkpt lat="48.33665" lon="2.83487">
        <ele>70</ele>
        <time>2015-03-07T10:03:06Z</time>
      </trkpt>
      <trkpt lat="48.33668" lon="2.83499">
        <ele>70</ele>
        <time>2015-03-07T10:03:11Z</time>
      </trkpt>
      <trkpt lat="48.3367" lon="2.83515">
        <ele>69</ele>
        <time>2015-03-07T10:03:16Z</time>
      </trkpt>
      <trkpt lat="48.33672" lon="2.83526">
        <ele>69</ele>
        <time>2015-03-07T10:03:20Z</time>
      </trkpt>
      <trkpt lat="48.33676" lon="2.83538">
        <ele>69</ele>
        <time>2015-03-07T10:03:25Z</time>
      </trkpt>
      <trkpt lat="48.3368" lon="2.83549">
        <ele>69</ele>
        <time>2015-03-07T10:03:31Z</time>
      </trkpt>
      <trkpt lat="48.33685" lon="2.83557">
        <ele>69</ele>
        <time>2015-03-07T10:03:37Z</time>
      </trkpt>
      <trkpt lat="48.3369" lon="2.83567">
        <ele>69</ele>
        <time>2015-03-07T10:03:44Z</time>
      </trkpt>
      <trkpt lat="48.33694" lon="2.83578">
        <ele>68</ele>
        <time>2015-03-07T10:03:51Z</time>
      </trkpt>
      <trkpt lat="48.33697" lon="2.83591">
        <ele>68</ele>
        <time>2015-03-07T10:03:56Z</time>
      </trkpt>
      <trkpt lat="48.33702" lon="2.83603">
        <ele>67</ele>
        <time>2015-03-07T10:04:01Z</time>
      </trkpt>
      <trkpt lat="48.33705" lon="2.83615">
        <ele>67</ele>
        <time>2015-03-07T10:04:11Z</time>
      </trkpt>
      <trkpt lat="48.33706" lon="2.83627">
        <ele>67</ele>
        <time>2015-03-07T10:04:17Z</time>
      </trkpt>
      <trkpt lat="48.33709" lon="2.83638">
        <ele>67</ele>
        <time>2015-03-07T10:04:24Z</time>
      </trkpt>
      <trkpt lat="48.33715" lon="2.83645">
        <ele>67</ele>
        <time>2015-03-07T10:04:29Z</time>
      </trkpt>
      <trkpt lat="48.33721" lon="2.83656">
        <ele>66</ele>
        <time>2015-03-07T10:04:34Z</time>
      </trkpt>
      <trkpt lat="48.33726" lon="2.83666">
        <ele>66</ele>
        <time>2015-03-07T10:04:40Z</time>
      </trkpt>
      <trkpt lat="48.33732" lon="2.83676">
        <ele>65</ele>
        <time>2015-03-07T10:04:47Z</time>
      </trkpt>
      <trkpt lat="48.33738" lon="2.83685">
        <ele>65</ele>
        <time>2015-03-07T10:04:53Z</time>
      </trkpt>
      <trkpt lat="48.33743" lon="2.83699">
        <ele>64</ele>
        <time>2015-03-07T10:04:58Z</time>
      </trkpt>
      <trkpt lat="48.33749" lon="2.83709">
        <ele>64</ele>
        <time>2015-03-07T10:05:04Z</time>
      </trkpt>
      <trkpt lat="48.33756" lon="2.83718">
        <ele>63</ele>
        <time>2015-03-07T10:05:11Z</time>
      </trkpt>
      <trkpt lat="48.33757" lon="2.83731">
        <ele>64</ele>
        <time>2015-03-07T10:05:16Z</time>
      </trkpt>
      <trkpt lat="48.33757" lon="2.83743">
        <ele>64</ele>
        <time>2015-03-07T10:05:22Z</time>
      </trkpt>
      <trkpt lat="48.33757" lon="2.83755">
        <ele>65</ele>
        <time>2015-03-07T10:05:27Z</time>
      </trkpt>
      <trkpt lat="48.33759" lon="2.83768">
        <ele>66</ele>
        <time>2015-03-07T10:05:35Z</time>
      </trkpt>
      <trkpt lat="48.3376" lon="2.83781">
        <ele>67</ele>
        <time>2015-03-07T10:05:43Z</time>
      </trkpt>
      <trkpt lat="48.33758" lon="2.83793">
        <ele>66</ele>
        <time>2015-03-07T10:05:53Z</time>
      </trkpt>
      <trkpt lat="48.33753" lon="2.83804">
        <ele>66</ele>
        <time>2015-03-07T10:06:00Z</time>
      </trkpt>
      <trkpt lat="48.33749" lon="2.83813">
        <ele>67</ele>
        <time>2015-03-07T10:06:07Z</time>
      </trkpt>
      <trkpt lat="48.33746" lon="2.83828">
        <ele>67</ele>
        <time>2015-03-07T10:06:11Z</time>
      </trkpt>
      <trkpt lat="48.33742" lon="2.83839">
        <ele>67</ele>
        <time>2015-03-07T10:06:16Z</time>
      </trkpt>
      <trkpt lat="48.33739" lon="2.83851">
        <ele>68</ele>
        <time>2015-03-07T10:06:26Z</time>
      </trkpt>
      <trkpt lat="48.33734" lon="2.83861">
        <ele>69</ele>
        <time>2015-03-07T10:06:31Z</time>
      </trkpt>
      <trkpt lat="48.33726" lon="2.83866">
        <ele>69</ele>
        <time>2015-03-07T10:06:35Z</time>
      </trkpt>
      <trkpt lat="48.33719" lon="2.83873">
        <ele>69</ele>
        <time>2015-03-07T10:06:41Z</time>
      </trkpt>
      <trkpt lat="48.33712" lon="2.83881">
        <ele>69</ele>
        <time>2015-03-07T10:06:49Z</time>
      </trkpt>
      <trkpt lat="48.33706" lon="2.83888">
        <ele>70</ele>
        <time>2015-03-07T10:06:56Z</time>
      </trkpt>
      <trkpt lat="48.33704" lon="2.83899">
        <ele>70</ele>
        <time>2015-03-07T10:07:01Z</time>
      </trkpt>
      <trkpt lat="48.33702" lon="2.83912">
        <ele>71</ele>
        <time>2015-03-07T10:07:06Z</time>
      </trkpt>
      <trkpt lat="48.33696" lon="2.83922">
        <ele>71</ele>
        <time>2015-03-07T10:07:13Z</time>
      </trkpt>
      <trkpt lat="48.33692" lon="2.83934">
        <ele>72</ele>
        <time>2015-03-07T10:07:20Z</time>
      </trkpt>
      <trkpt lat="48.33688" lon="2.83944">
        <ele>72</ele>
        <time>2015-03-07T10:07:25Z</time>
      </trkpt>
      <trkpt lat="48.33684" lon="2.83954">
        <ele>73</ele>
        <time>2015-03-07T10:07:30Z</time>
      </trkpt>
      <trkpt lat="48.33679" lon="2.83963">
        <ele>75</ele>
        <time>2015-03-07T10:07:35Z</time>
      </trkpt>
      <trkpt lat="48.33674" lon="2.83974">
        <ele>76</ele>
        <time>2015-03-07T10:07:40Z</time>
      </trkpt>
      <trkpt lat="48.33668" lon="2.83982">
        <ele>78</ele>
        <time>2015-03-07T10:07:48Z</time>
      </trkpt>
      <trkpt lat="48.33662" lon="2.83989">
        <ele>79</ele>
        <time>2015-03-07T10:07:53Z</time>
      </trkpt>
      <trkpt lat="48.33656" lon="2.83997">
        <ele>80</ele>
        <time>2015-03-07T10:07:58Z</time>
      </trkpt>
      <trkpt lat="48.3365" lon="2.84006">
        <ele>81</ele>
        <time>2015-03-07T10:08:05Z</time>
      </trkpt>
      <trkpt lat="48.33643" lon="2.84015">
        <ele>83</ele>
        <time>2015-03-07T10:08:13Z</time>
      </trkpt>
      <trkpt lat="48.33639" lon="2.84025">
        <ele>84</ele>
        <time>2015-03-07T10:08:22Z</time>
      </trkpt>
      <trkpt lat="48.33632" lon="2.84031">
        <ele>85</ele>
        <time>2015-03-07T10:08:27Z</time>
      </trkpt>
      <trkpt lat="48.33625" lon="2.84038">
        <ele>85</ele>
        <time>2015-03-07T10:08:34Z</time>
      </trkpt>
      <trkpt lat="48.33618" lon="2.84044">
        <ele>87</ele>
        <time>2015-03-07T10:08:40Z</time>
      </trkpt>
      <trkpt lat="48.33611" lon="2.8405">
        <ele>88</ele>
        <time>2015-03-07T10:08:47Z</time>
      </trkpt>
      <trkpt lat="48.33604" lon="2.84058">
        <ele>89</ele>
        <time>2015-03-07T10:08:54Z</time>
      </trkpt>
      <trkpt lat="48.33599" lon="2.84067">
        <ele>89</ele>
        <time>2015-03-07T10:08:59Z</time>
      </trkpt>
      <trkpt lat="48.33593" lon="2.84077">
        <ele>90</ele>
        <time>2015-03-07T10:09:05Z</time>
      </trkpt>
      <trkpt lat="48.33587" lon="2.84087">
        <ele>91</ele>
        <time>2015-03-07T10:09:11Z</time>
      </trkpt>
      <trkpt lat="48.33582" lon="2.84096">
        <ele>91</ele>
        <time>2015-03-07T10:09:17Z</time>
      </trkpt>
      <trkpt lat="48.33576" lon="2.84106">
        <ele>91</ele>
        <time>2015-03-07T10:09:24Z</time>
      </trkpt>
      <trkpt lat="48.33571" lon="2.84115">
        <ele>91</ele>
        <time>2015-03-07T10:09:31Z</time>
      </trkpt>
      <trkpt lat="48.33565" lon="2.84125">
        <ele>91</ele>
        <time>2015-03-07T10:09:37Z</time>
      </trkpt>
      <trkpt lat="48.33558" lon="2.84135">
        <ele>92</ele>
        <time>2015-03-07T10:09:41Z</time>
      </trkpt>
      <trkpt lat="48.33551" lon="2.84141">
        <ele>93</ele>
        <time>2015-03-07T10:09:45Z</time>
      </trkpt>
      <trkpt lat="48.33544" lon="2.84147">
        <ele>94</ele>
        <time>2015-03-07T10:09:50Z</time>
      </trkpt>
      <trkpt lat="48.33537" lon="2.84155">
        <ele>94</ele>
        <time>2015-03-07T10:09:57Z</time>
      </trkpt>
      <trkpt lat="48.33531" lon="2.84165">
        <ele>95</ele>
        <time>2015-03-07T10:10:04Z</time>
      </trkpt>
      <trkpt lat="48.33527" lon="2.84178">
        <ele>95</ele>
        <time>2015-03-07T10:10:09Z</time>
      </trkpt>
      <trkpt lat="48.33522" lon="2.8419">
        <ele>95</ele>
        <time>2015-03-07T10:10:17Z</time>
      </trkpt>
      <trkpt lat="48.33519" lon="2.84201">
        <ele>96</ele>
        <time>2015-03-07T10:10:24Z</time>
      </trkpt>
      <trkpt lat="48.33516" lon="2.84213">
        <ele>97</ele>
        <time>2015-03-07T10:10:30Z</time>
      </trkpt>
      <trkpt lat="48.33513" lon="2.84224">
        <ele>97</ele>
        <time>2015-03-07T10:10:35Z</time>
      </trkpt>
      <trkpt lat="48.33507" lon="2.84233">
        <ele>98</ele>
        <time>2015-03-07T10:10:39Z</time>
      </trkpt>
      <trkpt lat="48.33502" lon="2.84242">
        <ele>98</ele>
        <time>2015-03-07T10:10:44Z</time>
      </trkpt>
      <trkpt lat="48.33497" lon="2.84253">
        <ele>98</ele>
        <time>2015-03-07T10:10:51Z</time>
      </trkpt>
      <trkpt lat="48.33492" lon="2.84262">
        <ele>99</ele>
        <time>2015-03-07T10:10:56Z</time>
      </trkpt>
      <trkpt lat="48.33488" lon="2.84273">
        <ele>99</ele>
        <time>2015-03-07T10:11:02Z</time>
      </trkpt>
      <trkpt lat="48.33484" lon="2.84281">
        <ele>99</ele>
        <time>2015-03-07T10:11:06Z</time>
      </trkpt>
      <trkpt lat="48.33477" lon="2.84289">
        <ele>99</ele>
        <time>2015-03-07T10:11:11Z</time>
      </trkpt>
      <trkpt lat="48.33472" lon="2.84297">
        <ele>99</ele>
        <time>2015-03-07T10:11:16Z</time>
      </trkpt>
      <trkpt lat="48.33466" lon="2.84306">
        <ele>100</ele>
        <time>2015-03-07T10:11:22Z</time>
      </trkpt>
      <trkpt lat="48.33458" lon="2.84314">
        <ele>101</ele>
        <time>2015-03-07T10:11:29Z</time>
      </trkpt>
      <trkpt lat="48.33452" lon="2.84321">
        <ele>102</ele>
        <time>2015-03-07T10:11:34Z</time>
      </trkpt>
      <trkpt lat="48.33445" lon="2.84328">
        <ele>102</ele>
        <time>2015-03-07T10:11:40Z</time>
      </trkpt>
      <trkpt lat="48.33438" lon="2.84336">
        <ele>102</ele>
        <time>2015-03-07T10:11:46Z</time>
      </trkpt>
      <trkpt lat="48.3343" lon="2.84343">
        <ele>102</ele>
        <time>2015-03-07T10:11:52Z</time>
      </trkpt>
      <trkpt lat="48.33423" lon="2.84349">
        <ele>101</ele>
        <time>2015-03-07T10:11:57Z</time>
      </trkpt>
      <trkpt lat="48.33417" lon="2.84354">
        <ele>100</ele>
        <time>2015-03-07T10:12:01Z</time>
      </trkpt>
      <trkpt lat="48.33409" lon="2.8436">
        <ele>100</ele>
        <time>2015-03-07T10:12:06Z</time>
      </trkpt>
      <trkpt lat="48.33401" lon="2.84365">
        <ele>100</ele>
        <time>2015-03-07T10:12:12Z</time>
      </trkpt>
      <trkpt lat="48.33394" lon="2.84372">
        <ele>100</ele>
        <time>2015-03-07T10:12:17Z</time>
      </trkpt>
      <trkpt lat="48.33387" lon="2.84378">
        <ele>100</ele>
        <time>2015-03-07T10:12:22Z</time>
      </trkpt>
      <trkpt lat="48.33379" lon="2.84381">
        <ele>100</ele>
        <time>2015-03-07T10:12:28Z</time>
      </trkpt>
      <trkpt lat="48.33371" lon="2.84387">
        <ele>99</ele>
        <time>2015-03-07T10:12:35Z</time>
      </trkpt>
      <trkpt lat="48.33362" lon="2.84389">
        <ele>99</ele>
        <time>2015-03-07T10:12:40Z</time>
      </trkpt>
      <trkpt lat="48.33354" lon="2.84393">
        <ele>100</ele>
        <time>2015-03-07T10:12:46Z</time>
      </trkpt>
      <trkpt lat="48.33346" lon="2.84399">
        <ele>100</ele>
        <time>2015-03-07T10:12:53Z</time>
      </trkpt>
      <trkpt lat="48.3334" lon="2.84408">
        <ele>100</ele>
        <time>2015-03-07T10:13:01Z</time>
      </trkpt>
      <trkpt lat="48.33334" lon="2.84415">
        <ele>99</ele>
        <time>2015-03-07T10:13:05Z</time>
      </trkpt>
      <trkpt lat="48.33326" lon="2.84421">
        <ele>100</ele>
        <time>2015-03-07T10:13:10Z</time>
      </trkpt>
      <trkpt lat="48.33318" lon="2.84428">
        <ele>100</ele>
        <time>2015-03-07T10:13:15Z</time>
      </trkpt>
      <trkpt lat="48.33311" lon="2.84434">
        <ele>99</ele>
        <time>2015-03-07T10:13:20Z</time>
      </trkpt>
      <trkpt lat="48.33303" lon="2.84442">
        <ele>98</ele>
        <time>2015-03-07T10:13:27Z</time>
      </trkpt>
      <trkpt lat="48.33296" lon="2.84449">
        <ele>98</ele>
        <time>2015-03-07T10:13:33Z</time>
      </trkpt>
      <trkpt lat="48.33289" lon="2.84454">
        <ele>97</ele>
        <time>2015-03-07T10:13:38Z</time>
      </trkpt>
      <trkpt lat="48.33282" lon="2.84459">
        <ele>97</ele>
        <time>2015-03-07T10:13:43Z</time>
      </trkpt>
      <trkpt lat="48.33273" lon="2.8446">
        <ele>96</ele>
        <time>2015-03-07T10:13:49Z</time>
      </trkpt>
      <trkpt lat="48.33265" lon="2.8446">
        <ele>96</ele>
        <time>2015-03-07T10:13:54Z</time>
      </trkpt>
      <trkpt lat="48.33258" lon="2.84459">
        <ele>95</ele>
        <time>2015-03-07T10:13:59Z</time>
      </trkpt>
      <trkpt lat="48.33249" lon="2.84462">
        <ele>95</ele>
        <time>2015-03-07T10:14:05Z</time>
      </trkpt>
      <trkpt lat="48.33241" lon="2.84464">
        <ele>95</ele>
        <time>2015-03-07T10:14:10Z</time>
      </trkpt>
      <trkpt lat="48.33232" lon="2.84463">
        <ele>95</ele>
        <time>2015-03-07T10:14:17Z</time>
      </trkpt>
      <trkpt lat="48.33224" lon="2.84465">
        <ele>94</ele>
        <time>2015-03-07T10:14:24Z</time>
      </trkpt>
      <trkpt lat="48.33216" lon="2.84466">
        <ele>94</ele>
        <time>2015-03-07T10:14:29Z</time>
      </trkpt>
      <trkpt lat="48.33209" lon="2.84465">
        <ele>93</ele>
        <time>2015-03-07T10:14:33Z</time>
      </trkpt>
      <trkpt lat="48.33201" lon="2.84467">
        <ele>92</ele>
        <time>2015-03-07T10:14:40Z</time>
      </trkpt>
      <trkpt lat="48.33194" lon="2.84471">
        <ele>91</ele>
        <time>2015-03-07T10:14:45Z</time>
      </trkpt>
      <trkpt lat="48.33187" lon="2.84474">
        <ele>90</ele>
        <time>2015-03-07T10:14:58Z</time>
      </trkpt>
      <trkpt lat="48.33174" lon="2.8448">
        <ele>89</ele>
        <time>2015-03-07T10:15:03Z</time>
      </trkpt>
      <trkpt lat="48.33164" lon="2.84485">
        <ele>89</ele>
        <time>2015-03-07T10:15:07Z</time>
      </trkpt>
      <trkpt lat="48.33156" lon="2.84486">
        <ele>88</ele>
        <time>2015-03-07T10:15:12Z</time>
      </trkpt>
      <trkpt lat="48.33149" lon="2.84489">
        <ele>88</ele>
        <time>2015-03-07T10:15:18Z</time>
      </trkpt>
      <trkpt lat="48.33141" lon="2.84494">
        <ele>87</ele>
        <time>2015-03-07T10:15:23Z</time>
      </trkpt>
      <trkpt lat="48.33133" lon="2.84498">
        <ele>86</ele>
        <time>2015-03-07T10:15:30Z</time>
      </trkpt>
      <trkpt lat="48.33126" lon="2.84502">
        <ele>86</ele>
        <time>2015-03-07T10:15:36Z</time>
      </trkpt>
      <trkpt lat="48.3312" lon="2.8451">
        <ele>86</ele>
        <time>2015-03-07T10:15:41Z</time>
      </trkpt>
      <trkpt lat="48.33113" lon="2.84517">
        <ele>85</ele>
        <time>2015-03-07T10:15:48Z</time>
      </trkpt>
      <trkpt lat="48.33104" lon="2.84521">
        <ele>84</ele>
        <time>2015-03-07T10:15:53Z</time>
      </trkpt>
      <trkpt lat="48.33098" lon="2.84528">
        <ele>84</ele>
        <time>2015-03-07T10:15:58Z</time>
      </trkpt>
      <trkpt lat="48.33091" lon="2.84533">
        <ele>83</ele>
        <time>2015-03-07T10:16:03Z</time>
      </trkpt>
      <trkpt lat="48.33082" lon="2.84537">
        <ele>82</ele>
        <time>2015-03-07T10:16:08Z</time>
      </trkpt>
      <trkpt lat="48.33074" lon="2.8454">
        <ele>81</ele>
        <time>2015-03-07T10:16:14Z</time>
      </trkpt>
      <trkpt lat="48.33067" lon="2.8454">
        <ele>81</ele>
        <time>2015-03-07T10:16:20Z</time>
      </trkpt>
      <trkpt lat="48.33058" lon="2.84543">
        <ele>81</ele>
        <time>2015-03-07T10:16:26Z</time>
      </trkpt>
      <trkpt lat="48.33051" lon="2.84547">
        <ele>81</ele>
        <time>2015-03-07T10:16:32Z</time>
      </trkpt>
      <trkpt lat="48.33042" lon="2.8455">
        <ele>80</ele>
        <time>2015-03-07T10:16:38Z</time>
      </trkpt>
      <trkpt lat="48.33033" lon="2.84554">
        <ele>80</ele>
        <time>2015-03-07T10:16:43Z</time>
      </trkpt>
      <trkpt lat="48.33026" lon="2.84556">
        <ele>79</ele>
        <time>2015-03-07T10:16:48Z</time>
      </trkpt>
      <trkpt lat="48.33017" lon="2.84557">
        <ele>79</ele>
        <time>2015-03-07T10:16:54Z</time>
      </trkpt>
      <trkpt lat="48.33009" lon="2.84559">
        <ele>78</ele>
        <time>2015-03-07T10:16:59Z</time>
      </trkpt>
      <trkpt lat="48.33001" lon="2.84562">
        <ele>78</ele>
        <time>2015-03-07T10:17:06Z</time>
      </trkpt>
      <trkpt lat="48.32993" lon="2.84566">
        <ele>77</ele>
        <time>2015-03-07T10:17:13Z</time>
      </trkpt>
      <trkpt lat="48.32985" lon="2.84569">
        <ele>77</ele>
        <time>2015-03-07T10:17:19Z</time>
      </trkpt>
      <trkpt lat="48.32977" lon="2.84576">
        <ele>77</ele>
        <time>2015-03-07T10:17:25Z</time>
      </trkpt>
      <trkpt lat="48.32972" lon="2.84587">
        <ele>77</ele>
        <time>2015-03-07T10:17:30Z</time>
      </trkpt>
      <trkpt lat="48.32967" lon="2.84595">
        <ele>76</ele>
        <time>2015-03-07T10:17:35Z</time>
      </trkpt>
      <trkpt lat="48.3296" lon="2.84599">
        <ele>76</ele>
        <time>2015-03-07T10:17:41Z</time>
      </trkpt>
      <trkpt lat="48.32952" lon="2.84605">
        <ele>75</ele>
        <time>2015-03-07T10:17:51Z</time>
      </trkpt>
      <trkpt lat="48.32949" lon="2.84617">
        <ele>75</ele>
        <time>2015-03-07T10:17:56Z</time>
      </trkpt>
      <trkpt lat="48.3295" lon="2.84629">
        <ele>74</ele>
        <time>2015-03-07T10:18:00Z</time>
      </trkpt>
      <trkpt lat="48.32951" lon="2.84642">
        <ele>72</ele>
        <time>2015-03-07T10:18:06Z</time>
      </trkpt>
      <trkpt lat="48.32951" lon="2.84653">
        <ele>71</ele>
        <time>2015-03-07T10:18:10Z</time>
      </trkpt>
      <trkpt lat="48.32955" lon="2.84666">
        <ele>71</ele>
        <time>2015-03-07T10:18:15Z</time>
      </trkpt>
      <trkpt lat="48.32958" lon="2.84677">
        <ele>70</ele>
        <time>2015-03-07T10:18:21Z</time>
      </trkpt>
      <trkpt lat="48.3296" lon="2.84689">
        <ele>69</ele>
        <time>2015-03-07T10:18:26Z</time>
      </trkpt>
      <trkpt lat="48.32962" lon="2.84702">
        <ele>69</ele>
        <time>2015-03-07T10:18:31Z</time>
      </trkpt>
      <trkpt lat="48.32967" lon="2.84713">
        <ele>69</ele>
        <time>2015-03-07T10:18:37Z</time>
      </trkpt>
      <trkpt lat="48.32971" lon="2.84723">
        <ele>68</ele>
        <time>2015-03-07T10:18:42Z</time>
      </trkpt>
      <trkpt lat="48.32974" lon="2.84734">
        <ele>68</ele>
        <time>2015-03-07T10:18:48Z</time>
      </trkpt>
      <trkpt lat="48.3298" lon="2.84744">
        <ele>67</ele>
        <time>2015-03-07T10:18:55Z</time>
      </trkpt>
      <trkpt lat="48.32983" lon="2.84756">
        <ele>66</ele>
        <time>2015-03-07T10:19:01Z</time>
      </trkpt>
      <trkpt lat="48.32987" lon="2.84767">
        <ele>66</ele>
        <time>2015-03-07T10:19:08Z</time>
      </trkpt>
      <trkpt lat="48.32988" lon="2.84779">
        <ele>65</ele>
        <time>2015-03-07T10:19:13Z</time>
      </trkpt>
      <trkpt lat="48.32991" lon="2.8479">
        <ele>64</ele>
        <time>2015-03-07T10:19:18Z</time>
      </trkpt>
      <trkpt lat="48.32994" lon="2.84804">
        <ele>63</ele>
        <time>2015-03-07T10:19:23Z</time>
      </trkpt>
      <trkpt lat="48.32998" lon="2.84815">
        <ele>63</ele>
        <time>2015-03-07T10:19:28Z</time>
      </trkpt>
      <trkpt lat="48.33001" lon="2.84825">
        <ele>63</ele>
        <time>2015-03-07T10:19:34Z</time>
      </trkpt>
      <trkpt lat="48.33007" lon="2.84835">
        <ele>63</ele>
        <time>2015-03-07T10:19:42Z</time>
      </trkpt>
      <trkpt lat="48.33012" lon="2.84845">
        <ele>65</ele>
        <time>2015-03-07T10:19:54Z</time>
      </trkpt>
      <trkpt lat="48.33013" lon="2.84858">
        <ele>65</ele>
        <time>2015-03-07T10:20:01Z</time>
      </trkpt>
      <trkpt lat="48.33013" lon="2.84868">
        <ele>61</ele>
        <time>2015-03-07T10:20:28Z</time>
      </trkpt>
      <trkpt lat="48.33012" lon="2.84882">
        <ele>60</ele>
        <time>2015-03-07T10:20:32Z</time>
      </trkpt>
      <trkpt lat="48.33015" lon="2.84892">
        <ele>59</ele>
        <time>2015-03-07T10:20:38Z</time>
      </trkpt>
      <trkpt lat="48.33023" lon="2.84902">
        <ele>58</ele>
        <time>2015-03-07T10:20:43Z</time>
      </trkpt>
      <trkpt lat="48.33028" lon="2.84913">
        <ele>57</ele>
        <time>2015-03-07T10:20:55Z</time>
      </trkpt>
      <trkpt lat="48.3303" lon="2.84926">
        <ele>56</ele>
        <time>2015-03-07T10:21:17Z</time>
      </trkpt>
      <trkpt lat="48.33029" lon="2.84939">
        <ele>56</ele>
        <time>2015-03-07T10:21:39Z</time>
      </trkpt>
      <trkpt lat="48.33034" lon="2.8495">
        <ele>56</ele>
        <time>2015-03-07T10:21:53Z</time>
      </trkpt>
      <trkpt lat="48.33036" lon="2.84963">
        <ele>56</ele>
        <time>2015-03-07T10:22:00Z</time>
      </trkpt>
      <trkpt lat="48.33039" lon="2.84975">
        <ele>55</ele>
        <time>2015-03-07T10:22:24Z</time>
      </trkpt>
      <trkpt lat="48.33044" lon="2.84985">
        <ele>57</ele>
        <time>2015-03-07T10:22:42Z</time>
      </trkpt>
      <trkpt lat="48.33042" lon="2.84998">
        <ele>57</ele>
        <time>2015-03-07T10:22:57Z</time>
      </trkpt>
      <trkpt lat="48.33044" lon="2.84985">
        <ele>61</ele>
        <time>2015-03-07T10:23:46Z</time>
      </trkpt>
      <trkpt lat="48.33039" lon="2.84975">
        <ele>62</ele>
        <time>2015-03-07T10:23:57Z</time>
      </trkpt>
      <trkpt lat="48.33032" lon="2.84967">
        <ele>61</ele>
        <time>2015-03-07T10:24:05Z</time>
      </trkpt>
      <trkpt lat="48.33029" lon="2.84955">
        <ele>60</ele>
        <time>2015-03-07T10:24:15Z</time>
      </trkpt>
      <trkpt lat="48.33025" lon="2.84944">
        <ele>60</ele>
        <time>2015-03-07T10:24:32Z</time>
      </trkpt>
      <trkpt lat="48.33022" lon="2.84931">
        <ele>57</ele>
        <time>2015-03-07T10:24:50Z</time>
      </trkpt>
      <trkpt lat="48.3302" lon="2.84919">
        <ele>56</ele>
        <time>2015-03-07T10:25:22Z</time>
      </trkpt>
      <trkpt lat="48.33017" lon="2.84906">
        <ele>55</ele>
        <time>2015-03-07T10:25:31Z</time>
      </trkpt>
      <trkpt lat="48.33016" lon="2.84894">
        <ele>54</ele>
        <time>2015-03-07T10:25:39Z</time>
      </trkpt>
      <trkpt lat="48.33011" lon="2.84883">
        <ele>54</ele>
        <time>2015-03-07T10:25:47Z</time>
      </trkpt>
      <trkpt lat="48.33007" lon="2.84872">
        <ele>54</ele>
        <time>2015-03-07T10:25:54Z</time>
      </trkpt>
      <trkpt lat="48.33007" lon="2.84859">
        <ele>53</ele>
        <time>2015-03-07T10:26:04Z</time>
      </trkpt>
      <trkpt lat="48.33007" lon="2.84846">
        <ele>53</ele>
        <time>2015-03-07T10:26:19Z</time>
      </trkpt>
      <trkpt lat="48.33003" lon="2.84834">
        <ele>53</ele>
        <time>2015-03-07T10:26:23Z</time>
      </trkpt>
      <trkpt lat="48.33" lon="2.84822">
        <ele>54</ele>
        <time>2015-03-07T10:26:28Z</time>
      </trkpt>
      <trkpt lat="48.32997" lon="2.84809">
        <ele>54</ele>
        <time>2015-03-07T10:26:34Z</time>
      </trkpt>
      <trkpt lat="48.32995" lon="2.84797">
        <ele>54</ele>
        <time>2015-03-07T10:26:40Z</time>
      </trkpt>
      <trkpt lat="48.32991" lon="2.84786">
        <ele>55</ele>
        <time>2015-03-07T10:26:46Z</time>
      </trkpt>
      <trkpt lat="48.32987" lon="2.84775">
        <ele>55</ele>
        <time>2015-03-07T10:26:53Z</time>
      </trkpt>
      <trkpt lat="48.32984" lon="2.84763">
        <ele>55</ele>
        <time>2015-03-07T10:27:00Z</time>
      </trkpt>
      <trkpt lat="48.32981" lon="2.84751">
        <ele>56</ele>
        <time>2015-03-07T10:27:06Z</time>
      </trkpt>
      <trkpt lat="48.32978" lon="2.8474">
        <ele>57</ele>
        <time>2015-03-07T10:27:11Z</time>
      </trkpt>
      <trkpt lat="48.32974" lon="2.8473">
        <ele>57</ele>
        <time>2015-03-07T10:27:17Z</time>
      </trkpt>
      <trkpt lat="48.3297" lon="2.84718">
        <ele>58</ele>
        <time>2015-03-07T10:27:23Z</time>
      </trkpt>
      <trkpt lat="48.32967" lon="2.84707">
        <ele>58</ele>
        <time>2015-03-07T10:27:29Z</time>
      </trkpt>
      <trkpt lat="48.32964" lon="2.84696">
        <ele>59</ele>
        <time>2015-03-07T10:27:35Z</time>
      </trkpt>
      <trkpt lat="48.32958" lon="2.84687">
        <ele>59</ele>
        <time>2015-03-07T10:27:43Z</time>
      </trkpt>
      <trkpt lat="48.32953" lon="2.84676">
        <ele>59</ele>
        <time>2015-03-07T10:27:48Z</time>
      </trkpt>
      <trkpt lat="48.32945" lon="2.84677">
        <ele>59</ele>
        <time>2015-03-07T10:27:59Z</time>
      </trkpt>
      <trkpt lat="48.32938" lon="2.84683">
        <ele>60</ele>
        <time>2015-03-07T10:28:05Z</time>
      </trkpt>
      <trkpt lat="48.32931" lon="2.84691">
        <ele>60</ele>
        <time>2015-03-07T10:28:10Z</time>
      </trkpt>
      <trkpt lat="48.32924" lon="2.84697">
        <ele>61</ele>
        <time>2015-03-07T10:28:16Z</time>
      </trkpt>
      <trkpt lat="48.32917" lon="2.84701">
        <ele>61</ele>
        <time>2015-03-07T10:28:21Z</time>
      </trkpt>
      <trkpt lat="48.32909" lon="2.84706">
        <ele>62</ele>
        <time>2015-03-07T10:28:26Z</time>
      </trkpt>
      <trkpt lat="48.329" lon="2.84706">
        <ele>63</ele>
        <time>2015-03-07T10:28:31Z</time>
      </trkpt>
      <trkpt lat="48.32892" lon="2.84708">
        <ele>64</ele>
        <time>2015-03-07T10:28:36Z</time>
      </trkpt>
      <trkpt lat="48.32885" lon="2.84714">
        <ele>64</ele>
        <time>2015-03-07T10:28:41Z</time>
      </trkpt>
      <trkpt lat="48.32877" lon="2.84717">
        <ele>64</ele>
        <time>2015-03-07T10:28:46Z</time>
      </trkpt>
      <trkpt lat="48.32868" lon="2.84717">
        <ele>64</ele>
        <time>2015-03-07T10:28:53Z</time>
      </trkpt>
      <trkpt lat="48.32859" lon="2.84717">
        <ele>64</ele>
        <time>2015-03-07T10:28:59Z</time>
      </trkpt>
      <trkpt lat="48.32851" lon="2.84717">
        <ele>64</ele>
        <time>2015-03-07T10:29:04Z</time>
      </trkpt>
      <trkpt lat="48.32844" lon="2.84722">
        <ele>64</ele>
        <time>2015-03-07T10:29:08Z</time>
      </trkpt>
      <trkpt lat="48.32837" lon="2.84727">
        <ele>64</ele>
        <time>2015-03-07T10:29:13Z</time>
      </trkpt>
      <trkpt lat="48.32829" lon="2.8473">
        <ele>64</ele>
        <time>2015-03-07T10:29:20Z</time>
      </trkpt>
      <trkpt lat="48.32822" lon="2.84732">
        <ele>64</ele>
        <time>2015-03-07T10:29:25Z</time>
      </trkpt>
      <trkpt lat="48.32814" lon="2.84737">
        <ele>64</ele>
        <time>2015-03-07T10:29:30Z</time>
      </trkpt>
      <trkpt lat="48.32806" lon="2.8474">
        <ele>65</ele>
        <time>2015-03-07T10:29:35Z</time>
      </trkpt>
      <trkpt lat="48.328" lon="2.84744">
        <ele>65</ele>
        <time>2015-03-07T10:29:40Z</time>
      </trkpt>
      <trkpt lat="48.32793" lon="2.8475">
        <ele>65</ele>
        <time>2015-03-07T10:29:45Z</time>
      </trkpt>
      <trkpt lat="48.32785" lon="2.84754">
        <ele>65</ele>
        <time>2015-03-07T10:29:50Z</time>
      </trkpt>
      <trkpt lat="48.32777" lon="2.84756">
        <ele>65</ele>
        <time>2015-03-07T10:29:56Z</time>
      </trkpt>
      <trkpt lat="48.3277" lon="2.84763">
        <ele>65</ele>
        <time>2015-03-07T10:30:01Z</time>
      </trkpt>
      <trkpt lat="48.32762" lon="2.84769">
        <ele>66</ele>
        <time>2015-03-07T10:30:08Z</time>
      </trkpt>
      <trkpt lat="48.32755" lon="2.84777">
        <ele>67</ele>
        <time>2015-03-07T10:30:14Z</time>
      </trkpt>
      <trkpt lat="48.32748" lon="2.84785">
        <ele>67</ele>
        <time>2015-03-07T10:30:19Z</time>
      </trkpt>
      <trkpt lat="48.32742" lon="2.84792">
        <ele>67</ele>
        <time>2015-03-07T10:30:25Z</time>
      </trkpt>
      <trkpt lat="48.32733" lon="2.84801">
        <ele>67</ele>
        <time>2015-03-07T10:30:30Z</time>
      </trkpt>
      <trkpt lat="48.32727" lon="2.84807">
        <ele>67</ele>
        <time>2015-03-07T10:30:35Z</time>
      </trkpt>
      <trkpt lat="48.32719" lon="2.84811">
        <ele>67</ele>
        <time>2015-03-07T10:30:40Z</time>
      </trkpt>
      <trkpt lat="48.32711" lon="2.84817">
        <ele>67</ele>
        <time>2015-03-07T10:30:47Z</time>
      </trkpt>
      <trkpt lat="48.32703" lon="2.84824">
        <ele>67</ele>
        <time>2015-03-07T10:30:52Z</time>
      </trkpt>
      <trkpt lat="48.32695" lon="2.84828">
        <ele>68</ele>
        <time>2015-03-07T10:30:58Z</time>
      </trkpt>
      <trkpt lat="48.32689" lon="2.84837">
        <ele>69</ele>
        <time>2015-03-07T10:31:04Z</time>
      </trkpt>
      <trkpt lat="48.32685" lon="2.84849">
        <ele>69</ele>
        <time>2015-03-07T10:31:09Z</time>
      </trkpt>
      <trkpt lat="48.3268" lon="2.8486">
        <ele>70</ele>
        <time>2015-03-07T10:31:15Z</time>
      </trkpt>
      <trkpt lat="48.32677" lon="2.84871">
        <ele>70</ele>
        <time>2015-03-07T10:31:20Z</time>
      </trkpt>
      <trkpt lat="48.32673" lon="2.84883">
        <ele>70</ele>
        <time>2015-03-07T10:31:25Z</time>
      </trkpt>
      <trkpt lat="48.32668" lon="2.84893">
        <ele>71</ele>
        <time>2015-03-07T10:31:31Z</time>
      </trkpt>
      <trkpt lat="48.32664" lon="2.84904">
        <ele>71</ele>
        <time>2015-03-07T10:31:37Z</time>
      </trkpt>
      <trkpt lat="48.32658" lon="2.84914">
        <ele>70</ele>
        <time>2015-03-07T10:31:43Z</time>
      </trkpt>
      <trkpt lat="48.32653" lon="2.84923">
        <ele>70</ele>
        <time>2015-03-07T10:31:50Z</time>
      </trkpt>
      <trkpt lat="48.32651" lon="2.84935">
        <ele>71</ele>
        <time>2015-03-07T10:31:54Z</time>
      </trkpt>
      <trkpt lat="48.32652" lon="2.84953">
        <ele>70</ele>
        <time>2015-03-07T10:31:59Z</time>
      </trkpt>
      <trkpt lat="48.32656" lon="2.84965">
        <ele>70</ele>
        <time>2015-03-07T10:32:05Z</time>
      </trkpt>
      <trkpt lat="48.32661" lon="2.84975">
        <ele>69</ele>
        <time>2015-03-07T10:32:11Z</time>
      </trkpt>
      <trkpt lat="48.32667" lon="2.84985">
        <ele>68</ele>
        <time>2015-03-07T10:32:16Z</time>
      </trkpt>
      <trkpt lat="48.32673" lon="2.84995">
        <ele>67</ele>
        <time>2015-03-07T10:32:21Z</time>
      </trkpt>
      <trkpt lat="48.32678" lon="2.85005">
        <ele>67</ele>
        <time>2015-03-07T10:32:28Z</time>
      </trkpt>
      <trkpt lat="48.32683" lon="2.85014">
        <ele>66</ele>
        <time>2015-03-07T10:32:34Z</time>
      </trkpt>
      <trkpt lat="48.32688" lon="2.85026">
        <ele>65</ele>
        <time>2015-03-07T10:32:39Z</time>
      </trkpt>
      <trkpt lat="48.32694" lon="2.85036">
        <ele>65</ele>
        <time>2015-03-07T10:32:44Z</time>
      </trkpt>
      <trkpt lat="48.32698" lon="2.85044">
        <ele>65</ele>
        <time>2015-03-07T10:32:48Z</time>
      </trkpt>
      <trkpt lat="48.32704" lon="2.85054">
        <ele>65</ele>
        <time>2015-03-07T10:32:53Z</time>
      </trkpt>
      <trkpt lat="48.32708" lon="2.85066">
        <ele>65</ele>
        <time>2015-03-07T10:33:00Z</time>
      </trkpt>
      <trkpt lat="48.32712" lon="2.85077">
        <ele>65</ele>
        <time>2015-03-07T10:33:07Z</time>
      </trkpt>
      <trkpt lat="48.32717" lon="2.85088">
        <ele>65</ele>
        <time>2015-03-07T10:33:12Z</time>
      </trkpt>
      <trkpt lat="48.32721" lon="2.85099">
        <ele>65</ele>
        <time>2015-03-07T10:33:18Z</time>
      </trkpt>
      <trkpt lat="48.32723" lon="2.8511">
        <ele>64</ele>
        <time>2015-03-07T10:33:25Z</time>
      </trkpt>
      <trkpt lat="48.32729" lon="2.8512">
        <ele>64</ele>
        <time>2015-03-07T10:33:31Z</time>
      </trkpt>
      <trkpt lat="48.32734" lon="2.85127">
        <ele>64</ele>
        <time>2015-03-07T10:33:35Z</time>
      </trkpt>
      <trkpt lat="48.32738" lon="2.85139">
        <ele>64</ele>
        <time>2015-03-07T10:33:40Z</time>
      </trkpt>
      <trkpt lat="48.32741" lon="2.85151">
        <ele>64</ele>
        <time>2015-03-07T10:33:45Z</time>
      </trkpt>
      <trkpt lat="48.32747" lon="2.8516">
        <ele>64</ele>
        <time>2015-03-07T10:33:50Z</time>
      </trkpt>
      <trkpt lat="48.32752" lon="2.8517">
        <ele>64</ele>
        <time>2015-03-07T10:33:57Z</time>
      </trkpt>
      <trkpt lat="48.32755" lon="2.8518">
        <ele>64</ele>
        <time>2015-03-07T10:34:01Z</time>
      </trkpt>
      <trkpt lat="48.32759" lon="2.85192">
        <ele>64</ele>
        <time>2015-03-07T10:34:06Z</time>
      </trkpt>
      <trkpt lat="48.32763" lon="2.85204">
        <ele>65</ele>
        <time>2015-03-07T10:34:16Z</time>
      </trkpt>
      <trkpt lat="48.32765" lon="2.85216">
        <ele>65</ele>
        <time>2015-03-07T10:34:22Z</time>
      </trkpt>
      <trkpt lat="48.3277" lon="2.85227">
        <ele>65</ele>
        <time>2015-03-07T10:34:29Z</time>
      </trkpt>
      <trkpt lat="48.32773" lon="2.85239">
        <ele>65</ele>
        <time>2015-03-07T10:34:35Z</time>
      </trkpt>
      <trkpt lat="48.32779" lon="2.85249">
        <ele>66</ele>
        <time>2015-03-07T10:34:42Z</time>
      </trkpt>
      <trkpt lat="48.32785" lon="2.85256">
        <ele>66</ele>
        <time>2015-03-07T10:34:48Z</time>
      </trkpt>
      <trkpt lat="48.32789" lon="2.85268">
        <ele>66</ele>
        <time>2015-03-07T10:34:56Z</time>
      </trkpt>
      <trkpt lat="48.32795" lon="2.85278">
        <ele>66</ele>
        <time>2015-03-07T10:35:01Z</time>
      </trkpt>
      <trkpt lat="48.32799" lon="2.85286">
        <ele>65</ele>
        <time>2015-03-07T10:35:05Z</time>
      </trkpt>
      <trkpt lat="48.32807" lon="2.85294">
        <ele>65</ele>
        <time>2015-03-07T10:35:11Z</time>
      </trkpt>
      <trkpt lat="48.32812" lon="2.85304">
        <ele>66</ele>
        <time>2015-03-07T10:35:17Z</time>
      </trkpt>
      <trkpt lat="48.32816" lon="2.85315">
        <ele>65</ele>
        <time>2015-03-07T10:35:24Z</time>
      </trkpt>
      <trkpt lat="48.32819" lon="2.85326">
        <ele>65</ele>
        <time>2015-03-07T10:35:29Z</time>
      </trkpt>
      <trkpt lat="48.32823" lon="2.85337">
        <ele>65</ele>
        <time>2015-03-07T10:35:35Z</time>
      </trkpt>
      <trkpt lat="48.32826" lon="2.85349">
        <ele>64</ele>
        <time>2015-03-07T10:35:41Z</time>
      </trkpt>
      <trkpt lat="48.32829" lon="2.8536">
        <ele>64</ele>
        <time>2015-03-07T10:35:46Z</time>
      </trkpt>
      <trkpt lat="48.32833" lon="2.85371">
        <ele>64</ele>
        <time>2015-03-07T10:35:51Z</time>
      </trkpt>
      <trkpt lat="48.32837" lon="2.85381">
        <ele>63</ele>
        <time>2015-03-07T10:35:57Z</time>
      </trkpt>
      <trkpt lat="48.32843" lon="2.8539">
        <ele>63</ele>
        <time>2015-03-07T10:36:03Z</time>
      </trkpt>
      <trkpt lat="48.32844" lon="2.85403">
        <ele>62</ele>
        <time>2015-03-07T10:36:08Z</time>
      </trkpt>
      <trkpt lat="48.32845" lon="2.85416">
        <ele>62</ele>
        <time>2015-03-07T10:36:13Z</time>
      </trkpt>
      <trkpt lat="48.32851" lon="2.85425">
        <ele>61</ele>
        <time>2015-03-07T10:36:19Z</time>
      </trkpt>
      <trkpt lat="48.32851" lon="2.85438">
        <ele>61</ele>
        <time>2015-03-07T10:36:25Z</time>
      </trkpt>
      <trkpt lat="48.32854" lon="2.85449">
        <ele>60</ele>
        <time>2015-03-07T10:36:30Z</time>
      </trkpt>
      <trkpt lat="48.32858" lon="2.8546">
        <ele>60</ele>
        <time>2015-03-07T10:36:37Z</time>
      </trkpt>
      <trkpt lat="48.32862" lon="2.85471">
        <ele>60</ele>
        <time>2015-03-07T10:36:42Z</time>
      </trkpt>
      <trkpt lat="48.32867" lon="2.8548">
        <ele>60</ele>
        <time>2015-03-07T10:36:49Z</time>
      </trkpt>
      <trkpt lat="48.3287" lon="2.85493">
        <ele>61</ele>
        <time>2015-03-07T10:36:57Z</time>
      </trkpt>
      <trkpt lat="48.32872" lon="2.85503">
        <ele>62</ele>
        <time>2015-03-07T10:37:03Z</time>
      </trkpt>
      <trkpt lat="48.32874" lon="2.85516">
        <ele>63</ele>
        <time>2015-03-07T10:37:09Z</time>
      </trkpt>
      <trkpt lat="48.32874" lon="2.85528">
        <ele>63</ele>
        <time>2015-03-07T10:37:14Z</time>
      </trkpt>
      <trkpt lat="48.32873" lon="2.85539">
        <ele>64</ele>
        <time>2015-03-07T10:37:21Z</time>
      </trkpt>
      <trkpt lat="48.3287" lon="2.8555">
        <ele>64</ele>
        <time>2015-03-07T10:37:26Z</time>
      </trkpt>
      <trkpt lat="48.32867" lon="2.85562">
        <ele>65</ele>
        <time>2015-03-07T10:37:32Z</time>
      </trkpt>
      <trkpt lat="48.32865" lon="2.85574">
        <ele>66</ele>
        <time>2015-03-07T10:37:38Z</time>
      </trkpt>
      <trkpt lat="48.32859" lon="2.85584">
        <ele>67</ele>
        <time>2015-03-07T10:37:44Z</time>
      </trkpt>
      <trkpt lat="48.32861" lon="2.85596">
        <ele>68</ele>
        <time>2015-03-07T10:37:49Z</time>
      </trkpt>
      <trkpt lat="48.32857" lon="2.85608">
        <ele>69</ele>
        <time>2015-03-07T10:37:57Z</time>
      </trkpt>
      <trkpt lat="48.32853" lon="2.85619">
        <ele>69</ele>
        <time>2015-03-07T10:38:03Z</time>
      </trkpt>
      <trkpt lat="48.3285" lon="2.85631">
        <ele>70</ele>
        <time>2015-03-07T10:38:10Z</time>
      </trkpt>
      <trkpt lat="48.32846" lon="2.85643">
        <ele>70</ele>
        <time>2015-03-07T10:38:16Z</time>
      </trkpt>
      <trkpt lat="48.32843" lon="2.85655">
        <ele>71</ele>
        <time>2015-03-07T10:38:22Z</time>
      </trkpt>
      <trkpt lat="48.32841" lon="2.85666">
        <ele>72</ele>
        <time>2015-03-07T10:38:32Z</time>
      </trkpt>
      <trkpt lat="48.32835" lon="2.85675">
        <ele>73</ele>
        <time>2015-03-07T10:38:39Z</time>
      </trkpt>
      <trkpt lat="48.32831" lon="2.85686">
        <ele>75</ele>
        <time>2015-03-07T10:38:46Z</time>
      </trkpt>
      <trkpt lat="48.32825" lon="2.85693">
        <ele>75</ele>
        <time>2015-03-07T10:38:53Z</time>
      </trkpt>
      <trkpt lat="48.32818" lon="2.85702">
        <ele>76</ele>
        <time>2015-03-07T10:38:59Z</time>
      </trkpt>
      <trkpt lat="48.32813" lon="2.85713">
        <ele>77</ele>
        <time>2015-03-07T10:39:04Z</time>
      </trkpt>
      <trkpt lat="48.32807" lon="2.85723">
        <ele>78</ele>
        <time>2015-03-07T10:39:10Z</time>
      </trkpt>
      <trkpt lat="48.32803" lon="2.85733">
        <ele>78</ele>
        <time>2015-03-07T10:39:17Z</time>
      </trkpt>
      <trkpt lat="48.328" lon="2.85746">
        <ele>79</ele>
        <time>2015-03-07T10:39:24Z</time>
      </trkpt>
      <trkpt lat="48.32795" lon="2.85755">
        <ele>78</ele>
        <time>2015-03-07T10:39:30Z</time>
      </trkpt>
      <trkpt lat="48.32792" lon="2.85765">
        <ele>79</ele>
        <time>2015-03-07T10:39:35Z</time>
      </trkpt>
      <trkpt lat="48.32787" lon="2.85775">
        <ele>80</ele>
        <time>2015-03-07T10:39:41Z</time>
      </trkpt>
      <trkpt lat="48.32783" lon="2.85785">
        <ele>80</ele>
        <time>2015-03-07T10:39:46Z</time>
      </trkpt>
      <trkpt lat="48.3278" lon="2.85796">
        <ele>81</ele>
        <time>2015-03-07T10:39:52Z</time>
      </trkpt>
      <trkpt lat="48.32778" lon="2.85809">
        <ele>82</ele>
        <time>2015-03-07T10:39:59Z</time>
      </trkpt>
      <trkpt lat="48.32774" lon="2.85819">
        <ele>83</ele>
        <time>2015-03-07T10:40:06Z</time>
      </trkpt>
      <trkpt lat="48.32773" lon="2.85832">
        <ele>84</ele>
        <time>2015-03-07T10:40:12Z</time>
      </trkpt>
      <trkpt lat="48.32772" lon="2.85844">
        <ele>85</ele>
        <time>2015-03-07T10:40:19Z</time>
      </trkpt>
      <trkpt lat="48.32769" lon="2.85856">
        <ele>86</ele>
        <time>2015-03-07T10:40:27Z</time>
      </trkpt>
      <trkpt lat="48.32768" lon="2.85869">
        <ele>87</ele>
        <time>2015-03-07T10:40:33Z</time>
      </trkpt>
      <trkpt lat="48.32765" lon="2.85881">
        <ele>88</ele>
        <time>2015-03-07T10:40:40Z</time>
      </trkpt>
      <trkpt lat="48.32761" lon="2.85893">
        <ele>88</ele>
        <time>2015-03-07T10:40:45Z</time>
      </trkpt>
      <trkpt lat="48.3276" lon="2.85906">
        <ele>88</ele>
        <time>2015-03-07T10:40:51Z</time>
      </trkpt>
      <trkpt lat="48.32757" lon="2.85917">
        <ele>89</ele>
        <time>2015-03-07T10:40:58Z</time>
      </trkpt>
      <trkpt lat="48.32752" lon="2.85926">
        <ele>89</ele>
        <time>2015-03-07T10:41:03Z</time>
      </trkpt>
      <trkpt lat="48.32749" lon="2.85938">
        <ele>91</ele>
        <time>2015-03-07T10:41:10Z</time>
      </trkpt>
      <trkpt lat="48.32746" lon="2.8595">
        <ele>91</ele>
        <time>2015-03-07T10:41:17Z</time>
      </trkpt>
      <trkpt lat="48.32743" lon="2.85962">
        <ele>91</ele>
        <time>2015-03-07T10:41:26Z</time>
      </trkpt>
      <trkpt lat="48.32742" lon="2.85974">
        <ele>91</ele>
        <time>2015-03-07T10:41:32Z</time>
      </trkpt>
      <trkpt lat="48.3274" lon="2.85988">
        <ele>91</ele>
        <time>2015-03-07T10:41:37Z</time>
      </trkpt>
      <trkpt lat="48.32737" lon="2.85999">
        <ele>91</ele>
        <time>2015-03-07T10:41:42Z</time>
      </trkpt>
      <trkpt lat="48.32733" lon="2.86009">
        <ele>91</ele>
        <time>2015-03-07T10:41:47Z</time>
      </trkpt>
      <trkpt lat="48.32729" lon="2.86021">
        <ele>90</ele>
        <time>2015-03-07T10:41:53Z</time>
      </trkpt>
      <trkpt lat="48.32726" lon="2.86031">
        <ele>90</ele>
        <time>2015-03-07T10:41:59Z</time>
      </trkpt>
      <trkpt lat="48.32723" lon="2.86043">
        <ele>90</ele>
        <time>2015-03-07T10:42:04Z</time>
      </trkpt>
      <trkpt lat="48.32721" lon="2.86055">
        <ele>90</ele>
        <time>2015-03-07T10:42:11Z</time>
      </trkpt>
      <trkpt lat="48.32717" lon="2.86067">
        <ele>91</ele>
        <time>2015-03-07T10:42:17Z</time>
      </trkpt>
      <trkpt lat="48.32713" lon="2.86078">
        <ele>91</ele>
        <time>2015-03-07T10:42:23Z</time>
      </trkpt>
      <trkpt lat="48.32712" lon="2.86091">
        <ele>91</ele>
        <time>2015-03-07T10:42:30Z</time>
      </trkpt>
      <trkpt lat="48.3271" lon="2.86103">
        <ele>92</ele>
        <time>2015-03-07T10:42:41Z</time>
      </trkpt>
      <trkpt lat="48.32707" lon="2.86113">
        <ele>92</ele>
        <time>2015-03-07T10:42:49Z</time>
      </trkpt>
      <trkpt lat="48.32709" lon="2.86125">
        <ele>92</ele>
        <time>2015-03-07T10:42:54Z</time>
      </trkpt>
      <trkpt lat="48.32711" lon="2.86136">
        <ele>92</ele>
        <time>2015-03-07T10:43:02Z</time>
      </trkpt>
      <trkpt lat="48.32711" lon="2.86148">
        <ele>92</ele>
        <time>2015-03-07T10:43:07Z</time>
      </trkpt>
      <trkpt lat="48.32713" lon="2.86161">
        <ele>92</ele>
        <time>2015-03-07T10:43:16Z</time>
      </trkpt>
      <trkpt lat="48.32711" lon="2.86174">
        <ele>93</ele>
        <time>2015-03-07T10:43:23Z</time>
      </trkpt>
      <trkpt lat="48.32711" lon="2.86186">
        <ele>93</ele>
        <time>2015-03-07T10:43:29Z</time>
      </trkpt>
      <trkpt lat="48.32712" lon="2.86198">
        <ele>93</ele>
        <time>2015-03-07T10:43:40Z</time>
      </trkpt>
      <trkpt lat="48.32713" lon="2.86211">
        <ele>92</ele>
        <time>2015-03-07T10:43:50Z</time>
      </trkpt>
      <trkpt lat="48.32714" lon="2.86223">
        <ele>91</ele>
        <time>2015-03-07T10:43:56Z</time>
      </trkpt>
      <trkpt lat="48.32712" lon="2.86235">
        <ele>90</ele>
        <time>2015-03-07T10:44:01Z</time>
      </trkpt>
      <trkpt lat="48.32711" lon="2.86247">
        <ele>90</ele>
        <time>2015-03-07T10:44:07Z</time>
      </trkpt>
      <trkpt lat="48.32712" lon="2.86259">
        <ele>90</ele>
        <time>2015-03-07T10:44:12Z</time>
      </trkpt>
      <trkpt lat="48.32711" lon="2.86268">
        <ele>91</ele>
        <time>2015-03-07T10:44:18Z</time>
      </trkpt>
      <trkpt lat="48.32704" lon="2.86304">
        <ele>91</ele>
        <time>2015-03-07T10:44:23Z</time>
      </trkpt>
      <trkpt lat="48.32697" lon="2.86317">
        <ele>91</ele>
        <time>2015-03-07T10:44:27Z</time>
      </trkpt>
      <trkpt lat="48.32693" lon="2.86328">
        <ele>91</ele>
        <time>2015-03-07T10:44:35Z</time>
      </trkpt>
      <trkpt lat="48.32691" lon="2.86339">
        <ele>90</ele>
        <time>2015-03-07T10:44:40Z</time>
      </trkpt>
      <trkpt lat="48.32689" lon="2.86353">
        <ele>90</ele>
        <time>2015-03-07T10:44:45Z</time>
      </trkpt>
      <trkpt lat="48.32688" lon="2.86366">
        <ele>90</ele>
        <time>2015-03-07T10:44:51Z</time>
      </trkpt>
      <trkpt lat="48.32686" lon="2.86378">
        <ele>89</ele>
        <time>2015-03-07T10:44:59Z</time>
      </trkpt>
      <trkpt lat="48.32685" lon="2.86389">
        <ele>89</ele>
        <time>2015-03-07T10:45:04Z</time>
      </trkpt>
      <trkpt lat="48.32681" lon="2.86401">
        <ele>88</ele>
        <time>2015-03-07T10:45:09Z</time>
      </trkpt>
      <trkpt lat="48.32681" lon="2.86413">
        <ele>87</ele>
        <time>2015-03-07T10:45:13Z</time>
      </trkpt>
      <trkpt lat="48.32679" lon="2.86425">
        <ele>87</ele>
        <time>2015-03-07T10:45:17Z</time>
      </trkpt>
      <trkpt lat="48.32676" lon="2.86438">
        <ele>87</ele>
        <time>2015-03-07T10:45:22Z</time>
      </trkpt>
      <trkpt lat="48.32672" lon="2.86449">
        <ele>87</ele>
        <time>2015-03-07T10:45:26Z</time>
      </trkpt>
      <trkpt lat="48.32667" lon="2.8646">
        <ele>86</ele>
        <time>2015-03-07T10:45:30Z</time>
      </trkpt>
      <trkpt lat="48.32667" lon="2.8647">
        <ele>86</ele>
        <time>2015-03-07T10:45:34Z</time>
      </trkpt>
      <trkpt lat="48.32667" lon="2.86483">
        <ele>86</ele>
        <time>2015-03-07T10:45:40Z</time>
      </trkpt>
      <trkpt lat="48.32663" lon="2.86495">
        <ele>86</ele>
        <time>2015-03-07T10:45:46Z</time>
      </trkpt>
      <trkpt lat="48.32661" lon="2.86506">
        <ele>86</ele>
        <time>2015-03-07T10:45:53Z</time>
      </trkpt>
      <trkpt lat="48.3266" lon="2.86517">
        <ele>86</ele>
        <time>2015-03-07T10:45:58Z</time>
      </trkpt>
      <trkpt lat="48.32661" lon="2.86528">
        <ele>85</ele>
        <time>2015-03-07T10:46:03Z</time>
      </trkpt>
      <trkpt lat="48.32658" lon="2.86539">
        <ele>84</ele>
        <time>2015-03-07T10:46:08Z</time>
      </trkpt>
      <trkpt lat="48.32656" lon="2.86551">
        <ele>84</ele>
        <time>2015-03-07T10:46:13Z</time>
      </trkpt>
      <trkpt lat="48.32657" lon="2.86563">
        <ele>83</ele>
        <time>2015-03-07T10:46:19Z</time>
      </trkpt>
      <trkpt lat="48.32654" lon="2.86574">
        <ele>82</ele>
        <time>2015-03-07T10:46:24Z</time>
      </trkpt>
      <trkpt lat="48.32651" lon="2.86586">
        <ele>82</ele>
        <time>2015-03-07T10:46:30Z</time>
      </trkpt>
      <trkpt lat="48.32652" lon="2.86597">
        <ele>81</ele>
        <time>2015-03-07T10:46:36Z</time>
      </trkpt>
      <trkpt lat="48.32652" lon="2.8661">
        <ele>81</ele>
        <time>2015-03-07T10:46:42Z</time>
      </trkpt>
      <trkpt lat="48.32654" lon="2.86623">
        <ele>80</ele>
        <time>2015-03-07T10:46:48Z</time>
      </trkpt>
      <trkpt lat="48.32656" lon="2.86634">
        <ele>79</ele>
        <time>2015-03-07T10:46:53Z</time>
      </trkpt>
      <trkpt lat="48.32659" lon="2.86645">
        <ele>78</ele>
        <time>2015-03-07T10:46:59Z</time>
      </trkpt>
      <trkpt lat="48.32661" lon="2.86656">
        <ele>77</ele>
        <time>2015-03-07T10:47:04Z</time>
      </trkpt>
      <trkpt lat="48.32662" lon="2.86668">
        <ele>77</ele>
        <time>2015-03-07T10:47:10Z</time>
      </trkpt>
      <trkpt lat="48.32663" lon="2.86681">
        <ele>76</ele>
        <time>2015-03-07T10:47:16Z</time>
      </trkpt>
      <trkpt lat="48.32664" lon="2.86693">
        <ele>75</ele>
        <time>2015-03-07T10:47:22Z</time>
      </trkpt>
      <trkpt lat="48.32664" lon="2.86706">
        <ele>75</ele>
        <time>2015-03-07T10:47:29Z</time>
      </trkpt>
      <trkpt lat="48.32668" lon="2.86718">
        <ele>74</ele>
        <time>2015-03-07T10:47:35Z</time>
      </trkpt>
      <trkpt lat="48.32669" lon="2.8673">
        <ele>74</ele>
        <time>2015-03-07T10:47:41Z</time>
      </trkpt>
      <trkpt lat="48.32669" lon="2.86741">
        <ele>73</ele>
        <time>2015-03-07T10:47:46Z</time>
      </trkpt>
      <trkpt lat="48.3267" lon="2.86752">
        <ele>73</ele>
        <time>2015-03-07T10:47:51Z</time>
      </trkpt>
      <trkpt lat="48.32669" lon="2.86765">
        <ele>72</ele>
        <time>2015-03-07T10:47:56Z</time>
      </trkpt>
      <trkpt lat="48.32668" lon="2.86777">
        <ele>71</ele>
        <time>2015-03-07T10:48:01Z</time>
      </trkpt>
      <trkpt lat="48.3267" lon="2.86789">
        <ele>71</ele>
        <time>2015-03-07T10:48:06Z</time>
      </trkpt>
      <trkpt lat="48.32671" lon="2.86802">
        <ele>70</ele>
        <time>2015-03-07T10:48:11Z</time>
      </trkpt>
      <trkpt lat="48.32674" lon="2.86814">
        <ele>70</ele>
        <time>2015-03-07T10:48:16Z</time>
      </trkpt>
      <trkpt lat="48.32674" lon="2.86827">
        <ele>69</ele>
        <time>2015-03-07T10:48:21Z</time>
      </trkpt>
      <trkpt lat="48.32677" lon="2.86839">
        <ele>69</ele>
        <time>2015-03-07T10:48:27Z</time>
      </trkpt>
      <trkpt lat="48.32679" lon="2.86851">
        <ele>68</ele>
        <time>2015-03-07T10:48:34Z</time>
      </trkpt>
      <trkpt lat="48.32684" lon="2.86863">
        <ele>67</ele>
        <time>2015-03-07T10:48:41Z</time>
      </trkpt>
      <trkpt lat="48.32686" lon="2.86875">
        <ele>67</ele>
        <time>2015-03-07T10:48:46Z</time>
      </trkpt>
      <trkpt lat="48.3269" lon="2.86886">
        <ele>67</ele>
        <time>2015-03-07T10:48:52Z</time>
      </trkpt>
      <trkpt lat="48.32691" lon="2.86898">
        <ele>67</ele>
        <time>2015-03-07T10:48:58Z</time>
      </trkpt>
      <trkpt lat="48.32693" lon="2.86912">
        <ele>67</ele>
        <time>2015-03-07T10:49:03Z</time>
      </trkpt>
      <trkpt lat="48.32696" lon="2.86924">
        <ele>66</ele>
        <time>2015-03-07T10:49:10Z</time>
      </trkpt>
      <trkpt lat="48.32698" lon="2.86936">
        <ele>66</ele>
        <time>2015-03-07T10:49:16Z</time>
      </trkpt>
      <trkpt lat="48.32703" lon="2.86945">
        <ele>65</ele>
        <time>2015-03-07T10:49:21Z</time>
      </trkpt>
      <trkpt lat="48.32704" lon="2.86957">
        <ele>65</ele>
        <time>2015-03-07T10:49:26Z</time>
      </trkpt>
      <trkpt lat="48.32706" lon="2.86969">
        <ele>65</ele>
        <time>2015-03-07T10:49:32Z</time>
      </trkpt>
      <trkpt lat="48.3271" lon="2.86981">
        <ele>65</ele>
        <time>2015-03-07T10:49:38Z</time>
      </trkpt>
      <trkpt lat="48.32716" lon="2.8699">
        <ele>64</ele>
        <time>2015-03-07T10:49:44Z</time>
      </trkpt>
      <trkpt lat="48.32716" lon="2.87003">
        <ele>64</ele>
        <time>2015-03-07T10:49:49Z</time>
      </trkpt>
      <trkpt lat="48.32714" lon="2.87014">
        <ele>64</ele>
        <time>2015-03-07T10:49:53Z</time>
      </trkpt>
      <trkpt lat="48.32714" lon="2.87028">
        <ele>64</ele>
        <time>2015-03-07T10:49:58Z</time>
      </trkpt>
      <trkpt lat="48.32717" lon="2.8704">
        <ele>64</ele>
        <time>2015-03-07T10:50:03Z</time>
      </trkpt>
      <trkpt lat="48.32719" lon="2.87052">
        <ele>65</ele>
        <time>2015-03-07T10:50:09Z</time>
      </trkpt>
      <trkpt lat="48.32722" lon="2.87063">
        <ele>65</ele>
        <time>2015-03-07T10:50:16Z</time>
      </trkpt>
      <trkpt lat="48.32722" lon="2.87075">
        <ele>65</ele>
        <time>2015-03-07T10:50:21Z</time>
      </trkpt>
      <trkpt lat="48.32722" lon="2.8709">
        <ele>65</ele>
        <time>2015-03-07T10:50:26Z</time>
      </trkpt>
      <trkpt lat="48.32723" lon="2.87101">
        <ele>65</ele>
        <time>2015-03-07T10:50:30Z</time>
      </trkpt>
      <trkpt lat="48.32723" lon="2.87114">
        <ele>65</ele>
        <time>2015-03-07T10:50:36Z</time>
      </trkpt>
      <trkpt lat="48.32723" lon="2.87127">
        <ele>65</ele>
        <time>2015-03-07T10:50:41Z</time>
      </trkpt>
      <trkpt lat="48.32724" lon="2.87139">
        <ele>65</ele>
        <time>2015-03-07T10:50:47Z</time>
      </trkpt>
      <trkpt lat="48.32727" lon="2.87152">
        <ele>64</ele>
        <time>2015-03-07T10:50:52Z</time>
      </trkpt>
      <trkpt lat="48.32727" lon="2.87164">
        <ele>64</ele>
        <time>2015-03-07T10:50:57Z</time>
      </trkpt>
      <trkpt lat="48.32727" lon="2.87176">
        <ele>64</ele>
        <time>2015-03-07T10:51:02Z</time>
      </trkpt>
      <trkpt lat="48.32727" lon="2.87188">
        <ele>64</ele>
        <time>2015-03-07T10:51:07Z</time>
      </trkpt>
      <trkpt lat="48.3273" lon="2.87199">
        <ele>64</ele>
        <time>2015-03-07T10:51:12Z</time>
      </trkpt>
      <trkpt lat="48.3273" lon="2.87212">
        <ele>64</ele>
        <time>2015-03-07T10:51:18Z</time>
      </trkpt>
      <trkpt lat="48.32731" lon="2.87223">
        <ele>65</ele>
        <time>2015-03-07T10:51:24Z</time>
      </trkpt>
      <trkpt lat="48.32733" lon="2.87235">
        <ele>65</ele>
        <time>2015-03-07T10:51:30Z</time>
      </trkpt>
      <trkpt lat="48.32739" lon="2.87244">
        <ele>65</ele>
        <time>2015-03-07T10:51:36Z</time>
      </trkpt>
      <trkpt lat="48.32739" lon="2.87257">
        <ele>65</ele>
        <time>2015-03-07T10:51:41Z</time>
      </trkpt>
      <trkpt lat="48.32741" lon="2.8727">
        <ele>65</ele>
        <time>2015-03-07T10:51:48Z</time>
      </trkpt>
      <trkpt lat="48.32741" lon="2.87282">
        <ele>65</ele>
        <time>2015-03-07T10:51:53Z</time>
      </trkpt>
      <trkpt lat="48.3274" lon="2.87294">
        <ele>65</ele>
        <time>2015-03-07T10:51:58Z</time>
      </trkpt>
      <trkpt lat="48.32739" lon="2.87308">
        <ele>65</ele>
        <time>2015-03-07T10:52:03Z</time>
      </trkpt>
      <trkpt lat="48.32739" lon="2.87322">
        <ele>65</ele>
        <time>2015-03-07T10:52:08Z</time>
      </trkpt>
      <trkpt lat="48.32738" lon="2.87334">
        <ele>65</ele>
        <time>2015-03-07T10:52:13Z</time>
      </trkpt>
      <trkpt lat="48.32738" lon="2.87346">
        <ele>66</ele>
        <time>2015-03-07T10:52:19Z</time>
      </trkpt>
      <trkpt lat="48.32737" lon="2.87358">
        <ele>67</ele>
        <time>2015-03-07T10:52:25Z</time>
      </trkpt>
      <trkpt lat="48.32735" lon="2.87371">
        <ele>67</ele>
        <time>2015-03-07T10:52:31Z</time>
      </trkpt>
      <trkpt lat="48.32734" lon="2.87382">
        <ele>68</ele>
        <time>2015-03-07T10:52:36Z</time>
      </trkpt>
      <trkpt lat="48.32733" lon="2.87393">
        <ele>67</ele>
        <time>2015-03-07T10:52:41Z</time>
      </trkpt>
      <trkpt lat="48.32731" lon="2.87406">
        <ele>67</ele>
        <time>2015-03-07T10:52:47Z</time>
      </trkpt>
      <trkpt lat="48.3273" lon="2.87418">
        <ele>67</ele>
        <time>2015-03-07T10:52:52Z</time>
      </trkpt>
      <trkpt lat="48.32726" lon="2.87429">
        <ele>67</ele>
        <time>2015-03-07T10:52:57Z</time>
      </trkpt>
      <trkpt lat="48.32723" lon="2.87441">
        <ele>67</ele>
        <time>2015-03-07T10:53:01Z</time>
      </trkpt>
      <trkpt lat="48.32722" lon="2.87453">
        <ele>68</ele>
        <time>2015-03-07T10:53:06Z</time>
      </trkpt>
      <trkpt lat="48.3272" lon="2.87465">
        <ele>68</ele>
        <time>2015-03-07T10:53:12Z</time>
      </trkpt>
      <trkpt lat="48.32718" lon="2.87478">
        <ele>68</ele>
        <time>2015-03-07T10:53:19Z</time>
      </trkpt>
      <trkpt lat="48.32715" lon="2.87489">
        <ele>69</ele>
        <time>2015-03-07T10:53:24Z</time>
      </trkpt>
      <trkpt lat="48.32713" lon="2.87501">
        <ele>69</ele>
        <time>2015-03-07T10:53:30Z</time>
      </trkpt>
      <trkpt lat="48.3271" lon="2.87511">
        <ele>69</ele>
        <time>2015-03-07T10:53:34Z</time>
      </trkpt>
      <trkpt lat="48.32707" lon="2.87523">
        <ele>69</ele>
        <time>2015-03-07T10:53:39Z</time>
      </trkpt>
      <trkpt lat="48.32702" lon="2.87533">
        <ele>70</ele>
        <time>2015-03-07T10:53:45Z</time>
      </trkpt>
      <trkpt lat="48.32698" lon="2.87545">
        <ele>69</ele>
        <time>2015-03-07T10:53:52Z</time>
      </trkpt>
      <trkpt lat="48.32694" lon="2.87555">
        <ele>70</ele>
        <time>2015-03-07T10:53:57Z</time>
      </trkpt>
      <trkpt lat="48.3269" lon="2.87565">
        <ele>70</ele>
        <time>2015-03-07T10:54:02Z</time>
      </trkpt>
      <trkpt lat="48.32686" lon="2.87577">
        <ele>70</ele>
        <time>2015-03-07T10:54:07Z</time>
      </trkpt>
      <trkpt lat="48.32682" lon="2.87588">
        <ele>70</ele>
        <time>2015-03-07T10:54:12Z</time>
      </trkpt>
      <trkpt lat="48.32678" lon="2.876">
        <ele>70</ele>
        <time>2015-03-07T10:54:16Z</time>
      </trkpt>
      <trkpt lat="48.32675" lon="2.87611">
        <ele>70</ele>
        <time>2015-03-07T10:54:21Z</time>
      </trkpt>
      <trkpt lat="48.32672" lon="2.87623">
        <ele>70</ele>
        <time>2015-03-07T10:54:29Z</time>
      </trkpt>
      <trkpt lat="48.32673" lon="2.87636">
        <ele>70</ele>
        <time>2015-03-07T10:54:39Z</time>
      </trkpt>
      <trkpt lat="48.32671" lon="2.87648">
        <ele>70</ele>
        <time>2015-03-07T10:54:44Z</time>
      </trkpt>
      <trkpt lat="48.32667" lon="2.87659">
        <ele>70</ele>
        <time>2015-03-07T10:54:49Z</time>
      </trkpt>
      <trkpt lat="48.32663" lon="2.8767">
        <ele>70</ele>
        <time>2015-03-07T10:54:55Z</time>
      </trkpt>
      <trkpt lat="48.32658" lon="2.8768">
        <ele>71</ele>
        <time>2015-03-07T10:55:00Z</time>
      </trkpt>
      <trkpt lat="48.32651" lon="2.87689">
        <ele>70</ele>
        <time>2015-03-07T10:55:04Z</time>
      </trkpt>
      <trkpt lat="48.32645" lon="2.87697">
        <ele>70</ele>
        <time>2015-03-07T10:55:09Z</time>
      </trkpt>
      <trkpt lat="48.32638" lon="2.87705">
        <ele>70</ele>
        <time>2015-03-07T10:55:14Z</time>
      </trkpt>
      <trkpt lat="48.32631" lon="2.87711">
        <ele>69</ele>
        <time>2015-03-07T10:55:21Z</time>
      </trkpt>
      <trkpt lat="48.32624" lon="2.87718">
        <ele>68</ele>
        <time>2015-03-07T10:55:28Z</time>
      </trkpt>
      <trkpt lat="48.32617" lon="2.87725">
        <ele>68</ele>
        <time>2015-03-07T10:55:33Z</time>
      </trkpt>
      <trkpt lat="48.3261" lon="2.87732">
        <ele>68</ele>
        <time>2015-03-07T10:55:43Z</time>
      </trkpt>
      <trkpt lat="48.32603" lon="2.87739">
        <ele>68</ele>
        <time>2015-03-07T10:55:48Z</time>
      </trkpt>
      <trkpt lat="48.32596" lon="2.87743">
        <ele>68</ele>
        <time>2015-03-07T10:55:53Z</time>
      </trkpt>
      <trkpt lat="48.32589" lon="2.87747">
        <ele>69</ele>
        <time>2015-03-07T10:55:57Z</time>
      </trkpt>
      <trkpt lat="48.32593" lon="2.87758">
        <ele>69</ele>
        <time>2015-03-07T10:56:06Z</time>
      </trkpt>
      <trkpt lat="48.326" lon="2.87761">
        <ele>69</ele>
        <time>2015-03-07T10:56:11Z</time>
      </trkpt>
      <trkpt lat="48.32608" lon="2.87765">
        <ele>68</ele>
        <time>2015-03-07T10:56:16Z</time>
      </trkpt>
      <trkpt lat="48.32616" lon="2.87766">
        <ele>68</ele>
        <time>2015-03-07T10:56:21Z</time>
      </trkpt>
      <trkpt lat="48.32625" lon="2.87769">
        <ele>68</ele>
        <time>2015-03-07T10:56:26Z</time>
      </trkpt>
      <trkpt lat="48.32633" lon="2.87771">
        <ele>69</ele>
        <time>2015-03-07T10:56:32Z</time>
      </trkpt>
      <trkpt lat="48.32641" lon="2.87774">
        <ele>69</ele>
        <time>2015-03-07T10:56:37Z</time>
      </trkpt>
      <trkpt lat="48.32649" lon="2.87777">
        <ele>69</ele>
        <time>2015-03-07T10:56:44Z</time>
      </trkpt>
      <trkpt lat="48.32657" lon="2.8778">
        <ele>68</ele>
        <time>2015-03-07T10:56:49Z</time>
      </trkpt>
      <trkpt lat="48.32665" lon="2.87783">
        <ele>68</ele>
        <time>2015-03-07T10:56:55Z</time>
      </trkpt>
      <trkpt lat="48.32674" lon="2.87783">
        <ele>69</ele>
        <time>2015-03-07T10:57:00Z</time>
      </trkpt>
      <trkpt lat="48.32682" lon="2.87785">
        <ele>70</ele>
        <time>2015-03-07T10:57:08Z</time>
      </trkpt>
      <trkpt lat="48.3269" lon="2.87788">
        <ele>70</ele>
        <time>2015-03-07T10:57:15Z</time>
      </trkpt>
      <trkpt lat="48.32697" lon="2.87794">
        <ele>70</ele>
        <time>2015-03-07T10:57:21Z</time>
      </trkpt>
      <trkpt lat="48.32704" lon="2.87801">
        <ele>71</ele>
        <time>2015-03-07T10:57:30Z</time>
      </trkpt>
      <trkpt lat="48.32712" lon="2.87807">
        <ele>72</ele>
        <time>2015-03-07T10:57:36Z</time>
      </trkpt>
      <trkpt lat="48.32719" lon="2.87813">
        <ele>72</ele>
        <time>2015-03-07T10:57:42Z</time>
      </trkpt>
      <trkpt lat="48.32727" lon="2.87817">
        <ele>72</ele>
        <time>2015-03-07T10:57:48Z</time>
      </trkpt>
      <trkpt lat="48.32735" lon="2.87819">
        <ele>73</ele>
        <time>2015-03-07T10:57:54Z</time>
      </trkpt>
      <trkpt lat="48.32744" lon="2.87818">
        <ele>73</ele>
        <time>2015-03-07T10:58:02Z</time>
      </trkpt>
      <trkpt lat="48.32752" lon="2.87819">
        <ele>73</ele>
        <time>2015-03-07T10:58:08Z</time>
      </trkpt>
      <trkpt lat="48.3276" lon="2.8782">
        <ele>73</ele>
        <time>2015-03-07T10:58:15Z</time>
      </trkpt>
      <trkpt lat="48.32769" lon="2.8782">
        <ele>73</ele>
        <time>2015-03-07T10:58:20Z</time>
      </trkpt>
      <trkpt lat="48.32777" lon="2.87821">
        <ele>74</ele>
        <time>2015-03-07T10:58:25Z</time>
      </trkpt>
      <trkpt lat="48.32786" lon="2.87824">
        <ele>75</ele>
        <time>2015-03-07T10:58:31Z</time>
      </trkpt>
      <trkpt lat="48.32794" lon="2.87825">
        <ele>75</ele>
        <time>2015-03-07T10:58:37Z</time>
      </trkpt>
      <trkpt lat="48.32802" lon="2.87828">
        <ele>76</ele>
        <time>2015-03-07T10:58:43Z</time>
      </trkpt>
      <trkpt lat="48.32809" lon="2.87834">
        <ele>76</ele>
        <time>2015-03-07T10:58:49Z</time>
      </trkpt>
      <trkpt lat="48.32817" lon="2.87838">
        <ele>77</ele>
        <time>2015-03-07T10:58:55Z</time>
      </trkpt>
      <trkpt lat="48.32824" lon="2.87841">
        <ele>77</ele>
        <time>2015-03-07T10:59:01Z</time>
      </trkpt>
      <trkpt lat="48.32831" lon="2.87845">
        <ele>78</ele>
        <time>2015-03-07T10:59:06Z</time>
      </trkpt>
      <trkpt lat="48.32838" lon="2.8785">
        <ele>78</ele>
        <time>2015-03-07T10:59:11Z</time>
      </trkpt>
      <trkpt lat="48.32846" lon="2.87856">
        <ele>78</ele>
        <time>2015-03-07T10:59:16Z</time>
      </trkpt>
      <trkpt lat="48.32854" lon="2.87861">
        <ele>79</ele>
        <time>2015-03-07T10:59:21Z</time>
      </trkpt>
      <trkpt lat="48.32862" lon="2.87864">
        <ele>79</ele>
        <time>2015-03-07T10:59:28Z</time>
      </trkpt>
      <trkpt lat="48.32869" lon="2.87872">
        <ele>80</ele>
        <time>2015-03-07T10:59:36Z</time>
      </trkpt>
      <trkpt lat="48.32876" lon="2.87878">
        <ele>80</ele>
        <time>2015-03-07T10:59:41Z</time>
      </trkpt>
      <trkpt lat="48.32884" lon="2.87884">
        <ele>80</ele>
        <time>2015-03-07T10:59:49Z</time>
      </trkpt>
      <trkpt lat="48.32891" lon="2.87892">
        <ele>80</ele>
        <time>2015-03-07T10:59:57Z</time>
      </trkpt>
      <trkpt lat="48.32898" lon="2.87899">
        <ele>80</ele>
        <time>2015-03-07T11:00:03Z</time>
      </trkpt>
      <trkpt lat="48.32904" lon="2.87907">
        <ele>81</ele>
        <time>2015-03-07T11:00:10Z</time>
      </trkpt>
      <trkpt lat="48.32912" lon="2.87912">
        <ele>82</ele>
        <time>2015-03-07T11:00:16Z</time>
      </trkpt>
      <trkpt lat="48.3292" lon="2.87919">
        <ele>82</ele>
        <time>2015-03-07T11:00:21Z</time>
      </trkpt>
      <trkpt lat="48.32926" lon="2.87927">
        <ele>83</ele>
        <time>2015-03-07T11:00:29Z</time>
      </trkpt>
      <trkpt lat="48.32933" lon="2.87936">
        <ele>83</ele>
        <time>2015-03-07T11:00:39Z</time>
      </trkpt>
      <trkpt lat="48.32937" lon="2.87945">
        <ele>84</ele>
        <time>2015-03-07T11:00:45Z</time>
      </trkpt>
      <trkpt lat="48.32943" lon="2.87955">
        <ele>85</ele>
        <time>2015-03-07T11:00:55Z</time>
      </trkpt>
      <trkpt lat="48.32947" lon="2.87965">
        <ele>86</ele>
        <time>2015-03-07T11:01:04Z</time>
      </trkpt>
      <trkpt lat="48.32945" lon="2.87976">
        <ele>86</ele>
        <time>2015-03-07T11:01:13Z</time>
      </trkpt>
      <trkpt lat="48.32943" lon="2.87989">
        <ele>88</ele>
        <time>2015-03-07T11:01:20Z</time>
      </trkpt>
      <trkpt lat="48.32939" lon="2.87999">
        <ele>89</ele>
        <time>2015-03-07T11:01:25Z</time>
      </trkpt>
      <trkpt lat="48.32938" lon="2.88012">
        <ele>90</ele>
        <time>2015-03-07T11:01:31Z</time>
      </trkpt>
      <trkpt lat="48.32936" lon="2.88024">
        <ele>91</ele>
        <time>2015-03-07T11:01:38Z</time>
      </trkpt>
      <trkpt lat="48.32935" lon="2.88035">
        <ele>92</ele>
        <time>2015-03-07T11:01:45Z</time>
      </trkpt>
      <trkpt lat="48.32932" lon="2.88046">
        <ele>92</ele>
        <time>2015-03-07T11:01:49Z</time>
      </trkpt>
      <trkpt lat="48.32931" lon="2.88058">
        <ele>93</ele>
        <time>2015-03-07T11:01:55Z</time>
      </trkpt>
      <trkpt lat="48.32929" lon="2.88069">
        <ele>94</ele>
        <time>2015-03-07T11:02:00Z</time>
      </trkpt>
      <trkpt lat="48.32926" lon="2.88081">
        <ele>94</ele>
        <time>2015-03-07T11:02:06Z</time>
      </trkpt>
      <trkpt lat="48.32922" lon="2.88092">
        <ele>95</ele>
        <time>2015-03-07T11:02:11Z</time>
      </trkpt>
      <trkpt lat="48.32918" lon="2.88102">
        <ele>95</ele>
        <time>2015-03-07T11:02:16Z</time>
      </trkpt>
      <trkpt lat="48.32915" lon="2.88113">
        <ele>95</ele>
        <time>2015-03-07T11:02:22Z</time>
      </trkpt>
      <trkpt lat="48.32911" lon="2.88123">
        <ele>95</ele>
        <time>2015-03-07T11:02:27Z</time>
      </trkpt>
      <trkpt lat="48.32906" lon="2.88133">
        <ele>94</ele>
        <time>2015-03-07T11:02:32Z</time>
      </trkpt>
      <trkpt lat="48.32901" lon="2.88143">
        <ele>94</ele>
        <time>2015-03-07T11:02:37Z</time>
      </trkpt>
      <trkpt lat="48.32898" lon="2.88156">
        <ele>94</ele>
        <time>2015-03-07T11:02:42Z</time>
      </trkpt>
      <trkpt lat="48.32896" lon="2.88168">
        <ele>93</ele>
        <time>2015-03-07T11:02:47Z</time>
      </trkpt>
      <trkpt lat="48.32892" lon="2.88179">
        <ele>93</ele>
        <time>2015-03-07T11:02:54Z</time>
      </trkpt>
      <trkpt lat="48.3289" lon="2.88191">
        <ele>92</ele>
        <time>2015-03-07T11:03:00Z</time>
      </trkpt>
      <trkpt lat="48.32887" lon="2.88204">
        <ele>92</ele>
        <time>2015-03-07T11:03:06Z</time>
      </trkpt>
      <trkpt lat="48.32884" lon="2.88214">
        <ele>92</ele>
        <time>2015-03-07T11:03:12Z</time>
      </trkpt>
      <trkpt lat="48.32879" lon="2.88224">
        <ele>91</ele>
        <time>2015-03-07T11:03:17Z</time>
      </trkpt>
      <trkpt lat="48.32877" lon="2.88238">
        <ele>91</ele>
        <time>2015-03-07T11:03:22Z</time>
      </trkpt>
      <trkpt lat="48.32876" lon="2.88251">
        <ele>90</ele>
        <time>2015-03-07T11:03:28Z</time>
      </trkpt>
      <trkpt lat="48.32873" lon="2.88263">
        <ele>89</ele>
        <time>2015-03-07T11:03:34Z</time>
      </trkpt>
      <trkpt lat="48.3287" lon="2.88274">
        <ele>88</ele>
        <time>2015-03-07T11:03:41Z</time>
      </trkpt>
      <trkpt lat="48.32869" lon="2.88288">
        <ele>88</ele>
        <time>2015-03-07T11:03:48Z</time>
      </trkpt>
      <trkpt lat="48.32865" lon="2.88299">
        <ele>88</ele>
        <time>2015-03-07T11:03:54Z</time>
      </trkpt>
      <trkpt lat="48.32862" lon="2.88311">
        <ele>87</ele>
        <time>2015-03-07T11:03:59Z</time>
      </trkpt>
      <trkpt lat="48.3286" lon="2.88322">
        <ele>86</ele>
        <time>2015-03-07T11:04:05Z</time>
      </trkpt>
      <trkpt lat="48.32857" lon="2.88334">
        <ele>85</ele>
        <time>2015-03-07T11:04:12Z</time>
      </trkpt>
      <trkpt lat="48.32855" lon="2.88346">
        <ele>85</ele>
        <time>2015-03-07T11:04:17Z</time>
      </trkpt>
      <trkpt lat="48.32851" lon="2.88357">
        <ele>85</ele>
        <time>2015-03-07T11:04:22Z</time>
      </trkpt>
      <trkpt lat="48.32848" lon="2.88369">
        <ele>85</ele>
        <time>2015-03-07T11:04:29Z</time>
      </trkpt>
      <trkpt lat="48.32844" lon="2.88379">
        <ele>85</ele>
        <time>2015-03-07T11:04:34Z</time>
      </trkpt>
      <trkpt lat="48.32843" lon="2.88391">
        <ele>85</ele>
        <time>2015-03-07T11:04:39Z</time>
      </trkpt>
      <trkpt lat="48.32841" lon="2.88401">
        <ele>84</ele>
        <time>2015-03-07T11:04:45Z</time>
      </trkpt>
      <trkpt lat="48.32836" lon="2.88413">
        <ele>84</ele>
        <time>2015-03-07T11:04:49Z</time>
      </trkpt>
      <trkpt lat="48.32831" lon="2.88423">
        <ele>83</ele>
        <time>2015-03-07T11:04:55Z</time>
      </trkpt>
      <trkpt lat="48.32828" lon="2.88434">
        <ele>83</ele>
        <time>2015-03-07T11:05:00Z</time>
      </trkpt>
      <trkpt lat="48.32824" lon="2.88446">
        <ele>83</ele>
        <time>2015-03-07T11:05:05Z</time>
      </trkpt>
      <trkpt lat="48.32821" lon="2.88456">
        <ele>83</ele>
        <time>2015-03-07T11:05:11Z</time>
      </trkpt>
      <trkpt lat="48.32818" lon="2.88469">
        <ele>83</ele>
        <time>2015-03-07T11:05:17Z</time>
      </trkpt>
      <trkpt lat="48.32814" lon="2.88479">
        <ele>83</ele>
        <time>2015-03-07T11:05:22Z</time>
      </trkpt>
      <trkpt lat="48.32811" lon="2.8849">
        <ele>83</ele>
        <time>2015-03-07T11:05:28Z</time>
      </trkpt>
      <trkpt lat="48.32809" lon="2.88502">
        <ele>83</ele>
        <time>2015-03-07T11:05:34Z</time>
      </trkpt>
      <trkpt lat="48.32807" lon="2.88513">
        <ele>82</ele>
        <time>2015-03-07T11:05:39Z</time>
      </trkpt>
      <trkpt lat="48.32802" lon="2.88523">
        <ele>82</ele>
        <time>2015-03-07T11:05:44Z</time>
      </trkpt>
      <trkpt lat="48.32797" lon="2.88531">
        <ele>82</ele>
        <time>2015-03-07T11:05:49Z</time>
      </trkpt>
      <trkpt lat="48.32791" lon="2.88541">
        <ele>82</ele>
        <time>2015-03-07T11:05:55Z</time>
      </trkpt>
      <trkpt lat="48.32785" lon="2.8855">
        <ele>81</ele>
        <time>2015-03-07T11:06:00Z</time>
      </trkpt>
      <trkpt lat="48.3278" lon="2.88559">
        <ele>81</ele>
        <time>2015-03-07T11:06:05Z</time>
      </trkpt>
      <trkpt lat="48.32773" lon="2.88567">
        <ele>81</ele>
        <time>2015-03-07T11:06:11Z</time>
      </trkpt>
      <trkpt lat="48.32767" lon="2.88575">
        <ele>81</ele>
        <time>2015-03-07T11:06:17Z</time>
      </trkpt>
      <trkpt lat="48.32761" lon="2.88584">
        <ele>82</ele>
        <time>2015-03-07T11:06:24Z</time>
      </trkpt>
      <trkpt lat="48.32755" lon="2.88595">
        <ele>82</ele>
        <time>2015-03-07T11:06:30Z</time>
      </trkpt>
      <trkpt lat="48.32751" lon="2.88606">
        <ele>82</ele>
        <time>2015-03-07T11:06:36Z</time>
      </trkpt>
      <trkpt lat="48.32747" lon="2.88617">
        <ele>82</ele>
        <time>2015-03-07T11:06:42Z</time>
      </trkpt>
      <trkpt lat="48.32743" lon="2.88628">
        <ele>82</ele>
        <time>2015-03-07T11:06:48Z</time>
      </trkpt>
      <trkpt lat="48.32738" lon="2.8864">
        <ele>82</ele>
        <time>2015-03-07T11:06:55Z</time>
      </trkpt>
      <trkpt lat="48.32734" lon="2.88649">
        <ele>82</ele>
        <time>2015-03-07T11:07:00Z</time>
      </trkpt>
      <trkpt lat="48.32732" lon="2.88661">
        <ele>82</ele>
        <time>2015-03-07T11:07:05Z</time>
      </trkpt>
      <trkpt lat="48.32729" lon="2.88672">
        <ele>82</ele>
        <time>2015-03-07T11:07:10Z</time>
      </trkpt>
      <trkpt lat="48.32726" lon="2.88684">
        <ele>82</ele>
        <time>2015-03-07T11:07:16Z</time>
      </trkpt>
      <trkpt lat="48.32724" lon="2.88696">
        <ele>81</ele>
        <time>2015-03-07T11:07:22Z</time>
      </trkpt>
      <trkpt lat="48.3272" lon="2.88706">
        <ele>81</ele>
        <time>2015-03-07T11:07:28Z</time>
      </trkpt>
      <trkpt lat="48.32715" lon="2.88717">
        <ele>81</ele>
        <time>2015-03-07T11:07:35Z</time>
      </trkpt>
      <trkpt lat="48.32711" lon="2.88728">
        <ele>81</ele>
        <time>2015-03-07T11:07:41Z</time>
      </trkpt>
      <trkpt lat="48.32707" lon="2.88738">
        <ele>81</ele>
        <time>2015-03-07T11:07:46Z</time>
      </trkpt>
      <trkpt lat="48.32706" lon="2.8875">
        <ele>81</ele>
        <time>2015-03-07T11:07:51Z</time>
      </trkpt>
      <trkpt lat="48.32702" lon="2.88761">
        <ele>81</ele>
        <time>2015-03-07T11:07:57Z</time>
      </trkpt>
      <trkpt lat="48.32699" lon="2.88773">
        <ele>81</ele>
        <time>2015-03-07T11:08:04Z</time>
      </trkpt>
      <trkpt lat="48.32696" lon="2.88784">
        <ele>81</ele>
        <time>2015-03-07T11:08:09Z</time>
      </trkpt>
      <trkpt lat="48.32691" lon="2.88794">
        <ele>81</ele>
        <time>2015-03-07T11:08:14Z</time>
      </trkpt>
      <trkpt lat="48.32686" lon="2.88804">
        <ele>82</ele>
        <time>2015-03-07T11:08:20Z</time>
      </trkpt>
      <trkpt lat="48.32681" lon="2.88814">
        <ele>82</ele>
        <time>2015-03-07T11:08:26Z</time>
      </trkpt>
      <trkpt lat="48.32676" lon="2.88824">
        <ele>83</ele>
        <time>2015-03-07T11:08:33Z</time>
      </trkpt>
      <trkpt lat="48.32673" lon="2.88834">
        <ele>83</ele>
        <time>2015-03-07T11:08:38Z</time>
      </trkpt>
      <trkpt lat="48.32668" lon="2.88845">
        <ele>84</ele>
        <time>2015-03-07T11:08:44Z</time>
      </trkpt>
      <trkpt lat="48.32665" lon="2.88856">
        <ele>85</ele>
        <time>2015-03-07T11:08:50Z</time>
      </trkpt>
      <trkpt lat="48.32664" lon="2.88869">
        <ele>85</ele>
        <time>2015-03-07T11:08:56Z</time>
      </trkpt>
      <trkpt lat="48.3266" lon="2.88881">
        <ele>85</ele>
        <time>2015-03-07T11:09:03Z</time>
      </trkpt>
      <trkpt lat="48.32655" lon="2.8889">
        <ele>86</ele>
        <time>2015-03-07T11:09:08Z</time>
      </trkpt>
      <trkpt lat="48.32651" lon="2.88902">
        <ele>86</ele>
        <time>2015-03-07T11:09:13Z</time>
      </trkpt>
      <trkpt lat="48.32648" lon="2.88913">
        <ele>86</ele>
        <time>2015-03-07T11:09:19Z</time>
      </trkpt>
      <trkpt lat="48.32644" lon="2.88923">
        <ele>87</ele>
        <time>2015-03-07T11:09:25Z</time>
      </trkpt>
      <trkpt lat="48.32639" lon="2.88934">
        <ele>88</ele>
        <time>2015-03-07T11:09:32Z</time>
      </trkpt>
      <trkpt lat="48.32637" lon="2.88947">
        <ele>88</ele>
        <time>2015-03-07T11:09:39Z</time>
      </trkpt>
      <trkpt lat="48.32636" lon="2.88959">
        <ele>89</ele>
        <time>2015-03-07T11:09:47Z</time>
      </trkpt>
      <trkpt lat="48.32631" lon="2.88968">
        <ele>89</ele>
        <time>2015-03-07T11:09:52Z</time>
      </trkpt>
      <trkpt lat="48.32627" lon="2.88979">
        <ele>89</ele>
        <time>2015-03-07T11:09:57Z</time>
      </trkpt>
      <trkpt lat="48.32624" lon="2.88992">
        <ele>90</ele>
        <time>2015-03-07T11:10:02Z</time>
      </trkpt>
      <trkpt lat="48.32622" lon="2.89005">
        <ele>90</ele>
        <time>2015-03-07T11:10:09Z</time>
      </trkpt>
      <trkpt lat="48.32618" lon="2.89014">
        <ele>90</ele>
        <time>2015-03-07T11:10:16Z</time>
      </trkpt>
      <trkpt lat="48.32614" lon="2.89025">
        <ele>91</ele>
        <time>2015-03-07T11:10:21Z</time>
      </trkpt>
      <trkpt lat="48.32611" lon="2.89037">
        <ele>91</ele>
        <time>2015-03-07T11:10:26Z</time>
      </trkpt>
      <trkpt lat="48.3261" lon="2.8905">
        <ele>91</ele>
        <time>2015-03-07T11:10:33Z</time>
      </trkpt>
      <trkpt lat="48.32607" lon="2.89062">
        <ele>92</ele>
        <time>2015-03-07T11:10:39Z</time>
      </trkpt>
      <trkpt lat="48.32605" lon="2.89075">
        <ele>92</ele>
        <time>2015-03-07T11:10:46Z</time>
      </trkpt>
      <trkpt lat="48.32602" lon="2.89087">
        <ele>92</ele>
        <time>2015-03-07T11:10:51Z</time>
      </trkpt>
      <trkpt lat="48.32599" lon="2.89099">
        <ele>92</ele>
        <time>2015-03-07T11:10:58Z</time>
      </trkpt>
      <trkpt lat="48.32596" lon="2.8911">
        <ele>92</ele>
        <time>2015-03-07T11:11:04Z</time>
      </trkpt>
      <trkpt lat="48.32593" lon="2.8912">
        <ele>92</ele>
        <time>2015-03-07T11:11:10Z</time>
      </trkpt>
      <trkpt lat="48.3259" lon="2.89131">
        <ele>92</ele>
        <time>2015-03-07T11:11:15Z</time>
      </trkpt>
      <trkpt lat="48.32587" lon="2.89144">
        <ele>92</ele>
        <time>2015-03-07T11:11:21Z</time>
      </trkpt>
      <trkpt lat="48.32584" lon="2.89155">
        <ele>92</ele>
        <time>2015-03-07T11:11:28Z</time>
      </trkpt>
      <trkpt lat="48.32581" lon="2.89165">
        <ele>92</ele>
        <time>2015-03-07T11:11:34Z</time>
      </trkpt>
      <trkpt lat="48.32577" lon="2.89175">
        <ele>92</ele>
        <time>2015-03-07T11:11:39Z</time>
      </trkpt>
      <trkpt lat="48.32574" lon="2.89187">
        <ele>92</ele>
        <time>2015-03-07T11:11:45Z</time>
      </trkpt>
      <trkpt lat="48.3257" lon="2.89199">
        <ele>92</ele>
        <time>2015-03-07T11:11:51Z</time>
      </trkpt>
      <trkpt lat="48.32566" lon="2.89209">
        <ele>92</ele>
        <time>2015-03-07T11:11:57Z</time>
      </trkpt>
      <trkpt lat="48.32563" lon="2.8922">
        <ele>92</ele>
        <time>2015-03-07T11:12:02Z</time>
      </trkpt>
      <trkpt lat="48.32558" lon="2.89231">
        <ele>92</ele>
        <time>2015-03-07T11:12:08Z</time>
      </trkpt>
      <trkpt lat="48.32554" lon="2.8924">
        <ele>92</ele>
        <time>2015-03-07T11:12:13Z</time>
      </trkpt>
      <trkpt lat="48.32551" lon="2.89251">
        <ele>92</ele>
        <time>2015-03-07T11:12:18Z</time>
      </trkpt>
      <trkpt lat="48.32548" lon="2.89261">
        <ele>91</ele>
        <time>2015-03-07T11:12:23Z</time>
      </trkpt>
      <trkpt lat="48.32544" lon="2.89273">
        <ele>91</ele>
        <time>2015-03-07T11:12:29Z</time>
      </trkpt>
      <trkpt lat="48.32541" lon="2.89285">
        <ele>91</ele>
        <time>2015-03-07T11:12:36Z</time>
      </trkpt>
      <trkpt lat="48.32537" lon="2.89297">
        <ele>91</ele>
        <time>2015-03-07T11:12:41Z</time>
      </trkpt>
      <trkpt lat="48.32533" lon="2.89307">
        <ele>91</ele>
        <time>2015-03-07T11:12:47Z</time>
      </trkpt>
      <trkpt lat="48.32528" lon="2.89316">
        <ele>92</ele>
        <time>2015-03-07T11:12:53Z</time>
      </trkpt>
      <trkpt lat="48.32523" lon="2.89324">
        <ele>92</ele>
        <time>2015-03-07T11:12:58Z</time>
      </trkpt>
      <trkpt lat="48.32518" lon="2.89334">
        <ele>92</ele>
        <time>2015-03-07T11:13:03Z</time>
      </trkpt>
      <trkpt lat="48.32513" lon="2.89341">
        <ele>92</ele>
        <time>2015-03-07T11:13:08Z</time>
      </trkpt>
      <trkpt lat="48.32508" lon="2.8935">
        <ele>92</ele>
        <time>2015-03-07T11:13:13Z</time>
      </trkpt>
      <trkpt lat="48.32503" lon="2.8936">
        <ele>92</ele>
        <time>2015-03-07T11:13:18Z</time>
      </trkpt>
      <trkpt lat="48.32498" lon="2.89368">
        <ele>92</ele>
        <time>2015-03-07T11:13:24Z</time>
      </trkpt>
      <trkpt lat="48.32492" lon="2.89376">
        <ele>91</ele>
        <time>2015-03-07T11:13:29Z</time>
      </trkpt>
      <trkpt lat="48.32485" lon="2.89384">
        <ele>91</ele>
        <time>2015-03-07T11:13:35Z</time>
      </trkpt>
      <trkpt lat="48.32482" lon="2.89395">
        <ele>91</ele>
        <time>2015-03-07T11:13:40Z</time>
      </trkpt>
      <trkpt lat="48.32476" lon="2.89405">
        <ele>91</ele>
        <time>2015-03-07T11:13:46Z</time>
      </trkpt>
      <trkpt lat="48.32471" lon="2.89415">
        <ele>91</ele>
        <time>2015-03-07T11:13:53Z</time>
      </trkpt>
      <trkpt lat="48.32468" lon="2.89428">
        <ele>91</ele>
        <time>2015-03-07T11:13:58Z</time>
      </trkpt>
      <trkpt lat="48.32466" lon="2.89439">
        <ele>91</ele>
        <time>2015-03-07T11:14:04Z</time>
      </trkpt>
      <trkpt lat="48.32462" lon="2.89449">
        <ele>90</ele>
        <time>2015-03-07T11:14:11Z</time>
      </trkpt>
      <trkpt lat="48.32458" lon="2.8946">
        <ele>90</ele>
        <time>2015-03-07T11:14:16Z</time>
      </trkpt>
      <trkpt lat="48.32454" lon="2.89471">
        <ele>89</ele>
        <time>2015-03-07T11:14:21Z</time>
      </trkpt>
      <trkpt lat="48.32451" lon="2.89482">
        <ele>89</ele>
        <time>2015-03-07T11:14:26Z</time>
      </trkpt>
      <trkpt lat="48.32446" lon="2.89493">
        <ele>89</ele>
        <time>2015-03-07T11:14:31Z</time>
      </trkpt>
      <trkpt lat="48.32441" lon="2.89502">
        <ele>88</ele>
        <time>2015-03-07T11:14:36Z</time>
      </trkpt>
      <trkpt lat="48.32438" lon="2.89514">
        <ele>88</ele>
        <time>2015-03-07T11:14:43Z</time>
      </trkpt>
      <trkpt lat="48.32433" lon="2.89525">
        <ele>87</ele>
        <time>2015-03-07T11:14:48Z</time>
      </trkpt>
      <trkpt lat="48.3243" lon="2.89535">
        <ele>87</ele>
        <time>2015-03-07T11:14:53Z</time>
      </trkpt>
      <trkpt lat="48.32425" lon="2.89546">
        <ele>86</ele>
        <time>2015-03-07T11:14:59Z</time>
      </trkpt>
      <trkpt lat="48.32422" lon="2.89555">
        <ele>86</ele>
        <time>2015-03-07T11:15:04Z</time>
      </trkpt>
      <trkpt lat="48.32417" lon="2.89565">
        <ele>86</ele>
        <time>2015-03-07T11:15:09Z</time>
      </trkpt>
      <trkpt lat="48.32414" lon="2.89576">
        <ele>86</ele>
        <time>2015-03-07T11:15:15Z</time>
      </trkpt>
      <trkpt lat="48.32409" lon="2.89587">
        <ele>85</ele>
        <time>2015-03-07T11:15:21Z</time>
      </trkpt>
      <trkpt lat="48.32404" lon="2.89596">
        <ele>84</ele>
        <time>2015-03-07T11:15:26Z</time>
      </trkpt>
      <trkpt lat="48.324" lon="2.89605">
        <ele>84</ele>
        <time>2015-03-07T11:15:31Z</time>
      </trkpt>
      <trkpt lat="48.32395" lon="2.89615">
        <ele>84</ele>
        <time>2015-03-07T11:15:36Z</time>
      </trkpt>
      <trkpt lat="48.3239" lon="2.89627">
        <ele>83</ele>
        <time>2015-03-07T11:15:43Z</time>
      </trkpt>
      <trkpt lat="48.32386" lon="2.89638">
        <ele>83</ele>
        <time>2015-03-07T11:15:50Z</time>
      </trkpt>
      <trkpt lat="48.32381" lon="2.89648">
        <ele>84</ele>
        <time>2015-03-07T11:15:55Z</time>
      </trkpt>
      <trkpt lat="48.32377" lon="2.89658">
        <ele>83</ele>
        <time>2015-03-07T11:16:01Z</time>
      </trkpt>
      <trkpt lat="48.32374" lon="2.8967">
        <ele>83</ele>
        <time>2015-03-07T11:16:07Z</time>
      </trkpt>
      <trkpt lat="48.3237" lon="2.89682">
        <ele>82</ele>
        <time>2015-03-07T11:16:13Z</time>
      </trkpt>
      <trkpt lat="48.32365" lon="2.89691">
        <ele>82</ele>
        <time>2015-03-07T11:16:19Z</time>
      </trkpt>
      <trkpt lat="48.3236" lon="2.89701">
        <ele>81</ele>
        <time>2015-03-07T11:16:24Z</time>
      </trkpt>
      <trkpt lat="48.32355" lon="2.8971">
        <ele>81</ele>
        <time>2015-03-07T11:16:29Z</time>
      </trkpt>
      <trkpt lat="48.3235" lon="2.8972">
        <ele>81</ele>
        <time>2015-03-07T11:16:34Z</time>
      </trkpt>
      <trkpt lat="48.32346" lon="2.89731">
        <ele>80</ele>
        <time>2015-03-07T11:16:40Z</time>
      </trkpt>
      <trkpt lat="48.32342" lon="2.89743">
        <ele>80</ele>
        <time>2015-03-07T11:16:45Z</time>
      </trkpt>
      <trkpt lat="48.32339" lon="2.89753">
        <ele>79</ele>
        <time>2015-03-07T11:16:51Z</time>
      </trkpt>
      <trkpt lat="48.32336" lon="2.89764">
        <ele>79</ele>
        <time>2015-03-07T11:16:57Z</time>
      </trkpt>
      <trkpt lat="48.32332" lon="2.89774">
        <ele>79</ele>
        <time>2015-03-07T11:17:02Z</time>
      </trkpt>
      <trkpt lat="48.32327" lon="2.89783">
        <ele>79</ele>
        <time>2015-03-07T11:17:06Z</time>
      </trkpt>
      <trkpt lat="48.3232" lon="2.8979">
        <ele>79</ele>
        <time>2015-03-07T11:17:11Z</time>
      </trkpt>
      <trkpt lat="48.32315" lon="2.898">
        <ele>78</ele>
        <time>2015-03-07T11:17:16Z</time>
      </trkpt>
      <trkpt lat="48.32308" lon="2.89807">
        <ele>78</ele>
        <time>2015-03-07T11:17:22Z</time>
      </trkpt>
      <trkpt lat="48.32303" lon="2.89817">
        <ele>78</ele>
        <time>2015-03-07T11:17:28Z</time>
      </trkpt>
      <trkpt lat="48.32297" lon="2.89825">
        <ele>77</ele>
        <time>2015-03-07T11:17:33Z</time>
      </trkpt>
      <trkpt lat="48.32292" lon="2.89834">
        <ele>76</ele>
        <time>2015-03-07T11:17:38Z</time>
      </trkpt>
      <trkpt lat="48.32287" lon="2.89843">
        <ele>76</ele>
        <time>2015-03-07T11:17:43Z</time>
      </trkpt>
      <trkpt lat="48.32283" lon="2.89853">
        <ele>76</ele>
        <time>2015-03-07T11:17:50Z</time>
      </trkpt>
      <trkpt lat="48.32278" lon="2.89861">
        <ele>76</ele>
        <time>2015-03-07T11:17:55Z</time>
      </trkpt>
      <trkpt lat="48.32273" lon="2.89871">
        <ele>76</ele>
        <time>2015-03-07T11:18:00Z</time>
      </trkpt>
      <trkpt lat="48.32271" lon="2.89882">
        <ele>76</ele>
        <time>2015-03-07T11:18:05Z</time>
      </trkpt>
      <trkpt lat="48.3227" lon="2.89894">
        <ele>76</ele>
        <time>2015-03-07T11:18:10Z</time>
      </trkpt>
      <trkpt lat="48.32263" lon="2.89903">
        <ele>76</ele>
        <time>2015-03-07T11:18:16Z</time>
      </trkpt>
      <trkpt lat="48.32259" lon="2.89912">
        <ele>76</ele>
        <time>2015-03-07T11:18:21Z</time>
      </trkpt>
      <trkpt lat="48.32254" lon="2.89922">
        <ele>76</ele>
        <time>2015-03-07T11:18:26Z</time>
      </trkpt>
      <trkpt lat="48.3225" lon="2.89933">
        <ele>76</ele>
        <time>2015-03-07T11:18:31Z</time>
      </trkpt>
      <trkpt lat="48.32246" lon="2.89944">
        <ele>75</ele>
        <time>2015-03-07T11:18:38Z</time>
      </trkpt>
      <trkpt lat="48.32242" lon="2.89956">
        <ele>75</ele>
        <time>2015-03-07T11:18:45Z</time>
      </trkpt>
      <trkpt lat="48.32238" lon="2.89966">
        <ele>75</ele>
        <time>2015-03-07T11:18:50Z</time>
      </trkpt>
      <trkpt lat="48.32233" lon="2.89977">
        <ele>76</ele>
        <time>2015-03-07T11:18:57Z</time>
      </trkpt>
      <trkpt lat="48.32228" lon="2.89987">
        <ele>76</ele>
        <time>2015-03-07T11:19:03Z</time>
      </trkpt>
      <trkpt lat="48.32222" lon="2.89995">
        <ele>75</ele>
        <time>2015-03-07T11:19:09Z</time>
      </trkpt>
      <trkpt lat="48.32214" lon="2.90002">
        <ele>76</ele>
        <time>2015-03-07T11:19:14Z</time>
      </trkpt>
      <trkpt lat="48.32207" lon="2.90011">
        <ele>76</ele>
        <time>2015-03-07T11:19:19Z</time>
      </trkpt>
      <trkpt lat="48.32203" lon="2.90022">
        <ele>76</ele>
        <time>2015-03-07T11:19:24Z</time>
      </trkpt>
      <trkpt lat="48.32203" lon="2.90034">
        <ele>75</ele>
        <time>2015-03-07T11:19:28Z</time>
      </trkpt>
      <trkpt lat="48.32202" lon="2.90046">
        <ele>74</ele>
        <time>2015-03-07T11:19:34Z</time>
      </trkpt>
      <trkpt lat="48.32205" lon="2.90058">
        <ele>74</ele>
        <time>2015-03-07T11:19:39Z</time>
      </trkpt>
      <trkpt lat="48.32202" lon="2.9007">
        <ele>73</ele>
        <time>2015-03-07T11:19:45Z</time>
      </trkpt>
      <trkpt lat="48.32201" lon="2.90083">
        <ele>72</ele>
        <time>2015-03-07T11:19:51Z</time>
      </trkpt>
      <trkpt lat="48.322" lon="2.90096">
        <ele>72</ele>
        <time>2015-03-07T11:19:56Z</time>
      </trkpt>
      <trkpt lat="48.32198" lon="2.90107">
        <ele>73</ele>
        <time>2015-03-07T11:20:01Z</time>
      </trkpt>
      <trkpt lat="48.32195" lon="2.90118">
        <ele>73</ele>
        <time>2015-03-07T11:20:06Z</time>
      </trkpt>
      <trkpt lat="48.32194" lon="2.90131">
        <ele>72</ele>
        <time>2015-03-07T11:20:12Z</time>
      </trkpt>
      <trkpt lat="48.32192" lon="2.90144">
        <ele>72</ele>
        <time>2015-03-07T11:20:20Z</time>
      </trkpt>
      <trkpt lat="48.32191" lon="2.90157">
        <ele>73</ele>
        <time>2015-03-07T11:20:30Z</time>
      </trkpt>
      <trkpt lat="48.32188" lon="2.90174">
        <ele>73</ele>
        <time>2015-03-07T11:20:35Z</time>
      </trkpt>
      <trkpt lat="48.32185" lon="2.90185">
        <ele>73</ele>
        <time>2015-03-07T11:20:39Z</time>
      </trkpt>
      <trkpt lat="48.32184" lon="2.90197">
        <ele>73</ele>
        <time>2015-03-07T11:20:44Z</time>
      </trkpt>
      <trkpt lat="48.32182" lon="2.9021">
        <ele>74</ele>
        <time>2015-03-07T11:20:50Z</time>
      </trkpt>
      <trkpt lat="48.3218" lon="2.9022">
        <ele>75</ele>
        <time>2015-03-07T11:20:55Z</time>
      </trkpt>
      <trkpt lat="48.32179" lon="2.90233">
        <ele>75</ele>
        <time>2015-03-07T11:21:02Z</time>
      </trkpt>
      <trkpt lat="48.32179" lon="2.90245">
        <ele>75</ele>
        <time>2015-03-07T11:21:08Z</time>
      </trkpt>
      <trkpt lat="48.32183" lon="2.90254">
        <ele>75</ele>
        <time>2015-03-07T11:21:13Z</time>
      </trkpt>
      <trkpt lat="48.32187" lon="2.90263">
        <ele>74</ele>
        <time>2015-03-07T11:21:18Z</time>
      </trkpt>
      <trkpt lat="48.3219" lon="2.90274">
        <ele>74</ele>
        <time>2015-03-07T11:21:22Z</time>
      </trkpt>
      <trkpt lat="48.32192" lon="2.90286">
        <ele>73</ele>
        <time>2015-03-07T11:21:29Z</time>
      </trkpt>
      <trkpt lat="48.32196" lon="2.90297">
        <ele>74</ele>
        <time>2015-03-07T11:21:35Z</time>
      </trkpt>
      <trkpt lat="48.322" lon="2.90309">
        <ele>74</ele>
        <time>2015-03-07T11:21:43Z</time>
      </trkpt>
      <trkpt lat="48.32203" lon="2.90321">
        <ele>74</ele>
        <time>2015-03-07T11:21:51Z</time>
      </trkpt>
      <trkpt lat="48.32205" lon="2.90334">
        <ele>74</ele>
        <time>2015-03-07T11:21:55Z</time>
      </trkpt>
      <trkpt lat="48.32205" lon="2.90346">
        <ele>74</ele>
        <time>2015-03-07T11:22:01Z</time>
      </trkpt>
      <trkpt lat="48.32205" lon="2.90361">
        <ele>74</ele>
        <time>2015-03-07T11:22:06Z</time>
      </trkpt>
      <trkpt lat="48.32205" lon="2.90371">
        <ele>75</ele>
        <time>2015-03-07T11:22:10Z</time>
      </trkpt>
      <trkpt lat="48.32206" lon="2.90384">
        <ele>75</ele>
        <time>2015-03-07T11:22:15Z</time>
      </trkpt>
      <trkpt lat="48.32209" lon="2.90396">
        <ele>75</ele>
        <time>2015-03-07T11:22:20Z</time>
      </trkpt>
      <trkpt lat="48.32211" lon="2.90407">
        <ele>75</ele>
        <time>2015-03-07T11:22:26Z</time>
      </trkpt>
      <trkpt lat="48.32215" lon="2.90419">
        <ele>76</ele>
        <time>2015-03-07T11:22:34Z</time>
      </trkpt>
      <trkpt lat="48.32219" lon="2.90431">
        <ele>77</ele>
        <time>2015-03-07T11:22:41Z</time>
      </trkpt>
      <trkpt lat="48.32225" lon="2.90441">
        <ele>77</ele>
        <time>2015-03-07T11:22:46Z</time>
      </trkpt>
      <trkpt lat="48.32232" lon="2.90453">
        <ele>77</ele>
        <time>2015-03-07T11:22:51Z</time>
      </trkpt>
      <trkpt lat="48.32238" lon="2.90462">
        <ele>78</ele>
        <time>2015-03-07T11:22:57Z</time>
      </trkpt>
      <trkpt lat="48.32244" lon="2.9047">
        <ele>79</ele>
        <time>2015-03-07T11:23:02Z</time>
      </trkpt>
      <trkpt lat="48.3225" lon="2.9048">
        <ele>79</ele>
        <time>2015-03-07T11:23:07Z</time>
      </trkpt>
      <trkpt lat="48.32256" lon="2.90487">
        <ele>80</ele>
        <time>2015-03-07T11:23:14Z</time>
      </trkpt>
      <trkpt lat="48.32262" lon="2.90496">
        <ele>82</ele>
        <time>2015-03-07T11:23:22Z</time>
      </trkpt>
      <trkpt lat="48.32267" lon="2.90505">
        <ele>82</ele>
        <time>2015-03-07T11:23:28Z</time>
      </trkpt>
      <trkpt lat="48.32272" lon="2.90515">
        <ele>83</ele>
        <time>2015-03-07T11:23:35Z</time>
      </trkpt>
      <trkpt lat="48.32279" lon="2.90523">
        <ele>83</ele>
        <time>2015-03-07T11:23:42Z</time>
      </trkpt>
      <trkpt lat="48.32285" lon="2.9053">
        <ele>83</ele>
        <time>2015-03-07T11:23:47Z</time>
      </trkpt>
      <trkpt lat="48.32293" lon="2.90537">
        <ele>84</ele>
        <time>2015-03-07T11:23:53Z</time>
      </trkpt>
      <trkpt lat="48.32299" lon="2.90545">
        <ele>85</ele>
        <time>2015-03-07T11:23:58Z</time>
      </trkpt>
      <trkpt lat="48.32304" lon="2.90554">
        <ele>85</ele>
        <time>2015-03-07T11:24:03Z</time>
      </trkpt>
      <trkpt lat="48.32311" lon="2.90562">
        <ele>86</ele>
        <time>2015-03-07T11:24:09Z</time>
      </trkpt>
      <trkpt lat="48.32317" lon="2.9057">
        <ele>87</ele>
        <time>2015-03-07T11:24:18Z</time>
      </trkpt>
      <trkpt lat="48.32322" lon="2.9058">
        <ele>88</ele>
        <time>2015-03-07T11:24:23Z</time>
      </trkpt>
      <trkpt lat="48.32328" lon="2.90589">
        <ele>89</ele>
        <time>2015-03-07T11:24:28Z</time>
      </trkpt>
      <trkpt lat="48.32334" lon="2.90597">
        <ele>90</ele>
        <time>2015-03-07T11:24:35Z</time>
      </trkpt>
      <trkpt lat="48.32341" lon="2.90603">
        <ele>91</ele>
        <time>2015-03-07T11:24:40Z</time>
      </trkpt>
      <trkpt lat="48.32347" lon="2.90612">
        <ele>92</ele>
        <time>2015-03-07T11:24:46Z</time>
      </trkpt>
      <trkpt lat="48.32353" lon="2.90621">
        <ele>93</ele>
        <time>2015-03-07T11:24:52Z</time>
      </trkpt>
      <trkpt lat="48.32361" lon="2.90625">
        <ele>94</ele>
        <time>2015-03-07T11:24:59Z</time>
      </trkpt>
      <trkpt lat="48.3237" lon="2.90623">
        <ele>95</ele>
        <time>2015-03-07T11:25:04Z</time>
      </trkpt>
      <trkpt lat="48.32377" lon="2.90618">
        <ele>95</ele>
        <time>2015-03-07T11:25:09Z</time>
      </trkpt>
      <trkpt lat="48.32385" lon="2.9062">
        <ele>95</ele>
        <time>2015-03-07T11:25:14Z</time>
      </trkpt>
      <trkpt lat="48.32393" lon="2.9062">
        <ele>95</ele>
        <time>2015-03-07T11:25:20Z</time>
      </trkpt>
      <trkpt lat="48.32401" lon="2.90621">
        <ele>95</ele>
        <time>2015-03-07T11:25:26Z</time>
      </trkpt>
      <trkpt lat="48.32409" lon="2.90623">
        <ele>95</ele>
        <time>2015-03-07T11:25:31Z</time>
      </trkpt>
      <trkpt lat="48.32416" lon="2.90627">
        <ele>95</ele>
        <time>2015-03-07T11:25:37Z</time>
      </trkpt>
      <trkpt lat="48.32424" lon="2.90631">
        <ele>95</ele>
        <time>2015-03-07T11:25:42Z</time>
      </trkpt>
      <trkpt lat="48.32432" lon="2.90634">
        <ele>95</ele>
        <time>2015-03-07T11:25:49Z</time>
      </trkpt>
      <trkpt lat="48.32441" lon="2.90634">
        <ele>95</ele>
        <time>2015-03-07T11:25:54Z</time>
      </trkpt>
      <trkpt lat="48.32449" lon="2.90637">
        <ele>95</ele>
        <time>2015-03-07T11:26:00Z</time>
      </trkpt>
      <trkpt lat="48.32457" lon="2.9064">
        <ele>94</ele>
        <time>2015-03-07T11:26:07Z</time>
      </trkpt>
      <trkpt lat="48.32465" lon="2.90643">
        <ele>93</ele>
        <time>2015-03-07T11:26:14Z</time>
      </trkpt>
      <trkpt lat="48.32474" lon="2.90645">
        <ele>94</ele>
        <time>2015-03-07T11:26:21Z</time>
      </trkpt>
      <trkpt lat="48.32481" lon="2.90646">
        <ele>94</ele>
        <time>2015-03-07T11:26:26Z</time>
      </trkpt>
      <trkpt lat="48.32489" lon="2.90647">
        <ele>94</ele>
        <time>2015-03-07T11:26:31Z</time>
      </trkpt>
      <trkpt lat="48.32497" lon="2.90651">
        <ele>94</ele>
        <time>2015-03-07T11:26:38Z</time>
      </trkpt>
      <trkpt lat="48.32506" lon="2.90655">
        <ele>94</ele>
        <time>2015-03-07T11:26:44Z</time>
      </trkpt>
      <trkpt lat="48.32513" lon="2.90661">
        <ele>93</ele>
        <time>2015-03-07T11:26:51Z</time>
      </trkpt>
      <trkpt lat="48.32522" lon="2.90664">
        <ele>94</ele>
        <time>2015-03-07T11:26:58Z</time>
      </trkpt>
      <trkpt lat="48.3253" lon="2.90668">
        <ele>94</ele>
        <time>2015-03-07T11:27:04Z</time>
      </trkpt>
      <trkpt lat="48.32538" lon="2.90672">
        <ele>95</ele>
        <time>2015-03-07T11:27:10Z</time>
      </trkpt>
      <trkpt lat="48.32547" lon="2.90675">
        <ele>95</ele>
        <time>2015-03-07T11:27:15Z</time>
      </trkpt>
      <trkpt lat="48.32554" lon="2.90679">
        <ele>96</ele>
        <time>2015-03-07T11:27:23Z</time>
      </trkpt>
      <trkpt lat="48.32562" lon="2.90684">
        <ele>96</ele>
        <time>2015-03-07T11:27:31Z</time>
      </trkpt>
      <trkpt lat="48.3257" lon="2.90688">
        <ele>97</ele>
        <time>2015-03-07T11:27:38Z</time>
      </trkpt>
      <trkpt lat="48.32578" lon="2.90691">
        <ele>98</ele>
        <time>2015-03-07T11:27:45Z</time>
      </trkpt>
      <trkpt lat="48.32586" lon="2.90695">
        <ele>98</ele>
        <time>2015-03-07T11:27:51Z</time>
      </trkpt>
      <trkpt lat="48.32594" lon="2.90701">
        <ele>99</ele>
        <time>2015-03-07T11:27:58Z</time>
      </trkpt>
      <trkpt lat="48.32602" lon="2.90706">
        <ele>99</ele>
        <time>2015-03-07T11:28:04Z</time>
      </trkpt>
      <trkpt lat="48.3261" lon="2.90711">
        <ele>99</ele>
        <time>2015-03-07T11:28:12Z</time>
      </trkpt>
      <trkpt lat="48.32616" lon="2.90717">
        <ele>100</ele>
        <time>2015-03-07T11:28:17Z</time>
      </trkpt>
      <trkpt lat="48.32624" lon="2.90723">
        <ele>100</ele>
        <time>2015-03-07T11:28:22Z</time>
      </trkpt>
      <trkpt lat="48.32632" lon="2.90726">
        <ele>100</ele>
        <time>2015-03-07T11:28:27Z</time>
      </trkpt>
      <trkpt lat="48.32641" lon="2.90728">
        <ele>101</ele>
        <time>2015-03-07T11:28:34Z</time>
      </trkpt>
      <trkpt lat="48.32647" lon="2.90734">
        <ele>102</ele>
        <time>2015-03-07T11:28:40Z</time>
      </trkpt>
      <trkpt lat="48.32654" lon="2.90739">
        <ele>102</ele>
        <time>2015-03-07T11:28:46Z</time>
      </trkpt>
      <trkpt lat="48.32662" lon="2.90744">
        <ele>103</ele>
        <time>2015-03-07T11:28:52Z</time>
      </trkpt>
      <trkpt lat="48.32669" lon="2.90749">
        <ele>104</ele>
        <time>2015-03-07T11:28:58Z</time>
      </trkpt>
      <trkpt lat="48.32677" lon="2.90753">
        <ele>104</ele>
        <time>2015-03-07T11:29:05Z</time>
      </trkpt>
      <trkpt lat="48.32685" lon="2.90755">
        <ele>104</ele>
        <time>2015-03-07T11:29:11Z</time>
      </trkpt>
      <trkpt lat="48.32693" lon="2.90758">
        <ele>105</ele>
        <time>2015-03-07T11:29:17Z</time>
      </trkpt>
      <trkpt lat="48.327" lon="2.90764">
        <ele>104</ele>
        <time>2015-03-07T11:29:23Z</time>
      </trkpt>
      <trkpt lat="48.32707" lon="2.90768">
        <ele>104</ele>
        <time>2015-03-07T11:29:28Z</time>
      </trkpt>
      <trkpt lat="48.32715" lon="2.90774">
        <ele>104</ele>
        <time>2015-03-07T11:29:34Z</time>
      </trkpt>
      <trkpt lat="48.32723" lon="2.90779">
        <ele>104</ele>
        <time>2015-03-07T11:29:41Z</time>
      </trkpt>
      <trkpt lat="48.32731" lon="2.90783">
        <ele>104</ele>
        <time>2015-03-07T11:29:48Z</time>
      </trkpt>
      <trkpt lat="48.32738" lon="2.90789">
        <ele>104</ele>
        <time>2015-03-07T11:29:54Z</time>
      </trkpt>
      <trkpt lat="48.32746" lon="2.90795">
        <ele>104</ele>
        <time>2015-03-07T11:30:00Z</time>
      </trkpt>
      <trkpt lat="48.32753" lon="2.908">
        <ele>103</ele>
        <time>2015-03-07T11:30:05Z</time>
      </trkpt>
      <trkpt lat="48.32757" lon="2.90806">
        <ele>103</ele>
        <time>2015-03-07T11:30:09Z</time>
      </trkpt>
      <trkpt lat="48.32765" lon="2.9081">
        <ele>102</ele>
        <time>2015-03-07T11:30:16Z</time>
      </trkpt>
      <trkpt lat="48.32772" lon="2.90815">
        <ele>102</ele>
        <time>2015-03-07T11:30:22Z</time>
      </trkpt>
      <trkpt lat="48.32779" lon="2.90819">
        <ele>102</ele>
        <time>2015-03-07T11:30:28Z</time>
      </trkpt>
      <trkpt lat="48.32786" lon="2.90825">
        <ele>102</ele>
        <time>2015-03-07T11:30:33Z</time>
      </trkpt>
      <trkpt lat="48.32792" lon="2.90832">
        <ele>102</ele>
        <time>2015-03-07T11:30:38Z</time>
      </trkpt>
      <trkpt lat="48.32799" lon="2.90839">
        <ele>102</ele>
        <time>2015-03-07T11:30:43Z</time>
      </trkpt>
      <trkpt lat="48.32805" lon="2.90846">
        <ele>102</ele>
        <time>2015-03-07T11:30:48Z</time>
      </trkpt>
      <trkpt lat="48.32811" lon="2.90853">
        <ele>102</ele>
        <time>2015-03-07T11:30:55Z</time>
      </trkpt>
      <trkpt lat="48.32819" lon="2.90859">
        <ele>103</ele>
        <time>2015-03-07T11:31:01Z</time>
      </trkpt>
      <trkpt lat="48.32825" lon="2.90866">
        <ele>103</ele>
        <time>2015-03-07T11:31:06Z</time>
      </trkpt>
      <trkpt lat="48.32832" lon="2.90872">
        <ele>103</ele>
        <time>2015-03-07T11:31:12Z</time>
      </trkpt>
      <trkpt lat="48.32838" lon="2.90881">
        <ele>103</ele>
        <time>2015-03-07T11:31:17Z</time>
      </trkpt>
      <trkpt lat="48.32843" lon="2.90891">
        <ele>104</ele>
        <time>2015-03-07T11:31:23Z</time>
      </trkpt>
      <trkpt lat="48.32849" lon="2.909">
        <ele>105</ele>
        <time>2015-03-07T11:31:29Z</time>
      </trkpt>
      <trkpt lat="48.32854" lon="2.90909">
        <ele>106</ele>
        <time>2015-03-07T11:31:36Z</time>
      </trkpt>
      <trkpt lat="48.32861" lon="2.90916">
        <ele>107</ele>
        <time>2015-03-07T11:31:42Z</time>
      </trkpt>
      <trkpt lat="48.32866" lon="2.90924">
        <ele>107</ele>
        <time>2015-03-07T11:31:48Z</time>
      </trkpt>
      <trkpt lat="48.32873" lon="2.9093">
        <ele>108</ele>
        <time>2015-03-07T11:31:53Z</time>
      </trkpt>
      <trkpt lat="48.32881" lon="2.90938">
        <ele>108</ele>
        <time>2015-03-07T11:31:59Z</time>
      </trkpt>
      <trkpt lat="48.32888" lon="2.90942">
        <ele>109</ele>
        <time>2015-03-07T11:32:05Z</time>
      </trkpt>
      <trkpt lat="48.32895" lon="2.90948">
        <ele>110</ele>
        <time>2015-03-07T11:32:12Z</time>
      </trkpt>
      <trkpt lat="48.32903" lon="2.90955">
        <ele>110</ele>
        <time>2015-03-07T11:32:22Z</time>
      </trkpt>
      <trkpt lat="48.3291" lon="2.90963">
        <ele>111</ele>
        <time>2015-03-07T11:33:02Z</time>
      </trkpt>
      <trkpt lat="48.32917" lon="2.9097">
        <ele>111</ele>
        <time>2015-03-07T11:33:09Z</time>
      </trkpt>
      <trkpt lat="48.32924" lon="2.90977">
        <ele>111</ele>
        <time>2015-03-07T11:33:14Z</time>
      </trkpt>
      <trkpt lat="48.32929" lon="2.90986">
        <ele>111</ele>
        <time>2015-03-07T11:33:19Z</time>
      </trkpt>
      <trkpt lat="48.32936" lon="2.90993">
        <ele>111</ele>
        <time>2015-03-07T11:33:24Z</time>
      </trkpt>
      <trkpt lat="48.32944" lon="2.91">
        <ele>112</ele>
        <time>2015-03-07T11:33:30Z</time>
      </trkpt>
      <trkpt lat="48.32951" lon="2.91006">
        <ele>112</ele>
        <time>2015-03-07T11:33:36Z</time>
      </trkpt>
      <trkpt lat="48.32958" lon="2.91011">
        <ele>113</ele>
        <time>2015-03-07T11:33:41Z</time>
      </trkpt>
      <trkpt lat="48.32965" lon="2.91017">
        <ele>113</ele>
        <time>2015-03-07T11:33:47Z</time>
      </trkpt>
      <trkpt lat="48.32972" lon="2.91022">
        <ele>113</ele>
        <time>2015-03-07T11:33:54Z</time>
      </trkpt>
      <trkpt lat="48.32979" lon="2.91028">
        <ele>113</ele>
        <time>2015-03-07T11:34:01Z</time>
      </trkpt>
      <trkpt lat="48.32986" lon="2.91035">
        <ele>112</ele>
        <time>2015-03-07T11:34:07Z</time>
      </trkpt>
      <trkpt lat="48.32993" lon="2.91043">
        <ele>112</ele>
        <time>2015-03-07T11:34:13Z</time>
      </trkpt>
      <trkpt lat="48.32999" lon="2.91051">
        <ele>112</ele>
        <time>2015-03-07T11:34:19Z</time>
      </trkpt>
      <trkpt lat="48.33006" lon="2.91058">
        <ele>111</ele>
        <time>2015-03-07T11:34:26Z</time>
      </trkpt>
      <trkpt lat="48.33012" lon="2.91067">
        <ele>111</ele>
        <time>2015-03-07T11:34:32Z</time>
      </trkpt>
      <trkpt lat="48.3302" lon="2.91073">
        <ele>111</ele>
        <time>2015-03-07T11:34:38Z</time>
      </trkpt>
      <trkpt lat="48.33027" lon="2.91079">
        <ele>111</ele>
        <time>2015-03-07T11:34:44Z</time>
      </trkpt>
      <trkpt lat="48.33033" lon="2.91085">
        <ele>111</ele>
        <time>2015-03-07T11:34:49Z</time>
      </trkpt>
      <trkpt lat="48.33039" lon="2.91092">
        <ele>111</ele>
        <time>2015-03-07T11:34:54Z</time>
      </trkpt>
      <trkpt lat="48.33046" lon="2.91099">
        <ele>111</ele>
        <time>2015-03-07T11:35:00Z</time>
      </trkpt>
      <trkpt lat="48.33053" lon="2.91106">
        <ele>111</ele>
        <time>2015-03-07T11:35:05Z</time>
      </trkpt>
      <trkpt lat="48.3306" lon="2.91112">
        <ele>112</ele>
        <time>2015-03-07T11:35:11Z</time>
      </trkpt>
      <trkpt lat="48.33068" lon="2.91116">
        <ele>112</ele>
        <time>2015-03-07T11:35:17Z</time>
      </trkpt>
      <trkpt lat="48.33075" lon="2.91122">
        <ele>113</ele>
        <time>2015-03-07T11:35:22Z</time>
      </trkpt>
      <trkpt lat="48.3308" lon="2.91128">
        <ele>113</ele>
        <time>2015-03-07T11:35:27Z</time>
      </trkpt>
      <trkpt lat="48.33087" lon="2.91134">
        <ele>114</ele>
        <time>2015-03-07T11:35:33Z</time>
      </trkpt>
      <trkpt lat="48.33094" lon="2.91141">
        <ele>114</ele>
        <time>2015-03-07T11:35:39Z</time>
      </trkpt>
      <trkpt lat="48.33102" lon="2.91146">
        <ele>115</ele>
        <time>2015-03-07T11:35:45Z</time>
      </trkpt>
      <trkpt lat="48.33111" lon="2.9115">
        <ele>115</ele>
        <time>2015-03-07T11:35:51Z</time>
      </trkpt>
      <trkpt lat="48.33118" lon="2.91154">
        <ele>115</ele>
        <time>2015-03-07T11:35:56Z</time>
      </trkpt>
      <trkpt lat="48.33124" lon="2.91159">
        <ele>115</ele>
        <time>2015-03-07T11:36:02Z</time>
      </trkpt>
      <trkpt lat="48.33132" lon="2.91166">
        <ele>115</ele>
        <time>2015-03-07T11:36:08Z</time>
      </trkpt>
      <trkpt lat="48.33138" lon="2.91173">
        <ele>115</ele>
        <time>2015-03-07T11:36:13Z</time>
      </trkpt>
      <trkpt lat="48.33144" lon="2.91179">
        <ele>114</ele>
        <time>2015-03-07T11:36:18Z</time>
      </trkpt>
      <trkpt lat="48.33152" lon="2.91185">
        <ele>114</ele>
        <time>2015-03-07T11:36:32Z</time>
      </trkpt>
      <trkpt lat="48.3316" lon="2.91191">
        <ele>114</ele>
        <time>2015-03-07T11:36:37Z</time>
      </trkpt>
      <trkpt lat="48.33168" lon="2.91194">
        <ele>113</ele>
        <time>2015-03-07T11:36:43Z</time>
      </trkpt>
      <trkpt lat="48.33175" lon="2.91198">
        <ele>113</ele>
        <time>2015-03-07T11:36:48Z</time>
      </trkpt>
      <trkpt lat="48.33182" lon="2.91203">
        <ele>113</ele>
        <time>2015-03-07T11:36:53Z</time>
      </trkpt>
      <trkpt lat="48.3319" lon="2.9121">
        <ele>113</ele>
        <time>2015-03-07T11:36:59Z</time>
      </trkpt>
      <trkpt lat="48.33196" lon="2.91219">
        <ele>114</ele>
        <time>2015-03-07T11:37:05Z</time>
      </trkpt>
      <trkpt lat="48.33203" lon="2.91226">
        <ele>114</ele>
        <time>2015-03-07T11:37:12Z</time>
      </trkpt>
      <trkpt lat="48.33211" lon="2.91233">
        <ele>114</ele>
        <time>2015-03-07T11:37:18Z</time>
      </trkpt>
      <trkpt lat="48.33218" lon="2.9124">
        <ele>114</ele>
        <time>2015-03-07T11:37:25Z</time>
      </trkpt>
      <trkpt lat="48.33225" lon="2.91246">
        <ele>114</ele>
        <time>2015-03-07T11:37:30Z</time>
      </trkpt>
      <trkpt lat="48.33233" lon="2.9125">
        <ele>114</ele>
        <time>2015-03-07T11:37:36Z</time>
      </trkpt>
      <trkpt lat="48.3324" lon="2.91256">
        <ele>114</ele>
        <time>2015-03-07T11:37:43Z</time>
      </trkpt>
      <trkpt lat="48.33248" lon="2.9126">
        <ele>114</ele>
        <time>2015-03-07T11:37:49Z</time>
      </trkpt>
      <trkpt lat="48.33255" lon="2.91268">
        <ele>113</ele>
        <time>2015-03-07T11:37:56Z</time>
      </trkpt>
      <trkpt lat="48.33261" lon="2.91278">
        <ele>113</ele>
        <time>2015-03-07T11:38:02Z</time>
      </trkpt>
      <trkpt lat="48.33268" lon="2.91284">
        <ele>113</ele>
        <time>2015-03-07T11:38:08Z</time>
      </trkpt>
      <trkpt lat="48.33275" lon="2.9129">
        <ele>113</ele>
        <time>2015-03-07T11:38:13Z</time>
      </trkpt>
      <trkpt lat="48.33283" lon="2.91296">
        <ele>112</ele>
        <time>2015-03-07T11:38:20Z</time>
      </trkpt>
      <trkpt lat="48.33291" lon="2.91301">
        <ele>112</ele>
        <time>2015-03-07T11:38:26Z</time>
      </trkpt>
      <trkpt lat="48.33298" lon="2.91306">
        <ele>112</ele>
        <time>2015-03-07T11:38:32Z</time>
      </trkpt>
      <trkpt lat="48.33304" lon="2.91314">
        <ele>111</ele>
        <time>2015-03-07T11:38:37Z</time>
      </trkpt>
      <trkpt lat="48.3331" lon="2.91322">
        <ele>111</ele>
        <time>2015-03-07T11:38:42Z</time>
      </trkpt>
      <trkpt lat="48.33317" lon="2.9133">
        <ele>111</ele>
        <time>2015-03-07T11:38:47Z</time>
      </trkpt>
      <trkpt lat="48.33324" lon="2.91337">
        <ele>111</ele>
        <time>2015-03-07T11:38:53Z</time>
      </trkpt>
      <trkpt lat="48.33331" lon="2.91343">
        <ele>111</ele>
        <time>2015-03-07T11:39:00Z</time>
      </trkpt>
      <trkpt lat="48.33338" lon="2.9135">
        <ele>111</ele>
        <time>2015-03-07T11:39:06Z</time>
      </trkpt>
      <trkpt lat="48.33344" lon="2.91358">
        <ele>111</ele>
        <time>2015-03-07T11:39:12Z</time>
      </trkpt>
      <trkpt lat="48.33352" lon="2.91366">
        <ele>111</ele>
        <time>2015-03-07T11:39:18Z</time>
      </trkpt>
      <trkpt lat="48.33358" lon="2.91374">
        <ele>111</ele>
        <time>2015-03-07T11:39:24Z</time>
      </trkpt>
      <trkpt lat="48.33364" lon="2.91382">
        <ele>110</ele>
        <time>2015-03-07T11:39:30Z</time>
      </trkpt>
      <trkpt lat="48.33371" lon="2.9139">
        <ele>111</ele>
        <time>2015-03-07T11:39:35Z</time>
      </trkpt>
      <trkpt lat="48.33377" lon="2.91396">
        <ele>110</ele>
        <time>2015-03-07T11:39:40Z</time>
      </trkpt>
      <trkpt lat="48.33384" lon="2.91403">
        <ele>110</ele>
        <time>2015-03-07T11:39:46Z</time>
      </trkpt>
      <trkpt lat="48.33391" lon="2.91407">
        <ele>110</ele>
        <time>2015-03-07T11:39:52Z</time>
      </trkpt>
      <trkpt lat="48.334" lon="2.91412">
        <ele>110</ele>
        <time>2015-03-07T11:39:59Z</time>
      </trkpt>
      <trkpt lat="48.33408" lon="2.91414">
        <ele>110</ele>
        <time>2015-03-07T11:40:06Z</time>
      </trkpt>
      <trkpt lat="48.33416" lon="2.91417">
        <ele>111</ele>
        <time>2015-03-07T11:40:12Z</time>
      </trkpt>
      <trkpt lat="48.33424" lon="2.91419">
        <ele>111</ele>
        <time>2015-03-07T11:40:18Z</time>
      </trkpt>
      <trkpt lat="48.33432" lon="2.91421">
        <ele>111</ele>
        <time>2015-03-07T11:40:23Z</time>
      </trkpt>
      <trkpt lat="48.3344" lon="2.91423">
        <ele>111</ele>
        <time>2015-03-07T11:40:28Z</time>
      </trkpt>
      <trkpt lat="48.33447" lon="2.91423">
        <ele>112</ele>
        <time>2015-03-07T11:40:33Z</time>
      </trkpt>
      <trkpt lat="48.33455" lon="2.91425">
        <ele>112</ele>
        <time>2015-03-07T11:40:38Z</time>
      </trkpt>
      <trkpt lat="48.33463" lon="2.91424">
        <ele>112</ele>
        <time>2015-03-07T11:40:43Z</time>
      </trkpt>
      <trkpt lat="48.33472" lon="2.91423">
        <ele>113</ele>
        <time>2015-03-07T11:40:51Z</time>
      </trkpt>
      <trkpt lat="48.3348" lon="2.91422">
        <ele>112</ele>
        <time>2015-03-07T11:40:58Z</time>
      </trkpt>
      <trkpt lat="48.33488" lon="2.91425">
        <ele>112</ele>
        <time>2015-03-07T11:41:04Z</time>
      </trkpt>
      <trkpt lat="48.33496" lon="2.91428">
        <ele>112</ele>
        <time>2015-03-07T11:41:09Z</time>
      </trkpt>
      <trkpt lat="48.33504" lon="2.91433">
        <ele>112</ele>
        <time>2015-03-07T11:41:14Z</time>
      </trkpt>
      <trkpt lat="48.33513" lon="2.91436">
        <ele>111</ele>
        <time>2015-03-07T11:41:20Z</time>
      </trkpt>
      <trkpt lat="48.33519" lon="2.9144">
        <ele>111</ele>
        <time>2015-03-07T11:41:25Z</time>
      </trkpt>
      <trkpt lat="48.33527" lon="2.91444">
        <ele>111</ele>
        <time>2015-03-07T11:41:32Z</time>
      </trkpt>
      <trkpt lat="48.33535" lon="2.91449">
        <ele>110</ele>
        <time>2015-03-07T11:41:37Z</time>
      </trkpt>
      <trkpt lat="48.33543" lon="2.91453">
        <ele>111</ele>
        <time>2015-03-07T11:41:42Z</time>
      </trkpt>
      <trkpt lat="48.33551" lon="2.91459">
        <ele>111</ele>
        <time>2015-03-07T11:41:48Z</time>
      </trkpt>
      <trkpt lat="48.33557" lon="2.91465">
        <ele>112</ele>
        <time>2015-03-07T11:41:54Z</time>
      </trkpt>
      <trkpt lat="48.33565" lon="2.91472">
        <ele>112</ele>
        <time>2015-03-07T11:42:01Z</time>
      </trkpt>
      <trkpt lat="48.33572" lon="2.91479">
        <ele>112</ele>
        <time>2015-03-07T11:42:07Z</time>
      </trkpt>
      <trkpt lat="48.33579" lon="2.91483">
        <ele>112</ele>
        <time>2015-03-07T11:42:13Z</time>
      </trkpt>
      <trkpt lat="48.33586" lon="2.91489">
        <ele>112</ele>
        <time>2015-03-07T11:42:18Z</time>
      </trkpt>
      <trkpt lat="48.33592" lon="2.91495">
        <ele>112</ele>
        <time>2015-03-07T11:42:24Z</time>
      </trkpt>
      <trkpt lat="48.336" lon="2.915">
        <ele>112</ele>
        <time>2015-03-07T11:42:29Z</time>
      </trkpt>
      <trkpt lat="48.33608" lon="2.91503">
        <ele>111</ele>
        <time>2015-03-07T11:42:35Z</time>
      </trkpt>
      <trkpt lat="48.33616" lon="2.91506">
        <ele>111</ele>
        <time>2015-03-07T11:42:42Z</time>
      </trkpt>
      <trkpt lat="48.33624" lon="2.91511">
        <ele>110</ele>
        <time>2015-03-07T11:42:48Z</time>
      </trkpt>
      <trkpt lat="48.33632" lon="2.91515">
        <ele>109</ele>
        <time>2015-03-07T11:42:54Z</time>
      </trkpt>
      <trkpt lat="48.33639" lon="2.91517">
        <ele>109</ele>
        <time>2015-03-07T11:42:59Z</time>
      </trkpt>
      <trkpt lat="48.33646" lon="2.91523">
        <ele>108</ele>
        <time>2015-03-07T11:43:04Z</time>
      </trkpt>
      <trkpt lat="48.33655" lon="2.91526">
        <ele>107</ele>
        <time>2015-03-07T11:43:11Z</time>
      </trkpt>
      <trkpt lat="48.33663" lon="2.91528">
        <ele>106</ele>
        <time>2015-03-07T11:43:16Z</time>
      </trkpt>
      <trkpt lat="48.3367" lon="2.91533">
        <ele>105</ele>
        <time>2015-03-07T11:43:23Z</time>
      </trkpt>
      <trkpt lat="48.33677" lon="2.91538">
        <ele>105</ele>
        <time>2015-03-07T11:43:28Z</time>
      </trkpt>
      <trkpt lat="48.33686" lon="2.91542">
        <ele>104</ele>
        <time>2015-03-07T11:43:34Z</time>
      </trkpt>
      <trkpt lat="48.33693" lon="2.91547">
        <ele>103</ele>
        <time>2015-03-07T11:43:39Z</time>
      </trkpt>
      <trkpt lat="48.33699" lon="2.91555">
        <ele>103</ele>
        <time>2015-03-07T11:43:52Z</time>
      </trkpt>
      <trkpt lat="48.33697" lon="2.91568">
        <ele>102</ele>
        <time>2015-03-07T11:43:58Z</time>
      </trkpt>
      <trkpt lat="48.33693" lon="2.91579">
        <ele>102</ele>
        <time>2015-03-07T11:44:04Z</time>
      </trkpt>
      <trkpt lat="48.3369" lon="2.91591">
        <ele>102</ele>
        <time>2015-03-07T11:44:11Z</time>
      </trkpt>
      <trkpt lat="48.33689" lon="2.91604">
        <ele>102</ele>
        <time>2015-03-07T11:44:18Z</time>
      </trkpt>
      <trkpt lat="48.33689" lon="2.91616">
        <ele>101</ele>
        <time>2015-03-07T11:44:24Z</time>
      </trkpt>
      <trkpt lat="48.33689" lon="2.91629">
        <ele>100</ele>
        <time>2015-03-07T11:44:29Z</time>
      </trkpt>
      <trkpt lat="48.33689" lon="2.9164">
        <ele>100</ele>
        <time>2015-03-07T11:44:34Z</time>
      </trkpt>
      <trkpt lat="48.33689" lon="2.91651">
        <ele>99</ele>
        <time>2015-03-07T11:44:39Z</time>
      </trkpt>
      <trkpt lat="48.33691" lon="2.91662">
        <ele>98</ele>
        <time>2015-03-07T11:44:45Z</time>
      </trkpt>
      <trkpt lat="48.33692" lon="2.91675">
        <ele>98</ele>
        <time>2015-03-07T11:44:51Z</time>
      </trkpt>
      <trkpt lat="48.33689" lon="2.91687">
        <ele>98</ele>
        <time>2015-03-07T11:44:59Z</time>
      </trkpt>
      <trkpt lat="48.33686" lon="2.91698">
        <ele>98</ele>
        <time>2015-03-07T11:45:04Z</time>
      </trkpt>
      <trkpt lat="48.33685" lon="2.91711">
        <ele>98</ele>
        <time>2015-03-07T11:45:10Z</time>
      </trkpt>
      <trkpt lat="48.33686" lon="2.91722">
        <ele>97</ele>
        <time>2015-03-07T11:45:15Z</time>
      </trkpt>
      <trkpt lat="48.33684" lon="2.91735">
        <ele>97</ele>
        <time>2015-03-07T11:45:21Z</time>
      </trkpt>
      <trkpt lat="48.33679" lon="2.91746">
        <ele>97</ele>
        <time>2015-03-07T11:45:26Z</time>
      </trkpt>
      <trkpt lat="48.33673" lon="2.91757">
        <ele>98</ele>
        <time>2015-03-07T11:45:31Z</time>
      </trkpt>
      <trkpt lat="48.33666" lon="2.91764">
        <ele>98</ele>
        <time>2015-03-07T11:45:36Z</time>
      </trkpt>
      <trkpt lat="48.3366" lon="2.91773">
        <ele>98</ele>
        <time>2015-03-07T11:45:42Z</time>
      </trkpt>
      <trkpt lat="48.33655" lon="2.91784">
        <ele>98</ele>
        <time>2015-03-07T11:45:48Z</time>
      </trkpt>
      <trkpt lat="48.3365" lon="2.91794">
        <ele>98</ele>
        <time>2015-03-07T11:45:54Z</time>
      </trkpt>
      <trkpt lat="48.33645" lon="2.91802">
        <ele>97</ele>
        <time>2015-03-07T11:45:59Z</time>
      </trkpt>
      <trkpt lat="48.33638" lon="2.91811">
        <ele>97</ele>
        <time>2015-03-07T11:46:05Z</time>
      </trkpt>
      <trkpt lat="48.33633" lon="2.91822">
        <ele>97</ele>
        <time>2015-03-07T11:46:12Z</time>
      </trkpt>
      <trkpt lat="48.33628" lon="2.91832">
        <ele>97</ele>
        <time>2015-03-07T11:46:19Z</time>
      </trkpt>
      <trkpt lat="48.33621" lon="2.91838">
        <ele>97</ele>
        <time>2015-03-07T11:46:24Z</time>
      </trkpt>
      <trkpt lat="48.33616" lon="2.91846">
        <ele>97</ele>
        <time>2015-03-07T11:46:29Z</time>
      </trkpt>
      <trkpt lat="48.33611" lon="2.91855">
        <ele>98</ele>
        <time>2015-03-07T11:46:34Z</time>
      </trkpt>
      <trkpt lat="48.33606" lon="2.91866">
        <ele>98</ele>
        <time>2015-03-07T11:46:39Z</time>
      </trkpt>
      <trkpt lat="48.33604" lon="2.91878">
        <ele>99</ele>
        <time>2015-03-07T11:46:46Z</time>
      </trkpt>
      <trkpt lat="48.33602" lon="2.91891">
        <ele>99</ele>
        <time>2015-03-07T11:46:52Z</time>
      </trkpt>
      <trkpt lat="48.33602" lon="2.91902">
        <ele>99</ele>
        <time>2015-03-07T11:46:57Z</time>
      </trkpt>
      <trkpt lat="48.33606" lon="2.91912">
        <ele>99</ele>
        <time>2015-03-07T11:47:01Z</time>
      </trkpt>
      <trkpt lat="48.33608" lon="2.91924">
        <ele>99</ele>
        <time>2015-03-07T11:47:06Z</time>
      </trkpt>
      <trkpt lat="48.3361" lon="2.91936">
        <ele>99</ele>
        <time>2015-03-07T11:47:15Z</time>
      </trkpt>
      <trkpt lat="48.33612" lon="2.91948">
        <ele>98</ele>
        <time>2015-03-07T11:47:22Z</time>
      </trkpt>
      <trkpt lat="48.33608" lon="2.91958">
        <ele>99</ele>
        <time>2015-03-07T11:47:28Z</time>
      </trkpt>
      <trkpt lat="48.33609" lon="2.91972">
        <ele>99</ele>
        <time>2015-03-07T11:47:33Z</time>
      </trkpt>
      <trkpt lat="48.33608" lon="2.91984">
        <ele>99</ele>
        <time>2015-03-07T11:47:40Z</time>
      </trkpt>
      <trkpt lat="48.33611" lon="2.91993">
        <ele>99</ele>
        <time>2015-03-07T11:47:51Z</time>
      </trkpt>
      <trkpt lat="48.33607" lon="2.92005">
        <ele>99</ele>
        <time>2015-03-07T11:47:57Z</time>
      </trkpt>
      <trkpt lat="48.33601" lon="2.92012">
        <ele>99</ele>
        <time>2015-03-07T11:48:01Z</time>
      </trkpt>
      <trkpt lat="48.33593" lon="2.92018">
        <ele>99</ele>
        <time>2015-03-07T11:48:07Z</time>
      </trkpt>
      <trkpt lat="48.33587" lon="2.92026">
        <ele>100</ele>
        <time>2015-03-07T11:48:13Z</time>
      </trkpt>
      <trkpt lat="48.3358" lon="2.92031">
        <ele>101</ele>
        <time>2015-03-07T11:48:21Z</time>
      </trkpt>
      <trkpt lat="48.33574" lon="2.92039">
        <ele>102</ele>
        <time>2015-03-07T11:48:28Z</time>
      </trkpt>
      <trkpt lat="48.33567" lon="2.9205">
        <ele>103</ele>
        <time>2015-03-07T11:48:33Z</time>
      </trkpt>
      <trkpt lat="48.33563" lon="2.92061">
        <ele>104</ele>
        <time>2015-03-07T11:48:40Z</time>
      </trkpt>
      <trkpt lat="48.33558" lon="2.92072">
        <ele>106</ele>
        <time>2015-03-07T11:48:49Z</time>
      </trkpt>
      <trkpt lat="48.33555" lon="2.92083">
        <ele>107</ele>
        <time>2015-03-07T11:48:56Z</time>
      </trkpt>
      <trkpt lat="48.33553" lon="2.92098">
        <ele>107</ele>
        <time>2015-03-07T11:49:01Z</time>
      </trkpt>
      <trkpt lat="48.33555" lon="2.92111">
        <ele>107</ele>
        <time>2015-03-07T11:49:05Z</time>
      </trkpt>
      <trkpt lat="48.33557" lon="2.92123">
        <ele>107</ele>
        <time>2015-03-07T11:49:11Z</time>
      </trkpt>
      <trkpt lat="48.33558" lon="2.92136">
        <ele>108</ele>
        <time>2015-03-07T11:49:19Z</time>
      </trkpt>
      <trkpt lat="48.3356" lon="2.92149">
        <ele>108</ele>
        <time>2015-03-07T11:49:24Z</time>
      </trkpt>
      <trkpt lat="48.33559" lon="2.9216">
        <ele>108</ele>
        <time>2015-03-07T11:49:30Z</time>
      </trkpt>
      <trkpt lat="48.33559" lon="2.92172">
        <ele>109</ele>
        <time>2015-03-07T11:49:35Z</time>
      </trkpt>
      <trkpt lat="48.33559" lon="2.92185">
        <ele>109</ele>
        <time>2015-03-07T11:49:41Z</time>
      </trkpt>
      <trkpt lat="48.3356" lon="2.92198">
        <ele>109</ele>
        <time>2015-03-07T11:49:48Z</time>
      </trkpt>
      <trkpt lat="48.3356" lon="2.92209">
        <ele>108</ele>
        <time>2015-03-07T11:49:54Z</time>
      </trkpt>
      <trkpt lat="48.33557" lon="2.92222">
        <ele>108</ele>
        <time>2015-03-07T11:50:00Z</time>
      </trkpt>
      <trkpt lat="48.33554" lon="2.92233">
        <ele>108</ele>
        <time>2015-03-07T11:50:06Z</time>
      </trkpt>
      <trkpt lat="48.33549" lon="2.92243">
        <ele>108</ele>
        <time>2015-03-07T11:50:11Z</time>
      </trkpt>
      <trkpt lat="48.33547" lon="2.92256">
        <ele>109</ele>
        <time>2015-03-07T11:50:19Z</time>
      </trkpt>
      <trkpt lat="48.33548" lon="2.92268">
        <ele>108</ele>
        <time>2015-03-07T11:50:26Z</time>
      </trkpt>
      <trkpt lat="48.33551" lon="2.9228">
        <ele>108</ele>
        <time>2015-03-07T11:50:45Z</time>
      </trkpt>
      <trkpt lat="48.33552" lon="2.92294">
        <ele>108</ele>
        <time>2015-03-07T11:50:50Z</time>
      </trkpt>
      <trkpt lat="48.3355" lon="2.92306">
        <ele>107</ele>
        <time>2015-03-07T11:50:58Z</time>
      </trkpt>
      <trkpt lat="48.33546" lon="2.92317">
        <ele>107</ele>
        <time>2015-03-07T11:51:03Z</time>
      </trkpt>
      <trkpt lat="48.33543" lon="2.92329">
        <ele>106</ele>
        <time>2015-03-07T11:51:10Z</time>
      </trkpt>
      <trkpt lat="48.33541" lon="2.92342">
        <ele>106</ele>
        <time>2015-03-07T11:51:17Z</time>
      </trkpt>
      <trkpt lat="48.33538" lon="2.92354">
        <ele>105</ele>
        <time>2015-03-07T11:51:23Z</time>
      </trkpt>
      <trkpt lat="48.33535" lon="2.92367">
        <ele>105</ele>
        <time>2015-03-07T11:51:29Z</time>
      </trkpt>
      <trkpt lat="48.33531" lon="2.92377">
        <ele>104</ele>
        <time>2015-03-07T11:51:34Z</time>
      </trkpt>
      <trkpt lat="48.33531" lon="2.9239">
        <ele>103</ele>
        <time>2015-03-07T11:51:40Z</time>
      </trkpt>
      <trkpt lat="48.33529" lon="2.92402">
        <ele>102</ele>
        <time>2015-03-07T11:51:47Z</time>
      </trkpt>
      <trkpt lat="48.33527" lon="2.92415">
        <ele>102</ele>
        <time>2015-03-07T11:51:52Z</time>
      </trkpt>
      <trkpt lat="48.33525" lon="2.92426">
        <ele>101</ele>
        <time>2015-03-07T11:51:59Z</time>
      </trkpt>
      <trkpt lat="48.33523" lon="2.92439">
        <ele>100</ele>
        <time>2015-03-07T11:52:05Z</time>
      </trkpt>
      <trkpt lat="48.33523" lon="2.9245">
        <ele>100</ele>
        <time>2015-03-07T11:52:10Z</time>
      </trkpt>
      <trkpt lat="48.33523" lon="2.92462">
        <ele>99</ele>
        <time>2015-03-07T11:52:24Z</time>
      </trkpt>
      <trkpt lat="48.33521" lon="2.92475">
        <ele>98</ele>
        <time>2015-03-07T11:52:30Z</time>
      </trkpt>
      <trkpt lat="48.33519" lon="2.92487">
        <ele>97</ele>
        <time>2015-03-07T11:52:35Z</time>
      </trkpt>
      <trkpt lat="48.33518" lon="2.92499">
        <ele>96</ele>
        <time>2015-03-07T11:52:40Z</time>
      </trkpt>
      <trkpt lat="48.33517" lon="2.92511">
        <ele>96</ele>
        <time>2015-03-07T11:52:45Z</time>
      </trkpt>
      <trkpt lat="48.33513" lon="2.92521">
        <ele>96</ele>
        <time>2015-03-07T11:52:49Z</time>
      </trkpt>
      <trkpt lat="48.33509" lon="2.92533">
        <ele>95</ele>
        <time>2015-03-07T11:52:56Z</time>
      </trkpt>
      <trkpt lat="48.33506" lon="2.92545">
        <ele>94</ele>
        <time>2015-03-07T11:53:02Z</time>
      </trkpt>
      <trkpt lat="48.33501" lon="2.92555">
        <ele>94</ele>
        <time>2015-03-07T11:53:07Z</time>
      </trkpt>
      <trkpt lat="48.33497" lon="2.92565">
        <ele>93</ele>
        <time>2015-03-07T11:53:12Z</time>
      </trkpt>
      <trkpt lat="48.33493" lon="2.92577">
        <ele>92</ele>
        <time>2015-03-07T11:53:18Z</time>
      </trkpt>
      <trkpt lat="48.3349" lon="2.92588">
        <ele>91</ele>
        <time>2015-03-07T11:53:23Z</time>
      </trkpt>
      <trkpt lat="48.33485" lon="2.92598">
        <ele>90</ele>
        <time>2015-03-07T11:53:30Z</time>
      </trkpt>
      <trkpt lat="48.33482" lon="2.92608">
        <ele>90</ele>
        <time>2015-03-07T11:53:35Z</time>
      </trkpt>
      <trkpt lat="48.33479" lon="2.92619">
        <ele>89</ele>
        <time>2015-03-07T11:53:40Z</time>
      </trkpt>
      <trkpt lat="48.33473" lon="2.92629">
        <ele>88</ele>
        <time>2015-03-07T11:53:46Z</time>
      </trkpt>
      <trkpt lat="48.33468" lon="2.9264">
        <ele>87</ele>
        <time>2015-03-07T11:53:53Z</time>
      </trkpt>
      <trkpt lat="48.33466" lon="2.9265">
        <ele>87</ele>
        <time>2015-03-07T11:53:57Z</time>
      </trkpt>
      <trkpt lat="48.33463" lon="2.92662">
        <ele>86</ele>
        <time>2015-03-07T11:54:03Z</time>
      </trkpt>
      <trkpt lat="48.33461" lon="2.92674">
        <ele>87</ele>
        <time>2015-03-07T11:54:07Z</time>
      </trkpt>
      <trkpt lat="48.33459" lon="2.92684">
        <ele>87</ele>
        <time>2015-03-07T11:54:12Z</time>
      </trkpt>
      <trkpt lat="48.33457" lon="2.92696">
        <ele>87</ele>
        <time>2015-03-07T11:54:18Z</time>
      </trkpt>
      <trkpt lat="48.33456" lon="2.92708">
        <ele>86</ele>
        <time>2015-03-07T11:54:24Z</time>
      </trkpt>
      <trkpt lat="48.33455" lon="2.92722">
        <ele>86</ele>
        <time>2015-03-07T11:54:29Z</time>
      </trkpt>
      <trkpt lat="48.33455" lon="2.92734">
        <ele>85</ele>
        <time>2015-03-07T11:54:36Z</time>
      </trkpt>
      <trkpt lat="48.33457" lon="2.92746">
        <ele>85</ele>
        <time>2015-03-07T11:54:41Z</time>
      </trkpt>
      <trkpt lat="48.33459" lon="2.92759">
        <ele>85</ele>
        <time>2015-03-07T11:54:47Z</time>
      </trkpt>
      <trkpt lat="48.3346" lon="2.92769">
        <ele>85</ele>
        <time>2015-03-07T11:54:51Z</time>
      </trkpt>
      <trkpt lat="48.33463" lon="2.92781">
        <ele>85</ele>
        <time>2015-03-07T11:54:57Z</time>
      </trkpt>
      <trkpt lat="48.33467" lon="2.92792">
        <ele>85</ele>
        <time>2015-03-07T11:55:02Z</time>
      </trkpt>
      <trkpt lat="48.3347" lon="2.92805">
        <ele>85</ele>
        <time>2015-03-07T11:55:09Z</time>
      </trkpt>
      <trkpt lat="48.33473" lon="2.92817">
        <ele>85</ele>
        <time>2015-03-07T11:55:16Z</time>
      </trkpt>
      <trkpt lat="48.33477" lon="2.92827">
        <ele>85</ele>
        <time>2015-03-07T11:55:21Z</time>
      </trkpt>
      <trkpt lat="48.33483" lon="2.92839">
        <ele>85</ele>
        <time>2015-03-07T11:55:26Z</time>
      </trkpt>
      <trkpt lat="48.33487" lon="2.92849">
        <ele>85</ele>
        <time>2015-03-07T11:55:32Z</time>
      </trkpt>
      <trkpt lat="48.33493" lon="2.92859">
        <ele>85</ele>
        <time>2015-03-07T11:55:38Z</time>
      </trkpt>
      <trkpt lat="48.335" lon="2.92864">
        <ele>85</ele>
        <time>2015-03-07T11:55:44Z</time>
      </trkpt>
      <trkpt lat="48.33508" lon="2.92867">
        <ele>85</ele>
        <time>2015-03-07T11:55:49Z</time>
      </trkpt>
      <trkpt lat="48.33516" lon="2.92871">
        <ele>86</ele>
        <time>2015-03-07T11:55:54Z</time>
      </trkpt>
      <trkpt lat="48.33525" lon="2.92874">
        <ele>86</ele>
        <time>2015-03-07T11:56:00Z</time>
      </trkpt>
      <trkpt lat="48.33532" lon="2.9288">
        <ele>87</ele>
        <time>2015-03-07T11:56:05Z</time>
      </trkpt>
      <trkpt lat="48.3354" lon="2.92884">
        <ele>87</ele>
        <time>2015-03-07T11:56:12Z</time>
      </trkpt>
      <trkpt lat="48.33548" lon="2.92885">
        <ele>87</ele>
        <time>2015-03-07T11:56:17Z</time>
      </trkpt>
      <trkpt lat="48.33556" lon="2.92889">
        <ele>87</ele>
        <time>2015-03-07T11:56:24Z</time>
      </trkpt>
      <trkpt lat="48.33559" lon="2.92903">
        <ele>86</ele>
        <time>2015-03-07T11:56:29Z</time>
      </trkpt>
      <trkpt lat="48.33556" lon="2.92914">
        <ele>86</ele>
        <time>2015-03-07T11:56:34Z</time>
      </trkpt>
      <trkpt lat="48.33554" lon="2.92926">
        <ele>86</ele>
        <time>2015-03-07T11:56:40Z</time>
      </trkpt>
      <trkpt lat="48.33551" lon="2.92938">
        <ele>85</ele>
        <time>2015-03-07T11:56:45Z</time>
      </trkpt>
      <trkpt lat="48.3355" lon="2.9295">
        <ele>85</ele>
        <time>2015-03-07T11:56:50Z</time>
      </trkpt>
      <trkpt lat="48.33545" lon="2.92959">
        <ele>84</ele>
        <time>2015-03-07T11:56:55Z</time>
      </trkpt>
      <trkpt lat="48.33539" lon="2.92967">
        <ele>84</ele>
        <time>2015-03-07T11:57:01Z</time>
      </trkpt>
      <trkpt lat="48.3353" lon="2.92968">
        <ele>84</ele>
        <time>2015-03-07T11:57:06Z</time>
      </trkpt>
      <trkpt lat="48.33522" lon="2.92971">
        <ele>83</ele>
        <time>2015-03-07T11:57:16Z</time>
      </trkpt>
      <trkpt lat="48.33513" lon="2.92971">
        <ele>83</ele>
        <time>2015-03-07T11:57:23Z</time>
      </trkpt>
      <trkpt lat="48.33505" lon="2.92973">
        <ele>83</ele>
        <time>2015-03-07T11:57:28Z</time>
      </trkpt>
      <trkpt lat="48.33498" lon="2.92979">
        <ele>84</ele>
        <time>2015-03-07T11:57:35Z</time>
      </trkpt>
      <trkpt lat="48.33489" lon="2.9298">
        <ele>85</ele>
        <time>2015-03-07T11:57:40Z</time>
      </trkpt>
      <trkpt lat="48.33481" lon="2.92979">
        <ele>86</ele>
        <time>2015-03-07T11:57:46Z</time>
      </trkpt>
      <trkpt lat="48.33472" lon="2.92977">
        <ele>86</ele>
        <time>2015-03-07T11:57:51Z</time>
      </trkpt>
      <trkpt lat="48.33464" lon="2.92976">
        <ele>86</ele>
        <time>2015-03-07T11:57:56Z</time>
      </trkpt>
      <trkpt lat="48.33456" lon="2.92975">
        <ele>85</ele>
        <time>2015-03-07T11:58:02Z</time>
      </trkpt>
      <trkpt lat="48.33448" lon="2.92973">
        <ele>85</ele>
        <time>2015-03-07T11:58:09Z</time>
      </trkpt>
      <trkpt lat="48.3344" lon="2.92972">
        <ele>85</ele>
        <time>2015-03-07T11:58:16Z</time>
      </trkpt>
      <trkpt lat="48.33434" lon="2.92962">
        <ele>86</ele>
        <time>2015-03-07T11:58:25Z</time>
      </trkpt>
      <trkpt lat="48.33431" lon="2.9295">
        <ele>86</ele>
        <time>2015-03-07T11:58:32Z</time>
      </trkpt>
      <trkpt lat="48.33426" lon="2.92939">
        <ele>87</ele>
        <time>2015-03-07T11:58:38Z</time>
      </trkpt>
      <trkpt lat="48.33419" lon="2.9293">
        <ele>87</ele>
        <time>2015-03-07T11:58:45Z</time>
      </trkpt>
      <trkpt lat="48.33415" lon="2.9292">
        <ele>87</ele>
        <time>2015-03-07T11:58:50Z</time>
      </trkpt>
      <trkpt lat="48.33412" lon="2.92909">
        <ele>87</ele>
        <time>2015-03-07T11:58:56Z</time>
      </trkpt>
      <trkpt lat="48.33404" lon="2.92905">
        <ele>88</ele>
        <time>2015-03-07T11:59:02Z</time>
      </trkpt>
      <trkpt lat="48.33398" lon="2.92895">
        <ele>88</ele>
        <time>2015-03-07T11:59:11Z</time>
      </trkpt>
      <trkpt lat="48.33392" lon="2.92887">
        <ele>88</ele>
        <time>2015-03-07T11:59:18Z</time>
      </trkpt>
      <trkpt lat="48.33386" lon="2.9288">
        <ele>88</ele>
        <time>2015-03-07T11:59:23Z</time>
      </trkpt>
      <trkpt lat="48.33379" lon="2.92872">
        <ele>88</ele>
        <time>2015-03-07T11:59:29Z</time>
      </trkpt>
      <trkpt lat="48.33374" lon="2.92862">
        <ele>89</ele>
        <time>2015-03-07T11:59:40Z</time>
      </trkpt>
      <trkpt lat="48.33373" lon="2.9285">
        <ele>89</ele>
        <time>2015-03-07T11:59:46Z</time>
      </trkpt>
      <trkpt lat="48.33372" lon="2.92837">
        <ele>90</ele>
        <time>2015-03-07T11:59:50Z</time>
      </trkpt>
      <trkpt lat="48.33366" lon="2.92827">
        <ele>92</ele>
        <time>2015-03-07T11:59:56Z</time>
      </trkpt>
      <trkpt lat="48.3336" lon="2.92818">
        <ele>96</ele>
        <time>2015-03-07T12:00:07Z</time>
      </trkpt>
      <trkpt lat="48.33355" lon="2.92809">
        <ele>98</ele>
        <time>2015-03-07T12:00:13Z</time>
      </trkpt>
      <trkpt lat="48.33351" lon="2.92799">
        <ele>99</ele>
        <time>2015-03-07T12:00:19Z</time>
      </trkpt>
      <trkpt lat="48.33345" lon="2.92789">
        <ele>100</ele>
        <time>2015-03-07T12:00:26Z</time>
      </trkpt>
      <trkpt lat="48.33339" lon="2.9278">
        <ele>99</ele>
        <time>2015-03-07T12:00:35Z</time>
      </trkpt>
      <trkpt lat="48.33333" lon="2.92773">
        <ele>98</ele>
        <time>2015-03-07T12:00:40Z</time>
      </trkpt>
      <trkpt lat="48.33327" lon="2.92765">
        <ele>97</ele>
        <time>2015-03-07T12:00:45Z</time>
      </trkpt>
      <trkpt lat="48.3332" lon="2.92756">
        <ele>97</ele>
        <time>2015-03-07T12:00:50Z</time>
      </trkpt>
      <trkpt lat="48.33314" lon="2.92749">
        <ele>97</ele>
        <time>2015-03-07T12:00:56Z</time>
      </trkpt>
      <trkpt lat="48.33308" lon="2.9274">
        <ele>97</ele>
        <time>2015-03-07T12:01:01Z</time>
      </trkpt>
      <trkpt lat="48.33304" lon="2.9273">
        <ele>98</ele>
        <time>2015-03-07T12:01:07Z</time>
      </trkpt>
      <trkpt lat="48.33297" lon="2.92722">
        <ele>101</ele>
        <time>2015-03-07T12:01:24Z</time>
      </trkpt>
      <trkpt lat="48.33295" lon="2.92709">
        <ele>102</ele>
        <time>2015-03-07T12:01:50Z</time>
      </trkpt>
      <trkpt lat="48.33295" lon="2.92722">
        <ele>105</ele>
        <time>2015-03-07T12:02:15Z</time>
      </trkpt>
      <trkpt lat="48.33296" lon="2.92733">
        <ele>105</ele>
        <time>2015-03-07T12:02:20Z</time>
      </trkpt>
      <trkpt lat="48.33295" lon="2.92747">
        <ele>106</ele>
        <time>2015-03-07T12:02:25Z</time>
      </trkpt>
      <trkpt lat="48.33298" lon="2.92759">
        <ele>106</ele>
        <time>2015-03-07T12:02:30Z</time>
      </trkpt>
      <trkpt lat="48.333" lon="2.92772">
        <ele>108</ele>
        <time>2015-03-07T12:02:42Z</time>
      </trkpt>
      <trkpt lat="48.333" lon="2.92784">
        <ele>108</ele>
        <time>2015-03-07T12:02:47Z</time>
      </trkpt>
      <trkpt lat="48.33296" lon="2.92793">
        <ele>108</ele>
        <time>2015-03-07T12:02:53Z</time>
      </trkpt>
      <trkpt lat="48.33289" lon="2.928">
        <ele>109</ele>
        <time>2015-03-07T12:02:59Z</time>
      </trkpt>
      <trkpt lat="48.33282" lon="2.92805">
        <ele>110</ele>
        <time>2015-03-07T12:03:05Z</time>
      </trkpt>
      <trkpt lat="48.33275" lon="2.9281">
        <ele>111</ele>
        <time>2015-03-07T12:03:10Z</time>
      </trkpt>
      <trkpt lat="48.33268" lon="2.92816">
        <ele>111</ele>
        <time>2015-03-07T12:03:16Z</time>
      </trkpt>
      <trkpt lat="48.3326" lon="2.9282">
        <ele>112</ele>
        <time>2015-03-07T12:03:23Z</time>
      </trkpt>
      <trkpt lat="48.33251" lon="2.92823">
        <ele>113</ele>
        <time>2015-03-07T12:03:29Z</time>
      </trkpt>
      <trkpt lat="48.33244" lon="2.92827">
        <ele>114</ele>
        <time>2015-03-07T12:03:34Z</time>
      </trkpt>
      <trkpt lat="48.33236" lon="2.92831">
        <ele>115</ele>
        <time>2015-03-07T12:03:39Z</time>
      </trkpt>
      <trkpt lat="48.33229" lon="2.92835">
        <ele>116</ele>
        <time>2015-03-07T12:03:44Z</time>
      </trkpt>
      <trkpt lat="48.33221" lon="2.92841">
        <ele>117</ele>
        <time>2015-03-07T12:03:50Z</time>
      </trkpt>
      <trkpt lat="48.33214" lon="2.92845">
        <ele>118</ele>
        <time>2015-03-07T12:03:57Z</time>
      </trkpt>
      <trkpt lat="48.33205" lon="2.92849">
        <ele>119</ele>
        <time>2015-03-07T12:04:03Z</time>
      </trkpt>
      <trkpt lat="48.33197" lon="2.92853">
        <ele>119</ele>
        <time>2015-03-07T12:04:09Z</time>
      </trkpt>
      <trkpt lat="48.3319" lon="2.92856">
        <ele>121</ele>
        <time>2015-03-07T12:04:33Z</time>
      </trkpt>
      <trkpt lat="48.33181" lon="2.92856">
        <ele>122</ele>
        <time>2015-03-07T12:04:40Z</time>
      </trkpt>
      <trkpt lat="48.33174" lon="2.92852">
        <ele>122</ele>
        <time>2015-03-07T12:04:50Z</time>
      </trkpt>
      <trkpt lat="48.33166" lon="2.92847">
        <ele>123</ele>
        <time>2015-03-07T12:04:55Z</time>
      </trkpt>
      <trkpt lat="48.33159" lon="2.9284">
        <ele>123</ele>
        <time>2015-03-07T12:05:02Z</time>
      </trkpt>
      <trkpt lat="48.3315" lon="2.92835">
        <ele>123</ele>
        <time>2015-03-07T12:05:10Z</time>
      </trkpt>
      <trkpt lat="48.33143" lon="2.92831">
        <ele>123</ele>
        <time>2015-03-07T12:05:16Z</time>
      </trkpt>
      <trkpt lat="48.33135" lon="2.92826">
        <ele>123</ele>
        <time>2015-03-07T12:05:22Z</time>
      </trkpt>
      <trkpt lat="48.33126" lon="2.92822">
        <ele>123</ele>
        <time>2015-03-07T12:05:29Z</time>
      </trkpt>
      <trkpt lat="48.33119" lon="2.92817">
        <ele>123</ele>
        <time>2015-03-07T12:05:35Z</time>
      </trkpt>
      <trkpt lat="48.33112" lon="2.92813">
        <ele>123</ele>
        <time>2015-03-07T12:05:40Z</time>
      </trkpt>
      <trkpt lat="48.33103" lon="2.92808">
        <ele>123</ele>
        <time>2015-03-07T12:05:45Z</time>
      </trkpt>
      <trkpt lat="48.33095" lon="2.92803">
        <ele>124</ele>
        <time>2015-03-07T12:05:53Z</time>
      </trkpt>
      <trkpt lat="48.33087" lon="2.928">
        <ele>124</ele>
        <time>2015-03-07T12:06:00Z</time>
      </trkpt>
      <trkpt lat="48.33079" lon="2.92797">
        <ele>124</ele>
        <time>2015-03-07T12:06:06Z</time>
      </trkpt>
      <trkpt lat="48.33071" lon="2.92791">
        <ele>124</ele>
        <time>2015-03-07T12:06:13Z</time>
      </trkpt>
      <trkpt lat="48.33064" lon="2.92787">
        <ele>123</ele>
        <time>2015-03-07T12:06:20Z</time>
      </trkpt>
      <trkpt lat="48.33056" lon="2.92781">
        <ele>122</ele>
        <time>2015-03-07T12:06:26Z</time>
      </trkpt>
      <trkpt lat="48.33048" lon="2.92777">
        <ele>122</ele>
        <time>2015-03-07T12:06:31Z</time>
      </trkpt>
      <trkpt lat="48.3304" lon="2.92772">
        <ele>122</ele>
        <time>2015-03-07T12:06:38Z</time>
      </trkpt>
      <trkpt lat="48.33033" lon="2.92767">
        <ele>123</ele>
        <time>2015-03-07T12:06:44Z</time>
      </trkpt>
      <trkpt lat="48.33025" lon="2.92763">
        <ele>123</ele>
        <time>2015-03-07T12:06:51Z</time>
      </trkpt>
      <trkpt lat="48.33018" lon="2.92758">
        <ele>123</ele>
        <time>2015-03-07T12:06:56Z</time>
      </trkpt>
      <trkpt lat="48.3301" lon="2.92754">
        <ele>123</ele>
        <time>2015-03-07T12:07:03Z</time>
      </trkpt>
      <trkpt lat="48.33002" lon="2.9275">
        <ele>123</ele>
        <time>2015-03-07T12:07:10Z</time>
      </trkpt>
      <trkpt lat="48.32995" lon="2.92746">
        <ele>123</ele>
        <time>2015-03-07T12:07:15Z</time>
      </trkpt>
      <trkpt lat="48.32987" lon="2.92741">
        <ele>123</ele>
        <time>2015-03-07T12:07:21Z</time>
      </trkpt>
      <trkpt lat="48.3298" lon="2.92736">
        <ele>124</ele>
        <time>2015-03-07T12:07:27Z</time>
      </trkpt>
      <trkpt lat="48.32973" lon="2.92734">
        <ele>124</ele>
        <time>2015-03-07T12:07:31Z</time>
      </trkpt>
      <trkpt lat="48.32966" lon="2.92729">
        <ele>124</ele>
        <time>2015-03-07T12:07:38Z</time>
      </trkpt>
      <trkpt lat="48.32958" lon="2.92726">
        <ele>124</ele>
        <time>2015-03-07T12:07:45Z</time>
      </trkpt>
      <trkpt lat="48.32951" lon="2.92722">
        <ele>124</ele>
        <time>2015-03-07T12:07:51Z</time>
      </trkpt>
      <trkpt lat="48.32944" lon="2.92716">
        <ele>124</ele>
        <time>2015-03-07T12:07:58Z</time>
      </trkpt>
      <trkpt lat="48.32935" lon="2.92711">
        <ele>123</ele>
        <time>2015-03-07T12:08:04Z</time>
      </trkpt>
      <trkpt lat="48.32927" lon="2.92707">
        <ele>123</ele>
        <time>2015-03-07T12:08:10Z</time>
      </trkpt>
      <trkpt lat="48.32919" lon="2.92702">
        <ele>123</ele>
        <time>2015-03-07T12:08:16Z</time>
      </trkpt>
      <trkpt lat="48.32911" lon="2.92697">
        <ele>123</ele>
        <time>2015-03-07T12:08:22Z</time>
      </trkpt>
      <trkpt lat="48.32903" lon="2.92693">
        <ele>123</ele>
        <time>2015-03-07T12:08:29Z</time>
      </trkpt>
      <trkpt lat="48.32895" lon="2.92689">
        <ele>123</ele>
        <time>2015-03-07T12:08:36Z</time>
      </trkpt>
      <trkpt lat="48.32888" lon="2.92684">
        <ele>123</ele>
        <time>2015-03-07T12:08:40Z</time>
      </trkpt>
      <trkpt lat="48.3288" lon="2.92679">
        <ele>124</ele>
        <time>2015-03-07T12:08:46Z</time>
      </trkpt>
      <trkpt lat="48.32872" lon="2.92675">
        <ele>123</ele>
        <time>2015-03-07T12:08:53Z</time>
      </trkpt>
      <trkpt lat="48.32865" lon="2.92672">
        <ele>123</ele>
        <time>2015-03-07T12:08:58Z</time>
      </trkpt>
      <trkpt lat="48.32858" lon="2.92665">
        <ele>123</ele>
        <time>2015-03-07T12:09:04Z</time>
      </trkpt>
      <trkpt lat="48.32851" lon="2.92661">
        <ele>123</ele>
        <time>2015-03-07T12:09:09Z</time>
      </trkpt>
      <trkpt lat="48.32843" lon="2.92656">
        <ele>123</ele>
        <time>2015-03-07T12:09:15Z</time>
      </trkpt>
      <trkpt lat="48.32836" lon="2.92653">
        <ele>123</ele>
        <time>2015-03-07T12:09:21Z</time>
      </trkpt>
      <trkpt lat="48.32828" lon="2.92649">
        <ele>123</ele>
        <time>2015-03-07T12:09:26Z</time>
      </trkpt>
      <trkpt lat="48.32819" lon="2.92647">
        <ele>123</ele>
        <time>2015-03-07T12:09:33Z</time>
      </trkpt>
      <trkpt lat="48.32811" lon="2.92642">
        <ele>123</ele>
        <time>2015-03-07T12:09:38Z</time>
      </trkpt>
      <trkpt lat="48.32803" lon="2.92639">
        <ele>124</ele>
        <time>2015-03-07T12:09:43Z</time>
      </trkpt>
      <trkpt lat="48.32795" lon="2.92636">
        <ele>124</ele>
        <time>2015-03-07T12:09:50Z</time>
      </trkpt>
      <trkpt lat="48.32788" lon="2.92629">
        <ele>123</ele>
        <time>2015-03-07T12:09:56Z</time>
      </trkpt>
      <trkpt lat="48.3278" lon="2.92624">
        <ele>123</ele>
        <time>2015-03-07T12:10:02Z</time>
      </trkpt>
      <trkpt lat="48.32774" lon="2.92618">
        <ele>123</ele>
        <time>2015-03-07T12:10:07Z</time>
      </trkpt>
      <trkpt lat="48.32766" lon="2.9261">
        <ele>123</ele>
        <time>2015-03-07T12:10:13Z</time>
      </trkpt>
      <trkpt lat="48.32761" lon="2.92602">
        <ele>122</ele>
        <time>2015-03-07T12:10:18Z</time>
      </trkpt>
      <trkpt lat="48.32754" lon="2.92594">
        <ele>122</ele>
        <time>2015-03-07T12:10:24Z</time>
      </trkpt>
      <trkpt lat="48.32749" lon="2.92589">
        <ele>122</ele>
        <time>2015-03-07T12:10:29Z</time>
      </trkpt>
      <trkpt lat="48.32743" lon="2.92582">
        <ele>121</ele>
        <time>2015-03-07T12:10:38Z</time>
      </trkpt>
      <trkpt lat="48.32735" lon="2.92575">
        <ele>121</ele>
        <time>2015-03-07T12:10:45Z</time>
      </trkpt>
      <trkpt lat="48.32729" lon="2.92566">
        <ele>121</ele>
        <time>2015-03-07T12:10:50Z</time>
      </trkpt>
      <trkpt lat="48.32722" lon="2.92556">
        <ele>121</ele>
        <time>2015-03-07T12:10:55Z</time>
      </trkpt>
      <trkpt lat="48.32716" lon="2.92547">
        <ele>121</ele>
        <time>2015-03-07T12:11:00Z</time>
      </trkpt>
      <trkpt lat="48.32711" lon="2.92538">
        <ele>121</ele>
        <time>2015-03-07T12:11:05Z</time>
      </trkpt>
      <trkpt lat="48.32705" lon="2.92531">
        <ele>120</ele>
        <time>2015-03-07T12:11:10Z</time>
      </trkpt>
      <trkpt lat="48.32698" lon="2.92522">
        <ele>120</ele>
        <time>2015-03-07T12:11:16Z</time>
      </trkpt>
      <trkpt lat="48.32692" lon="2.92513">
        <ele>120</ele>
        <time>2015-03-07T12:11:21Z</time>
      </trkpt>
      <trkpt lat="48.32685" lon="2.92504">
        <ele>120</ele>
        <time>2015-03-07T12:11:26Z</time>
      </trkpt>
      <trkpt lat="48.32679" lon="2.92496">
        <ele>120</ele>
        <time>2015-03-07T12:11:31Z</time>
      </trkpt>
      <trkpt lat="48.32673" lon="2.92488">
        <ele>120</ele>
        <time>2015-03-07T12:11:36Z</time>
      </trkpt>
      <trkpt lat="48.32667" lon="2.9248">
        <ele>120</ele>
        <time>2015-03-07T12:11:42Z</time>
      </trkpt>
      <trkpt lat="48.3266" lon="2.92472">
        <ele>120</ele>
        <time>2015-03-07T12:11:48Z</time>
      </trkpt>
      <trkpt lat="48.32654" lon="2.92463">
        <ele>119</ele>
        <time>2015-03-07T12:11:53Z</time>
      </trkpt>
      <trkpt lat="48.32649" lon="2.92453">
        <ele>119</ele>
        <time>2015-03-07T12:11:59Z</time>
      </trkpt>
      <trkpt lat="48.32642" lon="2.92446">
        <ele>119</ele>
        <time>2015-03-07T12:12:04Z</time>
      </trkpt>
      <trkpt lat="48.32636" lon="2.92439">
        <ele>119</ele>
        <time>2015-03-07T12:12:10Z</time>
      </trkpt>
      <trkpt lat="48.3263" lon="2.92432">
        <ele>118</ele>
        <time>2015-03-07T12:12:14Z</time>
      </trkpt>
      <trkpt lat="48.32623" lon="2.92424">
        <ele>118</ele>
        <time>2015-03-07T12:12:20Z</time>
      </trkpt>
      <trkpt lat="48.32617" lon="2.92416">
        <ele>118</ele>
        <time>2015-03-07T12:12:26Z</time>
      </trkpt>
      <trkpt lat="48.32611" lon="2.92409">
        <ele>117</ele>
        <time>2015-03-07T12:12:32Z</time>
      </trkpt>
      <trkpt lat="48.32603" lon="2.92401">
        <ele>116</ele>
        <time>2015-03-07T12:12:40Z</time>
      </trkpt>
      <trkpt lat="48.32598" lon="2.92393">
        <ele>116</ele>
        <time>2015-03-07T12:12:45Z</time>
      </trkpt>
      <trkpt lat="48.32593" lon="2.92383">
        <ele>115</ele>
        <time>2015-03-07T12:12:49Z</time>
      </trkpt>
      <trkpt lat="48.32586" lon="2.92375">
        <ele>115</ele>
        <time>2015-03-07T12:12:53Z</time>
      </trkpt>
      <trkpt lat="48.3258" lon="2.92366">
        <ele>115</ele>
        <time>2015-03-07T12:12:59Z</time>
      </trkpt>
      <trkpt lat="48.32574" lon="2.92358">
        <ele>115</ele>
        <time>2015-03-07T12:13:04Z</time>
      </trkpt>
      <trkpt lat="48.32568" lon="2.9235">
        <ele>115</ele>
        <time>2015-03-07T12:13:09Z</time>
      </trkpt>
      <trkpt lat="48.32561" lon="2.92342">
        <ele>115</ele>
        <time>2015-03-07T12:13:15Z</time>
      </trkpt>
      <trkpt lat="48.32556" lon="2.92335">
        <ele>114</ele>
        <time>2015-03-07T12:13:20Z</time>
      </trkpt>
      <trkpt lat="48.32549" lon="2.92328">
        <ele>113</ele>
        <time>2015-03-07T12:13:25Z</time>
      </trkpt>
      <trkpt lat="48.32543" lon="2.92321">
        <ele>113</ele>
        <time>2015-03-07T12:13:30Z</time>
      </trkpt>
      <trkpt lat="48.32537" lon="2.92314">
        <ele>112</ele>
        <time>2015-03-07T12:13:35Z</time>
      </trkpt>
      <trkpt lat="48.3253" lon="2.92308">
        <ele>112</ele>
        <time>2015-03-07T12:13:39Z</time>
      </trkpt>
      <trkpt lat="48.32523" lon="2.92303">
        <ele>113</ele>
        <time>2015-03-07T12:13:44Z</time>
      </trkpt>
      <trkpt lat="48.32515" lon="2.92297">
        <ele>113</ele>
        <time>2015-03-07T12:13:49Z</time>
      </trkpt>
      <trkpt lat="48.32507" lon="2.92291">
        <ele>113</ele>
        <time>2015-03-07T12:13:56Z</time>
      </trkpt>
      <trkpt lat="48.325" lon="2.92287">
        <ele>113</ele>
        <time>2015-03-07T12:14:04Z</time>
      </trkpt>
      <trkpt lat="48.32493" lon="2.92279">
        <ele>112</ele>
        <time>2015-03-07T12:14:09Z</time>
      </trkpt>
      <trkpt lat="48.32487" lon="2.92274">
        <ele>112</ele>
        <time>2015-03-07T12:14:13Z</time>
      </trkpt>
      <trkpt lat="48.3248" lon="2.92266">
        <ele>112</ele>
        <time>2015-03-07T12:14:17Z</time>
      </trkpt>
      <trkpt lat="48.32474" lon="2.92257">
        <ele>112</ele>
        <time>2015-03-07T12:14:22Z</time>
      </trkpt>
      <trkpt lat="48.32468" lon="2.92246">
        <ele>113</ele>
        <time>2015-03-07T12:14:29Z</time>
      </trkpt>
      <trkpt lat="48.32462" lon="2.92237">
        <ele>113</ele>
        <time>2015-03-07T12:14:35Z</time>
      </trkpt>
      <trkpt lat="48.32457" lon="2.92232">
        <ele>113</ele>
        <time>2015-03-07T12:14:39Z</time>
      </trkpt>
      <trkpt lat="48.32449" lon="2.92228">
        <ele>112</ele>
        <time>2015-03-07T12:14:44Z</time>
      </trkpt>
      <trkpt lat="48.3244" lon="2.92226">
        <ele>112</ele>
        <time>2015-03-07T12:14:51Z</time>
      </trkpt>
      <trkpt lat="48.32433" lon="2.92224">
        <ele>112</ele>
        <time>2015-03-07T12:14:55Z</time>
      </trkpt>
      <trkpt lat="48.32424" lon="2.9222">
        <ele>111</ele>
        <time>2015-03-07T12:15:00Z</time>
      </trkpt>
      <trkpt lat="48.32416" lon="2.92217">
        <ele>111</ele>
        <time>2015-03-07T12:15:06Z</time>
      </trkpt>
      <trkpt lat="48.32408" lon="2.92217">
        <ele>110</ele>
        <time>2015-03-07T12:15:12Z</time>
      </trkpt>
      <trkpt lat="48.324" lon="2.92215">
        <ele>109</ele>
        <time>2015-03-07T12:15:17Z</time>
      </trkpt>
      <trkpt lat="48.32392" lon="2.92211">
        <ele>109</ele>
        <time>2015-03-07T12:15:22Z</time>
      </trkpt>
      <trkpt lat="48.32385" lon="2.92208">
        <ele>108</ele>
        <time>2015-03-07T12:15:27Z</time>
      </trkpt>
      <trkpt lat="48.32377" lon="2.92207">
        <ele>107</ele>
        <time>2015-03-07T12:15:32Z</time>
      </trkpt>
      <trkpt lat="48.32369" lon="2.92206">
        <ele>107</ele>
        <time>2015-03-07T12:15:37Z</time>
      </trkpt>
      <trkpt lat="48.32362" lon="2.92206">
        <ele>106</ele>
        <time>2015-03-07T12:15:44Z</time>
      </trkpt>
      <trkpt lat="48.32353" lon="2.92203">
        <ele>105</ele>
        <time>2015-03-07T12:15:50Z</time>
      </trkpt>
      <trkpt lat="48.32346" lon="2.922">
        <ele>104</ele>
        <time>2015-03-07T12:15:55Z</time>
      </trkpt>
      <trkpt lat="48.32337" lon="2.92199">
        <ele>104</ele>
        <time>2015-03-07T12:16:00Z</time>
      </trkpt>
      <trkpt lat="48.3233" lon="2.92195">
        <ele>103</ele>
        <time>2015-03-07T12:16:05Z</time>
      </trkpt>
      <trkpt lat="48.32322" lon="2.92193">
        <ele>103</ele>
        <time>2015-03-07T12:16:10Z</time>
      </trkpt>
      <trkpt lat="48.32315" lon="2.9219">
        <ele>103</ele>
        <time>2015-03-07T12:16:15Z</time>
      </trkpt>
      <trkpt lat="48.32306" lon="2.9219">
        <ele>102</ele>
        <time>2015-03-07T12:16:21Z</time>
      </trkpt>
      <trkpt lat="48.32298" lon="2.92187">
        <ele>101</ele>
        <time>2015-03-07T12:16:26Z</time>
      </trkpt>
      <trkpt lat="48.3229" lon="2.92185">
        <ele>101</ele>
        <time>2015-03-07T12:16:32Z</time>
      </trkpt>
      <trkpt lat="48.32281" lon="2.92184">
        <ele>100</ele>
        <time>2015-03-07T12:16:37Z</time>
      </trkpt>
      <trkpt lat="48.32273" lon="2.92185">
        <ele>100</ele>
        <time>2015-03-07T12:16:42Z</time>
      </trkpt>
      <trkpt lat="48.32265" lon="2.92186">
        <ele>99</ele>
        <time>2015-03-07T12:16:49Z</time>
      </trkpt>
      <trkpt lat="48.32256" lon="2.92183">
        <ele>98</ele>
        <time>2015-03-07T12:16:56Z</time>
      </trkpt>
      <trkpt lat="48.32248" lon="2.9218">
        <ele>97</ele>
        <time>2015-03-07T12:17:02Z</time>
      </trkpt>
      <trkpt lat="48.3224" lon="2.92179">
        <ele>97</ele>
        <time>2015-03-07T12:17:07Z</time>
      </trkpt>
      <trkpt lat="48.32231" lon="2.92178">
        <ele>96</ele>
        <time>2015-03-07T12:17:12Z</time>
      </trkpt>
      <trkpt lat="48.32222" lon="2.92177">
        <ele>96</ele>
        <time>2015-03-07T12:17:19Z</time>
      </trkpt>
      <trkpt lat="48.32214" lon="2.92177">
        <ele>96</ele>
        <time>2015-03-07T12:17:25Z</time>
      </trkpt>
      <trkpt lat="48.32205" lon="2.92177">
        <ele>95</ele>
        <time>2015-03-07T12:17:31Z</time>
      </trkpt>
      <trkpt lat="48.32197" lon="2.92174">
        <ele>95</ele>
        <time>2015-03-07T12:17:36Z</time>
      </trkpt>
      <trkpt lat="48.32188" lon="2.92177">
        <ele>94</ele>
        <time>2015-03-07T12:17:42Z</time>
      </trkpt>
      <trkpt lat="48.3218" lon="2.92178">
        <ele>95</ele>
        <time>2015-03-07T12:17:48Z</time>
      </trkpt>
      <trkpt lat="48.32172" lon="2.92177">
        <ele>95</ele>
        <time>2015-03-07T12:17:53Z</time>
      </trkpt>
      <trkpt lat="48.32164" lon="2.92176">
        <ele>94</ele>
        <time>2015-03-07T12:17:59Z</time>
      </trkpt>
      <trkpt lat="48.32156" lon="2.92175">
        <ele>94</ele>
        <time>2015-03-07T12:18:04Z</time>
      </trkpt>
      <trkpt lat="48.32148" lon="2.92174">
        <ele>94</ele>
        <time>2015-03-07T12:18:09Z</time>
      </trkpt>
      <trkpt lat="48.32139" lon="2.92174">
        <ele>94</ele>
        <time>2015-03-07T12:18:16Z</time>
      </trkpt>
      <trkpt lat="48.32131" lon="2.92175">
        <ele>93</ele>
        <time>2015-03-07T12:18:22Z</time>
      </trkpt>
      <trkpt lat="48.32122" lon="2.92173">
        <ele>93</ele>
        <time>2015-03-07T12:18:28Z</time>
      </trkpt>
      <trkpt lat="48.32114" lon="2.92171">
        <ele>92</ele>
        <time>2015-03-07T12:18:33Z</time>
      </trkpt>
      <trkpt lat="48.32107" lon="2.92167">
        <ele>91</ele>
        <time>2015-03-07T12:18:38Z</time>
      </trkpt>
      <trkpt lat="48.32099" lon="2.92163">
        <ele>91</ele>
        <time>2015-03-07T12:18:43Z</time>
      </trkpt>
      <trkpt lat="48.32092" lon="2.92162">
        <ele>91</ele>
        <time>2015-03-07T12:18:47Z</time>
      </trkpt>
      <trkpt lat="48.32085" lon="2.9216">
        <ele>91</ele>
        <time>2015-03-07T12:18:51Z</time>
      </trkpt>
      <trkpt lat="48.32076" lon="2.9216">
        <ele>90</ele>
        <time>2015-03-07T12:18:57Z</time>
      </trkpt>
      <trkpt lat="48.32068" lon="2.92159">
        <ele>89</ele>
        <time>2015-03-07T12:19:04Z</time>
      </trkpt>
      <trkpt lat="48.3206" lon="2.9216">
        <ele>89</ele>
        <time>2015-03-07T12:19:09Z</time>
      </trkpt>
      <trkpt lat="48.32052" lon="2.9216">
        <ele>89</ele>
        <time>2015-03-07T12:19:14Z</time>
      </trkpt>
      <trkpt lat="48.32044" lon="2.92162">
        <ele>89</ele>
        <time>2015-03-07T12:19:19Z</time>
      </trkpt>
      <trkpt lat="48.32036" lon="2.92165">
        <ele>88</ele>
        <time>2015-03-07T12:19:27Z</time>
      </trkpt>
      <trkpt lat="48.32027" lon="2.92168">
        <ele>88</ele>
        <time>2015-03-07T12:19:32Z</time>
      </trkpt>
      <trkpt lat="48.3202" lon="2.92174">
        <ele>87</ele>
        <time>2015-03-07T12:19:38Z</time>
      </trkpt>
      <trkpt lat="48.32013" lon="2.92183">
        <ele>87</ele>
        <time>2015-03-07T12:19:43Z</time>
      </trkpt>
      <trkpt lat="48.32008" lon="2.92193">
        <ele>86</ele>
        <time>2015-03-07T12:19:50Z</time>
      </trkpt>
      <trkpt lat="48.32003" lon="2.92201">
        <ele>86</ele>
        <time>2015-03-07T12:19:54Z</time>
      </trkpt>
      <trkpt lat="48.31997" lon="2.92213">
        <ele>85</ele>
        <time>2015-03-07T12:19:59Z</time>
      </trkpt>
      <trkpt lat="48.31991" lon="2.92222">
        <ele>85</ele>
        <time>2015-03-07T12:20:05Z</time>
      </trkpt>
      <trkpt lat="48.31986" lon="2.92231">
        <ele>86</ele>
        <time>2015-03-07T12:20:12Z</time>
      </trkpt>
      <trkpt lat="48.31981" lon="2.92242">
        <ele>85</ele>
        <time>2015-03-07T12:20:22Z</time>
      </trkpt>
      <trkpt lat="48.31977" lon="2.92251">
        <ele>84</ele>
        <time>2015-03-07T12:20:26Z</time>
      </trkpt>
      <trkpt lat="48.31971" lon="2.92261">
        <ele>83</ele>
        <time>2015-03-07T12:20:32Z</time>
      </trkpt>
      <trkpt lat="48.31965" lon="2.92268">
        <ele>82</ele>
        <time>2015-03-07T12:20:38Z</time>
      </trkpt>
      <trkpt lat="48.3196" lon="2.92276">
        <ele>82</ele>
        <time>2015-03-07T12:20:43Z</time>
      </trkpt>
      <trkpt lat="48.31955" lon="2.92287">
        <ele>81</ele>
        <time>2015-03-07T12:20:47Z</time>
      </trkpt>
      <trkpt lat="48.31951" lon="2.92297">
        <ele>81</ele>
        <time>2015-03-07T12:20:52Z</time>
      </trkpt>
      <trkpt lat="48.31946" lon="2.92308">
        <ele>81</ele>
        <time>2015-03-07T12:20:59Z</time>
      </trkpt>
      <trkpt lat="48.31941" lon="2.92318">
        <ele>81</ele>
        <time>2015-03-07T12:21:03Z</time>
      </trkpt>
      <trkpt lat="48.31935" lon="2.92325">
        <ele>81</ele>
        <time>2015-03-07T12:21:07Z</time>
      </trkpt>
      <trkpt lat="48.3193" lon="2.92335">
        <ele>82</ele>
        <time>2015-03-07T12:21:13Z</time>
      </trkpt>
      <trkpt lat="48.31924" lon="2.92345">
        <ele>83</ele>
        <time>2015-03-07T12:21:18Z</time>
      </trkpt>
      <trkpt lat="48.31919" lon="2.92355">
        <ele>83</ele>
        <time>2015-03-07T12:21:24Z</time>
      </trkpt>
      <trkpt lat="48.31914" lon="2.92365">
        <ele>84</ele>
        <time>2015-03-07T12:21:31Z</time>
      </trkpt>
      <trkpt lat="48.31908" lon="2.92375">
        <ele>85</ele>
        <time>2015-03-07T12:21:36Z</time>
      </trkpt>
      <trkpt lat="48.31903" lon="2.92386">
        <ele>85</ele>
        <time>2015-03-07T12:21:45Z</time>
      </trkpt>
      <trkpt lat="48.31898" lon="2.92397">
        <ele>85</ele>
        <time>2015-03-07T12:21:52Z</time>
      </trkpt>
      <trkpt lat="48.31893" lon="2.92407">
        <ele>85</ele>
        <time>2015-03-07T12:21:58Z</time>
      </trkpt>
      <trkpt lat="48.31887" lon="2.92416">
        <ele>84</ele>
        <time>2015-03-07T12:22:05Z</time>
      </trkpt>
      <trkpt lat="48.31883" lon="2.92427">
        <ele>83</ele>
        <time>2015-03-07T12:22:10Z</time>
      </trkpt>
      <trkpt lat="48.31877" lon="2.92435">
        <ele>83</ele>
        <time>2015-03-07T12:22:16Z</time>
      </trkpt>
      <trkpt lat="48.31869" lon="2.92441">
        <ele>83</ele>
        <time>2015-03-07T12:22:21Z</time>
      </trkpt>
      <trkpt lat="48.31863" lon="2.9245">
        <ele>83</ele>
        <time>2015-03-07T12:22:28Z</time>
      </trkpt>
      <trkpt lat="48.31858" lon="2.9246">
        <ele>83</ele>
        <time>2015-03-07T12:22:33Z</time>
      </trkpt>
      <trkpt lat="48.31854" lon="2.92471">
        <ele>83</ele>
        <time>2015-03-07T12:22:40Z</time>
      </trkpt>
      <trkpt lat="48.31848" lon="2.92481">
        <ele>83</ele>
        <time>2015-03-07T12:22:46Z</time>
      </trkpt>
      <trkpt lat="48.31845" lon="2.92492">
        <ele>83</ele>
        <time>2015-03-07T12:22:52Z</time>
      </trkpt>
      <trkpt lat="48.31851" lon="2.92502">
        <ele>83</ele>
        <time>2015-03-07T12:22:56Z</time>
      </trkpt>
      <trkpt lat="48.31857" lon="2.92509">
        <ele>83</ele>
        <time>2015-03-07T12:23:01Z</time>
      </trkpt>
      <trkpt lat="48.3186" lon="2.9252">
        <ele>83</ele>
        <time>2015-03-07T12:23:07Z</time>
      </trkpt>
      <trkpt lat="48.31866" lon="2.9253">
        <ele>83</ele>
        <time>2015-03-07T12:23:14Z</time>
      </trkpt>
      <trkpt lat="48.31869" lon="2.92542">
        <ele>84</ele>
        <time>2015-03-07T12:23:20Z</time>
      </trkpt>
      <trkpt lat="48.31862" lon="2.9255">
        <ele>84</ele>
        <time>2015-03-07T12:23:26Z</time>
      </trkpt>
      <trkpt lat="48.31853" lon="2.92552">
        <ele>84</ele>
        <time>2015-03-07T12:23:33Z</time>
      </trkpt>
      <trkpt lat="48.31845" lon="2.92547">
        <ele>85</ele>
        <time>2015-03-07T12:23:40Z</time>
      </trkpt>
      <trkpt lat="48.31838" lon="2.92542">
        <ele>86</ele>
        <time>2015-03-07T12:23:45Z</time>
      </trkpt>
      <trkpt lat="48.3183" lon="2.92539">
        <ele>86</ele>
        <time>2015-03-07T12:23:50Z</time>
      </trkpt>
      <trkpt lat="48.31822" lon="2.92534">
        <ele>86</ele>
        <time>2015-03-07T12:23:57Z</time>
      </trkpt>
      <trkpt lat="48.31814" lon="2.9253">
        <ele>87</ele>
        <time>2015-03-07T12:24:02Z</time>
      </trkpt>
      <trkpt lat="48.31807" lon="2.92527">
        <ele>87</ele>
        <time>2015-03-07T12:24:07Z</time>
      </trkpt>
      <trkpt lat="48.31799" lon="2.92524">
        <ele>88</ele>
        <time>2015-03-07T12:24:12Z</time>
      </trkpt>
      <trkpt lat="48.31791" lon="2.92522">
        <ele>88</ele>
        <time>2015-03-07T12:24:19Z</time>
      </trkpt>
      <trkpt lat="48.31784" lon="2.92521">
        <ele>89</ele>
        <time>2015-03-07T12:24:25Z</time>
      </trkpt>
      <trkpt lat="48.31775" lon="2.9252">
        <ele>89</ele>
        <time>2015-03-07T12:24:31Z</time>
      </trkpt>
      <trkpt lat="48.31767" lon="2.92522">
        <ele>89</ele>
        <time>2015-03-07T12:24:36Z</time>
      </trkpt>
      <trkpt lat="48.31759" lon="2.92528">
        <ele>88</ele>
        <time>2015-03-07T12:24:44Z</time>
      </trkpt>
      <trkpt lat="48.3175" lon="2.92529">
        <ele>88</ele>
        <time>2015-03-07T12:24:48Z</time>
      </trkpt>
      <trkpt lat="48.31743" lon="2.92531">
        <ele>87</ele>
        <time>2015-03-07T12:24:52Z</time>
      </trkpt>
      <trkpt lat="48.31735" lon="2.92533">
        <ele>87</ele>
        <time>2015-03-07T12:24:57Z</time>
      </trkpt>
      <trkpt lat="48.31726" lon="2.92536">
        <ele>86</ele>
        <time>2015-03-07T12:25:05Z</time>
      </trkpt>
      <trkpt lat="48.31719" lon="2.92542">
        <ele>85</ele>
        <time>2015-03-07T12:25:10Z</time>
      </trkpt>
      <trkpt lat="48.31715" lon="2.92554">
        <ele>85</ele>
        <time>2015-03-07T12:25:16Z</time>
      </trkpt>
      <trkpt lat="48.31712" lon="2.92565">
        <ele>85</ele>
        <time>2015-03-07T12:25:21Z</time>
      </trkpt>
      <trkpt lat="48.31708" lon="2.92581">
        <ele>86</ele>
        <time>2015-03-07T12:25:26Z</time>
      </trkpt>
      <trkpt lat="48.31705" lon="2.92591">
        <ele>86</ele>
        <time>2015-03-07T12:25:32Z</time>
      </trkpt>
      <trkpt lat="48.31701" lon="2.92601">
        <ele>86</ele>
        <time>2015-03-07T12:25:38Z</time>
      </trkpt>
      <trkpt lat="48.31697" lon="2.92613">
        <ele>86</ele>
        <time>2015-03-07T12:25:43Z</time>
      </trkpt>
      <trkpt lat="48.31692" lon="2.92624">
        <ele>86</ele>
        <time>2015-03-07T12:25:50Z</time>
      </trkpt>
      <trkpt lat="48.31689" lon="2.92635">
        <ele>86</ele>
        <time>2015-03-07T12:25:56Z</time>
      </trkpt>
      <trkpt lat="48.31685" lon="2.92647">
        <ele>87</ele>
        <time>2015-03-07T12:26:03Z</time>
      </trkpt>
      <trkpt lat="48.31681" lon="2.92658">
        <ele>88</ele>
        <time>2015-03-07T12:26:13Z</time>
      </trkpt>
      <trkpt lat="48.31678" lon="2.92671">
        <ele>89</ele>
        <time>2015-03-07T12:26:18Z</time>
      </trkpt>
      <trkpt lat="48.31674" lon="2.92682">
        <ele>89</ele>
        <time>2015-03-07T12:26:23Z</time>
      </trkpt>
      <trkpt lat="48.3167" lon="2.92693">
        <ele>90</ele>
        <time>2015-03-07T12:26:28Z</time>
      </trkpt>
      <trkpt lat="48.31666" lon="2.92704">
        <ele>90</ele>
        <time>2015-03-07T12:26:34Z</time>
      </trkpt>
      <trkpt lat="48.31664" lon="2.92716">
        <ele>91</ele>
        <time>2015-03-07T12:26:42Z</time>
      </trkpt>
      <trkpt lat="48.31663" lon="2.92729">
        <ele>91</ele>
        <time>2015-03-07T12:26:49Z</time>
      </trkpt>
      <trkpt lat="48.31662" lon="2.9274">
        <ele>91</ele>
        <time>2015-03-07T12:26:54Z</time>
      </trkpt>
      <trkpt lat="48.31663" lon="2.92752">
        <ele>91</ele>
        <time>2015-03-07T12:26:58Z</time>
      </trkpt>
      <trkpt lat="48.31664" lon="2.92765">
        <ele>90</ele>
        <time>2015-03-07T12:27:07Z</time>
      </trkpt>
      <trkpt lat="48.31664" lon="2.92778">
        <ele>90</ele>
        <time>2015-03-07T12:27:16Z</time>
      </trkpt>
      <trkpt lat="48.31663" lon="2.92791">
        <ele>88</ele>
        <time>2015-03-07T12:27:24Z</time>
      </trkpt>
      <trkpt lat="48.31658" lon="2.92802">
        <ele>89</ele>
        <time>2015-03-07T12:27:33Z</time>
      </trkpt>
      <trkpt lat="48.31655" lon="2.92813">
        <ele>89</ele>
        <time>2015-03-07T12:27:37Z</time>
      </trkpt>
      <trkpt lat="48.31653" lon="2.92827">
        <ele>89</ele>
        <time>2015-03-07T12:27:41Z</time>
      </trkpt>
      <trkpt lat="48.31653" lon="2.92842">
        <ele>89</ele>
        <time>2015-03-07T12:27:45Z</time>
      </trkpt>
      <trkpt lat="48.31649" lon="2.92856">
        <ele>89</ele>
        <time>2015-03-07T12:27:50Z</time>
      </trkpt>
      <trkpt lat="48.31646" lon="2.92868">
        <ele>90</ele>
        <time>2015-03-07T12:27:55Z</time>
      </trkpt>
      <trkpt lat="48.31643" lon="2.92879">
        <ele>90</ele>
        <time>2015-03-07T12:28:00Z</time>
      </trkpt>
      <trkpt lat="48.31639" lon="2.9289">
        <ele>91</ele>
        <time>2015-03-07T12:28:07Z</time>
      </trkpt>
      <trkpt lat="48.31636" lon="2.92903">
        <ele>92</ele>
        <time>2015-03-07T12:28:14Z</time>
      </trkpt>
      <trkpt lat="48.31634" lon="2.92914">
        <ele>92</ele>
        <time>2015-03-07T12:28:20Z</time>
      </trkpt>
      <trkpt lat="48.31632" lon="2.92927">
        <ele>92</ele>
        <time>2015-03-07T12:28:26Z</time>
      </trkpt>
      <trkpt lat="48.31629" lon="2.92935">
        <ele>92</ele>
        <time>2015-03-07T12:28:31Z</time>
      </trkpt>
      <trkpt lat="48.31629" lon="2.92948">
        <ele>92</ele>
        <time>2015-03-07T12:28:35Z</time>
      </trkpt>
      <trkpt lat="48.31628" lon="2.92962">
        <ele>93</ele>
        <time>2015-03-07T12:28:42Z</time>
      </trkpt>
      <trkpt lat="48.31629" lon="2.92975">
        <ele>93</ele>
        <time>2015-03-07T12:28:46Z</time>
      </trkpt>
      <trkpt lat="48.31628" lon="2.92988">
        <ele>94</ele>
        <time>2015-03-07T12:28:53Z</time>
      </trkpt>
      <trkpt lat="48.31627" lon="2.93001">
        <ele>93</ele>
        <time>2015-03-07T12:28:58Z</time>
      </trkpt>
      <trkpt lat="48.31626" lon="2.93012">
        <ele>93</ele>
        <time>2015-03-07T12:29:03Z</time>
      </trkpt>
      <trkpt lat="48.31625" lon="2.93024">
        <ele>92</ele>
        <time>2015-03-07T12:29:08Z</time>
      </trkpt>
      <trkpt lat="48.31622" lon="2.93035">
        <ele>91</ele>
        <time>2015-03-07T12:29:13Z</time>
      </trkpt>
      <trkpt lat="48.3162" lon="2.93047">
        <ele>91</ele>
        <time>2015-03-07T12:29:19Z</time>
      </trkpt>
      <trkpt lat="48.31617" lon="2.93059">
        <ele>91</ele>
        <time>2015-03-07T12:29:25Z</time>
      </trkpt>
      <trkpt lat="48.31617" lon="2.93072">
        <ele>91</ele>
        <time>2015-03-07T12:29:31Z</time>
      </trkpt>
      <trkpt lat="48.31617" lon="2.93085">
        <ele>91</ele>
        <time>2015-03-07T12:29:37Z</time>
      </trkpt>
      <trkpt lat="48.31614" lon="2.93097">
        <ele>92</ele>
        <time>2015-03-07T12:29:43Z</time>
      </trkpt>
      <trkpt lat="48.31612" lon="2.93109">
        <ele>91</ele>
        <time>2015-03-07T12:29:50Z</time>
      </trkpt>
      <trkpt lat="48.31612" lon="2.93122">
        <ele>91</ele>
        <time>2015-03-07T12:29:55Z</time>
      </trkpt>
      <trkpt lat="48.31611" lon="2.93135">
        <ele>91</ele>
        <time>2015-03-07T12:30:00Z</time>
      </trkpt>
      <trkpt lat="48.31612" lon="2.93147">
        <ele>91</ele>
        <time>2015-03-07T12:30:05Z</time>
      </trkpt>
      <trkpt lat="48.31613" lon="2.93159">
        <ele>92</ele>
        <time>2015-03-07T12:30:11Z</time>
      </trkpt>
      <trkpt lat="48.31614" lon="2.93171">
        <ele>92</ele>
        <time>2015-03-07T12:30:17Z</time>
      </trkpt>
      <trkpt lat="48.31616" lon="2.93184">
        <ele>92</ele>
        <time>2015-03-07T12:30:23Z</time>
      </trkpt>
      <trkpt lat="48.31617" lon="2.93196">
        <ele>92</ele>
        <time>2015-03-07T12:30:28Z</time>
      </trkpt>
      <trkpt lat="48.3162" lon="2.93204">
        <ele>92</ele>
        <time>2015-03-07T12:30:35Z</time>
      </trkpt>
      <trkpt lat="48.31622" lon="2.93217">
        <ele>92</ele>
        <time>2015-03-07T12:30:40Z</time>
      </trkpt>
      <trkpt lat="48.31623" lon="2.9323">
        <ele>92</ele>
        <time>2015-03-07T12:30:49Z</time>
      </trkpt>
      <trkpt lat="48.31623" lon="2.93242">
        <ele>91</ele>
        <time>2015-03-07T12:30:56Z</time>
      </trkpt>
      <trkpt lat="48.31624" lon="2.93255">
        <ele>91</ele>
        <time>2015-03-07T12:31:01Z</time>
      </trkpt>
      <trkpt lat="48.31624" lon="2.93267">
        <ele>90</ele>
        <time>2015-03-07T12:31:07Z</time>
      </trkpt>
      <trkpt lat="48.31626" lon="2.93279">
        <ele>88</ele>
        <time>2015-03-07T12:31:13Z</time>
      </trkpt>
      <trkpt lat="48.31627" lon="2.9329">
        <ele>87</ele>
        <time>2015-03-07T12:31:22Z</time>
      </trkpt>
      <trkpt lat="48.31626" lon="2.93302">
        <ele>86</ele>
        <time>2015-03-07T12:31:29Z</time>
      </trkpt>
      <trkpt lat="48.31626" lon="2.93315">
        <ele>86</ele>
        <time>2015-03-07T12:31:34Z</time>
      </trkpt>
      <trkpt lat="48.31627" lon="2.93336">
        <ele>86</ele>
        <time>2015-03-07T12:31:39Z</time>
      </trkpt>
      <trkpt lat="48.31627" lon="2.9336">
        <ele>85</ele>
        <time>2015-03-07T12:31:43Z</time>
      </trkpt>
      <trkpt lat="48.31625" lon="2.93372">
        <ele>86</ele>
        <time>2015-03-07T12:31:51Z</time>
      </trkpt>
      <trkpt lat="48.31626" lon="2.93386">
        <ele>86</ele>
        <time>2015-03-07T12:31:56Z</time>
      </trkpt>
      <trkpt lat="48.31627" lon="2.93399">
        <ele>86</ele>
        <time>2015-03-07T12:32:02Z</time>
      </trkpt>
      <trkpt lat="48.31627" lon="2.93411">
        <ele>86</ele>
        <time>2015-03-07T12:32:08Z</time>
      </trkpt>
      <trkpt lat="48.31628" lon="2.93423">
        <ele>86</ele>
        <time>2015-03-07T12:32:14Z</time>
      </trkpt>
      <trkpt lat="48.31629" lon="2.93434">
        <ele>86</ele>
        <time>2015-03-07T12:32:19Z</time>
      </trkpt>
      <trkpt lat="48.31629" lon="2.93447">
        <ele>85</ele>
        <time>2015-03-07T12:32:25Z</time>
      </trkpt>
      <trkpt lat="48.31629" lon="2.9346">
        <ele>85</ele>
        <time>2015-03-07T12:32:31Z</time>
      </trkpt>
      <trkpt lat="48.31631" lon="2.93471">
        <ele>84</ele>
        <time>2015-03-07T12:32:37Z</time>
      </trkpt>
      <trkpt lat="48.31631" lon="2.93484">
        <ele>84</ele>
        <time>2015-03-07T12:32:42Z</time>
      </trkpt>
      <trkpt lat="48.31632" lon="2.93497">
        <ele>83</ele>
        <time>2015-03-07T12:32:47Z</time>
      </trkpt>
      <trkpt lat="48.31633" lon="2.9351">
        <ele>83</ele>
        <time>2015-03-07T12:32:52Z</time>
      </trkpt>
      <trkpt lat="48.31633" lon="2.93522">
        <ele>83</ele>
        <time>2015-03-07T12:32:58Z</time>
      </trkpt>
      <trkpt lat="48.31633" lon="2.93533">
        <ele>83</ele>
        <time>2015-03-07T12:33:03Z</time>
      </trkpt>
      <trkpt lat="48.31633" lon="2.93545">
        <ele>83</ele>
        <time>2015-03-07T12:33:08Z</time>
      </trkpt>
      <trkpt lat="48.31633" lon="2.93557">
        <ele>83</ele>
        <time>2015-03-07T12:33:14Z</time>
      </trkpt>
      <trkpt lat="48.31634" lon="2.93569">
        <ele>83</ele>
        <time>2015-03-07T12:33:19Z</time>
      </trkpt>
      <trkpt lat="48.31634" lon="2.9358">
        <ele>83</ele>
        <time>2015-03-07T12:33:23Z</time>
      </trkpt>
      <trkpt lat="48.31635" lon="2.93593">
        <ele>82</ele>
        <time>2015-03-07T12:33:29Z</time>
      </trkpt>
      <trkpt lat="48.31636" lon="2.93604">
        <ele>82</ele>
        <time>2015-03-07T12:33:36Z</time>
      </trkpt>
      <trkpt lat="48.31637" lon="2.93618">
        <ele>82</ele>
        <time>2015-03-07T12:33:44Z</time>
      </trkpt>
      <trkpt lat="48.31637" lon="2.9363">
        <ele>82</ele>
        <time>2015-03-07T12:33:49Z</time>
      </trkpt>
      <trkpt lat="48.31639" lon="2.93643">
        <ele>81</ele>
        <time>2015-03-07T12:33:55Z</time>
      </trkpt>
      <trkpt lat="48.31638" lon="2.93654">
        <ele>81</ele>
        <time>2015-03-07T12:34:00Z</time>
      </trkpt>
      <trkpt lat="48.31638" lon="2.93665">
        <ele>81</ele>
        <time>2015-03-07T12:34:05Z</time>
      </trkpt>
      <trkpt lat="48.3164" lon="2.93677">
        <ele>81</ele>
        <time>2015-03-07T12:34:10Z</time>
      </trkpt>
      <trkpt lat="48.31641" lon="2.93688">
        <ele>81</ele>
        <time>2015-03-07T12:34:15Z</time>
      </trkpt>
      <trkpt lat="48.31642" lon="2.93701">
        <ele>80</ele>
        <time>2015-03-07T12:34:20Z</time>
      </trkpt>
      <trkpt lat="48.31642" lon="2.93713">
        <ele>80</ele>
        <time>2015-03-07T12:34:24Z</time>
      </trkpt>
      <trkpt lat="48.31642" lon="2.93728">
        <ele>80</ele>
        <time>2015-03-07T12:34:29Z</time>
      </trkpt>
      <trkpt lat="48.31642" lon="2.9374">
        <ele>80</ele>
        <time>2015-03-07T12:34:35Z</time>
      </trkpt>
      <trkpt lat="48.31641" lon="2.93753">
        <ele>80</ele>
        <time>2015-03-07T12:34:41Z</time>
      </trkpt>
      <trkpt lat="48.31643" lon="2.93765">
        <ele>80</ele>
        <time>2015-03-07T12:34:46Z</time>
      </trkpt>
      <trkpt lat="48.31645" lon="2.93777">
        <ele>81</ele>
        <time>2015-03-07T12:34:52Z</time>
      </trkpt>
      <trkpt lat="48.31644" lon="2.93789">
        <ele>81</ele>
        <time>2015-03-07T12:34:57Z</time>
      </trkpt>
      <trkpt lat="48.31644" lon="2.93802">
        <ele>81</ele>
        <time>2015-03-07T12:35:02Z</time>
      </trkpt>
      <trkpt lat="48.31644" lon="2.93814">
        <ele>81</ele>
        <time>2015-03-07T12:35:07Z</time>
      </trkpt>
      <trkpt lat="48.31644" lon="2.93825">
        <ele>81</ele>
        <time>2015-03-07T12:35:12Z</time>
      </trkpt>
      <trkpt lat="48.31645" lon="2.93837">
        <ele>82</ele>
        <time>2015-03-07T12:35:17Z</time>
      </trkpt>
      <trkpt lat="48.31646" lon="2.9385">
        <ele>82</ele>
        <time>2015-03-07T12:35:24Z</time>
      </trkpt>
      <trkpt lat="48.31646" lon="2.93863">
        <ele>82</ele>
        <time>2015-03-07T12:35:31Z</time>
      </trkpt>
      <trkpt lat="48.31648" lon="2.93876">
        <ele>82</ele>
        <time>2015-03-07T12:35:36Z</time>
      </trkpt>
      <trkpt lat="48.31648" lon="2.9389">
        <ele>82</ele>
        <time>2015-03-07T12:35:42Z</time>
      </trkpt>
      <trkpt lat="48.31649" lon="2.93903">
        <ele>82</ele>
        <time>2015-03-07T12:35:47Z</time>
      </trkpt>
      <trkpt lat="48.31649" lon="2.93915">
        <ele>82</ele>
        <time>2015-03-07T12:35:52Z</time>
      </trkpt>
      <trkpt lat="48.31649" lon="2.93927">
        <ele>82</ele>
        <time>2015-03-07T12:35:57Z</time>
      </trkpt>
      <trkpt lat="48.3165" lon="2.93939">
        <ele>82</ele>
        <time>2015-03-07T12:36:03Z</time>
      </trkpt>
      <trkpt lat="48.31651" lon="2.93951">
        <ele>82</ele>
        <time>2015-03-07T12:36:08Z</time>
      </trkpt>
      <trkpt lat="48.3165" lon="2.93963">
        <ele>82</ele>
        <time>2015-03-07T12:36:14Z</time>
      </trkpt>
      <trkpt lat="48.3165" lon="2.93975">
        <ele>81</ele>
        <time>2015-03-07T12:36:19Z</time>
      </trkpt>
      <trkpt lat="48.31651" lon="2.93988">
        <ele>82</ele>
        <time>2015-03-07T12:36:25Z</time>
      </trkpt>
      <trkpt lat="48.31651" lon="2.94">
        <ele>82</ele>
        <time>2015-03-07T12:36:30Z</time>
      </trkpt>
      <trkpt lat="48.31652" lon="2.94013">
        <ele>82</ele>
        <time>2015-03-07T12:36:36Z</time>
      </trkpt>
      <trkpt lat="48.31653" lon="2.94024">
        <ele>82</ele>
        <time>2015-03-07T12:36:41Z</time>
      </trkpt>
      <trkpt lat="48.31653" lon="2.94037">
        <ele>82</ele>
        <time>2015-03-07T12:36:47Z</time>
      </trkpt>
      <trkpt lat="48.31653" lon="2.94049">
        <ele>82</ele>
        <time>2015-03-07T12:36:53Z</time>
      </trkpt>
      <trkpt lat="48.31653" lon="2.94062">
        <ele>82</ele>
        <time>2015-03-07T12:36:59Z</time>
      </trkpt>
      <trkpt lat="48.31654" lon="2.94073">
        <ele>83</ele>
        <time>2015-03-07T12:37:05Z</time>
      </trkpt>
      <trkpt lat="48.31654" lon="2.94085">
        <ele>83</ele>
        <time>2015-03-07T12:37:11Z</time>
      </trkpt>
      <trkpt lat="48.31654" lon="2.94096">
        <ele>84</ele>
        <time>2015-03-07T12:37:16Z</time>
      </trkpt>
      <trkpt lat="48.31657" lon="2.94108">
        <ele>84</ele>
        <time>2015-03-07T12:37:21Z</time>
      </trkpt>
      <trkpt lat="48.3166" lon="2.9412">
        <ele>84</ele>
        <time>2015-03-07T12:37:27Z</time>
      </trkpt>
      <trkpt lat="48.31662" lon="2.94132">
        <ele>84</ele>
        <time>2015-03-07T12:37:33Z</time>
      </trkpt>
      <trkpt lat="48.31667" lon="2.94143">
        <ele>84</ele>
        <time>2015-03-07T12:37:38Z</time>
      </trkpt>
      <trkpt lat="48.31671" lon="2.94154">
        <ele>84</ele>
        <time>2015-03-07T12:37:44Z</time>
      </trkpt>
      <trkpt lat="48.31675" lon="2.94163">
        <ele>84</ele>
        <time>2015-03-07T12:37:49Z</time>
      </trkpt>
      <trkpt lat="48.3168" lon="2.94172">
        <ele>84</ele>
        <time>2015-03-07T12:37:54Z</time>
      </trkpt>
      <trkpt lat="48.31685" lon="2.94183">
        <ele>84</ele>
        <time>2015-03-07T12:38:01Z</time>
      </trkpt>
      <trkpt lat="48.31691" lon="2.94193">
        <ele>84</ele>
        <time>2015-03-07T12:38:07Z</time>
      </trkpt>
      <trkpt lat="48.31695" lon="2.94201">
        <ele>84</ele>
        <time>2015-03-07T12:38:12Z</time>
      </trkpt>
      <trkpt lat="48.31701" lon="2.94212">
        <ele>84</ele>
        <time>2015-03-07T12:38:18Z</time>
      </trkpt>
      <trkpt lat="48.31707" lon="2.94221">
        <ele>84</ele>
        <time>2015-03-07T12:38:24Z</time>
      </trkpt>
      <trkpt lat="48.31712" lon="2.94231">
        <ele>84</ele>
        <time>2015-03-07T12:38:30Z</time>
      </trkpt>
      <trkpt lat="48.31717" lon="2.94242">
        <ele>84</ele>
        <time>2015-03-07T12:38:36Z</time>
      </trkpt>
      <trkpt lat="48.31723" lon="2.9425">
        <ele>84</ele>
        <time>2015-03-07T12:38:42Z</time>
      </trkpt>
      <trkpt lat="48.31728" lon="2.94259">
        <ele>84</ele>
        <time>2015-03-07T12:38:47Z</time>
      </trkpt>
      <trkpt lat="48.31734" lon="2.94268">
        <ele>83</ele>
        <time>2015-03-07T12:38:55Z</time>
      </trkpt>
      <trkpt lat="48.31739" lon="2.94278">
        <ele>83</ele>
        <time>2015-03-07T12:39:00Z</time>
      </trkpt>
      <trkpt lat="48.31744" lon="2.94288">
        <ele>83</ele>
        <time>2015-03-07T12:39:05Z</time>
      </trkpt>
      <trkpt lat="48.31752" lon="2.94295">
        <ele>83</ele>
        <time>2015-03-07T12:39:11Z</time>
      </trkpt>
      <trkpt lat="48.31758" lon="2.94304">
        <ele>83</ele>
        <time>2015-03-07T12:39:17Z</time>
      </trkpt>
      <trkpt lat="48.31762" lon="2.94314">
        <ele>83</ele>
        <time>2015-03-07T12:39:22Z</time>
      </trkpt>
      <trkpt lat="48.31769" lon="2.94323">
        <ele>83</ele>
        <time>2015-03-07T12:39:28Z</time>
      </trkpt>
      <trkpt lat="48.31774" lon="2.94333">
        <ele>83</ele>
        <time>2015-03-07T12:39:35Z</time>
      </trkpt>
      <trkpt lat="48.3178" lon="2.94344">
        <ele>82</ele>
        <time>2015-03-07T12:39:41Z</time>
      </trkpt>
      <trkpt lat="48.31785" lon="2.94353">
        <ele>83</ele>
        <time>2015-03-07T12:39:46Z</time>
      </trkpt>
      <trkpt lat="48.3179" lon="2.94364">
        <ele>83</ele>
        <time>2015-03-07T12:39:52Z</time>
      </trkpt>
      <trkpt lat="48.31795" lon="2.94372">
        <ele>84</ele>
        <time>2015-03-07T12:39:57Z</time>
      </trkpt>
      <trkpt lat="48.31801" lon="2.94382">
        <ele>84</ele>
        <time>2015-03-07T12:40:03Z</time>
      </trkpt>
      <trkpt lat="48.31805" lon="2.94395">
        <ele>83</ele>
        <time>2015-03-07T12:40:08Z</time>
      </trkpt>
      <trkpt lat="48.31811" lon="2.94404">
        <ele>83</ele>
        <time>2015-03-07T12:40:14Z</time>
      </trkpt>
      <trkpt lat="48.31816" lon="2.94413">
        <ele>84</ele>
        <time>2015-03-07T12:40:20Z</time>
      </trkpt>
      <trkpt lat="48.31822" lon="2.94423">
        <ele>84</ele>
        <time>2015-03-07T12:40:26Z</time>
      </trkpt>
      <trkpt lat="48.31828" lon="2.94432">
        <ele>84</ele>
        <time>2015-03-07T12:40:32Z</time>
      </trkpt>
      <trkpt lat="48.31833" lon="2.94441">
        <ele>84</ele>
        <time>2015-03-07T12:40:38Z</time>
      </trkpt>
      <trkpt lat="48.31837" lon="2.94451">
        <ele>84</ele>
        <time>2015-03-07T12:40:43Z</time>
      </trkpt>
      <trkpt lat="48.31842" lon="2.94461">
        <ele>84</ele>
        <time>2015-03-07T12:40:48Z</time>
      </trkpt>
      <trkpt lat="48.31847" lon="2.94472">
        <ele>84</ele>
        <time>2015-03-07T12:40:55Z</time>
      </trkpt>
      <trkpt lat="48.31852" lon="2.94482">
        <ele>84</ele>
        <time>2015-03-07T12:41:02Z</time>
      </trkpt>
      <trkpt lat="48.31857" lon="2.94491">
        <ele>85</ele>
        <time>2015-03-07T12:41:08Z</time>
      </trkpt>
      <trkpt lat="48.31863" lon="2.94501">
        <ele>85</ele>
        <time>2015-03-07T12:41:14Z</time>
      </trkpt>
      <trkpt lat="48.31868" lon="2.9451">
        <ele>85</ele>
        <time>2015-03-07T12:41:19Z</time>
      </trkpt>
      <trkpt lat="48.31872" lon="2.94521">
        <ele>85</ele>
        <time>2015-03-07T12:41:25Z</time>
      </trkpt>
      <trkpt lat="48.31877" lon="2.94532">
        <ele>85</ele>
        <time>2015-03-07T12:41:31Z</time>
      </trkpt>
      <trkpt lat="48.31882" lon="2.94543">
        <ele>85</ele>
        <time>2015-03-07T12:41:37Z</time>
      </trkpt>
      <trkpt lat="48.31886" lon="2.94552">
        <ele>85</ele>
        <time>2015-03-07T12:41:42Z</time>
      </trkpt>
      <trkpt lat="48.3189" lon="2.94564">
        <ele>86</ele>
        <time>2015-03-07T12:41:47Z</time>
      </trkpt>
      <trkpt lat="48.31893" lon="2.94575">
        <ele>86</ele>
        <time>2015-03-07T12:41:53Z</time>
      </trkpt>
      <trkpt lat="48.31895" lon="2.94588">
        <ele>86</ele>
        <time>2015-03-07T12:41:59Z</time>
      </trkpt>
      <trkpt lat="48.31898" lon="2.94599">
        <ele>87</ele>
        <time>2015-03-07T12:42:04Z</time>
      </trkpt>
      <trkpt lat="48.31901" lon="2.94611">
        <ele>87</ele>
        <time>2015-03-07T12:42:10Z</time>
      </trkpt>
      <trkpt lat="48.31904" lon="2.94624">
        <ele>87</ele>
        <time>2015-03-07T12:42:16Z</time>
      </trkpt>
      <trkpt lat="48.31907" lon="2.94636">
        <ele>87</ele>
        <time>2015-03-07T12:42:22Z</time>
      </trkpt>
      <trkpt lat="48.31911" lon="2.94647">
        <ele>87</ele>
        <time>2015-03-07T12:42:29Z</time>
      </trkpt>
      <trkpt lat="48.31913" lon="2.94659">
        <ele>87</ele>
        <time>2015-03-07T12:42:34Z</time>
      </trkpt>
      <trkpt lat="48.31915" lon="2.9467">
        <ele>87</ele>
        <time>2015-03-07T12:42:39Z</time>
      </trkpt>
      <trkpt lat="48.31919" lon="2.94681">
        <ele>87</ele>
        <time>2015-03-07T12:42:44Z</time>
      </trkpt>
      <trkpt lat="48.31923" lon="2.94693">
        <ele>87</ele>
        <time>2015-03-07T12:42:51Z</time>
      </trkpt>
      <trkpt lat="48.31926" lon="2.94706">
        <ele>87</ele>
        <time>2015-03-07T12:42:58Z</time>
      </trkpt>
      <trkpt lat="48.31929" lon="2.94715">
        <ele>87</ele>
        <time>2015-03-07T12:43:03Z</time>
      </trkpt>
      <trkpt lat="48.31933" lon="2.94726">
        <ele>87</ele>
        <time>2015-03-07T12:43:09Z</time>
      </trkpt>
      <trkpt lat="48.31938" lon="2.94737">
        <ele>87</ele>
        <time>2015-03-07T12:43:15Z</time>
      </trkpt>
      <trkpt lat="48.31942" lon="2.94747">
        <ele>87</ele>
        <time>2015-03-07T12:43:21Z</time>
      </trkpt>
      <trkpt lat="48.31946" lon="2.94758">
        <ele>87</ele>
        <time>2015-03-07T12:43:28Z</time>
      </trkpt>
      <trkpt lat="48.31951" lon="2.94771">
        <ele>87</ele>
        <time>2015-03-07T12:43:33Z</time>
      </trkpt>
      <trkpt lat="48.31955" lon="2.9478">
        <ele>87</ele>
        <time>2015-03-07T12:43:37Z</time>
      </trkpt>
      <trkpt lat="48.31959" lon="2.94792">
        <ele>87</ele>
        <time>2015-03-07T12:43:42Z</time>
      </trkpt>
      <trkpt lat="48.31964" lon="2.94801">
        <ele>87</ele>
        <time>2015-03-07T12:43:47Z</time>
      </trkpt>
      <trkpt lat="48.31967" lon="2.94811">
        <ele>87</ele>
        <time>2015-03-07T12:43:52Z</time>
      </trkpt>
      <trkpt lat="48.31971" lon="2.94821">
        <ele>87</ele>
        <time>2015-03-07T12:43:57Z</time>
      </trkpt>
      <trkpt lat="48.31976" lon="2.94831">
        <ele>88</ele>
        <time>2015-03-07T12:44:03Z</time>
      </trkpt>
      <trkpt lat="48.31981" lon="2.94842">
        <ele>87</ele>
        <time>2015-03-07T12:44:08Z</time>
      </trkpt>
      <trkpt lat="48.31986" lon="2.94851">
        <ele>88</ele>
        <time>2015-03-07T12:44:13Z</time>
      </trkpt>
      <trkpt lat="48.31991" lon="2.94859">
        <ele>87</ele>
        <time>2015-03-07T12:44:18Z</time>
      </trkpt>
      <trkpt lat="48.31995" lon="2.94869">
        <ele>87</ele>
        <time>2015-03-07T12:44:23Z</time>
      </trkpt>
      <trkpt lat="48.32" lon="2.9488">
        <ele>87</ele>
        <time>2015-03-07T12:44:29Z</time>
      </trkpt>
      <trkpt lat="48.32004" lon="2.94891">
        <ele>87</ele>
        <time>2015-03-07T12:44:33Z</time>
      </trkpt>
      <trkpt lat="48.32008" lon="2.94901">
        <ele>87</ele>
        <time>2015-03-07T12:44:38Z</time>
      </trkpt>
      <trkpt lat="48.32013" lon="2.94912">
        <ele>87</ele>
        <time>2015-03-07T12:44:43Z</time>
      </trkpt>
      <trkpt lat="48.32017" lon="2.94923">
        <ele>87</ele>
        <time>2015-03-07T12:44:50Z</time>
      </trkpt>
      <trkpt lat="48.32022" lon="2.94933">
        <ele>87</ele>
        <time>2015-03-07T12:44:57Z</time>
      </trkpt>
      <trkpt lat="48.32027" lon="2.94945">
        <ele>87</ele>
        <time>2015-03-07T12:45:02Z</time>
      </trkpt>
      <trkpt lat="48.32031" lon="2.94955">
        <ele>87</ele>
        <time>2015-03-07T12:45:07Z</time>
      </trkpt>
      <trkpt lat="48.32036" lon="2.94967">
        <ele>87</ele>
        <time>2015-03-07T12:45:15Z</time>
      </trkpt>
      <trkpt lat="48.3204" lon="2.94978">
        <ele>87</ele>
        <time>2015-03-07T12:45:21Z</time>
      </trkpt>
      <trkpt lat="48.32043" lon="2.94989">
        <ele>87</ele>
        <time>2015-03-07T12:45:27Z</time>
      </trkpt>
      <trkpt lat="48.32047" lon="2.94999">
        <ele>87</ele>
        <time>2015-03-07T12:45:32Z</time>
      </trkpt>
      <trkpt lat="48.32051" lon="2.95011">
        <ele>87</ele>
        <time>2015-03-07T12:45:37Z</time>
      </trkpt>
      <trkpt lat="48.32056" lon="2.95021">
        <ele>86</ele>
        <time>2015-03-07T12:45:43Z</time>
      </trkpt>
      <trkpt lat="48.32059" lon="2.95032">
        <ele>86</ele>
        <time>2015-03-07T12:45:50Z</time>
      </trkpt>
      <trkpt lat="48.32063" lon="2.95044">
        <ele>85</ele>
        <time>2015-03-07T12:45:55Z</time>
      </trkpt>
      <trkpt lat="48.32066" lon="2.95056">
        <ele>85</ele>
        <time>2015-03-07T12:46:01Z</time>
      </trkpt>
      <trkpt lat="48.32068" lon="2.95067">
        <ele>85</ele>
        <time>2015-03-07T12:46:06Z</time>
      </trkpt>
      <trkpt lat="48.32069" lon="2.95078">
        <ele>85</ele>
        <time>2015-03-07T12:46:11Z</time>
      </trkpt>
      <trkpt lat="48.3207" lon="2.95089">
        <ele>85</ele>
        <time>2015-03-07T12:46:15Z</time>
      </trkpt>
      <trkpt lat="48.32073" lon="2.95102">
        <ele>85</ele>
        <time>2015-03-07T12:46:22Z</time>
      </trkpt>
      <trkpt lat="48.32074" lon="2.95114">
        <ele>85</ele>
        <time>2015-03-07T12:46:27Z</time>
      </trkpt>
      <trkpt lat="48.32076" lon="2.95125">
        <ele>85</ele>
        <time>2015-03-07T12:46:32Z</time>
      </trkpt>
      <trkpt lat="48.32079" lon="2.95137">
        <ele>85</ele>
        <time>2015-03-07T12:46:38Z</time>
      </trkpt>
      <trkpt lat="48.32081" lon="2.95149">
        <ele>85</ele>
        <time>2015-03-07T12:46:43Z</time>
      </trkpt>
      <trkpt lat="48.32086" lon="2.9516">
        <ele>85</ele>
        <time>2015-03-07T12:46:49Z</time>
      </trkpt>
      <trkpt lat="48.32086" lon="2.95173">
        <ele>85</ele>
        <time>2015-03-07T12:46:59Z</time>
      </trkpt>
      <trkpt lat="48.32086" lon="2.95184">
        <ele>84</ele>
        <time>2015-03-07T12:47:04Z</time>
      </trkpt>
      <trkpt lat="48.32089" lon="2.95196">
        <ele>85</ele>
        <time>2015-03-07T12:47:10Z</time>
      </trkpt>
      <trkpt lat="48.32092" lon="2.95208">
        <ele>85</ele>
        <time>2015-03-07T12:47:16Z</time>
      </trkpt>
      <trkpt lat="48.32092" lon="2.95221">
        <ele>85</ele>
        <time>2015-03-07T12:47:21Z</time>
      </trkpt>
      <trkpt lat="48.32094" lon="2.95233">
        <ele>85</ele>
        <time>2015-03-07T12:47:25Z</time>
      </trkpt>
      <trkpt lat="48.32095" lon="2.95245">
        <ele>85</ele>
        <time>2015-03-07T12:47:30Z</time>
      </trkpt>
      <trkpt lat="48.32098" lon="2.95257">
        <ele>85</ele>
        <time>2015-03-07T12:47:36Z</time>
      </trkpt>
      <trkpt lat="48.321" lon="2.95269">
        <ele>86</ele>
        <time>2015-03-07T12:47:43Z</time>
      </trkpt>
      <trkpt lat="48.32103" lon="2.95281">
        <ele>86</ele>
        <time>2015-03-07T12:47:49Z</time>
      </trkpt>
      <trkpt lat="48.32103" lon="2.95294">
        <ele>86</ele>
        <time>2015-03-07T12:47:55Z</time>
      </trkpt>
      <trkpt lat="48.32104" lon="2.95305">
        <ele>86</ele>
        <time>2015-03-07T12:48:00Z</time>
      </trkpt>
      <trkpt lat="48.32105" lon="2.95316">
        <ele>86</ele>
        <time>2015-03-07T12:48:06Z</time>
      </trkpt>
      <trkpt lat="48.32106" lon="2.95329">
        <ele>86</ele>
        <time>2015-03-07T12:48:10Z</time>
      </trkpt>
      <trkpt lat="48.32108" lon="2.95342">
        <ele>86</ele>
        <time>2015-03-07T12:48:16Z</time>
      </trkpt>
      <trkpt lat="48.32111" lon="2.95354">
        <ele>86</ele>
        <time>2015-03-07T12:48:22Z</time>
      </trkpt>
      <trkpt lat="48.32113" lon="2.95366">
        <ele>86</ele>
        <time>2015-03-07T12:48:27Z</time>
      </trkpt>
      <trkpt lat="48.32116" lon="2.95377">
        <ele>87</ele>
        <time>2015-03-07T12:48:33Z</time>
      </trkpt>
      <trkpt lat="48.32117" lon="2.95388">
        <ele>87</ele>
        <time>2015-03-07T12:48:37Z</time>
      </trkpt>
      <trkpt lat="48.3212" lon="2.95401">
        <ele>88</ele>
        <time>2015-03-07T12:48:43Z</time>
      </trkpt>
      <trkpt lat="48.32123" lon="2.95413">
        <ele>88</ele>
        <time>2015-03-07T12:48:50Z</time>
      </trkpt>
      <trkpt lat="48.32126" lon="2.95423">
        <ele>88</ele>
        <time>2015-03-07T12:48:56Z</time>
      </trkpt>
      <trkpt lat="48.3213" lon="2.95435">
        <ele>88</ele>
        <time>2015-03-07T12:49:01Z</time>
      </trkpt>
      <trkpt lat="48.32132" lon="2.95445">
        <ele>88</ele>
        <time>2015-03-07T12:49:06Z</time>
      </trkpt>
      <trkpt lat="48.32135" lon="2.95456">
        <ele>88</ele>
        <time>2015-03-07T12:49:11Z</time>
      </trkpt>
      <trkpt lat="48.32138" lon="2.95469">
        <ele>88</ele>
        <time>2015-03-07T12:49:17Z</time>
      </trkpt>
      <trkpt lat="48.32141" lon="2.95481">
        <ele>88</ele>
        <time>2015-03-07T12:49:22Z</time>
      </trkpt>
      <trkpt lat="48.32144" lon="2.95493">
        <ele>88</ele>
        <time>2015-03-07T12:49:29Z</time>
      </trkpt>
      <trkpt lat="48.32149" lon="2.95504">
        <ele>88</ele>
        <time>2015-03-07T12:49:35Z</time>
      </trkpt>
      <trkpt lat="48.32152" lon="2.95516">
        <ele>89</ele>
        <time>2015-03-07T12:49:41Z</time>
      </trkpt>
      <trkpt lat="48.32156" lon="2.95527">
        <ele>89</ele>
        <time>2015-03-07T12:49:46Z</time>
      </trkpt>
      <trkpt lat="48.32158" lon="2.95537">
        <ele>89</ele>
        <time>2015-03-07T12:49:51Z</time>
      </trkpt>
      <trkpt lat="48.32162" lon="2.95549">
        <ele>89</ele>
        <time>2015-03-07T12:49:57Z</time>
      </trkpt>
      <trkpt lat="48.32164" lon="2.95561">
        <ele>88</ele>
        <time>2015-03-07T12:50:03Z</time>
      </trkpt>
      <trkpt lat="48.32167" lon="2.95574">
        <ele>88</ele>
        <time>2015-03-07T12:50:10Z</time>
      </trkpt>
      <trkpt lat="48.32169" lon="2.95584">
        <ele>88</ele>
        <time>2015-03-07T12:50:14Z</time>
      </trkpt>
      <trkpt lat="48.32173" lon="2.95596">
        <ele>89</ele>
        <time>2015-03-07T12:50:19Z</time>
      </trkpt>
      <trkpt lat="48.32176" lon="2.95607">
        <ele>90</ele>
        <time>2015-03-07T12:50:25Z</time>
      </trkpt>
      <trkpt lat="48.32179" lon="2.95619">
        <ele>90</ele>
        <time>2015-03-07T12:50:30Z</time>
      </trkpt>
      <trkpt lat="48.32184" lon="2.95631">
        <ele>90</ele>
        <time>2015-03-07T12:50:38Z</time>
      </trkpt>
      <trkpt lat="48.32187" lon="2.95642">
        <ele>89</ele>
        <time>2015-03-07T12:50:43Z</time>
      </trkpt>
      <trkpt lat="48.32191" lon="2.95653">
        <ele>89</ele>
        <time>2015-03-07T12:50:49Z</time>
      </trkpt>
      <trkpt lat="48.32196" lon="2.95664">
        <ele>88</ele>
        <time>2015-03-07T12:50:55Z</time>
      </trkpt>
      <trkpt lat="48.322" lon="2.95677">
        <ele>88</ele>
        <time>2015-03-07T12:51:00Z</time>
      </trkpt>
      <trkpt lat="48.32204" lon="2.95689">
        <ele>88</ele>
        <time>2015-03-07T12:51:05Z</time>
      </trkpt>
      <trkpt lat="48.32206" lon="2.95701">
        <ele>88</ele>
        <time>2015-03-07T12:51:10Z</time>
      </trkpt>
      <trkpt lat="48.3221" lon="2.95713">
        <ele>88</ele>
        <time>2015-03-07T12:51:16Z</time>
      </trkpt>
      <trkpt lat="48.32213" lon="2.95724">
        <ele>89</ele>
        <time>2015-03-07T12:51:21Z</time>
      </trkpt>
      <trkpt lat="48.32217" lon="2.95733">
        <ele>89</ele>
        <time>2015-03-07T12:51:26Z</time>
      </trkpt>
      <trkpt lat="48.32221" lon="2.95745">
        <ele>89</ele>
        <time>2015-03-07T12:51:36Z</time>
      </trkpt>
      <trkpt lat="48.32227" lon="2.95759">
        <ele>89</ele>
        <time>2015-03-07T12:51:41Z</time>
      </trkpt>
      <trkpt lat="48.32232" lon="2.9577">
        <ele>89</ele>
        <time>2015-03-07T12:51:45Z</time>
      </trkpt>
      <trkpt lat="48.32237" lon="2.95781">
        <ele>90</ele>
        <time>2015-03-07T12:51:53Z</time>
      </trkpt>
      <trkpt lat="48.32242" lon="2.95792">
        <ele>90</ele>
        <time>2015-03-07T12:51:59Z</time>
      </trkpt>
      <trkpt lat="48.32245" lon="2.95803">
        <ele>90</ele>
        <time>2015-03-07T12:52:04Z</time>
      </trkpt>
      <trkpt lat="48.32249" lon="2.95813">
        <ele>89</ele>
        <time>2015-03-07T12:52:09Z</time>
      </trkpt>
      <trkpt lat="48.32253" lon="2.95825">
        <ele>89</ele>
        <time>2015-03-07T12:52:15Z</time>
      </trkpt>
      <trkpt lat="48.32256" lon="2.95835">
        <ele>89</ele>
        <time>2015-03-07T12:52:19Z</time>
      </trkpt>
      <trkpt lat="48.32261" lon="2.95845">
        <ele>89</ele>
        <time>2015-03-07T12:52:24Z</time>
      </trkpt>
      <trkpt lat="48.32265" lon="2.95857">
        <ele>89</ele>
        <time>2015-03-07T12:52:30Z</time>
      </trkpt>
      <trkpt lat="48.32269" lon="2.95868">
        <ele>89</ele>
        <time>2015-03-07T12:52:37Z</time>
      </trkpt>
      <trkpt lat="48.32274" lon="2.95878">
        <ele>89</ele>
        <time>2015-03-07T12:52:44Z</time>
      </trkpt>
      <trkpt lat="48.32278" lon="2.9589">
        <ele>90</ele>
        <time>2015-03-07T12:52:50Z</time>
      </trkpt>
      <trkpt lat="48.32281" lon="2.95901">
        <ele>90</ele>
        <time>2015-03-07T12:52:55Z</time>
      </trkpt>
      <trkpt lat="48.32284" lon="2.95913">
        <ele>90</ele>
        <time>2015-03-07T12:53:00Z</time>
      </trkpt>
      <trkpt lat="48.32288" lon="2.95922">
        <ele>90</ele>
        <time>2015-03-07T12:53:05Z</time>
      </trkpt>
      <trkpt lat="48.32293" lon="2.95934">
        <ele>89</ele>
        <time>2015-03-07T12:53:11Z</time>
      </trkpt>
      <trkpt lat="48.32297" lon="2.95944">
        <ele>89</ele>
        <time>2015-03-07T12:53:18Z</time>
      </trkpt>
      <trkpt lat="48.32301" lon="2.95954">
        <ele>90</ele>
        <time>2015-03-07T12:53:23Z</time>
      </trkpt>
      <trkpt lat="48.32306" lon="2.95964">
        <ele>90</ele>
        <time>2015-03-07T12:53:31Z</time>
      </trkpt>
      <trkpt lat="48.3231" lon="2.95975">
        <ele>90</ele>
        <time>2015-03-07T12:53:36Z</time>
      </trkpt>
      <trkpt lat="48.32313" lon="2.95987">
        <ele>89</ele>
        <time>2015-03-07T12:53:41Z</time>
      </trkpt>
      <trkpt lat="48.32317" lon="2.95999">
        <ele>89</ele>
        <time>2015-03-07T12:53:46Z</time>
      </trkpt>
      <trkpt lat="48.3232" lon="2.96011">
        <ele>89</ele>
        <time>2015-03-07T12:53:52Z</time>
      </trkpt>
      <trkpt lat="48.32322" lon="2.96025">
        <ele>89</ele>
        <time>2015-03-07T12:53:57Z</time>
      </trkpt>
      <trkpt lat="48.32323" lon="2.96036">
        <ele>90</ele>
        <time>2015-03-07T12:54:01Z</time>
      </trkpt>
      <trkpt lat="48.32324" lon="2.96049">
        <ele>91</ele>
        <time>2015-03-07T12:54:06Z</time>
      </trkpt>
      <trkpt lat="48.32323" lon="2.96061">
        <ele>93</ele>
        <time>2015-03-07T12:54:12Z</time>
      </trkpt>
      <trkpt lat="48.32323" lon="2.96074">
        <ele>94</ele>
        <time>2015-03-07T12:54:20Z</time>
      </trkpt>
      <trkpt lat="48.32323" lon="2.96087">
        <ele>95</ele>
        <time>2015-03-07T12:54:26Z</time>
      </trkpt>
      <trkpt lat="48.32326" lon="2.96098">
        <ele>96</ele>
        <time>2015-03-07T12:54:35Z</time>
      </trkpt>
      <trkpt lat="48.32328" lon="2.9611">
        <ele>96</ele>
        <time>2015-03-07T12:54:42Z</time>
      </trkpt>
      <trkpt lat="48.32332" lon="2.96121">
        <ele>96</ele>
        <time>2015-03-07T12:54:48Z</time>
      </trkpt>
      <trkpt lat="48.32333" lon="2.96135">
        <ele>97</ele>
        <time>2015-03-07T12:54:55Z</time>
      </trkpt>
      <trkpt lat="48.32327" lon="2.96148">
        <ele>96</ele>
        <time>2015-03-07T12:55:00Z</time>
      </trkpt>
      <trkpt lat="48.32327" lon="2.96159">
        <ele>96</ele>
        <time>2015-03-07T12:55:06Z</time>
      </trkpt>
      <trkpt lat="48.32325" lon="2.96172">
        <ele>95</ele>
        <time>2015-03-07T12:55:11Z</time>
      </trkpt>
      <trkpt lat="48.32323" lon="2.96184">
        <ele>95</ele>
        <time>2015-03-07T12:55:16Z</time>
      </trkpt>
      <trkpt lat="48.32321" lon="2.96196">
        <ele>95</ele>
        <time>2015-03-07T12:55:21Z</time>
      </trkpt>
      <trkpt lat="48.3232" lon="2.96209">
        <ele>95</ele>
        <time>2015-03-07T12:55:27Z</time>
      </trkpt>
      <trkpt lat="48.32319" lon="2.96222">
        <ele>96</ele>
        <time>2015-03-07T12:55:34Z</time>
      </trkpt>
      <trkpt lat="48.32317" lon="2.96234">
        <ele>96</ele>
        <time>2015-03-07T12:55:39Z</time>
      </trkpt>
      <trkpt lat="48.32315" lon="2.96246">
        <ele>97</ele>
        <time>2015-03-07T12:55:44Z</time>
      </trkpt>
      <trkpt lat="48.32315" lon="2.9626">
        <ele>97</ele>
        <time>2015-03-07T12:55:49Z</time>
      </trkpt>
      <trkpt lat="48.32314" lon="2.96272">
        <ele>97</ele>
        <time>2015-03-07T12:55:55Z</time>
      </trkpt>
      <trkpt lat="48.32314" lon="2.96285">
        <ele>97</ele>
        <time>2015-03-07T12:56:00Z</time>
      </trkpt>
      <trkpt lat="48.32314" lon="2.96299">
        <ele>98</ele>
        <time>2015-03-07T12:56:08Z</time>
      </trkpt>
      <trkpt lat="48.32314" lon="2.96311">
        <ele>98</ele>
        <time>2015-03-07T12:56:14Z</time>
      </trkpt>
      <trkpt lat="48.32315" lon="2.96324">
        <ele>98</ele>
        <time>2015-03-07T12:56:21Z</time>
      </trkpt>
      <trkpt lat="48.32315" lon="2.96337">
        <ele>98</ele>
        <time>2015-03-07T12:56:28Z</time>
      </trkpt>
      <trkpt lat="48.32315" lon="2.9635">
        <ele>98</ele>
        <time>2015-03-07T12:56:34Z</time>
      </trkpt>
      <trkpt lat="48.32315" lon="2.96362">
        <ele>99</ele>
        <time>2015-03-07T12:56:40Z</time>
      </trkpt>
      <trkpt lat="48.32314" lon="2.96375">
        <ele>99</ele>
        <time>2015-03-07T12:56:45Z</time>
      </trkpt>
      <trkpt lat="48.32315" lon="2.96388">
        <ele>99</ele>
        <time>2015-03-07T12:56:51Z</time>
      </trkpt>
      <trkpt lat="48.32316" lon="2.96401">
        <ele>100</ele>
        <time>2015-03-07T12:56:58Z</time>
      </trkpt>
      <trkpt lat="48.32315" lon="2.96414">
        <ele>100</ele>
        <time>2015-03-07T12:57:04Z</time>
      </trkpt>
      <trkpt lat="48.32314" lon="2.96427">
        <ele>100</ele>
        <time>2015-03-07T12:57:09Z</time>
      </trkpt>
      <trkpt lat="48.32314" lon="2.9644">
        <ele>101</ele>
        <time>2015-03-07T12:57:15Z</time>
      </trkpt>
      <trkpt lat="48.32315" lon="2.96453">
        <ele>101</ele>
        <time>2015-03-07T12:57:22Z</time>
      </trkpt>
      <trkpt lat="48.32316" lon="2.96465">
        <ele>101</ele>
        <time>2015-03-07T12:57:27Z</time>
      </trkpt>
      <trkpt lat="48.32317" lon="2.96478">
        <ele>101</ele>
        <time>2015-03-07T12:57:32Z</time>
      </trkpt>
      <trkpt lat="48.3232" lon="2.96489">
        <ele>101</ele>
        <time>2015-03-07T12:57:38Z</time>
      </trkpt>
      <trkpt lat="48.32322" lon="2.96502">
        <ele>101</ele>
        <time>2015-03-07T12:57:45Z</time>
      </trkpt>
      <trkpt lat="48.32323" lon="2.96514">
        <ele>101</ele>
        <time>2015-03-07T12:57:51Z</time>
      </trkpt>
      <trkpt lat="48.32325" lon="2.96526">
        <ele>101</ele>
        <time>2015-03-07T12:57:56Z</time>
      </trkpt>
      <trkpt lat="48.32327" lon="2.96538">
        <ele>102</ele>
        <time>2015-03-07T12:58:02Z</time>
      </trkpt>
      <trkpt lat="48.32329" lon="2.96549">
        <ele>102</ele>
        <time>2015-03-07T12:58:07Z</time>
      </trkpt>
      <trkpt lat="48.32331" lon="2.96561">
        <ele>102</ele>
        <time>2015-03-07T12:58:13Z</time>
      </trkpt>
      <trkpt lat="48.32333" lon="2.96574">
        <ele>102</ele>
        <time>2015-03-07T12:58:21Z</time>
      </trkpt>
      <trkpt lat="48.32336" lon="2.96585">
        <ele>102</ele>
        <time>2015-03-07T12:58:26Z</time>
      </trkpt>
      <trkpt lat="48.32337" lon="2.96596">
        <ele>102</ele>
        <time>2015-03-07T12:58:31Z</time>
      </trkpt>
      <trkpt lat="48.32339" lon="2.9661">
        <ele>102</ele>
        <time>2015-03-07T12:58:36Z</time>
      </trkpt>
      <trkpt lat="48.32341" lon="2.96622">
        <ele>102</ele>
        <time>2015-03-07T12:58:41Z</time>
      </trkpt>
      <trkpt lat="48.32342" lon="2.96635">
        <ele>102</ele>
        <time>2015-03-07T12:58:46Z</time>
      </trkpt>
      <trkpt lat="48.32344" lon="2.96647">
        <ele>103</ele>
        <time>2015-03-07T12:58:52Z</time>
      </trkpt>
      <trkpt lat="48.32346" lon="2.96658">
        <ele>103</ele>
        <time>2015-03-07T12:58:59Z</time>
      </trkpt>
      <trkpt lat="48.32348" lon="2.9667">
        <ele>103</ele>
        <time>2015-03-07T12:59:06Z</time>
      </trkpt>
      <trkpt lat="48.32349" lon="2.96683">
        <ele>103</ele>
        <time>2015-03-07T12:59:12Z</time>
      </trkpt>
      <trkpt lat="48.32348" lon="2.96695">
        <ele>103</ele>
        <time>2015-03-07T12:59:17Z</time>
      </trkpt>
      <trkpt lat="48.32348" lon="2.96705">
        <ele>103</ele>
        <time>2015-03-07T12:59:22Z</time>
      </trkpt>
      <trkpt lat="48.32349" lon="2.96718">
        <ele>103</ele>
        <time>2015-03-07T12:59:27Z</time>
      </trkpt>
      <trkpt lat="48.32349" lon="2.96731">
        <ele>103</ele>
        <time>2015-03-07T12:59:33Z</time>
      </trkpt>
      <trkpt lat="48.32349" lon="2.96744">
        <ele>103</ele>
        <time>2015-03-07T12:59:39Z</time>
      </trkpt>
      <trkpt lat="48.32348" lon="2.96755">
        <ele>103</ele>
        <time>2015-03-07T12:59:44Z</time>
      </trkpt>
      <trkpt lat="48.32349" lon="2.96767">
        <ele>103</ele>
        <time>2015-03-07T12:59:49Z</time>
      </trkpt>
      <trkpt lat="48.32349" lon="2.96779">
        <ele>104</ele>
        <time>2015-03-07T12:59:55Z</time>
      </trkpt>
      <trkpt lat="48.32349" lon="2.96792">
        <ele>104</ele>
        <time>2015-03-07T13:00:00Z</time>
      </trkpt>
      <trkpt lat="48.32348" lon="2.96805">
        <ele>104</ele>
        <time>2015-03-07T13:00:06Z</time>
      </trkpt>
      <trkpt lat="48.32348" lon="2.96818">
        <ele>104</ele>
        <time>2015-03-07T13:00:12Z</time>
      </trkpt>
      <trkpt lat="48.32346" lon="2.96829">
        <ele>103</ele>
        <time>2015-03-07T13:00:18Z</time>
      </trkpt>
      <trkpt lat="48.32343" lon="2.96842">
        <ele>104</ele>
        <time>2015-03-07T13:00:23Z</time>
      </trkpt>
      <trkpt lat="48.32341" lon="2.96854">
        <ele>104</ele>
        <time>2015-03-07T13:00:29Z</time>
      </trkpt>
      <trkpt lat="48.3234" lon="2.96866">
        <ele>104</ele>
        <time>2015-03-07T13:00:35Z</time>
      </trkpt>
      <trkpt lat="48.32338" lon="2.96877">
        <ele>104</ele>
        <time>2015-03-07T13:00:40Z</time>
      </trkpt>
      <trkpt lat="48.32336" lon="2.9689">
        <ele>105</ele>
        <time>2015-03-07T13:00:45Z</time>
      </trkpt>
      <trkpt lat="48.32334" lon="2.96902">
        <ele>105</ele>
        <time>2015-03-07T13:00:51Z</time>
      </trkpt>
      <trkpt lat="48.32333" lon="2.96914">
        <ele>106</ele>
        <time>2015-03-07T13:00:56Z</time>
      </trkpt>
      <trkpt lat="48.3233" lon="2.96925">
        <ele>106</ele>
        <time>2015-03-07T13:01:01Z</time>
      </trkpt>
      <trkpt lat="48.32329" lon="2.96937">
        <ele>106</ele>
        <time>2015-03-07T13:01:07Z</time>
      </trkpt>
      <trkpt lat="48.32328" lon="2.96949">
        <ele>106</ele>
        <time>2015-03-07T13:01:13Z</time>
      </trkpt>
      <trkpt lat="48.32327" lon="2.96962">
        <ele>106</ele>
        <time>2015-03-07T13:01:19Z</time>
      </trkpt>
      <trkpt lat="48.32325" lon="2.96975">
        <ele>106</ele>
        <time>2015-03-07T13:01:25Z</time>
      </trkpt>
      <trkpt lat="48.32324" lon="2.96988">
        <ele>106</ele>
        <time>2015-03-07T13:01:30Z</time>
      </trkpt>
      <trkpt lat="48.32323" lon="2.97">
        <ele>107</ele>
        <time>2015-03-07T13:01:36Z</time>
      </trkpt>
      <trkpt lat="48.32322" lon="2.97012">
        <ele>107</ele>
        <time>2015-03-07T13:01:42Z</time>
      </trkpt>
      <trkpt lat="48.32322" lon="2.97025">
        <ele>107</ele>
        <time>2015-03-07T13:01:48Z</time>
      </trkpt>
      <trkpt lat="48.3232" lon="2.97037">
        <ele>108</ele>
        <time>2015-03-07T13:01:54Z</time>
      </trkpt>
      <trkpt lat="48.32318" lon="2.9705">
        <ele>107</ele>
        <time>2015-03-07T13:02:00Z</time>
      </trkpt>
      <trkpt lat="48.32319" lon="2.97062">
        <ele>107</ele>
        <time>2015-03-07T13:02:06Z</time>
      </trkpt>
      <trkpt lat="48.32318" lon="2.97073">
        <ele>107</ele>
        <time>2015-03-07T13:02:10Z</time>
      </trkpt>
      <trkpt lat="48.32319" lon="2.97087">
        <ele>107</ele>
        <time>2015-03-07T13:02:17Z</time>
      </trkpt>
      <trkpt lat="48.32319" lon="2.97099">
        <ele>107</ele>
        <time>2015-03-07T13:02:22Z</time>
      </trkpt>
      <trkpt lat="48.32317" lon="2.97111">
        <ele>108</ele>
        <time>2015-03-07T13:02:28Z</time>
      </trkpt>
      <trkpt lat="48.32317" lon="2.97124">
        <ele>109</ele>
        <time>2015-03-07T13:02:33Z</time>
      </trkpt>
      <trkpt lat="48.32318" lon="2.97137">
        <ele>109</ele>
        <time>2015-03-07T13:02:39Z</time>
      </trkpt>
      <trkpt lat="48.32319" lon="2.9715">
        <ele>109</ele>
        <time>2015-03-07T13:02:47Z</time>
      </trkpt>
      <trkpt lat="48.32321" lon="2.97163">
        <ele>109</ele>
        <time>2015-03-07T13:02:53Z</time>
      </trkpt>
      <trkpt lat="48.32323" lon="2.97175">
        <ele>109</ele>
        <time>2015-03-07T13:02:58Z</time>
      </trkpt>
      <trkpt lat="48.32324" lon="2.97187">
        <ele>109</ele>
        <time>2015-03-07T13:03:04Z</time>
      </trkpt>
      <trkpt lat="48.32326" lon="2.97199">
        <ele>109</ele>
        <time>2015-03-07T13:03:10Z</time>
      </trkpt>
      <trkpt lat="48.32328" lon="2.97212">
        <ele>109</ele>
        <time>2015-03-07T13:03:16Z</time>
      </trkpt>
      <trkpt lat="48.32329" lon="2.97224">
        <ele>110</ele>
        <time>2015-03-07T13:03:22Z</time>
      </trkpt>
      <trkpt lat="48.3233" lon="2.97236">
        <ele>110</ele>
        <time>2015-03-07T13:03:28Z</time>
      </trkpt>
      <trkpt lat="48.3233" lon="2.97248">
        <ele>110</ele>
        <time>2015-03-07T13:03:33Z</time>
      </trkpt>
      <trkpt lat="48.32331" lon="2.9726">
        <ele>110</ele>
        <time>2015-03-07T13:03:40Z</time>
      </trkpt>
      <trkpt lat="48.32332" lon="2.97271">
        <ele>109</ele>
        <time>2015-03-07T13:03:47Z</time>
      </trkpt>
      <trkpt lat="48.32334" lon="2.97284">
        <ele>109</ele>
        <time>2015-03-07T13:03:52Z</time>
      </trkpt>
      <trkpt lat="48.32334" lon="2.97296">
        <ele>109</ele>
        <time>2015-03-07T13:03:57Z</time>
      </trkpt>
      <trkpt lat="48.32335" lon="2.97308">
        <ele>110</ele>
        <time>2015-03-07T13:04:02Z</time>
      </trkpt>
      <trkpt lat="48.32338" lon="2.9732">
        <ele>110</ele>
        <time>2015-03-07T13:04:08Z</time>
      </trkpt>
      <trkpt lat="48.32339" lon="2.97333">
        <ele>110</ele>
        <time>2015-03-07T13:04:13Z</time>
      </trkpt>
      <trkpt lat="48.3234" lon="2.97345">
        <ele>111</ele>
        <time>2015-03-07T13:04:19Z</time>
      </trkpt>
      <trkpt lat="48.3234" lon="2.97358">
        <ele>111</ele>
        <time>2015-03-07T13:04:25Z</time>
      </trkpt>
      <trkpt lat="48.32342" lon="2.9737">
        <ele>112</ele>
        <time>2015-03-07T13:04:30Z</time>
      </trkpt>
      <trkpt lat="48.32342" lon="2.97382">
        <ele>112</ele>
        <time>2015-03-07T13:04:35Z</time>
      </trkpt>
      <trkpt lat="48.32341" lon="2.97393">
        <ele>112</ele>
        <time>2015-03-07T13:04:40Z</time>
      </trkpt>
      <trkpt lat="48.32341" lon="2.97406">
        <ele>112</ele>
        <time>2015-03-07T13:04:46Z</time>
      </trkpt>
      <trkpt lat="48.32341" lon="2.97417">
        <ele>112</ele>
        <time>2015-03-07T13:04:51Z</time>
      </trkpt>
      <trkpt lat="48.32341" lon="2.97429">
        <ele>112</ele>
        <time>2015-03-07T13:04:56Z</time>
      </trkpt>
      <trkpt lat="48.32342" lon="2.97442">
        <ele>112</ele>
        <time>2015-03-07T13:05:01Z</time>
      </trkpt>
      <trkpt lat="48.32342" lon="2.97454">
        <ele>112</ele>
        <time>2015-03-07T13:05:06Z</time>
      </trkpt>
      <trkpt lat="48.32343" lon="2.97466">
        <ele>112</ele>
        <time>2015-03-07T13:05:11Z</time>
      </trkpt>
      <trkpt lat="48.32345" lon="2.97478">
        <ele>112</ele>
        <time>2015-03-07T13:05:17Z</time>
      </trkpt>
      <trkpt lat="48.32346" lon="2.9749">
        <ele>113</ele>
        <time>2015-03-07T13:05:22Z</time>
      </trkpt>
      <trkpt lat="48.32348" lon="2.97501">
        <ele>113</ele>
        <time>2015-03-07T13:05:27Z</time>
      </trkpt>
      <trkpt lat="48.3235" lon="2.97511">
        <ele>113</ele>
        <time>2015-03-07T13:05:32Z</time>
      </trkpt>
      <trkpt lat="48.32352" lon="2.97522">
        <ele>112</ele>
        <time>2015-03-07T13:05:37Z</time>
      </trkpt>
      <trkpt lat="48.32353" lon="2.97535">
        <ele>112</ele>
        <time>2015-03-07T13:05:42Z</time>
      </trkpt>
      <trkpt lat="48.32355" lon="2.97546">
        <ele>112</ele>
        <time>2015-03-07T13:05:48Z</time>
      </trkpt>
      <trkpt lat="48.32358" lon="2.97558">
        <ele>112</ele>
        <time>2015-03-07T13:05:53Z</time>
      </trkpt>
      <trkpt lat="48.32361" lon="2.97569">
        <ele>112</ele>
        <time>2015-03-07T13:05:58Z</time>
      </trkpt>
      <trkpt lat="48.32363" lon="2.97581">
        <ele>112</ele>
        <time>2015-03-07T13:06:03Z</time>
      </trkpt>
      <trkpt lat="48.32366" lon="2.97593">
        <ele>112</ele>
        <time>2015-03-07T13:06:08Z</time>
      </trkpt>
      <trkpt lat="48.32368" lon="2.97604">
        <ele>111</ele>
        <time>2015-03-07T13:06:15Z</time>
      </trkpt>
      <trkpt lat="48.32372" lon="2.97616">
        <ele>111</ele>
        <time>2015-03-07T13:06:21Z</time>
      </trkpt>
      <trkpt lat="48.32374" lon="2.97628">
        <ele>110</ele>
        <time>2015-03-07T13:06:28Z</time>
      </trkpt>
      <trkpt lat="48.32377" lon="2.97639">
        <ele>110</ele>
        <time>2015-03-07T13:06:33Z</time>
      </trkpt>
      <trkpt lat="48.32381" lon="2.9765">
        <ele>110</ele>
        <time>2015-03-07T13:06:38Z</time>
      </trkpt>
      <trkpt lat="48.32384" lon="2.97662">
        <ele>110</ele>
        <time>2015-03-07T13:06:44Z</time>
      </trkpt>
      <trkpt lat="48.32387" lon="2.97672">
        <ele>109</ele>
        <time>2015-03-07T13:06:49Z</time>
      </trkpt>
      <trkpt lat="48.3239" lon="2.97684">
        <ele>109</ele>
        <time>2015-03-07T13:06:55Z</time>
      </trkpt>
      <trkpt lat="48.32392" lon="2.97696">
        <ele>109</ele>
        <time>2015-03-07T13:07:01Z</time>
      </trkpt>
      <trkpt lat="48.32394" lon="2.97708">
        <ele>109</ele>
        <time>2015-03-07T13:07:06Z</time>
      </trkpt>
      <trkpt lat="48.32397" lon="2.9772">
        <ele>109</ele>
        <time>2015-03-07T13:07:11Z</time>
      </trkpt>
      <trkpt lat="48.32398" lon="2.97731">
        <ele>110</ele>
        <time>2015-03-07T13:07:17Z</time>
      </trkpt>
      <trkpt lat="48.324" lon="2.97744">
        <ele>110</ele>
        <time>2015-03-07T13:07:22Z</time>
      </trkpt>
      <trkpt lat="48.32401" lon="2.97756">
        <ele>110</ele>
        <time>2015-03-07T13:07:28Z</time>
      </trkpt>
      <trkpt lat="48.32402" lon="2.97768">
        <ele>110</ele>
        <time>2015-03-07T13:07:33Z</time>
      </trkpt>
      <trkpt lat="48.32404" lon="2.97779">
        <ele>110</ele>
        <time>2015-03-07T13:07:39Z</time>
      </trkpt>
      <trkpt lat="48.32407" lon="2.97791">
        <ele>110</ele>
        <time>2015-03-07T13:07:44Z</time>
      </trkpt>
      <trkpt lat="48.3241" lon="2.97802">
        <ele>110</ele>
        <time>2015-03-07T13:07:49Z</time>
      </trkpt>
      <trkpt lat="48.32411" lon="2.97813">
        <ele>110</ele>
        <time>2015-03-07T13:07:55Z</time>
      </trkpt>
      <trkpt lat="48.32412" lon="2.97825">
        <ele>110</ele>
        <time>2015-03-07T13:08:00Z</time>
      </trkpt>
      <trkpt lat="48.32412" lon="2.97838">
        <ele>110</ele>
        <time>2015-03-07T13:08:05Z</time>
      </trkpt>
      <trkpt lat="48.32414" lon="2.97849">
        <ele>110</ele>
        <time>2015-03-07T13:08:10Z</time>
      </trkpt>
      <trkpt lat="48.32416" lon="2.97862">
        <ele>110</ele>
        <time>2015-03-07T13:08:15Z</time>
      </trkpt>
      <trkpt lat="48.32417" lon="2.97875">
        <ele>110</ele>
        <time>2015-03-07T13:08:20Z</time>
      </trkpt>
      <trkpt lat="48.32418" lon="2.97888">
        <ele>111</ele>
        <time>2015-03-07T13:08:29Z</time>
      </trkpt>
      <trkpt lat="48.32418" lon="2.979">
        <ele>111</ele>
        <time>2015-03-07T13:08:35Z</time>
      </trkpt>
      <trkpt lat="48.32418" lon="2.97914">
        <ele>111</ele>
        <time>2015-03-07T13:08:40Z</time>
      </trkpt>
      <trkpt lat="48.32419" lon="2.97926">
        <ele>111</ele>
        <time>2015-03-07T13:08:46Z</time>
      </trkpt>
      <trkpt lat="48.32419" lon="2.97938">
        <ele>111</ele>
        <time>2015-03-07T13:08:52Z</time>
      </trkpt>
      <trkpt lat="48.32419" lon="2.97949">
        <ele>112</ele>
        <time>2015-03-07T13:08:57Z</time>
      </trkpt>
      <trkpt lat="48.32419" lon="2.97961">
        <ele>112</ele>
        <time>2015-03-07T13:09:03Z</time>
      </trkpt>
      <trkpt lat="48.32418" lon="2.97974">
        <ele>112</ele>
        <time>2015-03-07T13:09:09Z</time>
      </trkpt>
      <trkpt lat="48.32416" lon="2.97987">
        <ele>112</ele>
        <time>2015-03-07T13:09:15Z</time>
      </trkpt>
      <trkpt lat="48.32414" lon="2.97999">
        <ele>112</ele>
        <time>2015-03-07T13:09:21Z</time>
      </trkpt>
      <trkpt lat="48.32411" lon="2.98011">
        <ele>112</ele>
        <time>2015-03-07T13:09:26Z</time>
      </trkpt>
      <trkpt lat="48.32408" lon="2.98021">
        <ele>111</ele>
        <time>2015-03-07T13:09:32Z</time>
      </trkpt>
      <trkpt lat="48.32404" lon="2.98032">
        <ele>111</ele>
        <time>2015-03-07T13:09:37Z</time>
      </trkpt>
      <trkpt lat="48.32402" lon="2.98043">
        <ele>111</ele>
        <time>2015-03-07T13:09:42Z</time>
      </trkpt>
      <trkpt lat="48.32398" lon="2.98055">
        <ele>111</ele>
        <time>2015-03-07T13:09:48Z</time>
      </trkpt>
      <trkpt lat="48.32394" lon="2.98064">
        <ele>112</ele>
        <time>2015-03-07T13:09:53Z</time>
      </trkpt>
      <trkpt lat="48.3239" lon="2.98075">
        <ele>112</ele>
        <time>2015-03-07T13:09:58Z</time>
      </trkpt>
      <trkpt lat="48.32385" lon="2.98086">
        <ele>113</ele>
        <time>2015-03-07T13:10:04Z</time>
      </trkpt>
      <trkpt lat="48.3238" lon="2.98096">
        <ele>113</ele>
        <time>2015-03-07T13:10:10Z</time>
      </trkpt>
      <trkpt lat="48.32375" lon="2.98104">
        <ele>114</ele>
        <time>2015-03-07T13:10:15Z</time>
      </trkpt>
      <trkpt lat="48.3237" lon="2.98114">
        <ele>114</ele>
        <time>2015-03-07T13:10:20Z</time>
      </trkpt>
      <trkpt lat="48.32365" lon="2.98125">
        <ele>114</ele>
        <time>2015-03-07T13:10:26Z</time>
      </trkpt>
      <trkpt lat="48.32359" lon="2.98134">
        <ele>115</ele>
        <time>2015-03-07T13:10:32Z</time>
      </trkpt>
      <trkpt lat="48.32352" lon="2.98141">
        <ele>115</ele>
        <time>2015-03-07T13:10:38Z</time>
      </trkpt>
      <trkpt lat="48.32345" lon="2.98149">
        <ele>115</ele>
        <time>2015-03-07T13:10:43Z</time>
      </trkpt>
      <trkpt lat="48.32338" lon="2.98157">
        <ele>114</ele>
        <time>2015-03-07T13:10:49Z</time>
      </trkpt>
      <trkpt lat="48.32333" lon="2.98167">
        <ele>114</ele>
        <time>2015-03-07T13:10:55Z</time>
      </trkpt>
      <trkpt lat="48.32328" lon="2.98176">
        <ele>114</ele>
        <time>2015-03-07T13:11:00Z</time>
      </trkpt>
      <trkpt lat="48.32324" lon="2.98185">
        <ele>115</ele>
        <time>2015-03-07T13:11:05Z</time>
      </trkpt>
      <trkpt lat="48.32319" lon="2.98195">
        <ele>115</ele>
        <time>2015-03-07T13:11:10Z</time>
      </trkpt>
      <trkpt lat="48.32314" lon="2.98205">
        <ele>115</ele>
        <time>2015-03-07T13:11:15Z</time>
      </trkpt>
      <trkpt lat="48.32308" lon="2.98214">
        <ele>115</ele>
        <time>2015-03-07T13:11:20Z</time>
      </trkpt>
      <trkpt lat="48.32301" lon="2.98221">
        <ele>115</ele>
        <time>2015-03-07T13:11:26Z</time>
      </trkpt>
      <trkpt lat="48.32295" lon="2.9823">
        <ele>115</ele>
        <time>2015-03-07T13:11:32Z</time>
      </trkpt>
      <trkpt lat="48.3229" lon="2.98239">
        <ele>115</ele>
        <time>2015-03-07T13:11:37Z</time>
      </trkpt>
      <trkpt lat="48.32286" lon="2.98251">
        <ele>114</ele>
        <time>2015-03-07T13:11:43Z</time>
      </trkpt>
      <trkpt lat="48.32282" lon="2.98262">
        <ele>115</ele>
        <time>2015-03-07T13:11:48Z</time>
      </trkpt>
      <trkpt lat="48.32277" lon="2.98273">
        <ele>115</ele>
        <time>2015-03-07T13:11:54Z</time>
      </trkpt>
      <trkpt lat="48.32272" lon="2.98283">
        <ele>115</ele>
        <time>2015-03-07T13:12:00Z</time>
      </trkpt>
      <trkpt lat="48.32267" lon="2.98293">
        <ele>115</ele>
        <time>2015-03-07T13:12:06Z</time>
      </trkpt>
      <trkpt lat="48.32261" lon="2.98303">
        <ele>115</ele>
        <time>2015-03-07T13:12:12Z</time>
      </trkpt>
      <trkpt lat="48.32258" lon="2.98315">
        <ele>115</ele>
        <time>2015-03-07T13:12:17Z</time>
      </trkpt>
      <trkpt lat="48.32253" lon="2.98324">
        <ele>114</ele>
        <time>2015-03-07T13:12:23Z</time>
      </trkpt>
      <trkpt lat="48.3225" lon="2.98335">
        <ele>114</ele>
        <time>2015-03-07T13:12:29Z</time>
      </trkpt>
      <trkpt lat="48.32247" lon="2.98346">
        <ele>114</ele>
        <time>2015-03-07T13:12:36Z</time>
      </trkpt>
      <trkpt lat="48.32243" lon="2.98358">
        <ele>114</ele>
        <time>2015-03-07T13:12:42Z</time>
      </trkpt>
      <trkpt lat="48.32239" lon="2.98369">
        <ele>114</ele>
        <time>2015-03-07T13:12:47Z</time>
      </trkpt>
      <trkpt lat="48.32236" lon="2.98381">
        <ele>114</ele>
        <time>2015-03-07T13:12:52Z</time>
      </trkpt>
      <trkpt lat="48.32233" lon="2.98391">
        <ele>113</ele>
        <time>2015-03-07T13:12:57Z</time>
      </trkpt>
      <trkpt lat="48.32231" lon="2.98402">
        <ele>113</ele>
        <time>2015-03-07T13:13:02Z</time>
      </trkpt>
      <trkpt lat="48.32228" lon="2.98413">
        <ele>113</ele>
        <time>2015-03-07T13:13:07Z</time>
      </trkpt>
      <trkpt lat="48.32225" lon="2.98425">
        <ele>114</ele>
        <time>2015-03-07T13:13:12Z</time>
      </trkpt>
      <trkpt lat="48.32222" lon="2.98438">
        <ele>114</ele>
        <time>2015-03-07T13:13:17Z</time>
      </trkpt>
      <trkpt lat="48.32221" lon="2.9845">
        <ele>114</ele>
        <time>2015-03-07T13:13:23Z</time>
      </trkpt>
      <trkpt lat="48.32218" lon="2.98462">
        <ele>114</ele>
        <time>2015-03-07T13:13:29Z</time>
      </trkpt>
      <trkpt lat="48.32218" lon="2.98474">
        <ele>114</ele>
        <time>2015-03-07T13:13:35Z</time>
      </trkpt>
      <trkpt lat="48.32215" lon="2.98486">
        <ele>114</ele>
        <time>2015-03-07T13:13:40Z</time>
      </trkpt>
      <trkpt lat="48.32212" lon="2.98499">
        <ele>114</ele>
        <time>2015-03-07T13:13:45Z</time>
      </trkpt>
      <trkpt lat="48.3221" lon="2.98511">
        <ele>114</ele>
        <time>2015-03-07T13:13:51Z</time>
      </trkpt>
      <trkpt lat="48.32207" lon="2.98523">
        <ele>114</ele>
        <time>2015-03-07T13:13:56Z</time>
      </trkpt>
      <trkpt lat="48.32204" lon="2.98534">
        <ele>114</ele>
        <time>2015-03-07T13:14:01Z</time>
      </trkpt>
      <trkpt lat="48.32201" lon="2.98545">
        <ele>114</ele>
        <time>2015-03-07T13:14:06Z</time>
      </trkpt>
      <trkpt lat="48.32198" lon="2.98557">
        <ele>115</ele>
        <time>2015-03-07T13:14:13Z</time>
      </trkpt>
      <trkpt lat="48.32195" lon="2.98569">
        <ele>115</ele>
        <time>2015-03-07T13:14:19Z</time>
      </trkpt>
      <trkpt lat="48.32198" lon="2.9858">
        <ele>115</ele>
        <time>2015-03-07T13:14:27Z</time>
      </trkpt>
      <trkpt lat="48.32207" lon="2.98581">
        <ele>115</ele>
        <time>2015-03-07T13:14:37Z</time>
      </trkpt>
      <trkpt lat="48.32215" lon="2.98577">
        <ele>115</ele>
        <time>2015-03-07T13:14:44Z</time>
      </trkpt>
      <trkpt lat="48.32222" lon="2.98573">
        <ele>115</ele>
        <time>2015-03-07T13:14:49Z</time>
      </trkpt>
      <trkpt lat="48.32231" lon="2.9857">
        <ele>116</ele>
        <time>2015-03-07T13:14:54Z</time>
      </trkpt>
      <trkpt lat="48.32239" lon="2.98568">
        <ele>116</ele>
        <time>2015-03-07T13:14:59Z</time>
      </trkpt>
      <trkpt lat="48.32247" lon="2.98562">
        <ele>116</ele>
        <time>2015-03-07T13:15:06Z</time>
      </trkpt>
      <trkpt lat="48.32254" lon="2.98558">
        <ele>117</ele>
        <time>2015-03-07T13:15:12Z</time>
      </trkpt>
      <trkpt lat="48.32263" lon="2.98555">
        <ele>117</ele>
        <time>2015-03-07T13:15:17Z</time>
      </trkpt>
      <trkpt lat="48.3227" lon="2.98551">
        <ele>117</ele>
        <time>2015-03-07T13:15:22Z</time>
      </trkpt>
      <trkpt lat="48.32278" lon="2.98548">
        <ele>117</ele>
        <time>2015-03-07T13:15:27Z</time>
      </trkpt>
      <trkpt lat="48.32285" lon="2.98544">
        <ele>117</ele>
        <time>2015-03-07T13:15:33Z</time>
      </trkpt>
      <trkpt lat="48.32293" lon="2.9854">
        <ele>117</ele>
        <time>2015-03-07T13:15:38Z</time>
      </trkpt>
      <trkpt lat="48.323" lon="2.98537">
        <ele>117</ele>
        <time>2015-03-07T13:15:43Z</time>
      </trkpt>
      <trkpt lat="48.32309" lon="2.98534">
        <ele>117</ele>
        <time>2015-03-07T13:15:49Z</time>
      </trkpt>
      <trkpt lat="48.32317" lon="2.98531">
        <ele>117</ele>
        <time>2015-03-07T13:15:54Z</time>
      </trkpt>
      <trkpt lat="48.32324" lon="2.98529">
        <ele>117</ele>
        <time>2015-03-07T13:16:00Z</time>
      </trkpt>
      <trkpt lat="48.32332" lon="2.98526">
        <ele>116</ele>
        <time>2015-03-07T13:16:05Z</time>
      </trkpt>
      <trkpt lat="48.32339" lon="2.98522">
        <ele>116</ele>
        <time>2015-03-07T13:16:10Z</time>
      </trkpt>
      <trkpt lat="48.32348" lon="2.98518">
        <ele>116</ele>
        <time>2015-03-07T13:16:16Z</time>
      </trkpt>
      <trkpt lat="48.32356" lon="2.98513">
        <ele>115</ele>
        <time>2015-03-07T13:16:21Z</time>
      </trkpt>
      <trkpt lat="48.32363" lon="2.98508">
        <ele>115</ele>
        <time>2015-03-07T13:16:27Z</time>
      </trkpt>
      <trkpt lat="48.32372" lon="2.98503">
        <ele>115</ele>
        <time>2015-03-07T13:16:33Z</time>
      </trkpt>
      <trkpt lat="48.3238" lon="2.98502">
        <ele>115</ele>
        <time>2015-03-07T13:16:38Z</time>
      </trkpt>
      <trkpt lat="48.32388" lon="2.98498">
        <ele>114</ele>
        <time>2015-03-07T13:16:45Z</time>
      </trkpt>
      <trkpt lat="48.32395" lon="2.98493">
        <ele>114</ele>
        <time>2015-03-07T13:16:50Z</time>
      </trkpt>
      <trkpt lat="48.32403" lon="2.9849">
        <ele>113</ele>
        <time>2015-03-07T13:16:56Z</time>
      </trkpt>
      <trkpt lat="48.3241" lon="2.98486">
        <ele>113</ele>
        <time>2015-03-07T13:17:01Z</time>
      </trkpt>
      <trkpt lat="48.32419" lon="2.98481">
        <ele>113</ele>
        <time>2015-03-07T13:17:07Z</time>
      </trkpt>
      <trkpt lat="48.32426" lon="2.98478">
        <ele>113</ele>
        <time>2015-03-07T13:17:12Z</time>
      </trkpt>
      <trkpt lat="48.32434" lon="2.98475">
        <ele>113</ele>
        <time>2015-03-07T13:17:17Z</time>
      </trkpt>
      <trkpt lat="48.32442" lon="2.98472">
        <ele>113</ele>
        <time>2015-03-07T13:17:22Z</time>
      </trkpt>
      <trkpt lat="48.3245" lon="2.98468">
        <ele>113</ele>
        <time>2015-03-07T13:17:28Z</time>
      </trkpt>
      <trkpt lat="48.32458" lon="2.98468">
        <ele>113</ele>
        <time>2015-03-07T13:17:35Z</time>
      </trkpt>
      <trkpt lat="48.32464" lon="2.98478">
        <ele>112</ele>
        <time>2015-03-07T13:17:42Z</time>
      </trkpt>
      <trkpt lat="48.32466" lon="2.98489">
        <ele>112</ele>
        <time>2015-03-07T13:17:47Z</time>
      </trkpt>
      <trkpt lat="48.32468" lon="2.98502">
        <ele>112</ele>
        <time>2015-03-07T13:17:53Z</time>
      </trkpt>
      <trkpt lat="48.32468" lon="2.98514">
        <ele>112</ele>
        <time>2015-03-07T13:17:59Z</time>
      </trkpt>
      <trkpt lat="48.32468" lon="2.98525">
        <ele>112</ele>
        <time>2015-03-07T13:18:05Z</time>
      </trkpt>
      <trkpt lat="48.3247" lon="2.98538">
        <ele>112</ele>
        <time>2015-03-07T13:18:10Z</time>
      </trkpt>
      <trkpt lat="48.32471" lon="2.9855">
        <ele>113</ele>
        <time>2015-03-07T13:18:15Z</time>
      </trkpt>
      <trkpt lat="48.32473" lon="2.98563">
        <ele>113</ele>
        <time>2015-03-07T13:18:21Z</time>
      </trkpt>
      <trkpt lat="48.32475" lon="2.98574">
        <ele>113</ele>
        <time>2015-03-07T13:18:27Z</time>
      </trkpt>
      <trkpt lat="48.32475" lon="2.98585">
        <ele>113</ele>
        <time>2015-03-07T13:18:31Z</time>
      </trkpt>
      <trkpt lat="48.32475" lon="2.98597">
        <ele>114</ele>
        <time>2015-03-07T13:18:37Z</time>
      </trkpt>
      <trkpt lat="48.32477" lon="2.98609">
        <ele>114</ele>
        <time>2015-03-07T13:18:42Z</time>
      </trkpt>
      <trkpt lat="48.32479" lon="2.98622">
        <ele>114</ele>
        <time>2015-03-07T13:18:49Z</time>
      </trkpt>
      <trkpt lat="48.3248" lon="2.98635">
        <ele>113</ele>
        <time>2015-03-07T13:18:56Z</time>
      </trkpt>
      <trkpt lat="48.32482" lon="2.98648">
        <ele>113</ele>
        <time>2015-03-07T13:19:02Z</time>
      </trkpt>
      <trkpt lat="48.32486" lon="2.98659">
        <ele>113</ele>
        <time>2015-03-07T13:19:07Z</time>
      </trkpt>
      <trkpt lat="48.32488" lon="2.98671">
        <ele>112</ele>
        <time>2015-03-07T13:19:13Z</time>
      </trkpt>
      <trkpt lat="48.3249" lon="2.98684">
        <ele>111</ele>
        <time>2015-03-07T13:19:19Z</time>
      </trkpt>
      <trkpt lat="48.32491" lon="2.98696">
        <ele>111</ele>
        <time>2015-03-07T13:19:24Z</time>
      </trkpt>
      <trkpt lat="48.32493" lon="2.98707">
        <ele>111</ele>
        <time>2015-03-07T13:19:29Z</time>
      </trkpt>
      <trkpt lat="48.32494" lon="2.9872">
        <ele>110</ele>
        <time>2015-03-07T13:19:34Z</time>
      </trkpt>
      <trkpt lat="48.32497" lon="2.98732">
        <ele>110</ele>
        <time>2015-03-07T13:19:39Z</time>
      </trkpt>
      <trkpt lat="48.32499" lon="2.98742">
        <ele>110</ele>
        <time>2015-03-07T13:19:45Z</time>
      </trkpt>
      <trkpt lat="48.32501" lon="2.98753">
        <ele>109</ele>
        <time>2015-03-07T13:19:50Z</time>
      </trkpt>
      <trkpt lat="48.32501" lon="2.98765">
        <ele>109</ele>
        <time>2015-03-07T13:19:55Z</time>
      </trkpt>
      <trkpt lat="48.32504" lon="2.98777">
        <ele>109</ele>
        <time>2015-03-07T13:20:01Z</time>
      </trkpt>
      <trkpt lat="48.32505" lon="2.98789">
        <ele>108</ele>
        <time>2015-03-07T13:20:07Z</time>
      </trkpt>
      <trkpt lat="48.32507" lon="2.98802">
        <ele>108</ele>
        <time>2015-03-07T13:20:12Z</time>
      </trkpt>
      <trkpt lat="48.32509" lon="2.98815">
        <ele>108</ele>
        <time>2015-03-07T13:20:19Z</time>
      </trkpt>
      <trkpt lat="48.32512" lon="2.98828">
        <ele>108</ele>
        <time>2015-03-07T13:20:24Z</time>
      </trkpt>
      <trkpt lat="48.32516" lon="2.98839">
        <ele>108</ele>
        <time>2015-03-07T13:20:31Z</time>
      </trkpt>
      <trkpt lat="48.32518" lon="2.98852">
        <ele>108</ele>
        <time>2015-03-07T13:20:38Z</time>
      </trkpt>
      <trkpt lat="48.3252" lon="2.98863">
        <ele>108</ele>
        <time>2015-03-07T13:20:43Z</time>
      </trkpt>
      <trkpt lat="48.32521" lon="2.98875">
        <ele>109</ele>
        <time>2015-03-07T13:20:48Z</time>
      </trkpt>
      <trkpt lat="48.32523" lon="2.98888">
        <ele>109</ele>
        <time>2015-03-07T13:20:54Z</time>
      </trkpt>
      <trkpt lat="48.32524" lon="2.98901">
        <ele>110</ele>
        <time>2015-03-07T13:21:00Z</time>
      </trkpt>
      <trkpt lat="48.32525" lon="2.98913">
        <ele>110</ele>
        <time>2015-03-07T13:21:06Z</time>
      </trkpt>
      <trkpt lat="48.32525" lon="2.98924">
        <ele>109</ele>
        <time>2015-03-07T13:21:11Z</time>
      </trkpt>
      <trkpt lat="48.32526" lon="2.98937">
        <ele>109</ele>
        <time>2015-03-07T13:21:16Z</time>
      </trkpt>
      <trkpt lat="48.32528" lon="2.98948">
        <ele>109</ele>
        <time>2015-03-07T13:21:20Z</time>
      </trkpt>
      <trkpt lat="48.32529" lon="2.98959">
        <ele>109</ele>
        <time>2015-03-07T13:21:25Z</time>
      </trkpt>
      <trkpt lat="48.32531" lon="2.98971">
        <ele>109</ele>
        <time>2015-03-07T13:21:30Z</time>
      </trkpt>
      <trkpt lat="48.32534" lon="2.98984">
        <ele>110</ele>
        <time>2015-03-07T13:21:38Z</time>
      </trkpt>
      <trkpt lat="48.32534" lon="2.98995">
        <ele>110</ele>
        <time>2015-03-07T13:21:43Z</time>
      </trkpt>
      <trkpt lat="48.32536" lon="2.99006">
        <ele>111</ele>
        <time>2015-03-07T13:21:48Z</time>
      </trkpt>
      <trkpt lat="48.32538" lon="2.99018">
        <ele>110</ele>
        <time>2015-03-07T13:21:54Z</time>
      </trkpt>
      <trkpt lat="48.32541" lon="2.9903">
        <ele>110</ele>
        <time>2015-03-07T13:22:01Z</time>
      </trkpt>
      <trkpt lat="48.32543" lon="2.99042">
        <ele>110</ele>
        <time>2015-03-07T13:22:08Z</time>
      </trkpt>
      <trkpt lat="48.32545" lon="2.99054">
        <ele>110</ele>
        <time>2015-03-07T13:22:16Z</time>
      </trkpt>
      <trkpt lat="48.32548" lon="2.99066">
        <ele>110</ele>
        <time>2015-03-07T13:22:21Z</time>
      </trkpt>
      <trkpt lat="48.32551" lon="2.99077">
        <ele>110</ele>
        <time>2015-03-07T13:22:26Z</time>
      </trkpt>
      <trkpt lat="48.32552" lon="2.99088">
        <ele>110</ele>
        <time>2015-03-07T13:22:31Z</time>
      </trkpt>
      <trkpt lat="48.32553" lon="2.991">
        <ele>110</ele>
        <time>2015-03-07T13:22:36Z</time>
      </trkpt>
      <trkpt lat="48.32556" lon="2.99111">
        <ele>110</ele>
        <time>2015-03-07T13:22:43Z</time>
      </trkpt>
      <trkpt lat="48.32557" lon="2.99123">
        <ele>110</ele>
        <time>2015-03-07T13:22:50Z</time>
      </trkpt>
      <trkpt lat="48.32558" lon="2.99136">
        <ele>110</ele>
        <time>2015-03-07T13:22:55Z</time>
      </trkpt>
      <trkpt lat="48.32561" lon="2.99147">
        <ele>110</ele>
        <time>2015-03-07T13:23:01Z</time>
      </trkpt>
      <trkpt lat="48.32564" lon="2.99159">
        <ele>110</ele>
        <time>2015-03-07T13:23:08Z</time>
      </trkpt>
      <trkpt lat="48.32565" lon="2.99172">
        <ele>110</ele>
        <time>2015-03-07T13:23:14Z</time>
      </trkpt>
      <trkpt lat="48.32567" lon="2.99184">
        <ele>109</ele>
        <time>2015-03-07T13:23:21Z</time>
      </trkpt>
      <trkpt lat="48.32568" lon="2.99197">
        <ele>108</ele>
        <time>2015-03-07T13:23:27Z</time>
      </trkpt>
      <trkpt lat="48.3257" lon="2.99209">
        <ele>108</ele>
        <time>2015-03-07T13:23:32Z</time>
      </trkpt>
      <trkpt lat="48.32572" lon="2.99222">
        <ele>107</ele>
        <time>2015-03-07T13:23:39Z</time>
      </trkpt>
      <trkpt lat="48.32574" lon="2.99233">
        <ele>107</ele>
        <time>2015-03-07T13:23:47Z</time>
      </trkpt>
      <trkpt lat="48.32576" lon="2.99245">
        <ele>107</ele>
        <time>2015-03-07T13:23:52Z</time>
      </trkpt>
      <trkpt lat="48.32576" lon="2.99258">
        <ele>107</ele>
        <time>2015-03-07T13:23:57Z</time>
      </trkpt>
      <trkpt lat="48.32577" lon="2.9927">
        <ele>106</ele>
        <time>2015-03-07T13:24:02Z</time>
      </trkpt>
      <trkpt lat="48.32577" lon="2.99283">
        <ele>106</ele>
        <time>2015-03-07T13:24:08Z</time>
      </trkpt>
      <trkpt lat="48.32578" lon="2.99296">
        <ele>107</ele>
        <time>2015-03-07T13:24:14Z</time>
      </trkpt>
      <trkpt lat="48.32581" lon="2.99308">
        <ele>107</ele>
        <time>2015-03-07T13:24:20Z</time>
      </trkpt>
      <trkpt lat="48.32584" lon="2.9932">
        <ele>106</ele>
        <time>2015-03-07T13:24:26Z</time>
      </trkpt>
      <trkpt lat="48.32584" lon="2.99332">
        <ele>106</ele>
        <time>2015-03-07T13:24:31Z</time>
      </trkpt>
      <trkpt lat="48.32586" lon="2.99344">
        <ele>106</ele>
        <time>2015-03-07T13:24:37Z</time>
      </trkpt>
      <trkpt lat="48.32588" lon="2.99357">
        <ele>106</ele>
        <time>2015-03-07T13:24:43Z</time>
      </trkpt>
      <trkpt lat="48.32591" lon="2.99369">
        <ele>106</ele>
        <time>2015-03-07T13:24:51Z</time>
      </trkpt>
      <trkpt lat="48.32592" lon="2.99381">
        <ele>106</ele>
        <time>2015-03-07T13:24:56Z</time>
      </trkpt>
      <trkpt lat="48.32594" lon="2.99393">
        <ele>106</ele>
        <time>2015-03-07T13:25:01Z</time>
      </trkpt>
      <trkpt lat="48.32595" lon="2.99405">
        <ele>105</ele>
        <time>2015-03-07T13:25:07Z</time>
      </trkpt>
      <trkpt lat="48.32597" lon="2.99417">
        <ele>105</ele>
        <time>2015-03-07T13:25:13Z</time>
      </trkpt>
      <trkpt lat="48.32599" lon="2.9943">
        <ele>106</ele>
        <time>2015-03-07T13:25:19Z</time>
      </trkpt>
      <trkpt lat="48.326" lon="2.99443">
        <ele>106</ele>
        <time>2015-03-07T13:25:26Z</time>
      </trkpt>
      <trkpt lat="48.32602" lon="2.99455">
        <ele>106</ele>
        <time>2015-03-07T13:25:33Z</time>
      </trkpt>
      <trkpt lat="48.32606" lon="2.99467">
        <ele>107</ele>
        <time>2015-03-07T13:25:39Z</time>
      </trkpt>
      <trkpt lat="48.3261" lon="2.99479">
        <ele>108</ele>
        <time>2015-03-07T13:25:45Z</time>
      </trkpt>
      <trkpt lat="48.3261" lon="2.99492">
        <ele>108</ele>
        <time>2015-03-07T13:25:51Z</time>
      </trkpt>
      <trkpt lat="48.32611" lon="2.99505">
        <ele>109</ele>
        <time>2015-03-07T13:25:57Z</time>
      </trkpt>
      <trkpt lat="48.32613" lon="2.99518">
        <ele>110</ele>
        <time>2015-03-07T13:26:03Z</time>
      </trkpt>
      <trkpt lat="48.32615" lon="2.9953">
        <ele>110</ele>
        <time>2015-03-07T13:26:10Z</time>
      </trkpt>
      <trkpt lat="48.32616" lon="2.99542">
        <ele>111</ele>
        <time>2015-03-07T13:26:16Z</time>
      </trkpt>
      <trkpt lat="48.32618" lon="2.99555">
        <ele>112</ele>
        <time>2015-03-07T13:26:23Z</time>
      </trkpt>
      <trkpt lat="48.3262" lon="2.99568">
        <ele>112</ele>
        <time>2015-03-07T13:26:29Z</time>
      </trkpt>
      <trkpt lat="48.32623" lon="2.99579">
        <ele>112</ele>
        <time>2015-03-07T13:26:35Z</time>
      </trkpt>
      <trkpt lat="48.32625" lon="2.99591">
        <ele>112</ele>
        <time>2015-03-07T13:26:42Z</time>
      </trkpt>
      <trkpt lat="48.32627" lon="2.99602">
        <ele>112</ele>
        <time>2015-03-07T13:26:47Z</time>
      </trkpt>
      <trkpt lat="48.32629" lon="2.99615">
        <ele>112</ele>
        <time>2015-03-07T13:26:52Z</time>
      </trkpt>
      <trkpt lat="48.32631" lon="2.99627">
        <ele>112</ele>
        <time>2015-03-07T13:26:58Z</time>
      </trkpt>
      <trkpt lat="48.32633" lon="2.99639">
        <ele>112</ele>
        <time>2015-03-07T13:27:04Z</time>
      </trkpt>
      <trkpt lat="48.32636" lon="2.99651">
        <ele>112</ele>
        <time>2015-03-07T13:27:13Z</time>
      </trkpt>
      <trkpt lat="48.32639" lon="2.99662">
        <ele>113</ele>
        <time>2015-03-07T13:27:19Z</time>
      </trkpt>
      <trkpt lat="48.32639" lon="2.99675">
        <ele>113</ele>
        <time>2015-03-07T13:27:24Z</time>
      </trkpt>
      <trkpt lat="48.32639" lon="2.99688">
        <ele>112</ele>
        <time>2015-03-07T13:27:30Z</time>
      </trkpt>
      <trkpt lat="48.32641" lon="2.997">
        <ele>113</ele>
        <time>2015-03-07T13:27:36Z</time>
      </trkpt>
      <trkpt lat="48.32645" lon="2.99712">
        <ele>113</ele>
        <time>2015-03-07T13:27:41Z</time>
      </trkpt>
      <trkpt lat="48.3265" lon="2.99721">
        <ele>112</ele>
        <time>2015-03-07T13:27:46Z</time>
      </trkpt>
      <trkpt lat="48.32655" lon="2.99731">
        <ele>112</ele>
        <time>2015-03-07T13:27:52Z</time>
      </trkpt>
      <trkpt lat="48.32661" lon="2.9974">
        <ele>111</ele>
        <time>2015-03-07T13:27:59Z</time>
      </trkpt>
      <trkpt lat="48.32666" lon="2.9975">
        <ele>110</ele>
        <time>2015-03-07T13:28:09Z</time>
      </trkpt>
      <trkpt lat="48.32672" lon="2.9976">
        <ele>110</ele>
        <time>2015-03-07T13:28:15Z</time>
      </trkpt>
      <trkpt lat="48.32676" lon="2.99771">
        <ele>109</ele>
        <time>2015-03-07T13:28:21Z</time>
      </trkpt>
      <trkpt lat="48.32683" lon="2.99779">
        <ele>109</ele>
        <time>2015-03-07T13:28:26Z</time>
      </trkpt>
      <trkpt lat="48.32691" lon="2.99786">
        <ele>109</ele>
        <time>2015-03-07T13:28:32Z</time>
      </trkpt>
      <trkpt lat="48.32697" lon="2.99792">
        <ele>110</ele>
        <time>2015-03-07T13:28:39Z</time>
      </trkpt>
      <trkpt lat="48.32703" lon="2.99799">
        <ele>110</ele>
        <time>2015-03-07T13:28:46Z</time>
      </trkpt>
      <trkpt lat="48.32709" lon="2.99807">
        <ele>110</ele>
        <time>2015-03-07T13:28:51Z</time>
      </trkpt>
      <trkpt lat="48.32717" lon="2.9981">
        <ele>110</ele>
        <time>2015-03-07T13:29:28Z</time>
      </trkpt>
      <trkpt lat="48.32724" lon="2.99815">
        <ele>110</ele>
        <time>2015-03-07T13:29:33Z</time>
      </trkpt>
      <trkpt lat="48.3273" lon="2.99821">
        <ele>109</ele>
        <time>2015-03-07T13:29:39Z</time>
      </trkpt>
      <trkpt lat="48.32738" lon="2.99827">
        <ele>109</ele>
        <time>2015-03-07T13:29:45Z</time>
      </trkpt>
      <trkpt lat="48.32744" lon="2.99835">
        <ele>109</ele>
        <time>2015-03-07T13:29:50Z</time>
      </trkpt>
      <trkpt lat="48.3275" lon="2.99842">
        <ele>109</ele>
        <time>2015-03-07T13:29:54Z</time>
      </trkpt>
      <trkpt lat="48.32755" lon="2.99852">
        <ele>110</ele>
        <time>2015-03-07T13:30:00Z</time>
      </trkpt>
      <trkpt lat="48.32761" lon="2.99859">
        <ele>110</ele>
        <time>2015-03-07T13:30:05Z</time>
      </trkpt>
      <trkpt lat="48.32766" lon="2.99869">
        <ele>111</ele>
        <time>2015-03-07T13:30:11Z</time>
      </trkpt>
      <trkpt lat="48.32772" lon="2.99878">
        <ele>112</ele>
        <time>2015-03-07T13:30:19Z</time>
      </trkpt>
      <trkpt lat="48.32779" lon="2.99885">
        <ele>112</ele>
        <time>2015-03-07T13:30:24Z</time>
      </trkpt>
      <trkpt lat="48.32786" lon="2.99893">
        <ele>113</ele>
        <time>2015-03-07T13:30:31Z</time>
      </trkpt>
      <trkpt lat="48.32792" lon="2.99901">
        <ele>113</ele>
        <time>2015-03-07T13:30:38Z</time>
      </trkpt>
      <trkpt lat="48.32798" lon="2.99911">
        <ele>113</ele>
        <time>2015-03-07T13:30:44Z</time>
      </trkpt>
      <trkpt lat="48.32803" lon="2.9992">
        <ele>113</ele>
        <time>2015-03-07T13:30:49Z</time>
      </trkpt>
      <trkpt lat="48.32808" lon="2.99928">
        <ele>113</ele>
        <time>2015-03-07T13:30:54Z</time>
      </trkpt>
      <trkpt lat="48.32814" lon="2.99937">
        <ele>114</ele>
        <time>2015-03-07T13:31:00Z</time>
      </trkpt>
      <trkpt lat="48.3282" lon="2.99946">
        <ele>114</ele>
        <time>2015-03-07T13:31:06Z</time>
      </trkpt>
      <trkpt lat="48.32826" lon="2.99956">
        <ele>114</ele>
        <time>2015-03-07T13:31:12Z</time>
      </trkpt>
      <trkpt lat="48.32831" lon="2.99965">
        <ele>115</ele>
        <time>2015-03-07T13:31:19Z</time>
      </trkpt>
      <trkpt lat="48.32836" lon="2.99976">
        <ele>115</ele>
        <time>2015-03-07T13:31:25Z</time>
      </trkpt>
      <trkpt lat="48.32842" lon="2.99985">
        <ele>115</ele>
        <time>2015-03-07T13:31:30Z</time>
      </trkpt>
      <trkpt lat="48.32848" lon="2.99991">
        <ele>115</ele>
        <time>2015-03-07T13:31:34Z</time>
      </trkpt>
      <trkpt lat="48.32853" lon="3">
        <ele>115</ele>
        <time>2015-03-07T13:31:39Z</time>
      </trkpt>
      <trkpt lat="48.3286" lon="3.00009">
        <ele>115</ele>
        <time>2015-03-07T13:31:47Z</time>
      </trkpt>
      <trkpt lat="48.32866" lon="3.00015">
        <ele>115</ele>
        <time>2015-03-07T13:31:52Z</time>
      </trkpt>
      <trkpt lat="48.32873" lon="3.00021">
        <ele>115</ele>
        <time>2015-03-07T13:31:58Z</time>
      </trkpt>
      <trkpt lat="48.3288" lon="3.00028">
        <ele>115</ele>
        <time>2015-03-07T13:32:04Z</time>
      </trkpt>
      <trkpt lat="48.32886" lon="3.00037">
        <ele>115</ele>
        <time>2015-03-07T13:32:10Z</time>
      </trkpt>
      <trkpt lat="48.32893" lon="3.00044">
        <ele>115</ele>
        <time>2015-03-07T13:32:16Z</time>
      </trkpt>
      <trkpt lat="48.32899" lon="3.00051">
        <ele>114</ele>
        <time>2015-03-07T13:32:22Z</time>
      </trkpt>
      <trkpt lat="48.32907" lon="3.00057">
        <ele>114</ele>
        <time>2015-03-07T13:32:27Z</time>
      </trkpt>
      <trkpt lat="48.32914" lon="3.00063">
        <ele>114</ele>
        <time>2015-03-07T13:32:33Z</time>
      </trkpt>
      <trkpt lat="48.32919" lon="3.00072">
        <ele>114</ele>
        <time>2015-03-07T13:33:01Z</time>
      </trkpt>
      <trkpt lat="48.32926" lon="3.00082">
        <ele>115</ele>
        <time>2015-03-07T13:33:05Z</time>
      </trkpt>
      <trkpt lat="48.32933" lon="3.00089">
        <ele>116</ele>
        <time>2015-03-07T13:33:09Z</time>
      </trkpt>
      <trkpt lat="48.32937" lon="3.00101">
        <ele>117</ele>
        <time>2015-03-07T13:33:15Z</time>
      </trkpt>
      <trkpt lat="48.32941" lon="3.00111">
        <ele>118</ele>
        <time>2015-03-07T13:33:24Z</time>
      </trkpt>
      <trkpt lat="48.32944" lon="3.00122">
        <ele>118</ele>
        <time>2015-03-07T13:33:30Z</time>
      </trkpt>
      <trkpt lat="48.32947" lon="3.00132">
        <ele>118</ele>
        <time>2015-03-07T13:33:34Z</time>
      </trkpt>
      <trkpt lat="48.32952" lon="3.00142">
        <ele>118</ele>
        <time>2015-03-07T13:33:39Z</time>
      </trkpt>
      <trkpt lat="48.32957" lon="3.00151">
        <ele>118</ele>
        <time>2015-03-07T13:33:44Z</time>
      </trkpt>
      <trkpt lat="48.32962" lon="3.00162">
        <ele>118</ele>
        <time>2015-03-07T13:33:50Z</time>
      </trkpt>
      <trkpt lat="48.32966" lon="3.00172">
        <ele>118</ele>
        <time>2015-03-07T13:33:55Z</time>
      </trkpt>
      <trkpt lat="48.3297" lon="3.00184">
        <ele>118</ele>
        <time>2015-03-07T13:34:01Z</time>
      </trkpt>
      <trkpt lat="48.32973" lon="3.00195">
        <ele>117</ele>
        <time>2015-03-07T13:34:07Z</time>
      </trkpt>
      <trkpt lat="48.32977" lon="3.00206">
        <ele>117</ele>
        <time>2015-03-07T13:34:12Z</time>
      </trkpt>
      <trkpt lat="48.32981" lon="3.00217">
        <ele>117</ele>
        <time>2015-03-07T13:34:18Z</time>
      </trkpt>
      <trkpt lat="48.32986" lon="3.00226">
        <ele>117</ele>
        <time>2015-03-07T13:34:23Z</time>
      </trkpt>
      <trkpt lat="48.32991" lon="3.00237">
        <ele>117</ele>
        <time>2015-03-07T13:34:29Z</time>
      </trkpt>
      <trkpt lat="48.32996" lon="3.00246">
        <ele>117</ele>
        <time>2015-03-07T13:34:34Z</time>
      </trkpt>
      <trkpt lat="48.33" lon="3.00257">
        <ele>117</ele>
        <time>2015-03-07T13:34:40Z</time>
      </trkpt>
      <trkpt lat="48.33005" lon="3.00267">
        <ele>116</ele>
        <time>2015-03-07T13:34:45Z</time>
      </trkpt>
      <trkpt lat="48.33009" lon="3.00277">
        <ele>116</ele>
        <time>2015-03-07T13:34:50Z</time>
      </trkpt>
      <trkpt lat="48.33015" lon="3.00286">
        <ele>116</ele>
        <time>2015-03-07T13:34:55Z</time>
      </trkpt>
      <trkpt lat="48.33019" lon="3.00296">
        <ele>115</ele>
        <time>2015-03-07T13:35:01Z</time>
      </trkpt>
      <trkpt lat="48.33025" lon="3.00305">
        <ele>115</ele>
        <time>2015-03-07T13:35:07Z</time>
      </trkpt>
      <trkpt lat="48.33031" lon="3.00315">
        <ele>116</ele>
        <time>2015-03-07T13:35:13Z</time>
      </trkpt>
      <trkpt lat="48.33037" lon="3.00323">
        <ele>116</ele>
        <time>2015-03-07T13:35:20Z</time>
      </trkpt>
      <trkpt lat="48.33044" lon="3.00332">
        <ele>116</ele>
        <time>2015-03-07T13:35:25Z</time>
      </trkpt>
      <trkpt lat="48.33049" lon="3.00341">
        <ele>116</ele>
        <time>2015-03-07T13:35:30Z</time>
      </trkpt>
      <trkpt lat="48.33056" lon="3.00349">
        <ele>116</ele>
        <time>2015-03-07T13:35:35Z</time>
      </trkpt>
      <trkpt lat="48.33062" lon="3.00357">
        <ele>116</ele>
        <time>2015-03-07T13:35:41Z</time>
      </trkpt>
      <trkpt lat="48.33065" lon="3.00366">
        <ele>116</ele>
        <time>2015-03-07T13:35:45Z</time>
      </trkpt>
      <trkpt lat="48.33069" lon="3.00377">
        <ele>116</ele>
        <time>2015-03-07T13:35:50Z</time>
      </trkpt>
      <trkpt lat="48.33073" lon="3.00386">
        <ele>116</ele>
        <time>2015-03-07T13:35:55Z</time>
      </trkpt>
      <trkpt lat="48.33079" lon="3.00395">
        <ele>115</ele>
        <time>2015-03-07T13:36:00Z</time>
      </trkpt>
      <trkpt lat="48.33085" lon="3.00403">
        <ele>115</ele>
        <time>2015-03-07T13:36:05Z</time>
      </trkpt>
      <trkpt lat="48.33091" lon="3.00412">
        <ele>114</ele>
        <time>2015-03-07T13:36:11Z</time>
      </trkpt>
      <trkpt lat="48.33097" lon="3.0042">
        <ele>114</ele>
        <time>2015-03-07T13:36:17Z</time>
      </trkpt>
      <trkpt lat="48.33103" lon="3.00427">
        <ele>113</ele>
        <time>2015-03-07T13:36:22Z</time>
      </trkpt>
      <trkpt lat="48.3311" lon="3.00436">
        <ele>113</ele>
        <time>2015-03-07T13:36:28Z</time>
      </trkpt>
      <trkpt lat="48.33116" lon="3.00444">
        <ele>112</ele>
        <time>2015-03-07T13:36:34Z</time>
      </trkpt>
      <trkpt lat="48.33123" lon="3.00454">
        <ele>112</ele>
        <time>2015-03-07T13:36:39Z</time>
      </trkpt>
      <trkpt lat="48.33131" lon="3.0046">
        <ele>112</ele>
        <time>2015-03-07T13:36:45Z</time>
      </trkpt>
      <trkpt lat="48.33137" lon="3.00467">
        <ele>112</ele>
        <time>2015-03-07T13:36:51Z</time>
      </trkpt>
      <trkpt lat="48.33143" lon="3.00473">
        <ele>111</ele>
        <time>2015-03-07T13:36:56Z</time>
      </trkpt>
      <trkpt lat="48.33149" lon="3.00482">
        <ele>111</ele>
        <time>2015-03-07T13:37:02Z</time>
      </trkpt>
      <trkpt lat="48.33155" lon="3.00492">
        <ele>111</ele>
        <time>2015-03-07T13:37:07Z</time>
      </trkpt>
      <trkpt lat="48.3316" lon="3.00502">
        <ele>111</ele>
        <time>2015-03-07T13:37:13Z</time>
      </trkpt>
      <trkpt lat="48.33166" lon="3.00511">
        <ele>110</ele>
        <time>2015-03-07T13:37:19Z</time>
      </trkpt>
      <trkpt lat="48.33175" lon="3.0051">
        <ele>110</ele>
        <time>2015-03-07T13:37:26Z</time>
      </trkpt>
      <trkpt lat="48.33183" lon="3.00503">
        <ele>110</ele>
        <time>2015-03-07T13:37:31Z</time>
      </trkpt>
      <trkpt lat="48.3319" lon="3.00497">
        <ele>109</ele>
        <time>2015-03-07T13:37:37Z</time>
      </trkpt>
      <trkpt lat="48.33198" lon="3.00491">
        <ele>109</ele>
        <time>2015-03-07T13:37:42Z</time>
      </trkpt>
      <trkpt lat="48.33204" lon="3.00488">
        <ele>109</ele>
        <time>2015-03-07T13:37:46Z</time>
      </trkpt>
      <trkpt lat="48.33211" lon="3.00482">
        <ele>109</ele>
        <time>2015-03-07T13:37:51Z</time>
      </trkpt>
      <trkpt lat="48.33219" lon="3.00476">
        <ele>109</ele>
        <time>2015-03-07T13:37:57Z</time>
      </trkpt>
      <trkpt lat="48.33227" lon="3.0047">
        <ele>109</ele>
        <time>2015-03-07T13:38:02Z</time>
      </trkpt>
      <trkpt lat="48.33235" lon="3.00466">
        <ele>109</ele>
        <time>2015-03-07T13:38:08Z</time>
      </trkpt>
      <trkpt lat="48.33242" lon="3.00459">
        <ele>110</ele>
        <time>2015-03-07T13:38:13Z</time>
      </trkpt>
      <trkpt lat="48.33249" lon="3.00452">
        <ele>110</ele>
        <time>2015-03-07T13:38:19Z</time>
      </trkpt>
      <trkpt lat="48.33256" lon="3.00446">
        <ele>111</ele>
        <time>2015-03-07T13:38:24Z</time>
      </trkpt>
      <trkpt lat="48.33263" lon="3.00442">
        <ele>111</ele>
        <time>2015-03-07T13:38:29Z</time>
      </trkpt>
      <trkpt lat="48.33271" lon="3.00436">
        <ele>111</ele>
        <time>2015-03-07T13:38:34Z</time>
      </trkpt>
      <trkpt lat="48.33278" lon="3.0043">
        <ele>112</ele>
        <time>2015-03-07T13:38:40Z</time>
      </trkpt>
      <trkpt lat="48.33286" lon="3.00423">
        <ele>112</ele>
        <time>2015-03-07T13:38:46Z</time>
      </trkpt>
      <trkpt lat="48.33292" lon="3.00417">
        <ele>112</ele>
        <time>2015-03-07T13:38:51Z</time>
      </trkpt>
      <trkpt lat="48.333" lon="3.00412">
        <ele>111</ele>
        <time>2015-03-07T13:38:56Z</time>
      </trkpt>
      <trkpt lat="48.33308" lon="3.00407">
        <ele>111</ele>
        <time>2015-03-07T13:39:01Z</time>
      </trkpt>
      <trkpt lat="48.33315" lon="3.00402">
        <ele>111</ele>
        <time>2015-03-07T13:39:06Z</time>
      </trkpt>
      <trkpt lat="48.33322" lon="3.00396">
        <ele>111</ele>
        <time>2015-03-07T13:39:12Z</time>
      </trkpt>
      <trkpt lat="48.3333" lon="3.00389">
        <ele>111</ele>
        <time>2015-03-07T13:39:18Z</time>
      </trkpt>
      <trkpt lat="48.33337" lon="3.00383">
        <ele>110</ele>
        <time>2015-03-07T13:39:24Z</time>
      </trkpt>
      <trkpt lat="48.33345" lon="3.0038">
        <ele>110</ele>
        <time>2015-03-07T13:39:30Z</time>
      </trkpt>
      <trkpt lat="48.33354" lon="3.0038">
        <ele>109</ele>
        <time>2015-03-07T13:39:35Z</time>
      </trkpt>
      <trkpt lat="48.33362" lon="3.00379">
        <ele>109</ele>
        <time>2015-03-07T13:39:40Z</time>
      </trkpt>
      <trkpt lat="48.33371" lon="3.00378">
        <ele>108</ele>
        <time>2015-03-07T13:39:47Z</time>
      </trkpt>
      <trkpt lat="48.3338" lon="3.00377">
        <ele>108</ele>
        <time>2015-03-07T13:39:53Z</time>
      </trkpt>
      <trkpt lat="48.33388" lon="3.00374">
        <ele>108</ele>
        <time>2015-03-07T13:39:59Z</time>
      </trkpt>
      <trkpt lat="48.33395" lon="3.00373">
        <ele>107</ele>
        <time>2015-03-07T13:40:05Z</time>
      </trkpt>
      <trkpt lat="48.33404" lon="3.00373">
        <ele>107</ele>
        <time>2015-03-07T13:40:12Z</time>
      </trkpt>
      <trkpt lat="48.33411" lon="3.00373">
        <ele>106</ele>
        <time>2015-03-07T13:40:17Z</time>
      </trkpt>
      <trkpt lat="48.33419" lon="3.00372">
        <ele>106</ele>
        <time>2015-03-07T13:40:22Z</time>
      </trkpt>
      <trkpt lat="48.33427" lon="3.00374">
        <ele>106</ele>
        <time>2015-03-07T13:40:28Z</time>
      </trkpt>
      <trkpt lat="48.33435" lon="3.00374">
        <ele>105</ele>
        <time>2015-03-07T13:40:33Z</time>
      </trkpt>
      <trkpt lat="48.33442" lon="3.00377">
        <ele>105</ele>
        <time>2015-03-07T13:40:38Z</time>
      </trkpt>
      <trkpt lat="48.3345" lon="3.00377">
        <ele>104</ele>
        <time>2015-03-07T13:40:46Z</time>
      </trkpt>
      <trkpt lat="48.33462" lon="3.00382">
        <ele>103</ele>
        <time>2015-03-07T13:40:51Z</time>
      </trkpt>
      <trkpt lat="48.3347" lon="3.00386">
        <ele>102</ele>
        <time>2015-03-07T13:40:55Z</time>
      </trkpt>
      <trkpt lat="48.33478" lon="3.00389">
        <ele>102</ele>
        <time>2015-03-07T13:41:00Z</time>
      </trkpt>
      <trkpt lat="48.33486" lon="3.0039">
        <ele>101</ele>
        <time>2015-03-07T13:41:06Z</time>
      </trkpt>
      <trkpt lat="48.33494" lon="3.00391">
        <ele>101</ele>
        <time>2015-03-07T13:41:12Z</time>
      </trkpt>
      <trkpt lat="48.33503" lon="3.00392">
        <ele>100</ele>
        <time>2015-03-07T13:41:17Z</time>
      </trkpt>
      <trkpt lat="48.3351" lon="3.00392">
        <ele>99</ele>
        <time>2015-03-07T13:41:21Z</time>
      </trkpt>
      <trkpt lat="48.33519" lon="3.00395">
        <ele>99</ele>
        <time>2015-03-07T13:41:27Z</time>
      </trkpt>
      <trkpt lat="48.33528" lon="3.00392">
        <ele>99</ele>
        <time>2015-03-07T13:41:35Z</time>
      </trkpt>
      <trkpt lat="48.33536" lon="3.00395">
        <ele>99</ele>
        <time>2015-03-07T13:41:41Z</time>
      </trkpt>
      <trkpt lat="48.33546" lon="3.00397">
        <ele>98</ele>
        <time>2015-03-07T13:41:46Z</time>
      </trkpt>
      <trkpt lat="48.33554" lon="3.004">
        <ele>99</ele>
        <time>2015-03-07T13:41:52Z</time>
      </trkpt>
      <trkpt lat="48.33563" lon="3.00401">
        <ele>99</ele>
        <time>2015-03-07T13:41:59Z</time>
      </trkpt>
      <trkpt lat="48.33572" lon="3.00402">
        <ele>99</ele>
        <time>2015-03-07T13:42:10Z</time>
      </trkpt>
      <trkpt lat="48.3358" lon="3.00403">
        <ele>99</ele>
        <time>2015-03-07T13:42:15Z</time>
      </trkpt>
      <trkpt lat="48.33589" lon="3.00408">
        <ele>98</ele>
        <time>2015-03-07T13:42:20Z</time>
      </trkpt>
      <trkpt lat="48.33597" lon="3.00411">
        <ele>98</ele>
        <time>2015-03-07T13:42:25Z</time>
      </trkpt>
      <trkpt lat="48.33606" lon="3.00415">
        <ele>98</ele>
        <time>2015-03-07T13:42:29Z</time>
      </trkpt>
      <trkpt lat="48.33615" lon="3.00418">
        <ele>98</ele>
        <time>2015-03-07T13:42:35Z</time>
      </trkpt>
      <trkpt lat="48.33624" lon="3.00419">
        <ele>98</ele>
        <time>2015-03-07T13:42:42Z</time>
      </trkpt>
      <trkpt lat="48.33632" lon="3.0042">
        <ele>98</ele>
        <time>2015-03-07T13:42:47Z</time>
      </trkpt>
      <trkpt lat="48.3364" lon="3.00422">
        <ele>98</ele>
        <time>2015-03-07T13:42:52Z</time>
      </trkpt>
      <trkpt lat="48.33648" lon="3.00422">
        <ele>98</ele>
        <time>2015-03-07T13:42:57Z</time>
      </trkpt>
      <trkpt lat="48.33657" lon="3.00423">
        <ele>98</ele>
        <time>2015-03-07T13:43:03Z</time>
      </trkpt>
      <trkpt lat="48.33666" lon="3.00426">
        <ele>98</ele>
        <time>2015-03-07T13:43:10Z</time>
      </trkpt>
      <trkpt lat="48.33673" lon="3.0043">
        <ele>98</ele>
        <time>2015-03-07T13:43:15Z</time>
      </trkpt>
      <trkpt lat="48.3368" lon="3.00434">
        <ele>98</ele>
        <time>2015-03-07T13:43:20Z</time>
      </trkpt>
      <trkpt lat="48.33688" lon="3.00437">
        <ele>99</ele>
        <time>2015-03-07T13:43:26Z</time>
      </trkpt>
      <trkpt lat="48.33696" lon="3.00438">
        <ele>99</ele>
        <time>2015-03-07T13:43:31Z</time>
      </trkpt>
      <trkpt lat="48.33704" lon="3.00442">
        <ele>98</ele>
        <time>2015-03-07T13:43:38Z</time>
      </trkpt>
      <trkpt lat="48.3371" lon="3.00444">
        <ele>98</ele>
        <time>2015-03-07T13:43:43Z</time>
      </trkpt>
      <trkpt lat="48.33721" lon="3.00445">
        <ele>98</ele>
        <time>2015-03-07T13:43:48Z</time>
      </trkpt>
      <trkpt lat="48.33728" lon="3.00448">
        <ele>98</ele>
        <time>2015-03-07T13:43:54Z</time>
      </trkpt>
      <trkpt lat="48.33736" lon="3.00454">
        <ele>98</ele>
        <time>2015-03-07T13:43:59Z</time>
      </trkpt>
      <trkpt lat="48.33745" lon="3.00459">
        <ele>98</ele>
        <time>2015-03-07T13:44:04Z</time>
      </trkpt>
      <trkpt lat="48.33753" lon="3.00464">
        <ele>98</ele>
        <time>2015-03-07T13:44:10Z</time>
      </trkpt>
      <trkpt lat="48.3376" lon="3.00468">
        <ele>97</ele>
        <time>2015-03-07T13:44:16Z</time>
      </trkpt>
      <trkpt lat="48.33769" lon="3.00471">
        <ele>97</ele>
        <time>2015-03-07T13:44:21Z</time>
      </trkpt>
      <trkpt lat="48.33777" lon="3.00471">
        <ele>97</ele>
        <time>2015-03-07T13:44:27Z</time>
      </trkpt>
      <trkpt lat="48.33786" lon="3.00473">
        <ele>96</ele>
        <time>2015-03-07T13:44:32Z</time>
      </trkpt>
      <trkpt lat="48.33794" lon="3.00476">
        <ele>96</ele>
        <time>2015-03-07T13:44:38Z</time>
      </trkpt>
      <trkpt lat="48.33801" lon="3.00479">
        <ele>96</ele>
        <time>2015-03-07T13:44:43Z</time>
      </trkpt>
      <trkpt lat="48.3381" lon="3.00481">
        <ele>96</ele>
        <time>2015-03-07T13:44:48Z</time>
      </trkpt>
      <trkpt lat="48.33818" lon="3.00482">
        <ele>95</ele>
        <time>2015-03-07T13:44:54Z</time>
      </trkpt>
      <trkpt lat="48.33827" lon="3.00484">
        <ele>95</ele>
        <time>2015-03-07T13:44:59Z</time>
      </trkpt>
      <trkpt lat="48.33836" lon="3.00485">
        <ele>94</ele>
        <time>2015-03-07T13:45:06Z</time>
      </trkpt>
      <trkpt lat="48.33843" lon="3.00486">
        <ele>94</ele>
        <time>2015-03-07T13:45:11Z</time>
      </trkpt>
      <trkpt lat="48.33852" lon="3.0049">
        <ele>94</ele>
        <time>2015-03-07T13:45:17Z</time>
      </trkpt>
      <trkpt lat="48.3386" lon="3.00494">
        <ele>94</ele>
        <time>2015-03-07T13:45:22Z</time>
      </trkpt>
      <trkpt lat="48.33869" lon="3.00496">
        <ele>94</ele>
        <time>2015-03-07T13:45:28Z</time>
      </trkpt>
      <trkpt lat="48.33877" lon="3.00502">
        <ele>94</ele>
        <time>2015-03-07T13:45:33Z</time>
      </trkpt>
      <trkpt lat="48.33883" lon="3.00507">
        <ele>94</ele>
        <time>2015-03-07T13:45:38Z</time>
      </trkpt>
      <trkpt lat="48.33891" lon="3.00514">
        <ele>93</ele>
        <time>2015-03-07T13:45:45Z</time>
      </trkpt>
      <trkpt lat="48.33895" lon="3.00524">
        <ele>92</ele>
        <time>2015-03-07T13:45:56Z</time>
      </trkpt>
      <trkpt lat="48.33898" lon="3.00534">
        <ele>91</ele>
        <time>2015-03-07T13:46:02Z</time>
      </trkpt>
      <trkpt lat="48.33902" lon="3.00545">
        <ele>90</ele>
        <time>2015-03-07T13:46:07Z</time>
      </trkpt>
      <trkpt lat="48.339" lon="3.00534">
        <ele>89</ele>
        <time>2015-03-07T13:46:32Z</time>
      </trkpt>
      <trkpt lat="48.33904" lon="3.00544">
        <ele>88</ele>
        <time>2015-03-07T13:47:41Z</time>
      </trkpt>
      <trkpt lat="48.33906" lon="3.00557">
        <ele>88</ele>
        <time>2015-03-07T13:47:46Z</time>
      </trkpt>
      <trkpt lat="48.33909" lon="3.00568">
        <ele>88</ele>
        <time>2015-03-07T13:47:53Z</time>
      </trkpt>
      <trkpt lat="48.33916" lon="3.00576">
        <ele>88</ele>
        <time>2015-03-07T13:47:59Z</time>
      </trkpt>
      <trkpt lat="48.33924" lon="3.00578">
        <ele>89</ele>
        <time>2015-03-07T13:48:14Z</time>
      </trkpt>
      <trkpt lat="48.33932" lon="3.0058">
        <ele>90</ele>
        <time>2015-03-07T13:48:19Z</time>
      </trkpt>
      <trkpt lat="48.33939" lon="3.00578">
        <ele>90</ele>
        <time>2015-03-07T13:48:23Z</time>
      </trkpt>
      <trkpt lat="48.33946" lon="3.00574">
        <ele>90</ele>
        <time>2015-03-07T13:48:27Z</time>
      </trkpt>
      <trkpt lat="48.33953" lon="3.00571">
        <ele>91</ele>
        <time>2015-03-07T13:48:31Z</time>
      </trkpt>
      <trkpt lat="48.3396" lon="3.00566">
        <ele>91</ele>
        <time>2015-03-07T13:48:36Z</time>
      </trkpt>
      <trkpt lat="48.33969" lon="3.00563">
        <ele>91</ele>
        <time>2015-03-07T13:48:42Z</time>
      </trkpt>
      <trkpt lat="48.33977" lon="3.00561">
        <ele>90</ele>
        <time>2015-03-07T13:48:48Z</time>
      </trkpt>
      <trkpt lat="48.33985" lon="3.00558">
        <ele>89</ele>
        <time>2015-03-07T13:48:54Z</time>
      </trkpt>
      <trkpt lat="48.33993" lon="3.00553">
        <ele>89</ele>
        <time>2015-03-07T13:48:59Z</time>
      </trkpt>
      <trkpt lat="48.34001" lon="3.0055">
        <ele>89</ele>
        <time>2015-03-07T13:49:04Z</time>
      </trkpt>
      <trkpt lat="48.3401" lon="3.00547">
        <ele>88</ele>
        <time>2015-03-07T13:49:09Z</time>
      </trkpt>
      <trkpt lat="48.34018" lon="3.00544">
        <ele>87</ele>
        <time>2015-03-07T13:49:14Z</time>
      </trkpt>
      <trkpt lat="48.34025" lon="3.00541">
        <ele>87</ele>
        <time>2015-03-07T13:49:19Z</time>
      </trkpt>
      <trkpt lat="48.34033" lon="3.00538">
        <ele>86</ele>
        <time>2015-03-07T13:49:25Z</time>
      </trkpt>
      <trkpt lat="48.34041" lon="3.00537">
        <ele>85</ele>
        <time>2015-03-07T13:49:30Z</time>
      </trkpt>
      <trkpt lat="48.34049" lon="3.00536">
        <ele>85</ele>
        <time>2015-03-07T13:49:36Z</time>
      </trkpt>
      <trkpt lat="48.34057" lon="3.00531">
        <ele>84</ele>
        <time>2015-03-07T13:49:42Z</time>
      </trkpt>
      <trkpt lat="48.34066" lon="3.00528">
        <ele>84</ele>
        <time>2015-03-07T13:49:50Z</time>
      </trkpt>
      <trkpt lat="48.34074" lon="3.00528">
        <ele>83</ele>
        <time>2015-03-07T13:49:55Z</time>
      </trkpt>
      <trkpt lat="48.3408" lon="3.00537">
        <ele>83</ele>
        <time>2015-03-07T13:50:01Z</time>
      </trkpt>
      <trkpt lat="48.34085" lon="3.00547">
        <ele>83</ele>
        <time>2015-03-07T13:50:07Z</time>
      </trkpt>
      <trkpt lat="48.34085" lon="3.00558">
        <ele>82</ele>
        <time>2015-03-07T13:50:13Z</time>
      </trkpt>
      <trkpt lat="48.34085" lon="3.00573">
        <ele>82</ele>
        <time>2015-03-07T13:50:18Z</time>
      </trkpt>
      <trkpt lat="48.34085" lon="3.00585">
        <ele>81</ele>
        <time>2015-03-07T13:50:22Z</time>
      </trkpt>
      <trkpt lat="48.34086" lon="3.00597">
        <ele>81</ele>
        <time>2015-03-07T13:50:27Z</time>
      </trkpt>
      <trkpt lat="48.34086" lon="3.00609">
        <ele>81</ele>
        <time>2015-03-07T13:50:32Z</time>
      </trkpt>
      <trkpt lat="48.34087" lon="3.00621">
        <ele>81</ele>
        <time>2015-03-07T13:50:37Z</time>
      </trkpt>
      <trkpt lat="48.34088" lon="3.00633">
        <ele>82</ele>
        <time>2015-03-07T13:50:44Z</time>
      </trkpt>
      <trkpt lat="48.34088" lon="3.00647">
        <ele>82</ele>
        <time>2015-03-07T13:50:49Z</time>
      </trkpt>
      <trkpt lat="48.3409" lon="3.00658">
        <ele>81</ele>
        <time>2015-03-07T13:50:55Z</time>
      </trkpt>
      <trkpt lat="48.34091" lon="3.00671">
        <ele>80</ele>
        <time>2015-03-07T13:51:00Z</time>
      </trkpt>
      <trkpt lat="48.34092" lon="3.00683">
        <ele>80</ele>
        <time>2015-03-07T13:51:05Z</time>
      </trkpt>
      <trkpt lat="48.34092" lon="3.00696">
        <ele>80</ele>
        <time>2015-03-07T13:51:11Z</time>
      </trkpt>
      <trkpt lat="48.34093" lon="3.0071">
        <ele>80</ele>
        <time>2015-03-07T13:51:18Z</time>
      </trkpt>
      <trkpt lat="48.34095" lon="3.0072">
        <ele>80</ele>
        <time>2015-03-07T13:51:23Z</time>
      </trkpt>
      <trkpt lat="48.34098" lon="3.00733">
        <ele>80</ele>
        <time>2015-03-07T13:51:29Z</time>
      </trkpt>
      <trkpt lat="48.34099" lon="3.00746">
        <ele>80</ele>
        <time>2015-03-07T13:51:34Z</time>
      </trkpt>
      <trkpt lat="48.341" lon="3.00758">
        <ele>81</ele>
        <time>2015-03-07T13:51:39Z</time>
      </trkpt>
      <trkpt lat="48.34101" lon="3.0077">
        <ele>81</ele>
        <time>2015-03-07T13:51:46Z</time>
      </trkpt>
      <trkpt lat="48.34102" lon="3.00782">
        <ele>82</ele>
        <time>2015-03-07T13:51:51Z</time>
      </trkpt>
      <trkpt lat="48.34105" lon="3.00794">
        <ele>82</ele>
        <time>2015-03-07T13:51:57Z</time>
      </trkpt>
      <trkpt lat="48.34106" lon="3.00806">
        <ele>83</ele>
        <time>2015-03-07T13:52:04Z</time>
      </trkpt>
      <trkpt lat="48.34107" lon="3.00819">
        <ele>82</ele>
        <time>2015-03-07T13:52:10Z</time>
      </trkpt>
      <trkpt lat="48.34107" lon="3.0083">
        <ele>82</ele>
        <time>2015-03-07T13:52:15Z</time>
      </trkpt>
      <trkpt lat="48.34107" lon="3.00842">
        <ele>81</ele>
        <time>2015-03-07T13:52:21Z</time>
      </trkpt>
      <trkpt lat="48.34109" lon="3.00855">
        <ele>81</ele>
        <time>2015-03-07T13:52:27Z</time>
      </trkpt>
      <trkpt lat="48.3411" lon="3.00867">
        <ele>82</ele>
        <time>2015-03-07T13:52:33Z</time>
      </trkpt>
      <trkpt lat="48.34112" lon="3.00878">
        <ele>83</ele>
        <time>2015-03-07T13:52:39Z</time>
      </trkpt>
      <trkpt lat="48.34115" lon="3.00891">
        <ele>83</ele>
        <time>2015-03-07T13:52:45Z</time>
      </trkpt>
      <trkpt lat="48.34119" lon="3.00903">
        <ele>83</ele>
        <time>2015-03-07T13:52:51Z</time>
      </trkpt>
      <trkpt lat="48.34123" lon="3.00913">
        <ele>84</ele>
        <time>2015-03-07T13:52:57Z</time>
      </trkpt>
      <trkpt lat="48.34126" lon="3.00924">
        <ele>84</ele>
        <time>2015-03-07T13:53:03Z</time>
      </trkpt>
      <trkpt lat="48.3413" lon="3.00935">
        <ele>85</ele>
        <time>2015-03-07T13:53:09Z</time>
      </trkpt>
      <trkpt lat="48.34133" lon="3.00946">
        <ele>85</ele>
        <time>2015-03-07T13:53:15Z</time>
      </trkpt>
      <trkpt lat="48.34135" lon="3.00958">
        <ele>86</ele>
        <time>2015-03-07T13:53:20Z</time>
      </trkpt>
      <trkpt lat="48.34136" lon="3.0097">
        <ele>87</ele>
        <time>2015-03-07T13:53:25Z</time>
      </trkpt>
      <trkpt lat="48.34137" lon="3.00982">
        <ele>88</ele>
        <time>2015-03-07T13:53:30Z</time>
      </trkpt>
      <trkpt lat="48.34138" lon="3.00993">
        <ele>88</ele>
        <time>2015-03-07T13:53:35Z</time>
      </trkpt>
      <trkpt lat="48.34139" lon="3.01004">
        <ele>88</ele>
        <time>2015-03-07T13:53:40Z</time>
      </trkpt>
      <trkpt lat="48.34141" lon="3.01016">
        <ele>88</ele>
        <time>2015-03-07T13:53:45Z</time>
      </trkpt>
      <trkpt lat="48.34145" lon="3.01027">
        <ele>88</ele>
        <time>2015-03-07T13:53:51Z</time>
      </trkpt>
      <trkpt lat="48.34148" lon="3.01038">
        <ele>87</ele>
        <time>2015-03-07T13:53:57Z</time>
      </trkpt>
      <trkpt lat="48.3415" lon="3.01052">
        <ele>88</ele>
        <time>2015-03-07T13:54:02Z</time>
      </trkpt>
      <trkpt lat="48.34153" lon="3.01064">
        <ele>88</ele>
        <time>2015-03-07T13:54:09Z</time>
      </trkpt>
      <trkpt lat="48.34155" lon="3.01075">
        <ele>88</ele>
        <time>2015-03-07T13:54:15Z</time>
      </trkpt>
      <trkpt lat="48.34157" lon="3.01088">
        <ele>88</ele>
        <time>2015-03-07T13:54:22Z</time>
      </trkpt>
      <trkpt lat="48.3416" lon="3.01098">
        <ele>89</ele>
        <time>2015-03-07T13:54:27Z</time>
      </trkpt>
      <trkpt lat="48.34162" lon="3.01109">
        <ele>90</ele>
        <time>2015-03-07T13:54:31Z</time>
      </trkpt>
      <trkpt lat="48.34166" lon="3.0112">
        <ele>91</ele>
        <time>2015-03-07T13:54:37Z</time>
      </trkpt>
      <trkpt lat="48.34168" lon="3.01131">
        <ele>91</ele>
        <time>2015-03-07T13:54:41Z</time>
      </trkpt>
      <trkpt lat="48.34171" lon="3.01143">
        <ele>92</ele>
        <time>2015-03-07T13:54:47Z</time>
      </trkpt>
      <trkpt lat="48.34176" lon="3.01152">
        <ele>93</ele>
        <time>2015-03-07T13:54:53Z</time>
      </trkpt>
      <trkpt lat="48.34181" lon="3.0116">
        <ele>94</ele>
        <time>2015-03-07T13:54:59Z</time>
      </trkpt>
      <trkpt lat="48.34188" lon="3.01163">
        <ele>95</ele>
        <time>2015-03-07T13:55:05Z</time>
      </trkpt>
      <trkpt lat="48.34201" lon="3.01162">
        <ele>96</ele>
        <time>2015-03-07T13:55:10Z</time>
      </trkpt>
      <trkpt lat="48.34209" lon="3.0116">
        <ele>96</ele>
        <time>2015-03-07T13:55:14Z</time>
      </trkpt>
      <trkpt lat="48.34217" lon="3.01159">
        <ele>97</ele>
        <time>2015-03-07T13:55:20Z</time>
      </trkpt>
      <trkpt lat="48.34225" lon="3.01158">
        <ele>97</ele>
        <time>2015-03-07T13:55:26Z</time>
      </trkpt>
      <trkpt lat="48.34234" lon="3.01159">
        <ele>98</ele>
        <time>2015-03-07T13:55:31Z</time>
      </trkpt>
      <trkpt lat="48.34242" lon="3.01161">
        <ele>99</ele>
        <time>2015-03-07T13:55:36Z</time>
      </trkpt>
      <trkpt lat="48.34249" lon="3.01164">
        <ele>100</ele>
        <time>2015-03-07T13:55:41Z</time>
      </trkpt>
      <trkpt lat="48.34257" lon="3.01164">
        <ele>100</ele>
        <time>2015-03-07T13:55:46Z</time>
      </trkpt>
      <trkpt lat="48.34265" lon="3.01163">
        <ele>100</ele>
        <time>2015-03-07T13:55:51Z</time>
      </trkpt>
      <trkpt lat="48.34273" lon="3.01162">
        <ele>101</ele>
        <time>2015-03-07T13:55:56Z</time>
      </trkpt>
      <trkpt lat="48.34281" lon="3.0116">
        <ele>101</ele>
        <time>2015-03-07T13:56:02Z</time>
      </trkpt>
      <trkpt lat="48.34289" lon="3.0116">
        <ele>100</ele>
        <time>2015-03-07T13:56:08Z</time>
      </trkpt>
      <trkpt lat="48.34297" lon="3.0116">
        <ele>100</ele>
        <time>2015-03-07T13:56:13Z</time>
      </trkpt>
      <trkpt lat="48.34306" lon="3.01158">
        <ele>100</ele>
        <time>2015-03-07T13:56:18Z</time>
      </trkpt>
      <trkpt lat="48.34314" lon="3.01159">
        <ele>99</ele>
        <time>2015-03-07T13:56:24Z</time>
      </trkpt>
      <trkpt lat="48.34322" lon="3.0116">
        <ele>100</ele>
        <time>2015-03-07T13:56:30Z</time>
      </trkpt>
      <trkpt lat="48.3433" lon="3.01164">
        <ele>99</ele>
        <time>2015-03-07T13:56:37Z</time>
      </trkpt>
      <trkpt lat="48.34334" lon="3.01174">
        <ele>99</ele>
        <time>2015-03-07T13:56:43Z</time>
      </trkpt>
      <trkpt lat="48.34335" lon="3.01186">
        <ele>98</ele>
        <time>2015-03-07T13:56:50Z</time>
      </trkpt>
      <trkpt lat="48.34335" lon="3.012">
        <ele>98</ele>
        <time>2015-03-07T13:56:57Z</time>
      </trkpt>
      <trkpt lat="48.34338" lon="3.01211">
        <ele>97</ele>
        <time>2015-03-07T13:57:02Z</time>
      </trkpt>
      <trkpt lat="48.34341" lon="3.01223">
        <ele>97</ele>
        <time>2015-03-07T13:57:08Z</time>
      </trkpt>
      <trkpt lat="48.34345" lon="3.01234">
        <ele>96</ele>
        <time>2015-03-07T13:57:14Z</time>
      </trkpt>
      <trkpt lat="48.34351" lon="3.01243">
        <ele>96</ele>
        <time>2015-03-07T13:57:19Z</time>
      </trkpt>
      <trkpt lat="48.34356" lon="3.01254">
        <ele>96</ele>
        <time>2015-03-07T13:57:24Z</time>
      </trkpt>
      <trkpt lat="48.34362" lon="3.01264">
        <ele>95</ele>
        <time>2015-03-07T13:57:30Z</time>
      </trkpt>
      <trkpt lat="48.34366" lon="3.01275">
        <ele>95</ele>
        <time>2015-03-07T13:57:36Z</time>
      </trkpt>
      <trkpt lat="48.34369" lon="3.01285">
        <ele>94</ele>
        <time>2015-03-07T13:57:41Z</time>
      </trkpt>
      <trkpt lat="48.34373" lon="3.01296">
        <ele>94</ele>
        <time>2015-03-07T13:57:47Z</time>
      </trkpt>
      <trkpt lat="48.34377" lon="3.01308">
        <ele>93</ele>
        <time>2015-03-07T13:57:53Z</time>
      </trkpt>
      <trkpt lat="48.3438" lon="3.01319">
        <ele>92</ele>
        <time>2015-03-07T13:57:59Z</time>
      </trkpt>
      <trkpt lat="48.34384" lon="3.0133">
        <ele>91</ele>
        <time>2015-03-07T13:58:07Z</time>
      </trkpt>
      <trkpt lat="48.34387" lon="3.01342">
        <ele>90</ele>
        <time>2015-03-07T13:58:14Z</time>
      </trkpt>
      <trkpt lat="48.34388" lon="3.01355">
        <ele>90</ele>
        <time>2015-03-07T13:58:19Z</time>
      </trkpt>
      <trkpt lat="48.34389" lon="3.01368">
        <ele>89</ele>
        <time>2015-03-07T13:58:26Z</time>
      </trkpt>
      <trkpt lat="48.3439" lon="3.0138">
        <ele>89</ele>
        <time>2015-03-07T13:58:31Z</time>
      </trkpt>
      <trkpt lat="48.34392" lon="3.01393">
        <ele>89</ele>
        <time>2015-03-07T13:58:37Z</time>
      </trkpt>
      <trkpt lat="48.34393" lon="3.01406">
        <ele>89</ele>
        <time>2015-03-07T13:58:44Z</time>
      </trkpt>
      <trkpt lat="48.34394" lon="3.01418">
        <ele>89</ele>
        <time>2015-03-07T13:58:49Z</time>
      </trkpt>
      <trkpt lat="48.34394" lon="3.01431">
        <ele>88</ele>
        <time>2015-03-07T13:58:55Z</time>
      </trkpt>
      <trkpt lat="48.34397" lon="3.01444">
        <ele>88</ele>
        <time>2015-03-07T13:59:00Z</time>
      </trkpt>
      <trkpt lat="48.34398" lon="3.01457">
        <ele>87</ele>
        <time>2015-03-07T13:59:06Z</time>
      </trkpt>
      <trkpt lat="48.34399" lon="3.01468">
        <ele>87</ele>
        <time>2015-03-07T13:59:11Z</time>
      </trkpt>
      <trkpt lat="48.34402" lon="3.01479">
        <ele>87</ele>
        <time>2015-03-07T13:59:16Z</time>
      </trkpt>
      <trkpt lat="48.34406" lon="3.01491">
        <ele>87</ele>
        <time>2015-03-07T13:59:22Z</time>
      </trkpt>
      <trkpt lat="48.34411" lon="3.01502">
        <ele>87</ele>
        <time>2015-03-07T13:59:28Z</time>
      </trkpt>
      <trkpt lat="48.34414" lon="3.01512">
        <ele>86</ele>
        <time>2015-03-07T13:59:33Z</time>
      </trkpt>
      <trkpt lat="48.34418" lon="3.01522">
        <ele>86</ele>
        <time>2015-03-07T13:59:39Z</time>
      </trkpt>
      <trkpt lat="48.3442" lon="3.01535">
        <ele>85</ele>
        <time>2015-03-07T13:59:45Z</time>
      </trkpt>
      <trkpt lat="48.3442" lon="3.01548">
        <ele>85</ele>
        <time>2015-03-07T13:59:51Z</time>
      </trkpt>
      <trkpt lat="48.34421" lon="3.01561">
        <ele>84</ele>
        <time>2015-03-07T13:59:56Z</time>
      </trkpt>
      <trkpt lat="48.34421" lon="3.01575">
        <ele>84</ele>
        <time>2015-03-07T14:00:01Z</time>
      </trkpt>
      <trkpt lat="48.34421" lon="3.01588">
        <ele>84</ele>
        <time>2015-03-07T14:00:06Z</time>
      </trkpt>
      <trkpt lat="48.34424" lon="3.016">
        <ele>84</ele>
        <time>2015-03-07T14:00:11Z</time>
      </trkpt>
      <trkpt lat="48.3443" lon="3.01606">
        <ele>84</ele>
        <time>2015-03-07T14:00:15Z</time>
      </trkpt>
      <trkpt lat="48.34437" lon="3.01611">
        <ele>84</ele>
        <time>2015-03-07T14:00:19Z</time>
      </trkpt>
      <trkpt lat="48.34443" lon="3.01619">
        <ele>85</ele>
        <time>2015-03-07T14:00:25Z</time>
      </trkpt>
      <trkpt lat="48.34449" lon="3.01628">
        <ele>85</ele>
        <time>2015-03-07T14:00:33Z</time>
      </trkpt>
      <trkpt lat="48.34456" lon="3.01634">
        <ele>84</ele>
        <time>2015-03-07T14:00:39Z</time>
      </trkpt>
      <trkpt lat="48.34463" lon="3.01642">
        <ele>84</ele>
        <time>2015-03-07T14:00:45Z</time>
      </trkpt>
      <trkpt lat="48.34469" lon="3.01652">
        <ele>84</ele>
        <time>2015-03-07T14:00:51Z</time>
      </trkpt>
      <trkpt lat="48.34474" lon="3.01662">
        <ele>84</ele>
        <time>2015-03-07T14:00:56Z</time>
      </trkpt>
      <trkpt lat="48.34472" lon="3.01674">
        <ele>85</ele>
        <time>2015-03-07T14:01:04Z</time>
      </trkpt>
      <trkpt lat="48.34469" lon="3.01686">
        <ele>85</ele>
        <time>2015-03-07T14:01:11Z</time>
      </trkpt>
      <trkpt lat="48.34464" lon="3.01696">
        <ele>85</ele>
        <time>2015-03-07T14:01:17Z</time>
      </trkpt>
      <trkpt lat="48.34458" lon="3.01706">
        <ele>85</ele>
        <time>2015-03-07T14:01:22Z</time>
      </trkpt>
      <trkpt lat="48.34452" lon="3.01715">
        <ele>85</ele>
        <time>2015-03-07T14:01:27Z</time>
      </trkpt>
      <trkpt lat="48.34449" lon="3.01729">
        <ele>85</ele>
        <time>2015-03-07T14:01:32Z</time>
      </trkpt>
      <trkpt lat="48.3445" lon="3.01741">
        <ele>85</ele>
        <time>2015-03-07T14:01:36Z</time>
      </trkpt>
      <trkpt lat="48.3445" lon="3.01754">
        <ele>85</ele>
        <time>2015-03-07T14:01:41Z</time>
      </trkpt>
      <trkpt lat="48.34451" lon="3.01766">
        <ele>85</ele>
        <time>2015-03-07T14:01:47Z</time>
      </trkpt>
      <trkpt lat="48.34451" lon="3.01779">
        <ele>84</ele>
        <time>2015-03-07T14:01:52Z</time>
      </trkpt>
      <trkpt lat="48.34449" lon="3.01792">
        <ele>84</ele>
        <time>2015-03-07T14:01:57Z</time>
      </trkpt>
      <trkpt lat="48.3445" lon="3.01804">
        <ele>85</ele>
        <time>2015-03-07T14:02:03Z</time>
      </trkpt>
      <trkpt lat="48.34451" lon="3.01816">
        <ele>85</ele>
        <time>2015-03-07T14:02:08Z</time>
      </trkpt>
      <trkpt lat="48.34454" lon="3.01829">
        <ele>85</ele>
        <time>2015-03-07T14:02:14Z</time>
      </trkpt>
      <trkpt lat="48.34455" lon="3.01841">
        <ele>85</ele>
        <time>2015-03-07T14:02:20Z</time>
      </trkpt>
      <trkpt lat="48.34454" lon="3.01854">
        <ele>85</ele>
        <time>2015-03-07T14:02:26Z</time>
      </trkpt>
      <trkpt lat="48.34455" lon="3.01867">
        <ele>85</ele>
        <time>2015-03-07T14:02:31Z</time>
      </trkpt>
      <trkpt lat="48.34456" lon="3.01879">
        <ele>85</ele>
        <time>2015-03-07T14:02:36Z</time>
      </trkpt>
      <trkpt lat="48.34456" lon="3.01892">
        <ele>84</ele>
        <time>2015-03-07T14:02:44Z</time>
      </trkpt>
      <trkpt lat="48.34453" lon="3.01902">
        <ele>84</ele>
        <time>2015-03-07T14:02:48Z</time>
      </trkpt>
      <trkpt lat="48.34449" lon="3.01913">
        <ele>84</ele>
        <time>2015-03-07T14:02:54Z</time>
      </trkpt>
      <trkpt lat="48.34448" lon="3.01928">
        <ele>84</ele>
        <time>2015-03-07T14:02:58Z</time>
      </trkpt>
      <trkpt lat="48.34445" lon="3.0194">
        <ele>84</ele>
        <time>2015-03-07T14:03:04Z</time>
      </trkpt>
      <trkpt lat="48.3444" lon="3.01951">
        <ele>85</ele>
        <time>2015-03-07T14:03:11Z</time>
      </trkpt>
      <trkpt lat="48.34435" lon="3.01961">
        <ele>86</ele>
        <time>2015-03-07T14:03:18Z</time>
      </trkpt>
      <trkpt lat="48.34428" lon="3.0197">
        <ele>86</ele>
        <time>2015-03-07T14:03:24Z</time>
      </trkpt>
      <trkpt lat="48.34423" lon="3.01978">
        <ele>87</ele>
        <time>2015-03-07T14:03:29Z</time>
      </trkpt>
      <trkpt lat="48.34419" lon="3.01989">
        <ele>86</ele>
        <time>2015-03-07T14:03:36Z</time>
      </trkpt>
      <trkpt lat="48.34417" lon="3.02001">
        <ele>86</ele>
        <time>2015-03-07T14:03:43Z</time>
      </trkpt>
      <trkpt lat="48.34411" lon="3.0201">
        <ele>86</ele>
        <time>2015-03-07T14:03:48Z</time>
      </trkpt>
      <trkpt lat="48.34406" lon="3.02018">
        <ele>85</ele>
        <time>2015-03-07T14:03:52Z</time>
      </trkpt>
      <trkpt lat="48.34399" lon="3.02026">
        <ele>85</ele>
        <time>2015-03-07T14:03:57Z</time>
      </trkpt>
      <trkpt lat="48.34392" lon="3.02033">
        <ele>85</ele>
        <time>2015-03-07T14:04:01Z</time>
      </trkpt>
      <trkpt lat="48.34385" lon="3.02038">
        <ele>85</ele>
        <time>2015-03-07T14:04:06Z</time>
      </trkpt>
      <trkpt lat="48.34378" lon="3.02044">
        <ele>85</ele>
        <time>2015-03-07T14:04:11Z</time>
      </trkpt>
      <trkpt lat="48.34371" lon="3.0205">
        <ele>85</ele>
        <time>2015-03-07T14:04:16Z</time>
      </trkpt>
      <trkpt lat="48.34365" lon="3.02059">
        <ele>85</ele>
        <time>2015-03-07T14:04:24Z</time>
      </trkpt>
      <trkpt lat="48.3436" lon="3.02067">
        <ele>84</ele>
        <time>2015-03-07T14:04:29Z</time>
      </trkpt>
      <trkpt lat="48.34355" lon="3.02077">
        <ele>85</ele>
        <time>2015-03-07T14:04:35Z</time>
      </trkpt>
      <trkpt lat="48.34354" lon="3.0209">
        <ele>84</ele>
        <time>2015-03-07T14:04:41Z</time>
      </trkpt>
      <trkpt lat="48.34347" lon="3.02097">
        <ele>84</ele>
        <time>2015-03-07T14:04:48Z</time>
      </trkpt>
      <trkpt lat="48.34341" lon="3.02107">
        <ele>83</ele>
        <time>2015-03-07T14:04:55Z</time>
      </trkpt>
      <trkpt lat="48.34339" lon="3.02119">
        <ele>82</ele>
        <time>2015-03-07T14:05:04Z</time>
      </trkpt>
      <trkpt lat="48.34336" lon="3.02132">
        <ele>81</ele>
        <time>2015-03-07T14:05:10Z</time>
      </trkpt>
      <trkpt lat="48.34333" lon="3.02144">
        <ele>81</ele>
        <time>2015-03-07T14:05:16Z</time>
      </trkpt>
      <trkpt lat="48.34331" lon="3.02155">
        <ele>82</ele>
        <time>2015-03-07T14:05:23Z</time>
      </trkpt>
      <trkpt lat="48.34328" lon="3.02167">
        <ele>82</ele>
        <time>2015-03-07T14:05:29Z</time>
      </trkpt>
      <trkpt lat="48.34323" lon="3.02176">
        <ele>82</ele>
        <time>2015-03-07T14:05:34Z</time>
      </trkpt>
      <trkpt lat="48.34318" lon="3.02186">
        <ele>82</ele>
        <time>2015-03-07T14:05:39Z</time>
      </trkpt>
      <trkpt lat="48.34315" lon="3.02196">
        <ele>81</ele>
        <time>2015-03-07T14:05:43Z</time>
      </trkpt>
      <trkpt lat="48.34312" lon="3.02208">
        <ele>80</ele>
        <time>2015-03-07T14:05:47Z</time>
      </trkpt>
      <trkpt lat="48.34308" lon="3.02218">
        <ele>80</ele>
        <time>2015-03-07T14:05:51Z</time>
      </trkpt>
      <trkpt lat="48.34304" lon="3.02231">
        <ele>79</ele>
        <time>2015-03-07T14:05:56Z</time>
      </trkpt>
      <trkpt lat="48.343" lon="3.02243">
        <ele>79</ele>
        <time>2015-03-07T14:06:01Z</time>
      </trkpt>
      <trkpt lat="48.34296" lon="3.02254">
        <ele>79</ele>
        <time>2015-03-07T14:06:07Z</time>
      </trkpt>
      <trkpt lat="48.34294" lon="3.02266">
        <ele>79</ele>
        <time>2015-03-07T14:06:13Z</time>
      </trkpt>
      <trkpt lat="48.34291" lon="3.02277">
        <ele>79</ele>
        <time>2015-03-07T14:06:18Z</time>
      </trkpt>
      <trkpt lat="48.34288" lon="3.02288">
        <ele>79</ele>
        <time>2015-03-07T14:06:24Z</time>
      </trkpt>
      <trkpt lat="48.34286" lon="3.02299">
        <ele>80</ele>
        <time>2015-03-07T14:06:29Z</time>
      </trkpt>
      <trkpt lat="48.34287" lon="3.0231">
        <ele>81</ele>
        <time>2015-03-07T14:06:34Z</time>
      </trkpt>
      <trkpt lat="48.34287" lon="3.02323">
        <ele>83</ele>
        <time>2015-03-07T14:06:46Z</time>
      </trkpt>
      <trkpt lat="48.34289" lon="3.02336">
        <ele>83</ele>
        <time>2015-03-07T14:06:57Z</time>
      </trkpt>
      <trkpt lat="48.34293" lon="3.0235">
        <ele>84</ele>
        <time>2015-03-07T14:07:02Z</time>
      </trkpt>
      <trkpt lat="48.34295" lon="3.02361">
        <ele>84</ele>
        <time>2015-03-07T14:07:06Z</time>
      </trkpt>
      <trkpt lat="48.34299" lon="3.02373">
        <ele>84</ele>
        <time>2015-03-07T14:07:12Z</time>
      </trkpt>
      <trkpt lat="48.34307" lon="3.02378">
        <ele>85</ele>
        <time>2015-03-07T14:07:17Z</time>
      </trkpt>
      <trkpt lat="48.34314" lon="3.02379">
        <ele>85</ele>
        <time>2015-03-07T14:07:22Z</time>
      </trkpt>
      <trkpt lat="48.34322" lon="3.02379">
        <ele>85</ele>
        <time>2015-03-07T14:07:26Z</time>
      </trkpt>
      <trkpt lat="48.34331" lon="3.02373">
        <ele>84</ele>
        <time>2015-03-07T14:07:31Z</time>
      </trkpt>
      <trkpt lat="48.34339" lon="3.02372">
        <ele>85</ele>
        <time>2015-03-07T14:07:36Z</time>
      </trkpt>
      <trkpt lat="48.34348" lon="3.02373">
        <ele>84</ele>
        <time>2015-03-07T14:07:41Z</time>
      </trkpt>
      <trkpt lat="48.34356" lon="3.02371">
        <ele>84</ele>
        <time>2015-03-07T14:07:47Z</time>
      </trkpt>
      <trkpt lat="48.34364" lon="3.02368">
        <ele>83</ele>
        <time>2015-03-07T14:07:53Z</time>
      </trkpt>
      <trkpt lat="48.34372" lon="3.02362">
        <ele>83</ele>
        <time>2015-03-07T14:07:58Z</time>
      </trkpt>
      <trkpt lat="48.3438" lon="3.02359">
        <ele>83</ele>
        <time>2015-03-07T14:08:03Z</time>
      </trkpt>
      <trkpt lat="48.34388" lon="3.02359">
        <ele>82</ele>
        <time>2015-03-07T14:08:08Z</time>
      </trkpt>
      <trkpt lat="48.34396" lon="3.02361">
        <ele>82</ele>
        <time>2015-03-07T14:08:15Z</time>
      </trkpt>
      <trkpt lat="48.34405" lon="3.02362">
        <ele>82</ele>
        <time>2015-03-07T14:08:21Z</time>
      </trkpt>
      <trkpt lat="48.34413" lon="3.02362">
        <ele>81</ele>
        <time>2015-03-07T14:08:27Z</time>
      </trkpt>
      <trkpt lat="48.3442" lon="3.02363">
        <ele>81</ele>
        <time>2015-03-07T14:08:32Z</time>
      </trkpt>
      <trkpt lat="48.34429" lon="3.02363">
        <ele>82</ele>
        <time>2015-03-07T14:08:37Z</time>
      </trkpt>
      <trkpt lat="48.34437" lon="3.02363">
        <ele>82</ele>
        <time>2015-03-07T14:08:42Z</time>
      </trkpt>
      <trkpt lat="48.34446" lon="3.02362">
        <ele>83</ele>
        <time>2015-03-07T14:08:48Z</time>
      </trkpt>
      <trkpt lat="48.34452" lon="3.02362">
        <ele>83</ele>
        <time>2015-03-07T14:08:54Z</time>
      </trkpt>
      <trkpt lat="48.3446" lon="3.02362">
        <ele>83</ele>
        <time>2015-03-07T14:08:59Z</time>
      </trkpt>
      <trkpt lat="48.34468" lon="3.02362">
        <ele>84</ele>
        <time>2015-03-07T14:09:03Z</time>
      </trkpt>
      <trkpt lat="48.34476" lon="3.02361">
        <ele>84</ele>
        <time>2015-03-07T14:09:09Z</time>
      </trkpt>
      <trkpt lat="48.34484" lon="3.02364">
        <ele>83</ele>
        <time>2015-03-07T14:09:15Z</time>
      </trkpt>
      <trkpt lat="48.34491" lon="3.02356">
        <ele>83</ele>
        <time>2015-03-07T14:09:21Z</time>
      </trkpt>
      <trkpt lat="48.3449" lon="3.02343">
        <ele>82</ele>
        <time>2015-03-07T14:09:32Z</time>
      </trkpt>
      <trkpt lat="48.34491" lon="3.02332">
        <ele>82</ele>
        <time>2015-03-07T14:09:38Z</time>
      </trkpt>
      <trkpt lat="48.34495" lon="3.02319">
        <ele>82</ele>
        <time>2015-03-07T14:09:43Z</time>
      </trkpt>
      <trkpt lat="48.34497" lon="3.02306">
        <ele>82</ele>
        <time>2015-03-07T14:09:50Z</time>
      </trkpt>
      <trkpt lat="48.34499" lon="3.02293">
        <ele>81</ele>
        <time>2015-03-07T14:10:21Z</time>
      </trkpt>
      <trkpt lat="48.34506" lon="3.02286">
        <ele>80</ele>
        <time>2015-03-07T14:10:31Z</time>
      </trkpt>
      <trkpt lat="48.34499" lon="3.0229">
        <ele>79</ele>
        <time>2015-03-07T14:10:46Z</time>
      </trkpt>
      <trkpt lat="48.34493" lon="3.02299">
        <ele>79</ele>
        <time>2015-03-07T14:10:51Z</time>
      </trkpt>
      <trkpt lat="48.34491" lon="3.02311">
        <ele>79</ele>
        <time>2015-03-07T14:10:58Z</time>
      </trkpt>
      <trkpt lat="48.34489" lon="3.02324">
        <ele>79</ele>
        <time>2015-03-07T14:11:05Z</time>
      </trkpt>
      <trkpt lat="48.34487" lon="3.02337">
        <ele>79</ele>
        <time>2015-03-07T14:11:10Z</time>
      </trkpt>
      <trkpt lat="48.34487" lon="3.0235">
        <ele>79</ele>
        <time>2015-03-07T14:11:15Z</time>
      </trkpt>
      <trkpt lat="48.34491" lon="3.02365">
        <ele>79</ele>
        <time>2015-03-07T14:11:20Z</time>
      </trkpt>
      <trkpt lat="48.34497" lon="3.02374">
        <ele>79</ele>
        <time>2015-03-07T14:11:24Z</time>
      </trkpt>
      <trkpt lat="48.34503" lon="3.02383">
        <ele>79</ele>
        <time>2015-03-07T14:11:31Z</time>
      </trkpt>
      <trkpt lat="48.3451" lon="3.02388">
        <ele>80</ele>
        <time>2015-03-07T14:11:37Z</time>
      </trkpt>
      <trkpt lat="48.34518" lon="3.02391">
        <ele>80</ele>
        <time>2015-03-07T14:11:42Z</time>
      </trkpt>
      <trkpt lat="48.34527" lon="3.02394">
        <ele>80</ele>
        <time>2015-03-07T14:11:47Z</time>
      </trkpt>
      <trkpt lat="48.34534" lon="3.024">
        <ele>80</ele>
        <time>2015-03-07T14:11:52Z</time>
      </trkpt>
      <trkpt lat="48.34542" lon="3.02403">
        <ele>80</ele>
        <time>2015-03-07T14:11:57Z</time>
      </trkpt>
      <trkpt lat="48.34549" lon="3.02407">
        <ele>79</ele>
        <time>2015-03-07T14:12:02Z</time>
      </trkpt>
      <trkpt lat="48.34556" lon="3.02414">
        <ele>79</ele>
        <time>2015-03-07T14:12:08Z</time>
      </trkpt>
      <trkpt lat="48.34563" lon="3.02423">
        <ele>78</ele>
        <time>2015-03-07T14:12:13Z</time>
      </trkpt>
      <trkpt lat="48.34567" lon="3.0243">
        <ele>78</ele>
        <time>2015-03-07T14:12:18Z</time>
      </trkpt>
      <trkpt lat="48.34573" lon="3.02438">
        <ele>78</ele>
        <time>2015-03-07T14:12:23Z</time>
      </trkpt>
      <trkpt lat="48.34578" lon="3.02448">
        <ele>78</ele>
        <time>2015-03-07T14:12:28Z</time>
      </trkpt>
      <trkpt lat="48.34583" lon="3.02457">
        <ele>78</ele>
        <time>2015-03-07T14:12:34Z</time>
      </trkpt>
      <trkpt lat="48.3459" lon="3.02463">
        <ele>78</ele>
        <time>2015-03-07T14:12:46Z</time>
      </trkpt>
      <trkpt lat="48.34597" lon="3.02469">
        <ele>78</ele>
        <time>2015-03-07T14:12:52Z</time>
      </trkpt>
      <trkpt lat="48.34604" lon="3.02476">
        <ele>78</ele>
        <time>2015-03-07T14:12:57Z</time>
      </trkpt>
      <trkpt lat="48.34612" lon="3.02481">
        <ele>77</ele>
        <time>2015-03-07T14:13:03Z</time>
      </trkpt>
      <trkpt lat="48.34618" lon="3.02488">
        <ele>77</ele>
        <time>2015-03-07T14:13:09Z</time>
      </trkpt>
      <trkpt lat="48.34625" lon="3.02496">
        <ele>76</ele>
        <time>2015-03-07T14:13:15Z</time>
      </trkpt>
      <trkpt lat="48.34631" lon="3.02502">
        <ele>76</ele>
        <time>2015-03-07T14:13:20Z</time>
      </trkpt>
      <trkpt lat="48.34637" lon="3.0251">
        <ele>76</ele>
        <time>2015-03-07T14:13:25Z</time>
      </trkpt>
      <trkpt lat="48.34643" lon="3.02517">
        <ele>76</ele>
        <time>2015-03-07T14:13:30Z</time>
      </trkpt>
      <trkpt lat="48.34649" lon="3.02524">
        <ele>76</ele>
        <time>2015-03-07T14:13:35Z</time>
      </trkpt>
      <trkpt lat="48.34656" lon="3.02531">
        <ele>76</ele>
        <time>2015-03-07T14:13:41Z</time>
      </trkpt>
      <trkpt lat="48.34663" lon="3.02538">
        <ele>75</ele>
        <time>2015-03-07T14:13:47Z</time>
      </trkpt>
      <trkpt lat="48.34671" lon="3.02543">
        <ele>75</ele>
        <time>2015-03-07T14:13:53Z</time>
      </trkpt>
      <trkpt lat="48.34679" lon="3.02549">
        <ele>75</ele>
        <time>2015-03-07T14:13:58Z</time>
      </trkpt>
      <trkpt lat="48.34687" lon="3.02552">
        <ele>76</ele>
        <time>2015-03-07T14:14:03Z</time>
      </trkpt>
      <trkpt lat="48.34695" lon="3.02557">
        <ele>75</ele>
        <time>2015-03-07T14:14:09Z</time>
      </trkpt>
      <trkpt lat="48.34703" lon="3.02562">
        <ele>75</ele>
        <time>2015-03-07T14:14:14Z</time>
      </trkpt>
      <trkpt lat="48.3471" lon="3.02567">
        <ele>75</ele>
        <time>2015-03-07T14:14:19Z</time>
      </trkpt>
      <trkpt lat="48.34717" lon="3.0257">
        <ele>75</ele>
        <time>2015-03-07T14:14:23Z</time>
      </trkpt>
      <trkpt lat="48.34725" lon="3.02573">
        <ele>75</ele>
        <time>2015-03-07T14:14:29Z</time>
      </trkpt>
      <trkpt lat="48.34733" lon="3.02577">
        <ele>75</ele>
        <time>2015-03-07T14:14:34Z</time>
      </trkpt>
      <trkpt lat="48.3474" lon="3.0258">
        <ele>75</ele>
        <time>2015-03-07T14:14:39Z</time>
      </trkpt>
      <trkpt lat="48.34748" lon="3.02585">
        <ele>74</ele>
        <time>2015-03-07T14:14:44Z</time>
      </trkpt>
      <trkpt lat="48.34755" lon="3.02592">
        <ele>74</ele>
        <time>2015-03-07T14:14:50Z</time>
      </trkpt>
      <trkpt lat="48.34763" lon="3.02598">
        <ele>73</ele>
        <time>2015-03-07T14:14:55Z</time>
      </trkpt>
      <trkpt lat="48.3477" lon="3.02605">
        <ele>73</ele>
        <time>2015-03-07T14:15:01Z</time>
      </trkpt>
      <trkpt lat="48.34777" lon="3.02609">
        <ele>73</ele>
        <time>2015-03-07T14:15:06Z</time>
      </trkpt>
      <trkpt lat="48.34785" lon="3.02615">
        <ele>74</ele>
        <time>2015-03-07T14:15:12Z</time>
      </trkpt>
      <trkpt lat="48.34793" lon="3.02619">
        <ele>74</ele>
        <time>2015-03-07T14:15:17Z</time>
      </trkpt>
      <trkpt lat="48.34801" lon="3.02625">
        <ele>74</ele>
        <time>2015-03-07T14:15:24Z</time>
      </trkpt>
      <trkpt lat="48.3481" lon="3.02627">
        <ele>74</ele>
        <time>2015-03-07T14:15:30Z</time>
      </trkpt>
      <trkpt lat="48.34817" lon="3.02626">
        <ele>73</ele>
        <time>2015-03-07T14:15:35Z</time>
      </trkpt>
      <trkpt lat="48.34825" lon="3.02627">
        <ele>72</ele>
        <time>2015-03-07T14:15:40Z</time>
      </trkpt>
      <trkpt lat="48.34834" lon="3.02632">
        <ele>72</ele>
        <time>2015-03-07T14:15:51Z</time>
      </trkpt>
      <trkpt lat="48.34838" lon="3.02644">
        <ele>72</ele>
        <time>2015-03-07T14:15:56Z</time>
      </trkpt>
      <trkpt lat="48.34842" lon="3.02653">
        <ele>73</ele>
        <time>2015-03-07T14:16:03Z</time>
      </trkpt>
      <trkpt lat="48.34848" lon="3.02658">
        <ele>73</ele>
        <time>2015-03-07T14:16:08Z</time>
      </trkpt>
      <trkpt lat="48.34853" lon="3.02668">
        <ele>73</ele>
        <time>2015-03-07T14:16:13Z</time>
      </trkpt>
      <trkpt lat="48.34856" lon="3.02679">
        <ele>73</ele>
        <time>2015-03-07T14:16:25Z</time>
      </trkpt>
      <trkpt lat="48.34864" lon="3.02682">
        <ele>72</ele>
        <time>2015-03-07T14:16:31Z</time>
      </trkpt>
      <trkpt lat="48.34872" lon="3.02684">
        <ele>72</ele>
        <time>2015-03-07T14:16:36Z</time>
      </trkpt>
      <trkpt lat="48.3488" lon="3.02686">
        <ele>72</ele>
        <time>2015-03-07T14:16:42Z</time>
      </trkpt>
      <trkpt lat="48.34887" lon="3.02686">
        <ele>72</ele>
        <time>2015-03-07T14:16:46Z</time>
      </trkpt>
      <trkpt lat="48.34895" lon="3.0269">
        <ele>72</ele>
        <time>2015-03-07T14:16:52Z</time>
      </trkpt>
      <trkpt lat="48.34902" lon="3.02695">
        <ele>72</ele>
        <time>2015-03-07T14:16:57Z</time>
      </trkpt>
      <trkpt lat="48.34909" lon="3.02703">
        <ele>71</ele>
        <time>2015-03-07T14:17:03Z</time>
      </trkpt>
      <trkpt lat="48.34916" lon="3.02708">
        <ele>71</ele>
        <time>2015-03-07T14:17:08Z</time>
      </trkpt>
      <trkpt lat="48.34924" lon="3.02713">
        <ele>71</ele>
        <time>2015-03-07T14:17:13Z</time>
      </trkpt>
      <trkpt lat="48.34932" lon="3.02717">
        <ele>71</ele>
        <time>2015-03-07T14:17:19Z</time>
      </trkpt>
      <trkpt lat="48.34939" lon="3.0272">
        <ele>71</ele>
        <time>2015-03-07T14:17:23Z</time>
      </trkpt>
      <trkpt lat="48.34948" lon="3.02724">
        <ele>72</ele>
        <time>2015-03-07T14:17:28Z</time>
      </trkpt>
      <trkpt lat="48.34956" lon="3.02729">
        <ele>72</ele>
        <time>2015-03-07T14:17:35Z</time>
      </trkpt>
      <trkpt lat="48.34963" lon="3.02735">
        <ele>71</ele>
        <time>2015-03-07T14:17:41Z</time>
      </trkpt>
      <trkpt lat="48.34972" lon="3.0274">
        <ele>71</ele>
        <time>2015-03-07T14:17:47Z</time>
      </trkpt>
      <trkpt lat="48.34978" lon="3.02745">
        <ele>71</ele>
        <time>2015-03-07T14:17:52Z</time>
      </trkpt>
      <trkpt lat="48.34987" lon="3.02749">
        <ele>71</ele>
        <time>2015-03-07T14:17:58Z</time>
      </trkpt>
      <trkpt lat="48.34993" lon="3.02755">
        <ele>70</ele>
        <time>2015-03-07T14:18:03Z</time>
      </trkpt>
      <trkpt lat="48.35001" lon="3.0276">
        <ele>70</ele>
        <time>2015-03-07T14:18:08Z</time>
      </trkpt>
      <trkpt lat="48.35009" lon="3.02766">
        <ele>69</ele>
        <time>2015-03-07T14:18:14Z</time>
      </trkpt>
      <trkpt lat="48.35016" lon="3.02772">
        <ele>69</ele>
        <time>2015-03-07T14:18:20Z</time>
      </trkpt>
      <trkpt lat="48.35024" lon="3.02777">
        <ele>70</ele>
        <time>2015-03-07T14:18:25Z</time>
      </trkpt>
      <trkpt lat="48.35032" lon="3.02781">
        <ele>70</ele>
        <time>2015-03-07T14:18:30Z</time>
      </trkpt>
      <trkpt lat="48.35039" lon="3.02785">
        <ele>70</ele>
        <time>2015-03-07T14:18:36Z</time>
      </trkpt>
      <trkpt lat="48.35047" lon="3.02793">
        <ele>70</ele>
        <time>2015-03-07T14:18:42Z</time>
      </trkpt>
      <trkpt lat="48.35054" lon="3.02796">
        <ele>70</ele>
        <time>2015-03-07T14:18:48Z</time>
      </trkpt>
      <trkpt lat="48.35063" lon="3.028">
        <ele>69</ele>
        <time>2015-03-07T14:18:54Z</time>
      </trkpt>
      <trkpt lat="48.3507" lon="3.02805">
        <ele>69</ele>
        <time>2015-03-07T14:18:59Z</time>
      </trkpt>
      <trkpt lat="48.35077" lon="3.02812">
        <ele>70</ele>
        <time>2015-03-07T14:19:05Z</time>
      </trkpt>
      <trkpt lat="48.35083" lon="3.02818">
        <ele>70</ele>
        <time>2015-03-07T14:19:10Z</time>
      </trkpt>
      <trkpt lat="48.35091" lon="3.02825">
        <ele>70</ele>
        <time>2015-03-07T14:19:15Z</time>
      </trkpt>
      <trkpt lat="48.35097" lon="3.02831">
        <ele>70</ele>
        <time>2015-03-07T14:19:20Z</time>
      </trkpt>
      <trkpt lat="48.35104" lon="3.02837">
        <ele>70</ele>
        <time>2015-03-07T14:19:25Z</time>
      </trkpt>
      <trkpt lat="48.35111" lon="3.02841">
        <ele>70</ele>
        <time>2015-03-07T14:19:30Z</time>
      </trkpt>
      <trkpt lat="48.35119" lon="3.02846">
        <ele>70</ele>
        <time>2015-03-07T14:19:36Z</time>
      </trkpt>
      <trkpt lat="48.35125" lon="3.02855">
        <ele>69</ele>
        <time>2015-03-07T14:19:41Z</time>
      </trkpt>
      <trkpt lat="48.35131" lon="3.02861">
        <ele>69</ele>
        <time>2015-03-07T14:19:46Z</time>
      </trkpt>
      <trkpt lat="48.35138" lon="3.02867">
        <ele>69</ele>
        <time>2015-03-07T14:19:52Z</time>
      </trkpt>
      <trkpt lat="48.35144" lon="3.02875">
        <ele>68</ele>
        <time>2015-03-07T14:19:57Z</time>
      </trkpt>
      <trkpt lat="48.35151" lon="3.02882">
        <ele>68</ele>
        <time>2015-03-07T14:20:02Z</time>
      </trkpt>
      <trkpt lat="48.35159" lon="3.02888">
        <ele>68</ele>
        <time>2015-03-07T14:20:09Z</time>
      </trkpt>
      <trkpt lat="48.35167" lon="3.02895">
        <ele>67</ele>
        <time>2015-03-07T14:20:14Z</time>
      </trkpt>
      <trkpt lat="48.35174" lon="3.029">
        <ele>67</ele>
        <time>2015-03-07T14:20:21Z</time>
      </trkpt>
      <trkpt lat="48.35183" lon="3.02903">
        <ele>67</ele>
        <time>2015-03-07T14:20:27Z</time>
      </trkpt>
      <trkpt lat="48.3519" lon="3.02909">
        <ele>66</ele>
        <time>2015-03-07T14:20:32Z</time>
      </trkpt>
      <trkpt lat="48.35197" lon="3.02915">
        <ele>66</ele>
        <time>2015-03-07T14:20:37Z</time>
      </trkpt>
      <trkpt lat="48.35203" lon="3.02921">
        <ele>65</ele>
        <time>2015-03-07T14:20:42Z</time>
      </trkpt>
      <trkpt lat="48.35211" lon="3.02926">
        <ele>65</ele>
        <time>2015-03-07T14:20:47Z</time>
      </trkpt>
      <trkpt lat="48.35218" lon="3.02931">
        <ele>65</ele>
        <time>2015-03-07T14:20:52Z</time>
      </trkpt>
      <trkpt lat="48.35226" lon="3.02934">
        <ele>65</ele>
        <time>2015-03-07T14:20:58Z</time>
      </trkpt>
      <trkpt lat="48.35233" lon="3.02941">
        <ele>64</ele>
        <time>2015-03-07T14:21:03Z</time>
      </trkpt>
      <trkpt lat="48.35239" lon="3.02949">
        <ele>64</ele>
        <time>2015-03-07T14:21:09Z</time>
      </trkpt>
      <trkpt lat="48.35245" lon="3.02957">
        <ele>63</ele>
        <time>2015-03-07T14:21:15Z</time>
      </trkpt>
      <trkpt lat="48.35253" lon="3.02963">
        <ele>62</ele>
        <time>2015-03-07T14:21:20Z</time>
      </trkpt>
      <trkpt lat="48.35261" lon="3.02969">
        <ele>61</ele>
        <time>2015-03-07T14:21:27Z</time>
      </trkpt>
      <trkpt lat="48.35269" lon="3.02974">
        <ele>61</ele>
        <time>2015-03-07T14:21:32Z</time>
      </trkpt>
      <trkpt lat="48.35276" lon="3.02981">
        <ele>60</ele>
        <time>2015-03-07T14:21:37Z</time>
      </trkpt>
      <trkpt lat="48.35282" lon="3.02988">
        <ele>60</ele>
        <time>2015-03-07T14:21:42Z</time>
      </trkpt>
      <trkpt lat="48.35288" lon="3.02996">
        <ele>59</ele>
        <time>2015-03-07T14:21:47Z</time>
      </trkpt>
      <trkpt lat="48.35295" lon="3.03001">
        <ele>59</ele>
        <time>2015-03-07T14:21:52Z</time>
      </trkpt>
      <trkpt lat="48.35303" lon="3.03005">
        <ele>58</ele>
        <time>2015-03-07T14:21:57Z</time>
      </trkpt>
      <trkpt lat="48.3531" lon="3.03008">
        <ele>57</ele>
        <time>2015-03-07T14:22:02Z</time>
      </trkpt>
      <trkpt lat="48.35318" lon="3.03014">
        <ele>57</ele>
        <time>2015-03-07T14:22:08Z</time>
      </trkpt>
      <trkpt lat="48.35325" lon="3.03017">
        <ele>56</ele>
        <time>2015-03-07T14:22:14Z</time>
      </trkpt>
      <trkpt lat="48.35333" lon="3.0302">
        <ele>55</ele>
        <time>2015-03-07T14:22:19Z</time>
      </trkpt>
      <trkpt lat="48.3534" lon="3.03025">
        <ele>54</ele>
        <time>2015-03-07T14:22:24Z</time>
      </trkpt>
      <trkpt lat="48.35347" lon="3.03031">
        <ele>53</ele>
        <time>2015-03-07T14:22:29Z</time>
      </trkpt>
      <trkpt lat="48.35354" lon="3.03038">
        <ele>53</ele>
        <time>2015-03-07T14:22:35Z</time>
      </trkpt>
      <trkpt lat="48.35362" lon="3.03045">
        <ele>52</ele>
        <time>2015-03-07T14:22:41Z</time>
      </trkpt>
      <trkpt lat="48.3537" lon="3.03046">
        <ele>52</ele>
        <time>2015-03-07T14:22:46Z</time>
      </trkpt>
      <trkpt lat="48.35378" lon="3.03046">
        <ele>51</ele>
        <time>2015-03-07T14:22:52Z</time>
      </trkpt>
      <trkpt lat="48.35387" lon="3.03044">
        <ele>51</ele>
        <time>2015-03-07T14:22:57Z</time>
      </trkpt>
      <trkpt lat="48.35396" lon="3.03043">
        <ele>51</ele>
        <time>2015-03-07T14:23:03Z</time>
      </trkpt>
      <trkpt lat="48.35403" lon="3.03044">
        <ele>51</ele>
        <time>2015-03-07T14:23:08Z</time>
      </trkpt>
      <trkpt lat="48.35412" lon="3.03047">
        <ele>51</ele>
        <time>2015-03-07T14:23:14Z</time>
      </trkpt>
      <trkpt lat="48.35419" lon="3.03049">
        <ele>51</ele>
        <time>2015-03-07T14:23:19Z</time>
      </trkpt>
      <trkpt lat="48.35428" lon="3.03049">
        <ele>51</ele>
        <time>2015-03-07T14:23:25Z</time>
      </trkpt>
      <trkpt lat="48.35436" lon="3.03046">
        <ele>51</ele>
        <time>2015-03-07T14:23:30Z</time>
      </trkpt>
      <trkpt lat="48.35444" lon="3.03045">
        <ele>51</ele>
        <time>2015-03-07T14:23:35Z</time>
      </trkpt>
      <trkpt lat="48.35453" lon="3.03045">
        <ele>51</ele>
        <time>2015-03-07T14:23:41Z</time>
      </trkpt>
      <trkpt lat="48.35462" lon="3.03041">
        <ele>51</ele>
        <time>2015-03-07T14:23:46Z</time>
      </trkpt>
      <trkpt lat="48.3547" lon="3.0304">
        <ele>52</ele>
        <time>2015-03-07T14:23:51Z</time>
      </trkpt>
      <trkpt lat="48.35479" lon="3.0304">
        <ele>52</ele>
        <time>2015-03-07T14:23:56Z</time>
      </trkpt>
      <trkpt lat="48.35487" lon="3.03041">
        <ele>53</ele>
        <time>2015-03-07T14:24:02Z</time>
      </trkpt>
      <trkpt lat="48.35496" lon="3.03039">
        <ele>54</ele>
        <time>2015-03-07T14:24:07Z</time>
      </trkpt>
      <trkpt lat="48.35504" lon="3.03031">
        <ele>54</ele>
        <time>2015-03-07T14:24:12Z</time>
      </trkpt>
      <trkpt lat="48.35507" lon="3.0302">
        <ele>53</ele>
        <time>2015-03-07T14:24:16Z</time>
      </trkpt>
      <trkpt lat="48.35509" lon="3.03008">
        <ele>53</ele>
        <time>2015-03-07T14:24:22Z</time>
      </trkpt>
      <trkpt lat="48.35514" lon="3.02997">
        <ele>53</ele>
        <time>2015-03-07T14:24:28Z</time>
      </trkpt>
      <trkpt lat="48.35517" lon="3.02987">
        <ele>53</ele>
        <time>2015-03-07T14:24:33Z</time>
      </trkpt>
      <trkpt lat="48.3552" lon="3.02975">
        <ele>52</ele>
        <time>2015-03-07T14:24:40Z</time>
      </trkpt>
      <trkpt lat="48.35524" lon="3.02964">
        <ele>52</ele>
        <time>2015-03-07T14:24:45Z</time>
      </trkpt>
      <trkpt lat="48.3553" lon="3.02955">
        <ele>52</ele>
        <time>2015-03-07T14:24:50Z</time>
      </trkpt>
      <trkpt lat="48.35532" lon="3.02943">
        <ele>51</ele>
        <time>2015-03-07T14:24:56Z</time>
      </trkpt>
      <trkpt lat="48.35535" lon="3.02932">
        <ele>51</ele>
        <time>2015-03-07T14:25:01Z</time>
      </trkpt>
      <trkpt lat="48.35539" lon="3.0292">
        <ele>50</ele>
        <time>2015-03-07T14:25:06Z</time>
      </trkpt>
      <trkpt lat="48.35544" lon="3.02908">
        <ele>50</ele>
        <time>2015-03-07T14:25:11Z</time>
      </trkpt>
      <trkpt lat="48.35551" lon="3.029">
        <ele>50</ele>
        <time>2015-03-07T14:25:17Z</time>
      </trkpt>
      <trkpt lat="48.35556" lon="3.02889">
        <ele>49</ele>
        <time>2015-03-07T14:25:23Z</time>
      </trkpt>
      <trkpt lat="48.35559" lon="3.02879">
        <ele>49</ele>
        <time>2015-03-07T14:25:28Z</time>
      </trkpt>
      <trkpt lat="48.35563" lon="3.02867">
        <ele>49</ele>
        <time>2015-03-07T14:25:33Z</time>
      </trkpt>
      <trkpt lat="48.35565" lon="3.02855">
        <ele>49</ele>
        <time>2015-03-07T14:25:38Z</time>
      </trkpt>
      <trkpt lat="48.35568" lon="3.02845">
        <ele>49</ele>
        <time>2015-03-07T14:25:44Z</time>
      </trkpt>
      <trkpt lat="48.35573" lon="3.02833">
        <ele>48</ele>
        <time>2015-03-07T14:25:50Z</time>
      </trkpt>
      <trkpt lat="48.35576" lon="3.02821">
        <ele>48</ele>
        <time>2015-03-07T14:25:56Z</time>
      </trkpt>
      <trkpt lat="48.35579" lon="3.0281">
        <ele>48</ele>
        <time>2015-03-07T14:26:01Z</time>
      </trkpt>
      <trkpt lat="48.35581" lon="3.02799">
        <ele>48</ele>
        <time>2015-03-07T14:26:07Z</time>
      </trkpt>
      <trkpt lat="48.35585" lon="3.02788">
        <ele>48</ele>
        <time>2015-03-07T14:26:12Z</time>
      </trkpt>
      <trkpt lat="48.35589" lon="3.02778">
        <ele>47</ele>
        <time>2015-03-07T14:26:18Z</time>
      </trkpt>
      <trkpt lat="48.35594" lon="3.02766">
        <ele>47</ele>
        <time>2015-03-07T14:26:23Z</time>
      </trkpt>
      <trkpt lat="48.35597" lon="3.02756">
        <ele>47</ele>
        <time>2015-03-07T14:26:28Z</time>
      </trkpt>
      <trkpt lat="48.356" lon="3.02745">
        <ele>47</ele>
        <time>2015-03-07T14:26:34Z</time>
      </trkpt>
      <trkpt lat="48.35602" lon="3.02734">
        <ele>46</ele>
        <time>2015-03-07T14:26:40Z</time>
      </trkpt>
      <trkpt lat="48.35606" lon="3.02722">
        <ele>46</ele>
        <time>2015-03-07T14:26:46Z</time>
      </trkpt>
      <trkpt lat="48.35609" lon="3.0271">
        <ele>46</ele>
        <time>2015-03-07T14:26:51Z</time>
      </trkpt>
      <trkpt lat="48.35613" lon="3.02701">
        <ele>46</ele>
        <time>2015-03-07T14:26:55Z</time>
      </trkpt>
      <trkpt lat="48.35617" lon="3.0269">
        <ele>46</ele>
        <time>2015-03-07T14:27:02Z</time>
      </trkpt>
      <trkpt lat="48.35621" lon="3.0268">
        <ele>45</ele>
        <time>2015-03-07T14:27:07Z</time>
      </trkpt>
      <trkpt lat="48.35625" lon="3.02669">
        <ele>45</ele>
        <time>2015-03-07T14:27:12Z</time>
      </trkpt>
      <trkpt lat="48.35628" lon="3.02657">
        <ele>45</ele>
        <time>2015-03-07T14:27:17Z</time>
      </trkpt>
      <trkpt lat="48.35632" lon="3.02645">
        <ele>46</ele>
        <time>2015-03-07T14:27:22Z</time>
      </trkpt>
      <trkpt lat="48.35638" lon="3.02635">
        <ele>46</ele>
        <time>2015-03-07T14:27:28Z</time>
      </trkpt>
      <trkpt lat="48.35642" lon="3.02625">
        <ele>46</ele>
        <time>2015-03-07T14:27:33Z</time>
      </trkpt>
      <trkpt lat="48.35647" lon="3.02616">
        <ele>46</ele>
        <time>2015-03-07T14:27:37Z</time>
      </trkpt>
      <trkpt lat="48.35653" lon="3.02607">
        <ele>47</ele>
        <time>2015-03-07T14:27:43Z</time>
      </trkpt>
      <trkpt lat="48.35659" lon="3.02597">
        <ele>47</ele>
        <time>2015-03-07T14:27:48Z</time>
      </trkpt>
      <trkpt lat="48.35663" lon="3.02586">
        <ele>47</ele>
        <time>2015-03-07T14:27:54Z</time>
      </trkpt>
      <trkpt lat="48.35665" lon="3.02575">
        <ele>48</ele>
        <time>2015-03-07T14:27:59Z</time>
      </trkpt>
      <trkpt lat="48.35666" lon="3.02563">
        <ele>48</ele>
        <time>2015-03-07T14:28:05Z</time>
      </trkpt>
      <trkpt lat="48.35673" lon="3.02549">
        <ele>48</ele>
        <time>2015-03-07T14:28:10Z</time>
      </trkpt>
      <trkpt lat="48.35676" lon="3.02537">
        <ele>49</ele>
        <time>2015-03-07T14:28:15Z</time>
      </trkpt>
      <trkpt lat="48.35677" lon="3.02526">
        <ele>49</ele>
        <time>2015-03-07T14:28:22Z</time>
      </trkpt>
      <trkpt lat="48.35682" lon="3.02514">
        <ele>49</ele>
        <time>2015-03-07T14:28:27Z</time>
      </trkpt>
      <trkpt lat="48.35684" lon="3.02503">
        <ele>49</ele>
        <time>2015-03-07T14:28:32Z</time>
      </trkpt>
      <trkpt lat="48.35688" lon="3.02491">
        <ele>49</ele>
        <time>2015-03-07T14:28:38Z</time>
      </trkpt>
      <trkpt lat="48.35694" lon="3.02482">
        <ele>49</ele>
        <time>2015-03-07T14:28:43Z</time>
      </trkpt>
      <trkpt lat="48.35698" lon="3.02471">
        <ele>49</ele>
        <time>2015-03-07T14:28:49Z</time>
      </trkpt>
      <trkpt lat="48.35702" lon="3.0246">
        <ele>49</ele>
        <time>2015-03-07T14:28:54Z</time>
      </trkpt>
      <trkpt lat="48.35705" lon="3.02449">
        <ele>49</ele>
        <time>2015-03-07T14:28:59Z</time>
      </trkpt>
      <trkpt lat="48.35711" lon="3.02441">
        <ele>50</ele>
        <time>2015-03-07T14:29:04Z</time>
      </trkpt>
      <trkpt lat="48.35715" lon="3.0243">
        <ele>50</ele>
        <time>2015-03-07T14:29:09Z</time>
      </trkpt>
      <trkpt lat="48.35719" lon="3.02419">
        <ele>50</ele>
        <time>2015-03-07T14:29:14Z</time>
      </trkpt>
      <trkpt lat="48.35722" lon="3.02408">
        <ele>50</ele>
        <time>2015-03-07T14:29:18Z</time>
      </trkpt>
      <trkpt lat="48.35727" lon="3.02398">
        <ele>50</ele>
        <time>2015-03-07T14:29:23Z</time>
      </trkpt>
      <trkpt lat="48.35731" lon="3.02388">
        <ele>51</ele>
        <time>2015-03-07T14:29:28Z</time>
      </trkpt>
      <trkpt lat="48.35734" lon="3.02376">
        <ele>51</ele>
        <time>2015-03-07T14:29:33Z</time>
      </trkpt>
      <trkpt lat="48.35737" lon="3.02365">
        <ele>51</ele>
        <time>2015-03-07T14:29:38Z</time>
      </trkpt>
      <trkpt lat="48.35739" lon="3.02352">
        <ele>50</ele>
        <time>2015-03-07T14:29:44Z</time>
      </trkpt>
      <trkpt lat="48.35743" lon="3.02343">
        <ele>50</ele>
        <time>2015-03-07T14:29:49Z</time>
      </trkpt>
      <trkpt lat="48.35745" lon="3.02331">
        <ele>50</ele>
        <time>2015-03-07T14:29:54Z</time>
      </trkpt>
      <trkpt lat="48.35747" lon="3.02319">
        <ele>50</ele>
        <time>2015-03-07T14:29:59Z</time>
      </trkpt>
      <trkpt lat="48.35751" lon="3.02307">
        <ele>49</ele>
        <time>2015-03-07T14:30:05Z</time>
      </trkpt>
      <trkpt lat="48.35755" lon="3.02296">
        <ele>49</ele>
        <time>2015-03-07T14:30:10Z</time>
      </trkpt>
      <trkpt lat="48.35758" lon="3.02284">
        <ele>49</ele>
        <time>2015-03-07T14:30:16Z</time>
      </trkpt>
      <trkpt lat="48.35763" lon="3.02272">
        <ele>48</ele>
        <time>2015-03-07T14:30:21Z</time>
      </trkpt>
      <trkpt lat="48.35766" lon="3.0226">
        <ele>48</ele>
        <time>2015-03-07T14:30:26Z</time>
      </trkpt>
      <trkpt lat="48.3577" lon="3.0225">
        <ele>48</ele>
        <time>2015-03-07T14:30:31Z</time>
      </trkpt>
      <trkpt lat="48.35775" lon="3.02239">
        <ele>48</ele>
        <time>2015-03-07T14:30:37Z</time>
      </trkpt>
      <trkpt lat="48.35779" lon="3.02228">
        <ele>48</ele>
        <time>2015-03-07T14:30:42Z</time>
      </trkpt>
      <trkpt lat="48.35783" lon="3.02217">
        <ele>48</ele>
        <time>2015-03-07T14:30:48Z</time>
      </trkpt>
      <trkpt lat="48.35786" lon="3.02207">
        <ele>48</ele>
        <time>2015-03-07T14:30:53Z</time>
      </trkpt>
      <trkpt lat="48.35789" lon="3.02197">
        <ele>48</ele>
        <time>2015-03-07T14:30:58Z</time>
      </trkpt>
      <trkpt lat="48.35792" lon="3.02185">
        <ele>48</ele>
        <time>2015-03-07T14:31:03Z</time>
      </trkpt>
      <trkpt lat="48.35795" lon="3.02175">
        <ele>48</ele>
        <time>2015-03-07T14:31:08Z</time>
      </trkpt>
      <trkpt lat="48.35801" lon="3.02164">
        <ele>48</ele>
        <time>2015-03-07T14:31:13Z</time>
      </trkpt>
      <trkpt lat="48.35803" lon="3.02152">
        <ele>48</ele>
        <time>2015-03-07T14:31:18Z</time>
      </trkpt>
      <trkpt lat="48.35805" lon="3.02141">
        <ele>48</ele>
        <time>2015-03-07T14:31:23Z</time>
      </trkpt>
      <trkpt lat="48.35808" lon="3.02131">
        <ele>48</ele>
        <time>2015-03-07T14:31:28Z</time>
      </trkpt>
      <trkpt lat="48.3581" lon="3.02117">
        <ele>48</ele>
        <time>2015-03-07T14:31:33Z</time>
      </trkpt>
      <trkpt lat="48.35814" lon="3.02106">
        <ele>48</ele>
        <time>2015-03-07T14:31:39Z</time>
      </trkpt>
      <trkpt lat="48.35818" lon="3.02096">
        <ele>48</ele>
        <time>2015-03-07T14:31:44Z</time>
      </trkpt>
      <trkpt lat="48.35821" lon="3.02086">
        <ele>48</ele>
        <time>2015-03-07T14:31:48Z</time>
      </trkpt>
      <trkpt lat="48.35826" lon="3.02074">
        <ele>48</ele>
        <time>2015-03-07T14:31:54Z</time>
      </trkpt>
      <trkpt lat="48.3583" lon="3.02063">
        <ele>48</ele>
        <time>2015-03-07T14:32:00Z</time>
      </trkpt>
      <trkpt lat="48.35833" lon="3.0205">
        <ele>48</ele>
        <time>2015-03-07T14:32:06Z</time>
      </trkpt>
      <trkpt lat="48.35836" lon="3.02038">
        <ele>49</ele>
        <time>2015-03-07T14:32:11Z</time>
      </trkpt>
      <trkpt lat="48.35841" lon="3.02027">
        <ele>49</ele>
        <time>2015-03-07T14:32:17Z</time>
      </trkpt>
      <trkpt lat="48.35844" lon="3.02015">
        <ele>49</ele>
        <time>2015-03-07T14:32:22Z</time>
      </trkpt>
      <trkpt lat="48.35847" lon="3.02004">
        <ele>49</ele>
        <time>2015-03-07T14:32:27Z</time>
      </trkpt>
      <trkpt lat="48.35851" lon="3.01994">
        <ele>49</ele>
        <time>2015-03-07T14:32:32Z</time>
      </trkpt>
      <trkpt lat="48.35854" lon="3.01982">
        <ele>49</ele>
        <time>2015-03-07T14:32:37Z</time>
      </trkpt>
      <trkpt lat="48.35859" lon="3.01973">
        <ele>49</ele>
        <time>2015-03-07T14:32:42Z</time>
      </trkpt>
      <trkpt lat="48.35863" lon="3.01962">
        <ele>49</ele>
        <time>2015-03-07T14:32:47Z</time>
      </trkpt>
      <trkpt lat="48.35866" lon="3.0195">
        <ele>49</ele>
        <time>2015-03-07T14:32:52Z</time>
      </trkpt>
      <trkpt lat="48.3587" lon="3.01939">
        <ele>49</ele>
        <time>2015-03-07T14:32:58Z</time>
      </trkpt>
      <trkpt lat="48.35872" lon="3.01928">
        <ele>48</ele>
        <time>2015-03-07T14:33:03Z</time>
      </trkpt>
      <trkpt lat="48.35875" lon="3.01915">
        <ele>48</ele>
        <time>2015-03-07T14:33:08Z</time>
      </trkpt>
      <trkpt lat="48.35877" lon="3.01904">
        <ele>48</ele>
        <time>2015-03-07T14:33:14Z</time>
      </trkpt>
      <trkpt lat="48.35881" lon="3.01891">
        <ele>48</ele>
        <time>2015-03-07T14:33:19Z</time>
      </trkpt>
      <trkpt lat="48.35885" lon="3.01881">
        <ele>48</ele>
        <time>2015-03-07T14:33:24Z</time>
      </trkpt>
      <trkpt lat="48.35889" lon="3.0187">
        <ele>48</ele>
        <time>2015-03-07T14:33:29Z</time>
      </trkpt>
      <trkpt lat="48.35892" lon="3.01859">
        <ele>49</ele>
        <time>2015-03-07T14:33:34Z</time>
      </trkpt>
      <trkpt lat="48.35895" lon="3.01848">
        <ele>48</ele>
        <time>2015-03-07T14:33:39Z</time>
      </trkpt>
      <trkpt lat="48.35899" lon="3.01837">
        <ele>48</ele>
        <time>2015-03-07T14:33:44Z</time>
      </trkpt>
      <trkpt lat="48.35904" lon="3.01826">
        <ele>49</ele>
        <time>2015-03-07T14:33:49Z</time>
      </trkpt>
      <trkpt lat="48.35908" lon="3.01815">
        <ele>49</ele>
        <time>2015-03-07T14:33:55Z</time>
      </trkpt>
      <trkpt lat="48.35913" lon="3.01805">
        <ele>49</ele>
        <time>2015-03-07T14:34:00Z</time>
      </trkpt>
      <trkpt lat="48.35917" lon="3.01793">
        <ele>49</ele>
        <time>2015-03-07T14:34:06Z</time>
      </trkpt>
      <trkpt lat="48.35919" lon="3.01781">
        <ele>49</ele>
        <time>2015-03-07T14:34:12Z</time>
      </trkpt>
      <trkpt lat="48.35922" lon="3.0177">
        <ele>49</ele>
        <time>2015-03-07T14:34:18Z</time>
      </trkpt>
      <trkpt lat="48.35925" lon="3.0176">
        <ele>49</ele>
        <time>2015-03-07T14:34:23Z</time>
      </trkpt>
      <trkpt lat="48.35929" lon="3.0175">
        <ele>49</ele>
        <time>2015-03-07T14:34:27Z</time>
      </trkpt>
      <trkpt lat="48.35934" lon="3.0174">
        <ele>49</ele>
        <time>2015-03-07T14:34:32Z</time>
      </trkpt>
      <trkpt lat="48.35937" lon="3.01731">
        <ele>49</ele>
        <time>2015-03-07T14:34:37Z</time>
      </trkpt>
      <trkpt lat="48.35941" lon="3.0172">
        <ele>49</ele>
        <time>2015-03-07T14:34:42Z</time>
      </trkpt>
      <trkpt lat="48.35944" lon="3.0171">
        <ele>49</ele>
        <time>2015-03-07T14:34:46Z</time>
      </trkpt>
      <trkpt lat="48.35949" lon="3.017">
        <ele>49</ele>
        <time>2015-03-07T14:34:50Z</time>
      </trkpt>
      <trkpt lat="48.35954" lon="3.01689">
        <ele>50</ele>
        <time>2015-03-07T14:34:56Z</time>
      </trkpt>
      <trkpt lat="48.35957" lon="3.01679">
        <ele>49</ele>
        <time>2015-03-07T14:35:02Z</time>
      </trkpt>
      <trkpt lat="48.35961" lon="3.01667">
        <ele>49</ele>
        <time>2015-03-07T14:35:07Z</time>
      </trkpt>
      <trkpt lat="48.35965" lon="3.01656">
        <ele>49</ele>
        <time>2015-03-07T14:35:12Z</time>
      </trkpt>
      <trkpt lat="48.35969" lon="3.01647">
        <ele>49</ele>
        <time>2015-03-07T14:35:17Z</time>
      </trkpt>
      <trkpt lat="48.35972" lon="3.01636">
        <ele>49</ele>
        <time>2015-03-07T14:35:22Z</time>
      </trkpt>
      <trkpt lat="48.35976" lon="3.01624">
        <ele>49</ele>
        <time>2015-03-07T14:35:28Z</time>
      </trkpt>
      <trkpt lat="48.35979" lon="3.01611">
        <ele>49</ele>
        <time>2015-03-07T14:35:34Z</time>
      </trkpt>
      <trkpt lat="48.35982" lon="3.016">
        <ele>49</ele>
        <time>2015-03-07T14:35:39Z</time>
      </trkpt>
      <trkpt lat="48.35985" lon="3.01589">
        <ele>48</ele>
        <time>2015-03-07T14:35:44Z</time>
      </trkpt>
      <trkpt lat="48.35989" lon="3.01578">
        <ele>48</ele>
        <time>2015-03-07T14:35:50Z</time>
      </trkpt>
      <trkpt lat="48.35992" lon="3.01569">
        <ele>48</ele>
        <time>2015-03-07T14:35:55Z</time>
      </trkpt>
      <trkpt lat="48.35996" lon="3.01557">
        <ele>48</ele>
        <time>2015-03-07T14:36:00Z</time>
      </trkpt>
      <trkpt lat="48.36001" lon="3.01545">
        <ele>48</ele>
        <time>2015-03-07T14:36:05Z</time>
      </trkpt>
      <trkpt lat="48.36005" lon="3.01534">
        <ele>48</ele>
        <time>2015-03-07T14:36:10Z</time>
      </trkpt>
      <trkpt lat="48.36006" lon="3.01523">
        <ele>48</ele>
        <time>2015-03-07T14:36:15Z</time>
      </trkpt>
      <trkpt lat="48.3601" lon="3.01511">
        <ele>49</ele>
        <time>2015-03-07T14:36:21Z</time>
      </trkpt>
      <trkpt lat="48.36015" lon="3.015">
        <ele>49</ele>
        <time>2015-03-07T14:36:27Z</time>
      </trkpt>
      <trkpt lat="48.36021" lon="3.0149">
        <ele>49</ele>
        <time>2015-03-07T14:36:32Z</time>
      </trkpt>
      <trkpt lat="48.36026" lon="3.0148">
        <ele>49</ele>
        <time>2015-03-07T14:36:37Z</time>
      </trkpt>
      <trkpt lat="48.36031" lon="3.01469">
        <ele>49</ele>
        <time>2015-03-07T14:36:42Z</time>
      </trkpt>
      <trkpt lat="48.36034" lon="3.01458">
        <ele>50</ele>
        <time>2015-03-07T14:36:47Z</time>
      </trkpt>
      <trkpt lat="48.36038" lon="3.01447">
        <ele>50</ele>
        <time>2015-03-07T14:36:52Z</time>
      </trkpt>
      <trkpt lat="48.36042" lon="3.01437">
        <ele>50</ele>
        <time>2015-03-07T14:36:57Z</time>
      </trkpt>
      <trkpt lat="48.36047" lon="3.01426">
        <ele>51</ele>
        <time>2015-03-07T14:37:04Z</time>
      </trkpt>
      <trkpt lat="48.36051" lon="3.01416">
        <ele>51</ele>
        <time>2015-03-07T14:37:10Z</time>
      </trkpt>
      <trkpt lat="48.36054" lon="3.01405">
        <ele>50</ele>
        <time>2015-03-07T14:37:15Z</time>
      </trkpt>
      <trkpt lat="48.36058" lon="3.01394">
        <ele>50</ele>
        <time>2015-03-07T14:37:21Z</time>
      </trkpt>
      <trkpt lat="48.36063" lon="3.01384">
        <ele>49</ele>
        <time>2015-03-07T14:37:26Z</time>
      </trkpt>
      <trkpt lat="48.36068" lon="3.01373">
        <ele>49</ele>
        <time>2015-03-07T14:37:31Z</time>
      </trkpt>
      <trkpt lat="48.36071" lon="3.0136">
        <ele>49</ele>
        <time>2015-03-07T14:37:36Z</time>
      </trkpt>
      <trkpt lat="48.36075" lon="3.0135">
        <ele>49</ele>
        <time>2015-03-07T14:37:42Z</time>
      </trkpt>
      <trkpt lat="48.3608" lon="3.0134">
        <ele>49</ele>
        <time>2015-03-07T14:37:47Z</time>
      </trkpt>
      <trkpt lat="48.36084" lon="3.0133">
        <ele>49</ele>
        <time>2015-03-07T14:37:53Z</time>
      </trkpt>
      <trkpt lat="48.36089" lon="3.01321">
        <ele>49</ele>
        <time>2015-03-07T14:37:58Z</time>
      </trkpt>
      <trkpt lat="48.36094" lon="3.01311">
        <ele>49</ele>
        <time>2015-03-07T14:38:03Z</time>
      </trkpt>
      <trkpt lat="48.36098" lon="3.013">
        <ele>48</ele>
        <time>2015-03-07T14:38:08Z</time>
      </trkpt>
      <trkpt lat="48.36099" lon="3.01285">
        <ele>48</ele>
        <time>2015-03-07T14:38:13Z</time>
      </trkpt>
      <trkpt lat="48.36091" lon="3.01279">
        <ele>48</ele>
        <time>2015-03-07T14:38:17Z</time>
      </trkpt>
      <trkpt lat="48.36082" lon="3.0128">
        <ele>49</ele>
        <time>2015-03-07T14:38:25Z</time>
      </trkpt>
      <trkpt lat="48.36074" lon="3.01283">
        <ele>49</ele>
        <time>2015-03-07T14:38:35Z</time>
      </trkpt>
      <trkpt lat="48.36065" lon="3.01285">
        <ele>49</ele>
        <time>2015-03-07T14:38:39Z</time>
      </trkpt>
      <trkpt lat="48.36057" lon="3.01285">
        <ele>48</ele>
        <time>2015-03-07T14:38:44Z</time>
      </trkpt>
      <trkpt lat="48.36048" lon="3.01284">
        <ele>48</ele>
        <time>2015-03-07T14:38:48Z</time>
      </trkpt>
      <trkpt lat="48.36038" lon="3.01283">
        <ele>48</ele>
        <time>2015-03-07T14:38:53Z</time>
      </trkpt>
      <trkpt lat="48.36031" lon="3.01276">
        <ele>47</ele>
        <time>2015-03-07T14:39:03Z</time>
      </trkpt>
      <trkpt lat="48.36026" lon="3.01266">
        <ele>47</ele>
        <time>2015-03-07T14:39:12Z</time>
      </trkpt>
      <trkpt lat="48.36024" lon="3.01254">
        <ele>48</ele>
        <time>2015-03-07T14:39:18Z</time>
      </trkpt>
      <trkpt lat="48.36025" lon="3.01242">
        <ele>48</ele>
        <time>2015-03-07T14:39:24Z</time>
      </trkpt>
      <trkpt lat="48.36022" lon="3.0123">
        <ele>49</ele>
        <time>2015-03-07T14:39:30Z</time>
      </trkpt>
      <trkpt lat="48.36018" lon="3.0122">
        <ele>49</ele>
        <time>2015-03-07T14:39:36Z</time>
      </trkpt>
      <trkpt lat="48.3602" lon="3.01207">
        <ele>50</ele>
        <time>2015-03-07T14:39:43Z</time>
      </trkpt>
      <trkpt lat="48.36018" lon="3.01195">
        <ele>49</ele>
        <time>2015-03-07T14:39:55Z</time>
      </trkpt>
      <trkpt lat="48.36018" lon="3.01182">
        <ele>48</ele>
        <time>2015-03-07T14:40:00Z</time>
      </trkpt>
      <trkpt lat="48.36016" lon="3.01169">
        <ele>48</ele>
        <time>2015-03-07T14:40:05Z</time>
      </trkpt>
      <trkpt lat="48.36018" lon="3.01157">
        <ele>47</ele>
        <time>2015-03-07T14:40:09Z</time>
      </trkpt>
      <trkpt lat="48.36022" lon="3.01146">
        <ele>47</ele>
        <time>2015-03-07T14:40:15Z</time>
      </trkpt>
      <trkpt lat="48.36027" lon="3.01136">
        <ele>47</ele>
        <time>2015-03-07T14:40:22Z</time>
      </trkpt>
      <trkpt lat="48.36032" lon="3.01125">
        <ele>47</ele>
        <time>2015-03-07T14:40:29Z</time>
      </trkpt>
      <trkpt lat="48.36041" lon="3.01117">
        <ele>47</ele>
        <time>2015-03-07T14:40:34Z</time>
      </trkpt>
      <trkpt lat="48.36048" lon="3.01111">
        <ele>46</ele>
        <time>2015-03-07T14:40:41Z</time>
      </trkpt>
      <trkpt lat="48.36058" lon="3.01101">
        <ele>46</ele>
        <time>2015-03-07T14:40:46Z</time>
      </trkpt>
      <trkpt lat="48.36062" lon="3.01087">
        <ele>47</ele>
        <time>2015-03-07T14:40:50Z</time>
      </trkpt>
      <trkpt lat="48.36065" lon="3.01075">
        <ele>49</ele>
        <time>2015-03-07T14:40:57Z</time>
      </trkpt>
      <trkpt lat="48.36067" lon="3.01066">
        <ele>50</ele>
        <time>2015-03-07T14:41:03Z</time>
      </trkpt>
      <trkpt lat="48.36072" lon="3.01049">
        <ele>51</ele>
        <time>2015-03-07T14:41:07Z</time>
      </trkpt>
      <trkpt lat="48.36077" lon="3.01038">
        <ele>52</ele>
        <time>2015-03-07T14:41:12Z</time>
      </trkpt>
      <trkpt lat="48.36082" lon="3.01028">
        <ele>52</ele>
        <time>2015-03-07T14:41:16Z</time>
      </trkpt>
      <trkpt lat="48.36081" lon="3.01015">
        <ele>52</ele>
        <time>2015-03-07T14:41:23Z</time>
      </trkpt>
      <trkpt lat="48.36084" lon="3.01001">
        <ele>53</ele>
        <time>2015-03-07T14:41:28Z</time>
      </trkpt>
      <trkpt lat="48.36087" lon="3.00989">
        <ele>53</ele>
        <time>2015-03-07T14:41:34Z</time>
      </trkpt>
      <trkpt lat="48.36088" lon="3.00976">
        <ele>55</ele>
        <time>2015-03-07T14:41:41Z</time>
      </trkpt>
      <trkpt lat="48.3609" lon="3.00964">
        <ele>56</ele>
        <time>2015-03-07T14:41:48Z</time>
      </trkpt>
      <trkpt lat="48.36094" lon="3.00952">
        <ele>57</ele>
        <time>2015-03-07T14:41:54Z</time>
      </trkpt>
      <trkpt lat="48.36097" lon="3.00941">
        <ele>57</ele>
        <time>2015-03-07T14:41:59Z</time>
      </trkpt>
      <trkpt lat="48.36099" lon="3.0093">
        <ele>57</ele>
        <time>2015-03-07T14:42:06Z</time>
      </trkpt>
      <trkpt lat="48.36103" lon="3.00921">
        <ele>57</ele>
        <time>2015-03-07T14:42:10Z</time>
      </trkpt>
      <trkpt lat="48.36111" lon="3.00909">
        <ele>57</ele>
        <time>2015-03-07T14:42:15Z</time>
      </trkpt>
      <trkpt lat="48.36117" lon="3.009">
        <ele>58</ele>
        <time>2015-03-07T14:42:20Z</time>
      </trkpt>
      <trkpt lat="48.36121" lon="3.00889">
        <ele>59</ele>
        <time>2015-03-07T14:42:26Z</time>
      </trkpt>
      <trkpt lat="48.36127" lon="3.00879">
        <ele>59</ele>
        <time>2015-03-07T14:42:31Z</time>
      </trkpt>
      <trkpt lat="48.36134" lon="3.00867">
        <ele>59</ele>
        <time>2015-03-07T14:42:35Z</time>
      </trkpt>
      <trkpt lat="48.36139" lon="3.00856">
        <ele>60</ele>
        <time>2015-03-07T14:42:41Z</time>
      </trkpt>
      <trkpt lat="48.36144" lon="3.00849">
        <ele>61</ele>
        <time>2015-03-07T14:42:46Z</time>
      </trkpt>
      <trkpt lat="48.36149" lon="3.00841">
        <ele>62</ele>
        <time>2015-03-07T14:42:50Z</time>
      </trkpt>
      <trkpt lat="48.36154" lon="3.00831">
        <ele>62</ele>
        <time>2015-03-07T14:42:55Z</time>
      </trkpt>
      <trkpt lat="48.36157" lon="3.00819">
        <ele>62</ele>
        <time>2015-03-07T14:43:01Z</time>
      </trkpt>
      <trkpt lat="48.36159" lon="3.00808">
        <ele>62</ele>
        <time>2015-03-07T14:43:05Z</time>
      </trkpt>
      <trkpt lat="48.36161" lon="3.00795">
        <ele>62</ele>
        <time>2015-03-07T14:43:10Z</time>
      </trkpt>
      <trkpt lat="48.36166" lon="3.00785">
        <ele>62</ele>
        <time>2015-03-07T14:43:16Z</time>
      </trkpt>
      <trkpt lat="48.36169" lon="3.00775">
        <ele>61</ele>
        <time>2015-03-07T14:43:22Z</time>
      </trkpt>
      <trkpt lat="48.36174" lon="3.00763">
        <ele>61</ele>
        <time>2015-03-07T14:43:26Z</time>
      </trkpt>
      <trkpt lat="48.36179" lon="3.00752">
        <ele>61</ele>
        <time>2015-03-07T14:43:31Z</time>
      </trkpt>
      <trkpt lat="48.36182" lon="3.0074">
        <ele>62</ele>
        <time>2015-03-07T14:43:37Z</time>
      </trkpt>
      <trkpt lat="48.36187" lon="3.00731">
        <ele>62</ele>
        <time>2015-03-07T14:43:44Z</time>
      </trkpt>
      <trkpt lat="48.36192" lon="3.0072">
        <ele>62</ele>
        <time>2015-03-07T14:43:49Z</time>
      </trkpt>
      <trkpt lat="48.36197" lon="3.00709">
        <ele>62</ele>
        <time>2015-03-07T14:43:54Z</time>
      </trkpt>
      <trkpt lat="48.36203" lon="3.00699">
        <ele>63</ele>
        <time>2015-03-07T14:43:59Z</time>
      </trkpt>
      <trkpt lat="48.36207" lon="3.00687">
        <ele>63</ele>
        <time>2015-03-07T14:44:05Z</time>
      </trkpt>
      <trkpt lat="48.36212" lon="3.00679">
        <ele>64</ele>
        <time>2015-03-07T14:44:11Z</time>
      </trkpt>
      <trkpt lat="48.36217" lon="3.00665">
        <ele>64</ele>
        <time>2015-03-07T14:44:16Z</time>
      </trkpt>
      <trkpt lat="48.36219" lon="3.00653">
        <ele>64</ele>
        <time>2015-03-07T14:44:21Z</time>
      </trkpt>
      <trkpt lat="48.36224" lon="3.00642">
        <ele>64</ele>
        <time>2015-03-07T14:44:27Z</time>
      </trkpt>
      <trkpt lat="48.36229" lon="3.00631">
        <ele>65</ele>
        <time>2015-03-07T14:44:32Z</time>
      </trkpt>
      <trkpt lat="48.36233" lon="3.0062">
        <ele>65</ele>
        <time>2015-03-07T14:44:37Z</time>
      </trkpt>
      <trkpt lat="48.36235" lon="3.00608">
        <ele>65</ele>
        <time>2015-03-07T14:44:43Z</time>
      </trkpt>
      <trkpt lat="48.36237" lon="3.00597">
        <ele>65</ele>
        <time>2015-03-07T14:44:48Z</time>
      </trkpt>
      <trkpt lat="48.36239" lon="3.00586">
        <ele>65</ele>
        <time>2015-03-07T14:44:53Z</time>
      </trkpt>
      <trkpt lat="48.36241" lon="3.00573">
        <ele>65</ele>
        <time>2015-03-07T14:44:59Z</time>
      </trkpt>
      <trkpt lat="48.36241" lon="3.00561">
        <ele>65</ele>
        <time>2015-03-07T14:45:04Z</time>
      </trkpt>
      <trkpt lat="48.36241" lon="3.0055">
        <ele>65</ele>
        <time>2015-03-07T14:45:08Z</time>
      </trkpt>
      <trkpt lat="48.36242" lon="3.00539">
        <ele>65</ele>
        <time>2015-03-07T14:45:13Z</time>
      </trkpt>
      <trkpt lat="48.36243" lon="3.00527">
        <ele>65</ele>
        <time>2015-03-07T14:45:18Z</time>
      </trkpt>
      <trkpt lat="48.36243" lon="3.00513">
        <ele>65</ele>
        <time>2015-03-07T14:45:23Z</time>
      </trkpt>
      <trkpt lat="48.36245" lon="3.00501">
        <ele>65</ele>
        <time>2015-03-07T14:45:29Z</time>
      </trkpt>
      <trkpt lat="48.36245" lon="3.00488">
        <ele>66</ele>
        <time>2015-03-07T14:45:34Z</time>
      </trkpt>
      <trkpt lat="48.36243" lon="3.00476">
        <ele>66</ele>
        <time>2015-03-07T14:45:40Z</time>
      </trkpt>
      <trkpt lat="48.36242" lon="3.00463">
        <ele>66</ele>
        <time>2015-03-07T14:45:46Z</time>
      </trkpt>
      <trkpt lat="48.36241" lon="3.00451">
        <ele>65</ele>
        <time>2015-03-07T14:45:51Z</time>
      </trkpt>
      <trkpt lat="48.3624" lon="3.0044">
        <ele>65</ele>
        <time>2015-03-07T14:45:56Z</time>
      </trkpt>
      <trkpt lat="48.3624" lon="3.00428">
        <ele>65</ele>
        <time>2015-03-07T14:46:01Z</time>
      </trkpt>
      <trkpt lat="48.36237" lon="3.00416">
        <ele>65</ele>
        <time>2015-03-07T14:46:06Z</time>
      </trkpt>
      <trkpt lat="48.36235" lon="3.00405">
        <ele>65</ele>
        <time>2015-03-07T14:46:11Z</time>
      </trkpt>
      <trkpt lat="48.36234" lon="3.00394">
        <ele>65</ele>
        <time>2015-03-07T14:46:17Z</time>
      </trkpt>
      <trkpt lat="48.36233" lon="3.00382">
        <ele>64</ele>
        <time>2015-03-07T14:46:23Z</time>
      </trkpt>
      <trkpt lat="48.36233" lon="3.00368">
        <ele>64</ele>
        <time>2015-03-07T14:46:28Z</time>
      </trkpt>
      <trkpt lat="48.36234" lon="3.00356">
        <ele>64</ele>
        <time>2015-03-07T14:46:33Z</time>
      </trkpt>
      <trkpt lat="48.36233" lon="3.00343">
        <ele>64</ele>
        <time>2015-03-07T14:46:38Z</time>
      </trkpt>
      <trkpt lat="48.36234" lon="3.00331">
        <ele>64</ele>
        <time>2015-03-07T14:46:43Z</time>
      </trkpt>
      <trkpt lat="48.36236" lon="3.00318">
        <ele>63</ele>
        <time>2015-03-07T14:46:49Z</time>
      </trkpt>
      <trkpt lat="48.36237" lon="3.00306">
        <ele>63</ele>
        <time>2015-03-07T14:46:54Z</time>
      </trkpt>
      <trkpt lat="48.36237" lon="3.00293">
        <ele>64</ele>
        <time>2015-03-07T14:47:00Z</time>
      </trkpt>
      <trkpt lat="48.36238" lon="3.00282">
        <ele>64</ele>
        <time>2015-03-07T14:47:05Z</time>
      </trkpt>
      <trkpt lat="48.36239" lon="3.0027">
        <ele>63</ele>
        <time>2015-03-07T14:47:10Z</time>
      </trkpt>
      <trkpt lat="48.3624" lon="3.00258">
        <ele>63</ele>
        <time>2015-03-07T14:47:16Z</time>
      </trkpt>
      <trkpt lat="48.36241" lon="3.00247">
        <ele>63</ele>
        <time>2015-03-07T14:47:21Z</time>
      </trkpt>
      <trkpt lat="48.36242" lon="3.00234">
        <ele>63</ele>
        <time>2015-03-07T14:47:26Z</time>
      </trkpt>
      <trkpt lat="48.36243" lon="3.00221">
        <ele>63</ele>
        <time>2015-03-07T14:47:31Z</time>
      </trkpt>
      <trkpt lat="48.36245" lon="3.00208">
        <ele>63</ele>
        <time>2015-03-07T14:47:37Z</time>
      </trkpt>
      <trkpt lat="48.36245" lon="3.00196">
        <ele>62</ele>
        <time>2015-03-07T14:47:42Z</time>
      </trkpt>
      <trkpt lat="48.36244" lon="3.00184">
        <ele>62</ele>
        <time>2015-03-07T14:47:48Z</time>
      </trkpt>
      <trkpt lat="48.36246" lon="3.00171">
        <ele>62</ele>
        <time>2015-03-07T14:47:54Z</time>
      </trkpt>
      <trkpt lat="48.36248" lon="3.00159">
        <ele>62</ele>
        <time>2015-03-07T14:47:59Z</time>
      </trkpt>
      <trkpt lat="48.3625" lon="3.00146">
        <ele>62</ele>
        <time>2015-03-07T14:48:05Z</time>
      </trkpt>
      <trkpt lat="48.36253" lon="3.00134">
        <ele>62</ele>
        <time>2015-03-07T14:48:10Z</time>
      </trkpt>
      <trkpt lat="48.36254" lon="3.00122">
        <ele>62</ele>
        <time>2015-03-07T14:48:15Z</time>
      </trkpt>
      <trkpt lat="48.36254" lon="3.0011">
        <ele>62</ele>
        <time>2015-03-07T14:48:20Z</time>
      </trkpt>
      <trkpt lat="48.36254" lon="3.00097">
        <ele>63</ele>
        <time>2015-03-07T14:48:27Z</time>
      </trkpt>
      <trkpt lat="48.36256" lon="3.00085">
        <ele>63</ele>
        <time>2015-03-07T14:48:32Z</time>
      </trkpt>
      <trkpt lat="48.36258" lon="3.00073">
        <ele>63</ele>
        <time>2015-03-07T14:48:37Z</time>
      </trkpt>
      <trkpt lat="48.3626" lon="3.00063">
        <ele>64</ele>
        <time>2015-03-07T14:48:42Z</time>
      </trkpt>
      <trkpt lat="48.36261" lon="3.00051">
        <ele>64</ele>
        <time>2015-03-07T14:48:47Z</time>
      </trkpt>
      <trkpt lat="48.36261" lon="3.00039">
        <ele>64</ele>
        <time>2015-03-07T14:48:52Z</time>
      </trkpt>
      <trkpt lat="48.36262" lon="3.00025">
        <ele>64</ele>
        <time>2015-03-07T14:48:57Z</time>
      </trkpt>
      <trkpt lat="48.36263" lon="3.00012">
        <ele>65</ele>
        <time>2015-03-07T14:49:03Z</time>
      </trkpt>
      <trkpt lat="48.36265" lon="3">
        <ele>65</ele>
        <time>2015-03-07T14:49:09Z</time>
      </trkpt>
      <trkpt lat="48.36267" lon="2.9999">
        <ele>65</ele>
        <time>2015-03-07T14:49:14Z</time>
      </trkpt>
      <trkpt lat="48.36267" lon="2.99977">
        <ele>65</ele>
        <time>2015-03-07T14:49:20Z</time>
      </trkpt>
      <trkpt lat="48.36267" lon="2.99965">
        <ele>65</ele>
        <time>2015-03-07T14:49:26Z</time>
      </trkpt>
      <trkpt lat="48.36268" lon="2.99953">
        <ele>65</ele>
        <time>2015-03-07T14:49:31Z</time>
      </trkpt>
      <trkpt lat="48.36269" lon="2.99941">
        <ele>65</ele>
        <time>2015-03-07T14:49:36Z</time>
      </trkpt>
      <trkpt lat="48.3627" lon="2.99928">
        <ele>65</ele>
        <time>2015-03-07T14:49:41Z</time>
      </trkpt>
      <trkpt lat="48.3627" lon="2.99916">
        <ele>65</ele>
        <time>2015-03-07T14:49:46Z</time>
      </trkpt>
      <trkpt lat="48.36272" lon="2.99904">
        <ele>65</ele>
        <time>2015-03-07T14:49:52Z</time>
      </trkpt>
      <trkpt lat="48.36273" lon="2.99893">
        <ele>65</ele>
        <time>2015-03-07T14:49:57Z</time>
      </trkpt>
      <trkpt lat="48.36273" lon="2.99881">
        <ele>65</ele>
        <time>2015-03-07T14:50:02Z</time>
      </trkpt>
      <trkpt lat="48.36276" lon="2.99869">
        <ele>65</ele>
        <time>2015-03-07T14:50:08Z</time>
      </trkpt>
      <trkpt lat="48.36278" lon="2.99857">
        <ele>66</ele>
        <time>2015-03-07T14:50:13Z</time>
      </trkpt>
      <trkpt lat="48.36278" lon="2.99845">
        <ele>66</ele>
        <time>2015-03-07T14:50:19Z</time>
      </trkpt>
      <trkpt lat="48.36277" lon="2.99832">
        <ele>66</ele>
        <time>2015-03-07T14:50:25Z</time>
      </trkpt>
      <trkpt lat="48.36278" lon="2.99821">
        <ele>67</ele>
        <time>2015-03-07T14:50:30Z</time>
      </trkpt>
      <trkpt lat="48.36279" lon="2.99808">
        <ele>66</ele>
        <time>2015-03-07T14:50:35Z</time>
      </trkpt>
      <trkpt lat="48.3628" lon="2.99795">
        <ele>66</ele>
        <time>2015-03-07T14:50:40Z</time>
      </trkpt>
      <trkpt lat="48.36282" lon="2.99783">
        <ele>66</ele>
        <time>2015-03-07T14:50:46Z</time>
      </trkpt>
      <trkpt lat="48.36282" lon="2.99771">
        <ele>67</ele>
        <time>2015-03-07T14:50:52Z</time>
      </trkpt>
      <trkpt lat="48.36284" lon="2.99758">
        <ele>67</ele>
        <time>2015-03-07T14:50:57Z</time>
      </trkpt>
      <trkpt lat="48.36284" lon="2.99746">
        <ele>66</ele>
        <time>2015-03-07T14:51:02Z</time>
      </trkpt>
      <trkpt lat="48.36284" lon="2.99735">
        <ele>66</ele>
        <time>2015-03-07T14:51:07Z</time>
      </trkpt>
      <trkpt lat="48.36284" lon="2.99722">
        <ele>66</ele>
        <time>2015-03-07T14:51:13Z</time>
      </trkpt>
      <trkpt lat="48.36285" lon="2.99709">
        <ele>66</ele>
        <time>2015-03-07T14:51:18Z</time>
      </trkpt>
      <trkpt lat="48.36286" lon="2.99696">
        <ele>66</ele>
        <time>2015-03-07T14:51:24Z</time>
      </trkpt>
      <trkpt lat="48.36288" lon="2.99684">
        <ele>66</ele>
        <time>2015-03-07T14:51:30Z</time>
      </trkpt>
      <trkpt lat="48.36289" lon="2.99673">
        <ele>66</ele>
        <time>2015-03-07T14:51:35Z</time>
      </trkpt>
      <trkpt lat="48.3629" lon="2.99662">
        <ele>66</ele>
        <time>2015-03-07T14:51:39Z</time>
      </trkpt>
      <trkpt lat="48.3629" lon="2.9965">
        <ele>66</ele>
        <time>2015-03-07T14:51:44Z</time>
      </trkpt>
      <trkpt lat="48.36291" lon="2.99637">
        <ele>66</ele>
        <time>2015-03-07T14:51:50Z</time>
      </trkpt>
      <trkpt lat="48.36293" lon="2.99624">
        <ele>66</ele>
        <time>2015-03-07T14:51:55Z</time>
      </trkpt>
      <trkpt lat="48.36294" lon="2.99613">
        <ele>67</ele>
        <time>2015-03-07T14:51:59Z</time>
      </trkpt>
      <trkpt lat="48.36293" lon="2.996">
        <ele>67</ele>
        <time>2015-03-07T14:52:05Z</time>
      </trkpt>
      <trkpt lat="48.36293" lon="2.99588">
        <ele>68</ele>
        <time>2015-03-07T14:52:10Z</time>
      </trkpt>
      <trkpt lat="48.36293" lon="2.99574">
        <ele>68</ele>
        <time>2015-03-07T14:52:16Z</time>
      </trkpt>
      <trkpt lat="48.36294" lon="2.99564">
        <ele>67</ele>
        <time>2015-03-07T14:52:21Z</time>
      </trkpt>
      <trkpt lat="48.36296" lon="2.99552">
        <ele>67</ele>
        <time>2015-03-07T14:52:27Z</time>
      </trkpt>
      <trkpt lat="48.36297" lon="2.9954">
        <ele>67</ele>
        <time>2015-03-07T14:52:33Z</time>
      </trkpt>
      <trkpt lat="48.36298" lon="2.99526">
        <ele>67</ele>
        <time>2015-03-07T14:52:38Z</time>
      </trkpt>
      <trkpt lat="48.36299" lon="2.99512">
        <ele>67</ele>
        <time>2015-03-07T14:52:43Z</time>
      </trkpt>
      <trkpt lat="48.363" lon="2.995">
        <ele>67</ele>
        <time>2015-03-07T14:52:49Z</time>
      </trkpt>
      <trkpt lat="48.363" lon="2.99487">
        <ele>67</ele>
        <time>2015-03-07T14:52:56Z</time>
      </trkpt>
      <trkpt lat="48.36303" lon="2.99476">
        <ele>67</ele>
        <time>2015-03-07T14:53:01Z</time>
      </trkpt>
      <trkpt lat="48.36307" lon="2.99465">
        <ele>67</ele>
        <time>2015-03-07T14:53:06Z</time>
      </trkpt>
      <trkpt lat="48.3631" lon="2.99452">
        <ele>67</ele>
        <time>2015-03-07T14:53:12Z</time>
      </trkpt>
      <trkpt lat="48.36311" lon="2.99441">
        <ele>67</ele>
        <time>2015-03-07T14:53:17Z</time>
      </trkpt>
      <trkpt lat="48.36311" lon="2.99428">
        <ele>67</ele>
        <time>2015-03-07T14:53:22Z</time>
      </trkpt>
      <trkpt lat="48.36313" lon="2.99416">
        <ele>66</ele>
        <time>2015-03-07T14:53:29Z</time>
      </trkpt>
      <trkpt lat="48.36314" lon="2.99403">
        <ele>65</ele>
        <time>2015-03-07T14:53:34Z</time>
      </trkpt>
      <trkpt lat="48.36316" lon="2.99389">
        <ele>65</ele>
        <time>2015-03-07T14:53:39Z</time>
      </trkpt>
      <trkpt lat="48.3632" lon="2.99377">
        <ele>66</ele>
        <time>2015-03-07T14:53:45Z</time>
      </trkpt>
      <trkpt lat="48.36323" lon="2.99365">
        <ele>65</ele>
        <time>2015-03-07T14:53:50Z</time>
      </trkpt>
      <trkpt lat="48.36326" lon="2.99353">
        <ele>66</ele>
        <time>2015-03-07T14:53:56Z</time>
      </trkpt>
      <trkpt lat="48.3633" lon="2.99343">
        <ele>66</ele>
        <time>2015-03-07T14:54:00Z</time>
      </trkpt>
      <trkpt lat="48.36334" lon="2.99332">
        <ele>66</ele>
        <time>2015-03-07T14:54:06Z</time>
      </trkpt>
      <trkpt lat="48.3634" lon="2.99323">
        <ele>66</ele>
        <time>2015-03-07T14:54:12Z</time>
      </trkpt>
      <trkpt lat="48.36347" lon="2.99316">
        <ele>66</ele>
        <time>2015-03-07T14:54:19Z</time>
      </trkpt>
      <trkpt lat="48.36355" lon="2.99312">
        <ele>67</ele>
        <time>2015-03-07T14:54:25Z</time>
      </trkpt>
      <trkpt lat="48.36363" lon="2.99311">
        <ele>67</ele>
        <time>2015-03-07T14:54:30Z</time>
      </trkpt>
      <trkpt lat="48.36371" lon="2.99307">
        <ele>68</ele>
        <time>2015-03-07T14:54:35Z</time>
      </trkpt>
      <trkpt lat="48.36378" lon="2.99304">
        <ele>68</ele>
        <time>2015-03-07T14:54:41Z</time>
      </trkpt>
      <trkpt lat="48.36386" lon="2.99301">
        <ele>68</ele>
        <time>2015-03-07T14:54:46Z</time>
      </trkpt>
      <trkpt lat="48.36393" lon="2.99296">
        <ele>68</ele>
        <time>2015-03-07T14:54:50Z</time>
      </trkpt>
      <trkpt lat="48.36401" lon="2.99292">
        <ele>68</ele>
        <time>2015-03-07T14:54:55Z</time>
      </trkpt>
      <trkpt lat="48.3641" lon="2.99288">
        <ele>68</ele>
        <time>2015-03-07T14:55:00Z</time>
      </trkpt>
      <trkpt lat="48.36418" lon="2.99283">
        <ele>68</ele>
        <time>2015-03-07T14:55:07Z</time>
      </trkpt>
      <trkpt lat="48.36425" lon="2.99279">
        <ele>68</ele>
        <time>2015-03-07T14:55:15Z</time>
      </trkpt>
      <trkpt lat="48.36435" lon="2.99277">
        <ele>67</ele>
        <time>2015-03-07T14:55:20Z</time>
      </trkpt>
      <trkpt lat="48.36443" lon="2.99272">
        <ele>67</ele>
        <time>2015-03-07T14:55:25Z</time>
      </trkpt>
      <trkpt lat="48.3645" lon="2.99268">
        <ele>67</ele>
        <time>2015-03-07T14:55:29Z</time>
      </trkpt>
      <trkpt lat="48.36458" lon="2.99259">
        <ele>66</ele>
        <time>2015-03-07T14:55:34Z</time>
      </trkpt>
      <trkpt lat="48.36466" lon="2.99253">
        <ele>66</ele>
        <time>2015-03-07T14:55:41Z</time>
      </trkpt>
      <trkpt lat="48.3647" lon="2.99242">
        <ele>66</ele>
        <time>2015-03-07T14:55:46Z</time>
      </trkpt>
      <trkpt lat="48.36473" lon="2.99227">
        <ele>65</ele>
        <time>2015-03-07T14:55:51Z</time>
      </trkpt>
      <trkpt lat="48.3647" lon="2.99213">
        <ele>64</ele>
        <time>2015-03-07T14:55:56Z</time>
      </trkpt>
      <trkpt lat="48.36466" lon="2.99204">
        <ele>64</ele>
        <time>2015-03-07T14:56:01Z</time>
      </trkpt>
      <trkpt lat="48.36463" lon="2.99192">
        <ele>63</ele>
        <time>2015-03-07T14:56:07Z</time>
      </trkpt>
      <trkpt lat="48.3646" lon="2.99181">
        <ele>62</ele>
        <time>2015-03-07T14:56:13Z</time>
      </trkpt>
      <trkpt lat="48.36458" lon="2.9917">
        <ele>62</ele>
        <time>2015-03-07T14:56:18Z</time>
      </trkpt>
      <trkpt lat="48.36455" lon="2.99158">
        <ele>62</ele>
        <time>2015-03-07T14:56:23Z</time>
      </trkpt>
      <trkpt lat="48.36452" lon="2.99146">
        <ele>62</ele>
        <time>2015-03-07T14:56:28Z</time>
      </trkpt>
      <trkpt lat="48.3645" lon="2.99134">
        <ele>62</ele>
        <time>2015-03-07T14:56:33Z</time>
      </trkpt>
      <trkpt lat="48.36448" lon="2.99123">
        <ele>62</ele>
        <time>2015-03-07T14:56:38Z</time>
      </trkpt>
      <trkpt lat="48.36446" lon="2.99111">
        <ele>62</ele>
        <time>2015-03-07T14:56:45Z</time>
      </trkpt>
      <trkpt lat="48.36446" lon="2.99098">
        <ele>62</ele>
        <time>2015-03-07T14:56:51Z</time>
      </trkpt>
      <trkpt lat="48.36446" lon="2.99087">
        <ele>62</ele>
        <time>2015-03-07T14:56:56Z</time>
      </trkpt>
      <trkpt lat="48.36445" lon="2.99074">
        <ele>61</ele>
        <time>2015-03-07T14:57:01Z</time>
      </trkpt>
      <trkpt lat="48.36442" lon="2.9906">
        <ele>61</ele>
        <time>2015-03-07T14:57:06Z</time>
      </trkpt>
      <trkpt lat="48.36441" lon="2.99048">
        <ele>61</ele>
        <time>2015-03-07T14:57:12Z</time>
      </trkpt>
      <trkpt lat="48.36438" lon="2.99038">
        <ele>60</ele>
        <time>2015-03-07T14:57:17Z</time>
      </trkpt>
      <trkpt lat="48.36436" lon="2.99027">
        <ele>60</ele>
        <time>2015-03-07T14:57:22Z</time>
      </trkpt>
      <trkpt lat="48.36434" lon="2.99015">
        <ele>59</ele>
        <time>2015-03-07T14:57:27Z</time>
      </trkpt>
      <trkpt lat="48.36434" lon="2.99002">
        <ele>58</ele>
        <time>2015-03-07T14:57:32Z</time>
      </trkpt>
      <trkpt lat="48.36436" lon="2.9899">
        <ele>58</ele>
        <time>2015-03-07T14:57:38Z</time>
      </trkpt>
      <trkpt lat="48.3644" lon="2.98981">
        <ele>58</ele>
        <time>2015-03-07T14:57:42Z</time>
      </trkpt>
      <trkpt lat="48.36444" lon="2.98971">
        <ele>58</ele>
        <time>2015-03-07T14:57:47Z</time>
      </trkpt>
      <trkpt lat="48.36448" lon="2.9896">
        <ele>58</ele>
        <time>2015-03-07T14:57:53Z</time>
      </trkpt>
      <trkpt lat="48.36451" lon="2.98951">
        <ele>57</ele>
        <time>2015-03-07T14:57:57Z</time>
      </trkpt>
      <trkpt lat="48.36454" lon="2.9894">
        <ele>57</ele>
        <time>2015-03-07T14:58:02Z</time>
      </trkpt>
      <trkpt lat="48.36457" lon="2.98927">
        <ele>56</ele>
        <time>2015-03-07T14:58:08Z</time>
      </trkpt>
      <trkpt lat="48.36462" lon="2.98919">
        <ele>56</ele>
        <time>2015-03-07T14:58:12Z</time>
      </trkpt>
      <trkpt lat="48.36464" lon="2.98907">
        <ele>56</ele>
        <time>2015-03-07T14:58:17Z</time>
      </trkpt>
      <trkpt lat="48.36464" lon="2.98896">
        <ele>56</ele>
        <time>2015-03-07T14:58:22Z</time>
      </trkpt>
      <trkpt lat="48.36464" lon="2.98882">
        <ele>56</ele>
        <time>2015-03-07T14:58:27Z</time>
      </trkpt>
      <trkpt lat="48.36463" lon="2.9887">
        <ele>55</ele>
        <time>2015-03-07T14:58:33Z</time>
      </trkpt>
      <trkpt lat="48.36464" lon="2.98859">
        <ele>54</ele>
        <time>2015-03-07T14:58:38Z</time>
      </trkpt>
      <trkpt lat="48.36466" lon="2.98846">
        <ele>54</ele>
        <time>2015-03-07T14:58:43Z</time>
      </trkpt>
      <trkpt lat="48.36465" lon="2.98835">
        <ele>53</ele>
        <time>2015-03-07T14:58:48Z</time>
      </trkpt>
      <trkpt lat="48.3646" lon="2.98819">
        <ele>53</ele>
        <time>2015-03-07T14:58:53Z</time>
      </trkpt>
      <trkpt lat="48.36467" lon="2.98811">
        <ele>52</ele>
        <time>2015-03-07T14:59:01Z</time>
      </trkpt>
      <trkpt lat="48.36472" lon="2.98799">
        <ele>52</ele>
        <time>2015-03-07T14:59:06Z</time>
      </trkpt>
      <trkpt lat="48.36473" lon="2.98787">
        <ele>52</ele>
        <time>2015-03-07T14:59:10Z</time>
      </trkpt>
      <trkpt lat="48.36474" lon="2.98777">
        <ele>52</ele>
        <time>2015-03-07T14:59:14Z</time>
      </trkpt>
      <trkpt lat="48.36474" lon="2.98765">
        <ele>52</ele>
        <time>2015-03-07T14:59:18Z</time>
      </trkpt>
      <trkpt lat="48.36475" lon="2.98752">
        <ele>53</ele>
        <time>2015-03-07T14:59:23Z</time>
      </trkpt>
      <trkpt lat="48.36474" lon="2.98738">
        <ele>53</ele>
        <time>2015-03-07T14:59:28Z</time>
      </trkpt>
      <trkpt lat="48.36476" lon="2.98725">
        <ele>53</ele>
        <time>2015-03-07T14:59:33Z</time>
      </trkpt>
      <trkpt lat="48.36475" lon="2.98713">
        <ele>54</ele>
        <time>2015-03-07T14:59:39Z</time>
      </trkpt>
      <trkpt lat="48.36475" lon="2.987">
        <ele>54</ele>
        <time>2015-03-07T14:59:44Z</time>
      </trkpt>
      <trkpt lat="48.36476" lon="2.98688">
        <ele>54</ele>
        <time>2015-03-07T14:59:51Z</time>
      </trkpt>
      <trkpt lat="48.36476" lon="2.98676">
        <ele>53</ele>
        <time>2015-03-07T14:59:56Z</time>
      </trkpt>
      <trkpt lat="48.36476" lon="2.98663">
        <ele>53</ele>
        <time>2015-03-07T15:00:02Z</time>
      </trkpt>
      <trkpt lat="48.36475" lon="2.98651">
        <ele>52</ele>
        <time>2015-03-07T15:00:07Z</time>
      </trkpt>
      <trkpt lat="48.36476" lon="2.98639">
        <ele>52</ele>
        <time>2015-03-07T15:00:12Z</time>
      </trkpt>
      <trkpt lat="48.36474" lon="2.98626">
        <ele>51</ele>
        <time>2015-03-07T15:00:17Z</time>
      </trkpt>
      <trkpt lat="48.36473" lon="2.98613">
        <ele>51</ele>
        <time>2015-03-07T15:00:23Z</time>
      </trkpt>
      <trkpt lat="48.36473" lon="2.98603">
        <ele>50</ele>
        <time>2015-03-07T15:00:27Z</time>
      </trkpt>
      <trkpt lat="48.36472" lon="2.98591">
        <ele>50</ele>
        <time>2015-03-07T15:00:32Z</time>
      </trkpt>
      <trkpt lat="48.36474" lon="2.98579">
        <ele>50</ele>
        <time>2015-03-07T15:00:37Z</time>
      </trkpt>
      <trkpt lat="48.36475" lon="2.98567">
        <ele>50</ele>
        <time>2015-03-07T15:00:43Z</time>
      </trkpt>
      <trkpt lat="48.36474" lon="2.98554">
        <ele>50</ele>
        <time>2015-03-07T15:00:49Z</time>
      </trkpt>
      <trkpt lat="48.36473" lon="2.98542">
        <ele>50</ele>
        <time>2015-03-07T15:00:54Z</time>
      </trkpt>
      <trkpt lat="48.36474" lon="2.9853">
        <ele>50</ele>
        <time>2015-03-07T15:01:00Z</time>
      </trkpt>
      <trkpt lat="48.36473" lon="2.98517">
        <ele>50</ele>
        <time>2015-03-07T15:01:05Z</time>
      </trkpt>
      <trkpt lat="48.36474" lon="2.98505">
        <ele>50</ele>
        <time>2015-03-07T15:01:10Z</time>
      </trkpt>
      <trkpt lat="48.36476" lon="2.98494">
        <ele>51</ele>
        <time>2015-03-07T15:01:16Z</time>
      </trkpt>
      <trkpt lat="48.36477" lon="2.98482">
        <ele>51</ele>
        <time>2015-03-07T15:01:21Z</time>
      </trkpt>
      <trkpt lat="48.36478" lon="2.9847">
        <ele>51</ele>
        <time>2015-03-07T15:01:25Z</time>
      </trkpt>
      <trkpt lat="48.36478" lon="2.98458">
        <ele>51</ele>
        <time>2015-03-07T15:01:30Z</time>
      </trkpt>
      <trkpt lat="48.36479" lon="2.98445">
        <ele>52</ele>
        <time>2015-03-07T15:01:37Z</time>
      </trkpt>
      <trkpt lat="48.36479" lon="2.98432">
        <ele>52</ele>
        <time>2015-03-07T15:01:43Z</time>
      </trkpt>
      <trkpt lat="48.3648" lon="2.9842">
        <ele>52</ele>
        <time>2015-03-07T15:01:48Z</time>
      </trkpt>
      <trkpt lat="48.36481" lon="2.98407">
        <ele>51</ele>
        <time>2015-03-07T15:01:53Z</time>
      </trkpt>
      <trkpt lat="48.36482" lon="2.98394">
        <ele>51</ele>
        <time>2015-03-07T15:01:59Z</time>
      </trkpt>
      <trkpt lat="48.36484" lon="2.98382">
        <ele>50</ele>
        <time>2015-03-07T15:02:05Z</time>
      </trkpt>
      <trkpt lat="48.36483" lon="2.9837">
        <ele>50</ele>
        <time>2015-03-07T15:02:10Z</time>
      </trkpt>
      <trkpt lat="48.36483" lon="2.98356">
        <ele>50</ele>
        <time>2015-03-07T15:02:14Z</time>
      </trkpt>
      <trkpt lat="48.36483" lon="2.98344">
        <ele>51</ele>
        <time>2015-03-07T15:02:20Z</time>
      </trkpt>
      <trkpt lat="48.36485" lon="2.98332">
        <ele>51</ele>
        <time>2015-03-07T15:02:26Z</time>
      </trkpt>
      <trkpt lat="48.36485" lon="2.98321">
        <ele>51</ele>
        <time>2015-03-07T15:02:30Z</time>
      </trkpt>
      <trkpt lat="48.36487" lon="2.98309">
        <ele>51</ele>
        <time>2015-03-07T15:02:34Z</time>
      </trkpt>
      <trkpt lat="48.36488" lon="2.98297">
        <ele>51</ele>
        <time>2015-03-07T15:02:40Z</time>
      </trkpt>
      <trkpt lat="48.3649" lon="2.98286">
        <ele>51</ele>
        <time>2015-03-07T15:02:47Z</time>
      </trkpt>
      <trkpt lat="48.36491" lon="2.98274">
        <ele>51</ele>
        <time>2015-03-07T15:02:53Z</time>
      </trkpt>
      <trkpt lat="48.36493" lon="2.98261">
        <ele>51</ele>
        <time>2015-03-07T15:02:58Z</time>
      </trkpt>
      <trkpt lat="48.36494" lon="2.98249">
        <ele>51</ele>
        <time>2015-03-07T15:03:03Z</time>
      </trkpt>
      <trkpt lat="48.36494" lon="2.98236">
        <ele>50</ele>
        <time>2015-03-07T15:03:09Z</time>
      </trkpt>
      <trkpt lat="48.36495" lon="2.98225">
        <ele>50</ele>
        <time>2015-03-07T15:03:14Z</time>
      </trkpt>
      <trkpt lat="48.36497" lon="2.98213">
        <ele>50</ele>
        <time>2015-03-07T15:03:18Z</time>
      </trkpt>
      <trkpt lat="48.36499" lon="2.982">
        <ele>50</ele>
        <time>2015-03-07T15:03:24Z</time>
      </trkpt>
      <trkpt lat="48.365" lon="2.98188">
        <ele>50</ele>
        <time>2015-03-07T15:03:30Z</time>
      </trkpt>
      <trkpt lat="48.36502" lon="2.98177">
        <ele>50</ele>
        <time>2015-03-07T15:03:35Z</time>
      </trkpt>
      <trkpt lat="48.36506" lon="2.98166">
        <ele>50</ele>
        <time>2015-03-07T15:03:40Z</time>
      </trkpt>
      <trkpt lat="48.36514" lon="2.98162">
        <ele>50</ele>
        <time>2015-03-07T15:03:47Z</time>
      </trkpt>
      <trkpt lat="48.36523" lon="2.98163">
        <ele>50</ele>
        <time>2015-03-07T15:03:53Z</time>
      </trkpt>
      <trkpt lat="48.36531" lon="2.98165">
        <ele>50</ele>
        <time>2015-03-07T15:03:59Z</time>
      </trkpt>
      <trkpt lat="48.36538" lon="2.9817">
        <ele>50</ele>
        <time>2015-03-07T15:04:04Z</time>
      </trkpt>
      <trkpt lat="48.36546" lon="2.98173">
        <ele>49</ele>
        <time>2015-03-07T15:04:10Z</time>
      </trkpt>
      <trkpt lat="48.36555" lon="2.98175">
        <ele>48</ele>
        <time>2015-03-07T15:04:15Z</time>
      </trkpt>
      <trkpt lat="48.36563" lon="2.98176">
        <ele>47</ele>
        <time>2015-03-07T15:04:20Z</time>
      </trkpt>
      <trkpt lat="48.36572" lon="2.98172">
        <ele>46</ele>
        <time>2015-03-07T15:04:33Z</time>
      </trkpt>
      <trkpt lat="48.36579" lon="2.98169">
        <ele>45</ele>
        <time>2015-03-07T15:04:41Z</time>
      </trkpt>
      <trkpt lat="48.36596" lon="2.98186">
        <ele>45</ele>
        <time>2015-03-07T15:04:46Z</time>
      </trkpt>
      <trkpt lat="48.36606" lon="2.98193">
        <ele>46</ele>
        <time>2015-03-07T15:04:50Z</time>
      </trkpt>
      <trkpt lat="48.36611" lon="2.98202">
        <ele>46</ele>
        <time>2015-03-07T15:04:55Z</time>
      </trkpt>
      <trkpt lat="48.36611" lon="2.98215">
        <ele>46</ele>
        <time>2015-03-07T15:05:00Z</time>
      </trkpt>
      <trkpt lat="48.36609" lon="2.98225">
        <ele>47</ele>
        <time>2015-03-07T15:05:04Z</time>
      </trkpt>
      <trkpt lat="48.36607" lon="2.98237">
        <ele>47</ele>
        <time>2015-03-07T15:05:10Z</time>
      </trkpt>
      <trkpt lat="48.36606" lon="2.98248">
        <ele>47</ele>
        <time>2015-03-07T15:05:15Z</time>
      </trkpt>
      <trkpt lat="48.36605" lon="2.98259">
        <ele>48</ele>
        <time>2015-03-07T15:05:20Z</time>
      </trkpt>
      <trkpt lat="48.36604" lon="2.98272">
        <ele>49</ele>
        <time>2015-03-07T15:05:26Z</time>
      </trkpt>
      <trkpt lat="48.36601" lon="2.98284">
        <ele>49</ele>
        <time>2015-03-07T15:05:32Z</time>
      </trkpt>
      <trkpt lat="48.366" lon="2.98296">
        <ele>50</ele>
        <time>2015-03-07T15:05:37Z</time>
      </trkpt>
      <trkpt lat="48.36599" lon="2.98307">
        <ele>50</ele>
        <time>2015-03-07T15:05:42Z</time>
      </trkpt>
      <trkpt lat="48.36599" lon="2.98319">
        <ele>51</ele>
        <time>2015-03-07T15:05:47Z</time>
      </trkpt>
      <trkpt lat="48.36599" lon="2.98331">
        <ele>51</ele>
        <time>2015-03-07T15:05:53Z</time>
      </trkpt>
      <trkpt lat="48.366" lon="2.98345">
        <ele>50</ele>
        <time>2015-03-07T15:05:59Z</time>
      </trkpt>
      <trkpt lat="48.36602" lon="2.98356">
        <ele>51</ele>
        <time>2015-03-07T15:06:04Z</time>
      </trkpt>
      <trkpt lat="48.36607" lon="2.98365">
        <ele>52</ele>
        <time>2015-03-07T15:06:09Z</time>
      </trkpt>
      <trkpt lat="48.36612" lon="2.98375">
        <ele>53</ele>
        <time>2015-03-07T15:06:15Z</time>
      </trkpt>
      <trkpt lat="48.3662" lon="2.98382">
        <ele>54</ele>
        <time>2015-03-07T15:06:21Z</time>
      </trkpt>
      <trkpt lat="48.36628" lon="2.98387">
        <ele>54</ele>
        <time>2015-03-07T15:06:26Z</time>
      </trkpt>
      <trkpt lat="48.36637" lon="2.9839">
        <ele>55</ele>
        <time>2015-03-07T15:06:32Z</time>
      </trkpt>
      <trkpt lat="48.36645" lon="2.98391">
        <ele>55</ele>
        <time>2015-03-07T15:06:37Z</time>
      </trkpt>
      <trkpt lat="48.36654" lon="2.98392">
        <ele>56</ele>
        <time>2015-03-07T15:06:42Z</time>
      </trkpt>
      <trkpt lat="48.36662" lon="2.98391">
        <ele>56</ele>
        <time>2015-03-07T15:06:48Z</time>
      </trkpt>
      <trkpt lat="48.3667" lon="2.98391">
        <ele>56</ele>
        <time>2015-03-07T15:06:54Z</time>
      </trkpt>
      <trkpt lat="48.36678" lon="2.98393">
        <ele>56</ele>
        <time>2015-03-07T15:07:00Z</time>
      </trkpt>
      <trkpt lat="48.36686" lon="2.98394">
        <ele>56</ele>
        <time>2015-03-07T15:07:05Z</time>
      </trkpt>
      <trkpt lat="48.36693" lon="2.98395">
        <ele>56</ele>
        <time>2015-03-07T15:07:09Z</time>
      </trkpt>
      <trkpt lat="48.36701" lon="2.98397">
        <ele>55</ele>
        <time>2015-03-07T15:07:15Z</time>
      </trkpt>
      <trkpt lat="48.36709" lon="2.984">
        <ele>55</ele>
        <time>2015-03-07T15:07:20Z</time>
      </trkpt>
      <trkpt lat="48.36718" lon="2.98402">
        <ele>55</ele>
        <time>2015-03-07T15:07:25Z</time>
      </trkpt>
      <trkpt lat="48.36726" lon="2.98404">
        <ele>55</ele>
        <time>2015-03-07T15:07:30Z</time>
      </trkpt>
      <trkpt lat="48.36735" lon="2.98405">
        <ele>54</ele>
        <time>2015-03-07T15:07:38Z</time>
      </trkpt>
      <trkpt lat="48.36742" lon="2.98396">
        <ele>55</ele>
        <time>2015-03-07T15:07:54Z</time>
      </trkpt>
      <trkpt lat="48.36739" lon="2.98384">
        <ele>54</ele>
        <time>2015-03-07T15:08:01Z</time>
      </trkpt>
      <trkpt lat="48.36735" lon="2.98374">
        <ele>53</ele>
        <time>2015-03-07T15:08:06Z</time>
      </trkpt>
      <trkpt lat="48.36735" lon="2.98362">
        <ele>53</ele>
        <time>2015-03-07T15:08:12Z</time>
      </trkpt>
      <trkpt lat="48.36736" lon="2.98349">
        <ele>53</ele>
        <time>2015-03-07T15:08:17Z</time>
      </trkpt>
      <trkpt lat="48.36735" lon="2.98338">
        <ele>52</ele>
        <time>2015-03-07T15:08:23Z</time>
      </trkpt>
      <trkpt lat="48.36737" lon="2.98327">
        <ele>52</ele>
        <time>2015-03-07T15:08:28Z</time>
      </trkpt>
      <trkpt lat="48.36739" lon="2.98314">
        <ele>51</ele>
        <time>2015-03-07T15:08:33Z</time>
      </trkpt>
      <trkpt lat="48.36742" lon="2.98303">
        <ele>51</ele>
        <time>2015-03-07T15:08:39Z</time>
      </trkpt>
      <trkpt lat="48.36746" lon="2.98293">
        <ele>51</ele>
        <time>2015-03-07T15:08:44Z</time>
      </trkpt>
      <trkpt lat="48.36748" lon="2.9828">
        <ele>52</ele>
        <time>2015-03-07T15:08:49Z</time>
      </trkpt>
      <trkpt lat="48.36751" lon="2.98267">
        <ele>52</ele>
        <time>2015-03-07T15:08:54Z</time>
      </trkpt>
      <trkpt lat="48.36751" lon="2.98253">
        <ele>52</ele>
        <time>2015-03-07T15:09:00Z</time>
      </trkpt>
      <trkpt lat="48.36752" lon="2.98241">
        <ele>52</ele>
        <time>2015-03-07T15:09:06Z</time>
      </trkpt>
      <trkpt lat="48.36754" lon="2.98229">
        <ele>52</ele>
        <time>2015-03-07T15:09:12Z</time>
      </trkpt>
      <trkpt lat="48.36757" lon="2.98216">
        <ele>52</ele>
        <time>2015-03-07T15:09:17Z</time>
      </trkpt>
      <trkpt lat="48.36757" lon="2.98205">
        <ele>52</ele>
        <time>2015-03-07T15:09:21Z</time>
      </trkpt>
      <trkpt lat="48.36759" lon="2.98192">
        <ele>53</ele>
        <time>2015-03-07T15:09:27Z</time>
      </trkpt>
      <trkpt lat="48.3676" lon="2.98177">
        <ele>53</ele>
        <time>2015-03-07T15:09:32Z</time>
      </trkpt>
      <trkpt lat="48.36761" lon="2.98164">
        <ele>53</ele>
        <time>2015-03-07T15:09:38Z</time>
      </trkpt>
      <trkpt lat="48.3676" lon="2.98153">
        <ele>54</ele>
        <time>2015-03-07T15:09:46Z</time>
      </trkpt>
      <trkpt lat="48.36761" lon="2.98141">
        <ele>53</ele>
        <time>2015-03-07T15:09:50Z</time>
      </trkpt>
      <trkpt lat="48.36761" lon="2.98129">
        <ele>52</ele>
        <time>2015-03-07T15:09:54Z</time>
      </trkpt>
      <trkpt lat="48.3676" lon="2.98117">
        <ele>51</ele>
        <time>2015-03-07T15:10:00Z</time>
      </trkpt>
      <trkpt lat="48.36762" lon="2.98104">
        <ele>51</ele>
        <time>2015-03-07T15:10:06Z</time>
      </trkpt>
      <trkpt lat="48.36763" lon="2.98093">
        <ele>51</ele>
        <time>2015-03-07T15:10:14Z</time>
      </trkpt>
      <trkpt lat="48.36764" lon="2.98081">
        <ele>52</ele>
        <time>2015-03-07T15:10:19Z</time>
      </trkpt>
      <trkpt lat="48.36766" lon="2.9807">
        <ele>53</ele>
        <time>2015-03-07T15:10:24Z</time>
      </trkpt>
      <trkpt lat="48.36769" lon="2.9806">
        <ele>53</ele>
        <time>2015-03-07T15:10:29Z</time>
      </trkpt>
      <trkpt lat="48.3677" lon="2.98044">
        <ele>54</ele>
        <time>2015-03-07T15:10:33Z</time>
      </trkpt>
      <trkpt lat="48.36772" lon="2.98031">
        <ele>54</ele>
        <time>2015-03-07T15:10:38Z</time>
      </trkpt>
      <trkpt lat="48.36773" lon="2.98018">
        <ele>54</ele>
        <time>2015-03-07T15:10:44Z</time>
      </trkpt>
      <trkpt lat="48.36774" lon="2.98005">
        <ele>54</ele>
        <time>2015-03-07T15:10:49Z</time>
      </trkpt>
      <trkpt lat="48.36775" lon="2.97994">
        <ele>53</ele>
        <time>2015-03-07T15:10:55Z</time>
      </trkpt>
      <trkpt lat="48.36777" lon="2.97983">
        <ele>53</ele>
        <time>2015-03-07T15:11:00Z</time>
      </trkpt>
      <trkpt lat="48.36777" lon="2.97968">
        <ele>53</ele>
        <time>2015-03-07T15:11:05Z</time>
      </trkpt>
      <trkpt lat="48.36778" lon="2.97955">
        <ele>53</ele>
        <time>2015-03-07T15:11:12Z</time>
      </trkpt>
      <trkpt lat="48.36779" lon="2.97942">
        <ele>53</ele>
        <time>2015-03-07T15:11:18Z</time>
      </trkpt>
      <trkpt lat="48.3678" lon="2.97929">
        <ele>52</ele>
        <time>2015-03-07T15:11:25Z</time>
      </trkpt>
      <trkpt lat="48.36779" lon="2.97916">
        <ele>52</ele>
        <time>2015-03-07T15:11:29Z</time>
      </trkpt>
      <trkpt lat="48.36781" lon="2.97904">
        <ele>52</ele>
        <time>2015-03-07T15:11:34Z</time>
      </trkpt>
      <trkpt lat="48.36784" lon="2.97892">
        <ele>51</ele>
        <time>2015-03-07T15:11:40Z</time>
      </trkpt>
      <trkpt lat="48.36786" lon="2.9788">
        <ele>51</ele>
        <time>2015-03-07T15:11:46Z</time>
      </trkpt>
      <trkpt lat="48.36786" lon="2.97869">
        <ele>51</ele>
        <time>2015-03-07T15:11:51Z</time>
      </trkpt>
      <trkpt lat="48.36789" lon="2.97858">
        <ele>52</ele>
        <time>2015-03-07T15:11:55Z</time>
      </trkpt>
      <trkpt lat="48.3679" lon="2.97847">
        <ele>51</ele>
        <time>2015-03-07T15:12:01Z</time>
      </trkpt>
      <trkpt lat="48.36789" lon="2.97835">
        <ele>51</ele>
        <time>2015-03-07T15:12:07Z</time>
      </trkpt>
      <trkpt lat="48.36789" lon="2.97824">
        <ele>50</ele>
        <time>2015-03-07T15:12:12Z</time>
      </trkpt>
      <trkpt lat="48.36789" lon="2.97811">
        <ele>49</ele>
        <time>2015-03-07T15:12:17Z</time>
      </trkpt>
      <trkpt lat="48.3679" lon="2.97798">
        <ele>48</ele>
        <time>2015-03-07T15:12:23Z</time>
      </trkpt>
      <trkpt lat="48.36791" lon="2.97785">
        <ele>48</ele>
        <time>2015-03-07T15:12:28Z</time>
      </trkpt>
      <trkpt lat="48.36792" lon="2.97773">
        <ele>48</ele>
        <time>2015-03-07T15:12:33Z</time>
      </trkpt>
      <trkpt lat="48.36793" lon="2.97761">
        <ele>48</ele>
        <time>2015-03-07T15:12:39Z</time>
      </trkpt>
      <trkpt lat="48.36794" lon="2.97748">
        <ele>47</ele>
        <time>2015-03-07T15:12:45Z</time>
      </trkpt>
      <trkpt lat="48.36796" lon="2.97737">
        <ele>47</ele>
        <time>2015-03-07T15:12:51Z</time>
      </trkpt>
      <trkpt lat="48.36798" lon="2.97724">
        <ele>47</ele>
        <time>2015-03-07T15:12:56Z</time>
      </trkpt>
      <trkpt lat="48.368" lon="2.97712">
        <ele>47</ele>
        <time>2015-03-07T15:13:01Z</time>
      </trkpt>
      <trkpt lat="48.36802" lon="2.977">
        <ele>47</ele>
        <time>2015-03-07T15:13:06Z</time>
      </trkpt>
      <trkpt lat="48.36802" lon="2.97689">
        <ele>47</ele>
        <time>2015-03-07T15:13:11Z</time>
      </trkpt>
      <trkpt lat="48.36802" lon="2.97676">
        <ele>47</ele>
        <time>2015-03-07T15:13:17Z</time>
      </trkpt>
      <trkpt lat="48.36804" lon="2.97664">
        <ele>47</ele>
        <time>2015-03-07T15:13:22Z</time>
      </trkpt>
      <trkpt lat="48.36805" lon="2.97651">
        <ele>47</ele>
        <time>2015-03-07T15:13:29Z</time>
      </trkpt>
      <trkpt lat="48.36808" lon="2.9764">
        <ele>46</ele>
        <time>2015-03-07T15:13:35Z</time>
      </trkpt>
      <trkpt lat="48.3681" lon="2.97627">
        <ele>46</ele>
        <time>2015-03-07T15:13:41Z</time>
      </trkpt>
      <trkpt lat="48.36812" lon="2.97616">
        <ele>46</ele>
        <time>2015-03-07T15:13:46Z</time>
      </trkpt>
      <trkpt lat="48.36814" lon="2.97603">
        <ele>46</ele>
        <time>2015-03-07T15:13:51Z</time>
      </trkpt>
      <trkpt lat="48.36815" lon="2.97591">
        <ele>46</ele>
        <time>2015-03-07T15:13:56Z</time>
      </trkpt>
      <trkpt lat="48.36817" lon="2.97579">
        <ele>46</ele>
        <time>2015-03-07T15:14:02Z</time>
      </trkpt>
      <trkpt lat="48.3682" lon="2.97567">
        <ele>46</ele>
        <time>2015-03-07T15:14:08Z</time>
      </trkpt>
      <trkpt lat="48.36823" lon="2.97556">
        <ele>45</ele>
        <time>2015-03-07T15:14:13Z</time>
      </trkpt>
      <trkpt lat="48.36826" lon="2.97544">
        <ele>45</ele>
        <time>2015-03-07T15:14:18Z</time>
      </trkpt>
      <trkpt lat="48.36829" lon="2.97533">
        <ele>45</ele>
        <time>2015-03-07T15:14:24Z</time>
      </trkpt>
      <trkpt lat="48.3683" lon="2.97521">
        <ele>45</ele>
        <time>2015-03-07T15:14:29Z</time>
      </trkpt>
      <trkpt lat="48.36833" lon="2.9751">
        <ele>46</ele>
        <time>2015-03-07T15:14:34Z</time>
      </trkpt>
      <trkpt lat="48.36838" lon="2.97499">
        <ele>46</ele>
        <time>2015-03-07T15:14:39Z</time>
      </trkpt>
      <trkpt lat="48.36841" lon="2.97488">
        <ele>47</ele>
        <time>2015-03-07T15:14:45Z</time>
      </trkpt>
      <trkpt lat="48.36842" lon="2.97476">
        <ele>46</ele>
        <time>2015-03-07T15:14:50Z</time>
      </trkpt>
      <trkpt lat="48.36844" lon="2.97464">
        <ele>46</ele>
        <time>2015-03-07T15:14:55Z</time>
      </trkpt>
      <trkpt lat="48.36848" lon="2.97452">
        <ele>46</ele>
        <time>2015-03-07T15:15:01Z</time>
      </trkpt>
      <trkpt lat="48.36851" lon="2.97442">
        <ele>46</ele>
        <time>2015-03-07T15:15:06Z</time>
      </trkpt>
      <trkpt lat="48.36854" lon="2.97431">
        <ele>46</ele>
        <time>2015-03-07T15:15:11Z</time>
      </trkpt>
      <trkpt lat="48.36857" lon="2.97419">
        <ele>46</ele>
        <time>2015-03-07T15:15:17Z</time>
      </trkpt>
      <trkpt lat="48.3686" lon="2.97407">
        <ele>46</ele>
        <time>2015-03-07T15:15:22Z</time>
      </trkpt>
      <trkpt lat="48.36863" lon="2.97398">
        <ele>47</ele>
        <time>2015-03-07T15:15:27Z</time>
      </trkpt>
      <trkpt lat="48.36867" lon="2.97386">
        <ele>47</ele>
        <time>2015-03-07T15:15:32Z</time>
      </trkpt>
      <trkpt lat="48.3687" lon="2.97374">
        <ele>47</ele>
        <time>2015-03-07T15:15:38Z</time>
      </trkpt>
      <trkpt lat="48.36873" lon="2.97361">
        <ele>47</ele>
        <time>2015-03-07T15:15:44Z</time>
      </trkpt>
      <trkpt lat="48.36876" lon="2.97349">
        <ele>47</ele>
        <time>2015-03-07T15:15:50Z</time>
      </trkpt>
      <trkpt lat="48.3688" lon="2.97337">
        <ele>47</ele>
        <time>2015-03-07T15:15:56Z</time>
      </trkpt>
      <trkpt lat="48.36883" lon="2.97327">
        <ele>47</ele>
        <time>2015-03-07T15:16:01Z</time>
      </trkpt>
      <trkpt lat="48.36888" lon="2.97315">
        <ele>47</ele>
        <time>2015-03-07T15:16:06Z</time>
      </trkpt>
      <trkpt lat="48.36892" lon="2.97305">
        <ele>47</ele>
        <time>2015-03-07T15:16:11Z</time>
      </trkpt>
      <trkpt lat="48.36895" lon="2.97294">
        <ele>47</ele>
        <time>2015-03-07T15:16:17Z</time>
      </trkpt>
      <trkpt lat="48.36898" lon="2.97283">
        <ele>47</ele>
        <time>2015-03-07T15:16:22Z</time>
      </trkpt>
      <trkpt lat="48.36901" lon="2.97273">
        <ele>47</ele>
        <time>2015-03-07T15:16:27Z</time>
      </trkpt>
      <trkpt lat="48.36906" lon="2.97261">
        <ele>49</ele>
        <time>2015-03-07T15:16:36Z</time>
      </trkpt>
      <trkpt lat="48.3691" lon="2.9725">
        <ele>51</ele>
        <time>2015-03-07T15:16:41Z</time>
      </trkpt>
      <trkpt lat="48.36914" lon="2.9724">
        <ele>53</ele>
        <time>2015-03-07T15:16:47Z</time>
      </trkpt>
      <trkpt lat="48.36919" lon="2.97229">
        <ele>55</ele>
        <time>2015-03-07T15:16:54Z</time>
      </trkpt>
      <trkpt lat="48.36922" lon="2.9722">
        <ele>56</ele>
        <time>2015-03-07T15:16:59Z</time>
      </trkpt>
      <trkpt lat="48.36927" lon="2.97198">
        <ele>56</ele>
        <time>2015-03-07T15:17:04Z</time>
      </trkpt>
      <trkpt lat="48.36927" lon="2.97186">
        <ele>56</ele>
        <time>2015-03-07T15:17:08Z</time>
      </trkpt>
      <trkpt lat="48.36931" lon="2.97174">
        <ele>56</ele>
        <time>2015-03-07T15:17:13Z</time>
      </trkpt>
      <trkpt lat="48.36933" lon="2.97164">
        <ele>55</ele>
        <time>2015-03-07T15:17:19Z</time>
      </trkpt>
      <trkpt lat="48.36936" lon="2.97151">
        <ele>54</ele>
        <time>2015-03-07T15:17:25Z</time>
      </trkpt>
      <trkpt lat="48.36938" lon="2.9714">
        <ele>53</ele>
        <time>2015-03-07T15:17:29Z</time>
      </trkpt>
      <trkpt lat="48.36941" lon="2.97129">
        <ele>53</ele>
        <time>2015-03-07T15:17:35Z</time>
      </trkpt>
      <trkpt lat="48.36945" lon="2.97119">
        <ele>52</ele>
        <time>2015-03-07T15:17:40Z</time>
      </trkpt>
      <trkpt lat="48.36948" lon="2.9711">
        <ele>51</ele>
        <time>2015-03-07T15:17:44Z</time>
      </trkpt>
      <trkpt lat="48.36952" lon="2.97099">
        <ele>51</ele>
        <time>2015-03-07T15:17:48Z</time>
      </trkpt>
      <trkpt lat="48.36955" lon="2.97087">
        <ele>51</ele>
        <time>2015-03-07T15:17:55Z</time>
      </trkpt>
      <trkpt lat="48.36959" lon="2.97077">
        <ele>51</ele>
        <time>2015-03-07T15:18:00Z</time>
      </trkpt>
      <trkpt lat="48.36962" lon="2.97066">
        <ele>50</ele>
        <time>2015-03-07T15:18:05Z</time>
      </trkpt>
      <trkpt lat="48.36966" lon="2.97055">
        <ele>49</ele>
        <time>2015-03-07T15:18:11Z</time>
      </trkpt>
      <trkpt lat="48.3697" lon="2.97043">
        <ele>49</ele>
        <time>2015-03-07T15:18:16Z</time>
      </trkpt>
      <trkpt lat="48.36972" lon="2.97031">
        <ele>48</ele>
        <time>2015-03-07T15:18:22Z</time>
      </trkpt>
      <trkpt lat="48.36974" lon="2.97021">
        <ele>47</ele>
        <time>2015-03-07T15:18:27Z</time>
      </trkpt>
      <trkpt lat="48.36978" lon="2.9701">
        <ele>47</ele>
        <time>2015-03-07T15:18:31Z</time>
      </trkpt>
      <trkpt lat="48.36981" lon="2.96999">
        <ele>47</ele>
        <time>2015-03-07T15:18:37Z</time>
      </trkpt>
      <trkpt lat="48.36984" lon="2.96988">
        <ele>46</ele>
        <time>2015-03-07T15:18:44Z</time>
      </trkpt>
      <trkpt lat="48.36989" lon="2.96977">
        <ele>45</ele>
        <time>2015-03-07T15:18:50Z</time>
      </trkpt>
      <trkpt lat="48.36993" lon="2.96968">
        <ele>45</ele>
        <time>2015-03-07T15:18:55Z</time>
      </trkpt>
      <trkpt lat="48.36996" lon="2.96956">
        <ele>45</ele>
        <time>2015-03-07T15:19:00Z</time>
      </trkpt>
      <trkpt lat="48.37001" lon="2.96945">
        <ele>44</ele>
        <time>2015-03-07T15:19:05Z</time>
      </trkpt>
      <trkpt lat="48.37005" lon="2.96934">
        <ele>45</ele>
        <time>2015-03-07T15:19:10Z</time>
      </trkpt>
      <trkpt lat="48.37008" lon="2.96925">
        <ele>45</ele>
        <time>2015-03-07T15:19:15Z</time>
      </trkpt>
      <trkpt lat="48.37013" lon="2.96914">
        <ele>45</ele>
        <time>2015-03-07T15:19:21Z</time>
      </trkpt>
      <trkpt lat="48.37019" lon="2.96904">
        <ele>45</ele>
        <time>2015-03-07T15:19:26Z</time>
      </trkpt>
      <trkpt lat="48.37021" lon="2.96892">
        <ele>45</ele>
        <time>2015-03-07T15:19:32Z</time>
      </trkpt>
      <trkpt lat="48.37023" lon="2.96881">
        <ele>45</ele>
        <time>2015-03-07T15:19:37Z</time>
      </trkpt>
      <trkpt lat="48.37027" lon="2.96869">
        <ele>45</ele>
        <time>2015-03-07T15:19:43Z</time>
      </trkpt>
      <trkpt lat="48.37031" lon="2.9686">
        <ele>45</ele>
        <time>2015-03-07T15:19:48Z</time>
      </trkpt>
      <trkpt lat="48.37036" lon="2.9685">
        <ele>44</ele>
        <time>2015-03-07T15:19:52Z</time>
      </trkpt>
      <trkpt lat="48.37041" lon="2.9684">
        <ele>44</ele>
        <time>2015-03-07T15:19:58Z</time>
      </trkpt>
      <trkpt lat="48.37046" lon="2.9683">
        <ele>44</ele>
        <time>2015-03-07T15:20:03Z</time>
      </trkpt>
      <trkpt lat="48.3705" lon="2.96818">
        <ele>44</ele>
        <time>2015-03-07T15:20:09Z</time>
      </trkpt>
      <trkpt lat="48.37053" lon="2.96806">
        <ele>44</ele>
        <time>2015-03-07T15:20:15Z</time>
      </trkpt>
      <trkpt lat="48.37057" lon="2.96795">
        <ele>44</ele>
        <time>2015-03-07T15:20:21Z</time>
      </trkpt>
      <trkpt lat="48.37062" lon="2.96786">
        <ele>44</ele>
        <time>2015-03-07T15:20:26Z</time>
      </trkpt>
      <trkpt lat="48.37067" lon="2.96775">
        <ele>44</ele>
        <time>2015-03-07T15:20:33Z</time>
      </trkpt>
      <trkpt lat="48.37073" lon="2.96762">
        <ele>43</ele>
        <time>2015-03-07T15:20:38Z</time>
      </trkpt>
      <trkpt lat="48.3708" lon="2.96754">
        <ele>43</ele>
        <time>2015-03-07T15:20:43Z</time>
      </trkpt>
      <trkpt lat="48.37086" lon="2.96744">
        <ele>43</ele>
        <time>2015-03-07T15:20:49Z</time>
      </trkpt>
      <trkpt lat="48.37092" lon="2.96734">
        <ele>44</ele>
        <time>2015-03-07T15:20:54Z</time>
      </trkpt>
      <trkpt lat="48.37097" lon="2.96724">
        <ele>44</ele>
        <time>2015-03-07T15:21:00Z</time>
      </trkpt>
      <trkpt lat="48.371" lon="2.96713">
        <ele>44</ele>
        <time>2015-03-07T15:21:05Z</time>
      </trkpt>
      <trkpt lat="48.37105" lon="2.96703">
        <ele>45</ele>
        <time>2015-03-07T15:21:11Z</time>
      </trkpt>
      <trkpt lat="48.3711" lon="2.96694">
        <ele>45</ele>
        <time>2015-03-07T15:21:17Z</time>
      </trkpt>
      <trkpt lat="48.37114" lon="2.96683">
        <ele>45</ele>
        <time>2015-03-07T15:21:24Z</time>
      </trkpt>
      <trkpt lat="48.37117" lon="2.96671">
        <ele>45</ele>
        <time>2015-03-07T15:21:29Z</time>
      </trkpt>
      <trkpt lat="48.37123" lon="2.96661">
        <ele>45</ele>
        <time>2015-03-07T15:21:35Z</time>
      </trkpt>
      <trkpt lat="48.37129" lon="2.96654">
        <ele>45</ele>
        <time>2015-03-07T15:21:40Z</time>
      </trkpt>
      <trkpt lat="48.37133" lon="2.96643">
        <ele>45</ele>
        <time>2015-03-07T15:21:45Z</time>
      </trkpt>
      <trkpt lat="48.37138" lon="2.96633">
        <ele>45</ele>
        <time>2015-03-07T15:21:50Z</time>
      </trkpt>
      <trkpt lat="48.37142" lon="2.96624">
        <ele>44</ele>
        <time>2015-03-07T15:21:55Z</time>
      </trkpt>
      <trkpt lat="48.37148" lon="2.96614">
        <ele>44</ele>
        <time>2015-03-07T15:22:01Z</time>
      </trkpt>
      <trkpt lat="48.37153" lon="2.96604">
        <ele>44</ele>
        <time>2015-03-07T15:22:07Z</time>
      </trkpt>
      <trkpt lat="48.37159" lon="2.96595">
        <ele>45</ele>
        <time>2015-03-07T15:22:13Z</time>
      </trkpt>
      <trkpt lat="48.37164" lon="2.96586">
        <ele>44</ele>
        <time>2015-03-07T15:22:19Z</time>
      </trkpt>
      <trkpt lat="48.3717" lon="2.96576">
        <ele>44</ele>
        <time>2015-03-07T15:22:24Z</time>
      </trkpt>
      <trkpt lat="48.37174" lon="2.96566">
        <ele>44</ele>
        <time>2015-03-07T15:22:30Z</time>
      </trkpt>
      <trkpt lat="48.3718" lon="2.96557">
        <ele>44</ele>
        <time>2015-03-07T15:22:36Z</time>
      </trkpt>
      <trkpt lat="48.37185" lon="2.96548">
        <ele>44</ele>
        <time>2015-03-07T15:22:40Z</time>
      </trkpt>
      <trkpt lat="48.37189" lon="2.96537">
        <ele>44</ele>
        <time>2015-03-07T15:22:45Z</time>
      </trkpt>
      <trkpt lat="48.37195" lon="2.96527">
        <ele>45</ele>
        <time>2015-03-07T15:22:51Z</time>
      </trkpt>
      <trkpt lat="48.37201" lon="2.96518">
        <ele>45</ele>
        <time>2015-03-07T15:22:57Z</time>
      </trkpt>
      <trkpt lat="48.37206" lon="2.96508">
        <ele>45</ele>
        <time>2015-03-07T15:23:04Z</time>
      </trkpt>
      <trkpt lat="48.3721" lon="2.96496">
        <ele>44</ele>
        <time>2015-03-07T15:23:10Z</time>
      </trkpt>
      <trkpt lat="48.37214" lon="2.96483">
        <ele>44</ele>
        <time>2015-03-07T15:23:15Z</time>
      </trkpt>
      <trkpt lat="48.3722" lon="2.96474">
        <ele>44</ele>
        <time>2015-03-07T15:23:20Z</time>
      </trkpt>
      <trkpt lat="48.37226" lon="2.96465">
        <ele>44</ele>
        <time>2015-03-07T15:23:27Z</time>
      </trkpt>
      <trkpt lat="48.3723" lon="2.96453">
        <ele>43</ele>
        <time>2015-03-07T15:23:34Z</time>
      </trkpt>
      <trkpt lat="48.37232" lon="2.9644">
        <ele>42</ele>
        <time>2015-03-07T15:23:42Z</time>
      </trkpt>
      <trkpt lat="48.37236" lon="2.96429">
        <ele>42</ele>
        <time>2015-03-07T15:23:47Z</time>
      </trkpt>
      <trkpt lat="48.37242" lon="2.96419">
        <ele>41</ele>
        <time>2015-03-07T15:23:53Z</time>
      </trkpt>
      <trkpt lat="48.37246" lon="2.96409">
        <ele>41</ele>
        <time>2015-03-07T15:24:01Z</time>
      </trkpt>
      <trkpt lat="48.37252" lon="2.96397">
        <ele>40</ele>
        <time>2015-03-07T15:24:06Z</time>
      </trkpt>
      <trkpt lat="48.37256" lon="2.96386">
        <ele>39</ele>
        <time>2015-03-07T15:24:12Z</time>
      </trkpt>
      <trkpt lat="48.37263" lon="2.96373">
        <ele>38</ele>
        <time>2015-03-07T15:24:17Z</time>
      </trkpt>
      <trkpt lat="48.3727" lon="2.96365">
        <ele>38</ele>
        <time>2015-03-07T15:24:21Z</time>
      </trkpt>
      <trkpt lat="48.37276" lon="2.96357">
        <ele>38</ele>
        <time>2015-03-07T15:24:25Z</time>
      </trkpt>
      <trkpt lat="48.37281" lon="2.96349">
        <ele>38</ele>
        <time>2015-03-07T15:24:30Z</time>
      </trkpt>
      <trkpt lat="48.37287" lon="2.9634">
        <ele>38</ele>
        <time>2015-03-07T15:24:36Z</time>
      </trkpt>
      <trkpt lat="48.37292" lon="2.96333">
        <ele>38</ele>
        <time>2015-03-07T15:24:40Z</time>
      </trkpt>
      <trkpt lat="48.37296" lon="2.96325">
        <ele>38</ele>
        <time>2015-03-07T15:24:45Z</time>
      </trkpt>
      <trkpt lat="48.37302" lon="2.96314">
        <ele>38</ele>
        <time>2015-03-07T15:24:50Z</time>
      </trkpt>
      <trkpt lat="48.37307" lon="2.96306">
        <ele>38</ele>
        <time>2015-03-07T15:24:56Z</time>
      </trkpt>
      <trkpt lat="48.37313" lon="2.96297">
        <ele>38</ele>
        <time>2015-03-07T15:25:01Z</time>
      </trkpt>
      <trkpt lat="48.37319" lon="2.96287">
        <ele>39</ele>
        <time>2015-03-07T15:25:07Z</time>
      </trkpt>
      <trkpt lat="48.37325" lon="2.96278">
        <ele>38</ele>
        <time>2015-03-07T15:25:13Z</time>
      </trkpt>
      <trkpt lat="48.37329" lon="2.96269">
        <ele>38</ele>
        <time>2015-03-07T15:25:18Z</time>
      </trkpt>
      <trkpt lat="48.37334" lon="2.96261">
        <ele>37</ele>
        <time>2015-03-07T15:25:23Z</time>
      </trkpt>
      <trkpt lat="48.37338" lon="2.96252">
        <ele>37</ele>
        <time>2015-03-07T15:25:29Z</time>
      </trkpt>
      <trkpt lat="48.37344" lon="2.96244">
        <ele>36</ele>
        <time>2015-03-07T15:25:33Z</time>
      </trkpt>
      <trkpt lat="48.37348" lon="2.96236">
        <ele>36</ele>
        <time>2015-03-07T15:25:38Z</time>
      </trkpt>
      <trkpt lat="48.37355" lon="2.96227">
        <ele>36</ele>
        <time>2015-03-07T15:25:43Z</time>
      </trkpt>
      <trkpt lat="48.37362" lon="2.9622">
        <ele>36</ele>
        <time>2015-03-07T15:25:48Z</time>
      </trkpt>
      <trkpt lat="48.37368" lon="2.96215">
        <ele>36</ele>
        <time>2015-03-07T15:25:52Z</time>
      </trkpt>
      <trkpt lat="48.37375" lon="2.96208">
        <ele>36</ele>
        <time>2015-03-07T15:25:57Z</time>
      </trkpt>
      <trkpt lat="48.37381" lon="2.96201">
        <ele>35</ele>
        <time>2015-03-07T15:26:02Z</time>
      </trkpt>
      <trkpt lat="48.37386" lon="2.96191">
        <ele>35</ele>
        <time>2015-03-07T15:26:08Z</time>
      </trkpt>
      <trkpt lat="48.37391" lon="2.96182">
        <ele>36</ele>
        <time>2015-03-07T15:26:14Z</time>
      </trkpt>
      <trkpt lat="48.37398" lon="2.96177">
        <ele>36</ele>
        <time>2015-03-07T15:26:19Z</time>
      </trkpt>
      <trkpt lat="48.37405" lon="2.96172">
        <ele>37</ele>
        <time>2015-03-07T15:26:24Z</time>
      </trkpt>
      <trkpt lat="48.37413" lon="2.96164">
        <ele>38</ele>
        <time>2015-03-07T15:26:29Z</time>
      </trkpt>
      <trkpt lat="48.37421" lon="2.96157">
        <ele>40</ele>
        <time>2015-03-07T15:26:36Z</time>
      </trkpt>
      <trkpt lat="48.37427" lon="2.96151">
        <ele>41</ele>
        <time>2015-03-07T15:26:41Z</time>
      </trkpt>
      <trkpt lat="48.37434" lon="2.96147">
        <ele>42</ele>
        <time>2015-03-07T15:26:46Z</time>
      </trkpt>
      <trkpt lat="48.3744" lon="2.96138">
        <ele>43</ele>
        <time>2015-03-07T15:26:52Z</time>
      </trkpt>
      <trkpt lat="48.37445" lon="2.96129">
        <ele>43</ele>
        <time>2015-03-07T15:26:58Z</time>
      </trkpt>
      <trkpt lat="48.3745" lon="2.96118">
        <ele>44</ele>
        <time>2015-03-07T15:27:04Z</time>
      </trkpt>
      <trkpt lat="48.37455" lon="2.96108">
        <ele>44</ele>
        <time>2015-03-07T15:27:10Z</time>
      </trkpt>
      <trkpt lat="48.3746" lon="2.961">
        <ele>43</ele>
        <time>2015-03-07T15:27:15Z</time>
      </trkpt>
      <trkpt lat="48.37465" lon="2.96091">
        <ele>43</ele>
        <time>2015-03-07T15:27:20Z</time>
      </trkpt>
      <trkpt lat="48.37471" lon="2.96083">
        <ele>43</ele>
        <time>2015-03-07T15:27:26Z</time>
      </trkpt>
      <trkpt lat="48.37476" lon="2.96076">
        <ele>43</ele>
        <time>2015-03-07T15:27:30Z</time>
      </trkpt>
      <trkpt lat="48.37483" lon="2.96066">
        <ele>43</ele>
        <time>2015-03-07T15:27:35Z</time>
      </trkpt>
      <trkpt lat="48.37489" lon="2.96057">
        <ele>43</ele>
        <time>2015-03-07T15:27:41Z</time>
      </trkpt>
      <trkpt lat="48.37497" lon="2.9605">
        <ele>42</ele>
        <time>2015-03-07T15:27:48Z</time>
      </trkpt>
      <trkpt lat="48.37503" lon="2.96041">
        <ele>42</ele>
        <time>2015-03-07T15:27:54Z</time>
      </trkpt>
      <trkpt lat="48.3751" lon="2.96033">
        <ele>42</ele>
        <time>2015-03-07T15:28:00Z</time>
      </trkpt>
      <trkpt lat="48.37515" lon="2.96023">
        <ele>42</ele>
        <time>2015-03-07T15:28:05Z</time>
      </trkpt>
      <trkpt lat="48.37522" lon="2.96014">
        <ele>41</ele>
        <time>2015-03-07T15:28:11Z</time>
      </trkpt>
      <trkpt lat="48.37524" lon="2.96027">
        <ele>42</ele>
        <time>2015-03-07T15:28:48Z</time>
      </trkpt>
      <trkpt lat="48.37527" lon="2.96017">
        <ele>42</ele>
        <time>2015-03-07T15:29:10Z</time>
      </trkpt>
      <trkpt lat="48.3753" lon="2.96005">
        <ele>42</ele>
        <time>2015-03-07T15:29:16Z</time>
      </trkpt>
      <trkpt lat="48.37536" lon="2.95997">
        <ele>43</ele>
        <time>2015-03-07T15:29:22Z</time>
      </trkpt>
      <trkpt lat="48.37542" lon="2.95991">
        <ele>43</ele>
        <time>2015-03-07T15:29:27Z</time>
      </trkpt>
      <trkpt lat="48.37549" lon="2.95983">
        <ele>43</ele>
        <time>2015-03-07T15:29:33Z</time>
      </trkpt>
      <trkpt lat="48.37557" lon="2.95978">
        <ele>43</ele>
        <time>2015-03-07T15:29:38Z</time>
      </trkpt>
      <trkpt lat="48.37565" lon="2.95975">
        <ele>44</ele>
        <time>2015-03-07T15:29:44Z</time>
      </trkpt>
      <trkpt lat="48.37572" lon="2.95969">
        <ele>45</ele>
        <time>2015-03-07T15:29:49Z</time>
      </trkpt>
      <trkpt lat="48.37579" lon="2.95962">
        <ele>45</ele>
        <time>2015-03-07T15:29:54Z</time>
      </trkpt>
      <trkpt lat="48.37587" lon="2.95956">
        <ele>45</ele>
        <time>2015-03-07T15:30:00Z</time>
      </trkpt>
      <trkpt lat="48.37595" lon="2.9595">
        <ele>44</ele>
        <time>2015-03-07T15:30:05Z</time>
      </trkpt>
      <trkpt lat="48.37603" lon="2.95948">
        <ele>44</ele>
        <time>2015-03-07T15:30:09Z</time>
      </trkpt>
      <trkpt lat="48.3761" lon="2.95945">
        <ele>44</ele>
        <time>2015-03-07T15:30:13Z</time>
      </trkpt>
      <trkpt lat="48.37618" lon="2.9594">
        <ele>44</ele>
        <time>2015-03-07T15:30:19Z</time>
      </trkpt>
      <trkpt lat="48.37627" lon="2.95936">
        <ele>44</ele>
        <time>2015-03-07T15:30:25Z</time>
      </trkpt>
      <trkpt lat="48.37634" lon="2.95929">
        <ele>45</ele>
        <time>2015-03-07T15:30:31Z</time>
      </trkpt>
      <trkpt lat="48.37643" lon="2.95928">
        <ele>45</ele>
        <time>2015-03-07T15:30:37Z</time>
      </trkpt>
      <trkpt lat="48.37651" lon="2.95925">
        <ele>45</ele>
        <time>2015-03-07T15:30:45Z</time>
      </trkpt>
      <trkpt lat="48.37659" lon="2.95923">
        <ele>44</ele>
        <time>2015-03-07T15:30:51Z</time>
      </trkpt>
      <trkpt lat="48.37668" lon="2.95921">
        <ele>44</ele>
        <time>2015-03-07T15:30:57Z</time>
      </trkpt>
      <trkpt lat="48.37676" lon="2.95918">
        <ele>44</ele>
        <time>2015-03-07T15:31:02Z</time>
      </trkpt>
      <trkpt lat="48.37684" lon="2.95915">
        <ele>44</ele>
        <time>2015-03-07T15:31:08Z</time>
      </trkpt>
      <trkpt lat="48.37691" lon="2.95911">
        <ele>44</ele>
        <time>2015-03-07T15:31:14Z</time>
      </trkpt>
      <trkpt lat="48.377" lon="2.95911">
        <ele>44</ele>
        <time>2015-03-07T15:31:19Z</time>
      </trkpt>
      <trkpt lat="48.37708" lon="2.95908">
        <ele>44</ele>
        <time>2015-03-07T15:31:24Z</time>
      </trkpt>
      <trkpt lat="48.37716" lon="2.95906">
        <ele>43</ele>
        <time>2015-03-07T15:31:31Z</time>
      </trkpt>
      <trkpt lat="48.37726" lon="2.959">
        <ele>43</ele>
        <time>2015-03-07T15:31:36Z</time>
      </trkpt>
      <trkpt lat="48.37733" lon="2.95894">
        <ele>43</ele>
        <time>2015-03-07T15:31:41Z</time>
      </trkpt>
      <trkpt lat="48.3774" lon="2.95886">
        <ele>43</ele>
        <time>2015-03-07T15:31:48Z</time>
      </trkpt>
      <trkpt lat="48.37748" lon="2.95885">
        <ele>44</ele>
        <time>2015-03-07T15:31:54Z</time>
      </trkpt>
      <trkpt lat="48.37757" lon="2.95886">
        <ele>45</ele>
        <time>2015-03-07T15:31:59Z</time>
      </trkpt>
      <trkpt lat="48.37766" lon="2.95886">
        <ele>45</ele>
        <time>2015-03-07T15:32:05Z</time>
      </trkpt>
      <trkpt lat="48.37758" lon="2.95883">
        <ele>48</ele>
        <time>2015-03-07T15:32:36Z</time>
      </trkpt>
      <trkpt lat="48.37758" lon="2.9587">
        <ele>49</ele>
        <time>2015-03-07T15:32:42Z</time>
      </trkpt>
      <trkpt lat="48.37758" lon="2.95858">
        <ele>50</ele>
        <time>2015-03-07T15:32:48Z</time>
      </trkpt>
      <trkpt lat="48.37756" lon="2.95843">
        <ele>51</ele>
        <time>2015-03-07T15:32:52Z</time>
      </trkpt>
      <trkpt lat="48.37755" lon="2.9583">
        <ele>52</ele>
        <time>2015-03-07T15:32:57Z</time>
      </trkpt>
      <trkpt lat="48.37752" lon="2.95819">
        <ele>53</ele>
        <time>2015-03-07T15:33:04Z</time>
      </trkpt>
      <trkpt lat="48.3775" lon="2.95805">
        <ele>54</ele>
        <time>2015-03-07T15:33:09Z</time>
      </trkpt>
      <trkpt lat="48.37747" lon="2.95793">
        <ele>55</ele>
        <time>2015-03-07T15:33:15Z</time>
      </trkpt>
      <trkpt lat="48.37746" lon="2.9578">
        <ele>56</ele>
        <time>2015-03-07T15:33:21Z</time>
      </trkpt>
      <trkpt lat="48.37746" lon="2.95767">
        <ele>57</ele>
        <time>2015-03-07T15:33:26Z</time>
      </trkpt>
      <trkpt lat="48.37745" lon="2.95755">
        <ele>57</ele>
        <time>2015-03-07T15:33:32Z</time>
      </trkpt>
      <trkpt lat="48.37744" lon="2.95744">
        <ele>58</ele>
        <time>2015-03-07T15:33:37Z</time>
      </trkpt>
      <trkpt lat="48.37743" lon="2.95731">
        <ele>59</ele>
        <time>2015-03-07T15:33:44Z</time>
      </trkpt>
      <trkpt lat="48.37743" lon="2.95718">
        <ele>59</ele>
        <time>2015-03-07T15:33:49Z</time>
      </trkpt>
      <trkpt lat="48.37743" lon="2.95706">
        <ele>60</ele>
        <time>2015-03-07T15:33:55Z</time>
      </trkpt>
      <trkpt lat="48.37745" lon="2.95694">
        <ele>60</ele>
        <time>2015-03-07T15:34:00Z</time>
      </trkpt>
      <trkpt lat="48.37747" lon="2.95681">
        <ele>60</ele>
        <time>2015-03-07T15:34:05Z</time>
      </trkpt>
      <trkpt lat="48.3775" lon="2.95669">
        <ele>60</ele>
        <time>2015-03-07T15:34:11Z</time>
      </trkpt>
      <trkpt lat="48.37753" lon="2.95657">
        <ele>60</ele>
        <time>2015-03-07T15:34:19Z</time>
      </trkpt>
      <trkpt lat="48.37761" lon="2.95655">
        <ele>60</ele>
        <time>2015-03-07T15:34:24Z</time>
      </trkpt>
      <trkpt lat="48.37769" lon="2.95654">
        <ele>59</ele>
        <time>2015-03-07T15:34:29Z</time>
      </trkpt>
      <trkpt lat="48.37777" lon="2.95654">
        <ele>58</ele>
        <time>2015-03-07T15:34:35Z</time>
      </trkpt>
      <trkpt lat="48.37785" lon="2.95653">
        <ele>57</ele>
        <time>2015-03-07T15:34:42Z</time>
      </trkpt>
      <trkpt lat="48.37787" lon="2.95641">
        <ele>57</ele>
        <time>2015-03-07T15:34:47Z</time>
      </trkpt>
      <trkpt lat="48.37786" lon="2.95629">
        <ele>57</ele>
        <time>2015-03-07T15:34:52Z</time>
      </trkpt>
      <trkpt lat="48.37788" lon="2.95618">
        <ele>56</ele>
        <time>2015-03-07T15:34:59Z</time>
      </trkpt>
      <trkpt lat="48.37792" lon="2.95606">
        <ele>55</ele>
        <time>2015-03-07T15:35:05Z</time>
      </trkpt>
      <trkpt lat="48.37794" lon="2.95594">
        <ele>55</ele>
        <time>2015-03-07T15:35:10Z</time>
      </trkpt>
      <trkpt lat="48.37794" lon="2.95581">
        <ele>55</ele>
        <time>2015-03-07T15:35:16Z</time>
      </trkpt>
      <trkpt lat="48.37796" lon="2.95569">
        <ele>55</ele>
        <time>2015-03-07T15:35:22Z</time>
      </trkpt>
      <trkpt lat="48.37799" lon="2.95555">
        <ele>55</ele>
        <time>2015-03-07T15:35:27Z</time>
      </trkpt>
      <trkpt lat="48.378" lon="2.95544">
        <ele>55</ele>
        <time>2015-03-07T15:35:32Z</time>
      </trkpt>
      <trkpt lat="48.37801" lon="2.95531">
        <ele>54</ele>
        <time>2015-03-07T15:35:39Z</time>
      </trkpt>
      <trkpt lat="48.37802" lon="2.95518">
        <ele>54</ele>
        <time>2015-03-07T15:35:45Z</time>
      </trkpt>
      <trkpt lat="48.37803" lon="2.95506">
        <ele>54</ele>
        <time>2015-03-07T15:35:50Z</time>
      </trkpt>
      <trkpt lat="48.37805" lon="2.95494">
        <ele>54</ele>
        <time>2015-03-07T15:35:55Z</time>
      </trkpt>
      <trkpt lat="48.37806" lon="2.95481">
        <ele>54</ele>
        <time>2015-03-07T15:36:00Z</time>
      </trkpt>
      <trkpt lat="48.37809" lon="2.95472">
        <ele>53</ele>
        <time>2015-03-07T15:36:04Z</time>
      </trkpt>
      <trkpt lat="48.3781" lon="2.9546">
        <ele>53</ele>
        <time>2015-03-07T15:36:09Z</time>
      </trkpt>
      <trkpt lat="48.37813" lon="2.95448">
        <ele>53</ele>
        <time>2015-03-07T15:36:15Z</time>
      </trkpt>
      <trkpt lat="48.37816" lon="2.95437">
        <ele>52</ele>
        <time>2015-03-07T15:36:20Z</time>
      </trkpt>
      <trkpt lat="48.37819" lon="2.95426">
        <ele>51</ele>
        <time>2015-03-07T15:36:26Z</time>
      </trkpt>
      <trkpt lat="48.3782" lon="2.95415">
        <ele>51</ele>
        <time>2015-03-07T15:36:30Z</time>
      </trkpt>
      <trkpt lat="48.37821" lon="2.95403">
        <ele>51</ele>
        <time>2015-03-07T15:36:35Z</time>
      </trkpt>
      <trkpt lat="48.37824" lon="2.95391">
        <ele>50</ele>
        <time>2015-03-07T15:36:42Z</time>
      </trkpt>
      <trkpt lat="48.37826" lon="2.9538">
        <ele>50</ele>
        <time>2015-03-07T15:36:47Z</time>
      </trkpt>
      <trkpt lat="48.37827" lon="2.95369">
        <ele>50</ele>
        <time>2015-03-07T15:36:52Z</time>
      </trkpt>
      <trkpt lat="48.37828" lon="2.95357">
        <ele>49</ele>
        <time>2015-03-07T15:36:57Z</time>
      </trkpt>
      <trkpt lat="48.37829" lon="2.95346">
        <ele>49</ele>
        <time>2015-03-07T15:37:02Z</time>
      </trkpt>
      <trkpt lat="48.37831" lon="2.95333">
        <ele>48</ele>
        <time>2015-03-07T15:37:07Z</time>
      </trkpt>
      <trkpt lat="48.3783" lon="2.95322">
        <ele>48</ele>
        <time>2015-03-07T15:37:12Z</time>
      </trkpt>
      <trkpt lat="48.37833" lon="2.95312">
        <ele>48</ele>
        <time>2015-03-07T15:37:16Z</time>
      </trkpt>
      <trkpt lat="48.37836" lon="2.953">
        <ele>47</ele>
        <time>2015-03-07T15:37:21Z</time>
      </trkpt>
      <trkpt lat="48.3784" lon="2.95289">
        <ele>47</ele>
        <time>2015-03-07T15:37:27Z</time>
      </trkpt>
      <trkpt lat="48.37842" lon="2.95276">
        <ele>47</ele>
        <time>2015-03-07T15:37:33Z</time>
      </trkpt>
      <trkpt lat="48.37844" lon="2.95264">
        <ele>46</ele>
        <time>2015-03-07T15:37:39Z</time>
      </trkpt>
      <trkpt lat="48.37847" lon="2.95253">
        <ele>47</ele>
        <time>2015-03-07T15:37:44Z</time>
      </trkpt>
      <trkpt lat="48.37851" lon="2.95242">
        <ele>46</ele>
        <time>2015-03-07T15:37:49Z</time>
      </trkpt>
      <trkpt lat="48.37854" lon="2.9523">
        <ele>47</ele>
        <time>2015-03-07T15:37:54Z</time>
      </trkpt>
      <trkpt lat="48.37857" lon="2.95218">
        <ele>47</ele>
        <time>2015-03-07T15:38:02Z</time>
      </trkpt>
      <trkpt lat="48.3786" lon="2.95207">
        <ele>47</ele>
        <time>2015-03-07T15:38:07Z</time>
      </trkpt>
      <trkpt lat="48.37864" lon="2.95195">
        <ele>48</ele>
        <time>2015-03-07T15:38:12Z</time>
      </trkpt>
      <trkpt lat="48.37865" lon="2.95183">
        <ele>49</ele>
        <time>2015-03-07T15:38:18Z</time>
      </trkpt>
      <trkpt lat="48.37868" lon="2.95173">
        <ele>50</ele>
        <time>2015-03-07T15:38:23Z</time>
      </trkpt>
      <trkpt lat="48.3787" lon="2.95161">
        <ele>50</ele>
        <time>2015-03-07T15:38:28Z</time>
      </trkpt>
      <trkpt lat="48.3787" lon="2.95148">
        <ele>51</ele>
        <time>2015-03-07T15:38:34Z</time>
      </trkpt>
      <trkpt lat="48.37871" lon="2.95136">
        <ele>51</ele>
        <time>2015-03-07T15:38:38Z</time>
      </trkpt>
      <trkpt lat="48.37871" lon="2.95123">
        <ele>51</ele>
        <time>2015-03-07T15:38:44Z</time>
      </trkpt>
      <trkpt lat="48.37874" lon="2.95113">
        <ele>51</ele>
        <time>2015-03-07T15:38:49Z</time>
      </trkpt>
      <trkpt lat="48.37876" lon="2.951">
        <ele>51</ele>
        <time>2015-03-07T15:38:55Z</time>
      </trkpt>
      <trkpt lat="48.37877" lon="2.95089">
        <ele>51</ele>
        <time>2015-03-07T15:39:00Z</time>
      </trkpt>
      <trkpt lat="48.37878" lon="2.95078">
        <ele>50</ele>
        <time>2015-03-07T15:39:04Z</time>
      </trkpt>
      <trkpt lat="48.37878" lon="2.95064">
        <ele>50</ele>
        <time>2015-03-07T15:39:10Z</time>
      </trkpt>
      <trkpt lat="48.37877" lon="2.95052">
        <ele>49</ele>
        <time>2015-03-07T15:39:18Z</time>
      </trkpt>
      <trkpt lat="48.37878" lon="2.95043">
        <ele>49</ele>
        <time>2015-03-07T15:39:25Z</time>
      </trkpt>
      <trkpt lat="48.37886" lon="2.9503">
        <ele>49</ele>
        <time>2015-03-07T15:39:29Z</time>
      </trkpt>
      <trkpt lat="48.37889" lon="2.95019">
        <ele>49</ele>
        <time>2015-03-07T15:39:33Z</time>
      </trkpt>
      <trkpt lat="48.37893" lon="2.95007">
        <ele>49</ele>
        <time>2015-03-07T15:39:38Z</time>
      </trkpt>
      <trkpt lat="48.37898" lon="2.94996">
        <ele>49</ele>
        <time>2015-03-07T15:39:42Z</time>
      </trkpt>
      <trkpt lat="48.37901" lon="2.94984">
        <ele>49</ele>
        <time>2015-03-07T15:39:47Z</time>
      </trkpt>
      <trkpt lat="48.37902" lon="2.94971">
        <ele>49</ele>
        <time>2015-03-07T15:39:53Z</time>
      </trkpt>
      <trkpt lat="48.37903" lon="2.94958">
        <ele>49</ele>
        <time>2015-03-07T15:39:59Z</time>
      </trkpt>
      <trkpt lat="48.37906" lon="2.94949">
        <ele>50</ele>
        <time>2015-03-07T15:40:05Z</time>
      </trkpt>
      <trkpt lat="48.37909" lon="2.94937">
        <ele>50</ele>
        <time>2015-03-07T15:40:10Z</time>
      </trkpt>
      <trkpt lat="48.3791" lon="2.94925">
        <ele>50</ele>
        <time>2015-03-07T15:40:15Z</time>
      </trkpt>
      <trkpt lat="48.37912" lon="2.94913">
        <ele>50</ele>
        <time>2015-03-07T15:40:21Z</time>
      </trkpt>
      <trkpt lat="48.37914" lon="2.94901">
        <ele>51</ele>
        <time>2015-03-07T15:40:26Z</time>
      </trkpt>
      <trkpt lat="48.37916" lon="2.94887">
        <ele>51</ele>
        <time>2015-03-07T15:40:31Z</time>
      </trkpt>
      <trkpt lat="48.37919" lon="2.94878">
        <ele>53</ele>
        <time>2015-03-07T15:40:36Z</time>
      </trkpt>
      <trkpt lat="48.37922" lon="2.94867">
        <ele>53</ele>
        <time>2015-03-07T15:40:41Z</time>
      </trkpt>
      <trkpt lat="48.37922" lon="2.94853">
        <ele>54</ele>
        <time>2015-03-07T15:40:46Z</time>
      </trkpt>
      <trkpt lat="48.37922" lon="2.94841">
        <ele>54</ele>
        <time>2015-03-07T15:40:52Z</time>
      </trkpt>
      <trkpt lat="48.37924" lon="2.9483">
        <ele>53</ele>
        <time>2015-03-07T15:40:58Z</time>
      </trkpt>
      <trkpt lat="48.37927" lon="2.9482">
        <ele>53</ele>
        <time>2015-03-07T15:41:02Z</time>
      </trkpt>
      <trkpt lat="48.37929" lon="2.94808">
        <ele>53</ele>
        <time>2015-03-07T15:41:07Z</time>
      </trkpt>
      <trkpt lat="48.3793" lon="2.94795">
        <ele>53</ele>
        <time>2015-03-07T15:41:12Z</time>
      </trkpt>
      <trkpt lat="48.37932" lon="2.94782">
        <ele>52</ele>
        <time>2015-03-07T15:41:19Z</time>
      </trkpt>
      <trkpt lat="48.37934" lon="2.9477">
        <ele>51</ele>
        <time>2015-03-07T15:41:24Z</time>
      </trkpt>
      <trkpt lat="48.37936" lon="2.94757">
        <ele>51</ele>
        <time>2015-03-07T15:41:30Z</time>
      </trkpt>
      <trkpt lat="48.37939" lon="2.94743">
        <ele>51</ele>
        <time>2015-03-07T15:41:35Z</time>
      </trkpt>
      <trkpt lat="48.37942" lon="2.94732">
        <ele>51</ele>
        <time>2015-03-07T15:41:41Z</time>
      </trkpt>
      <trkpt lat="48.37946" lon="2.94721">
        <ele>51</ele>
        <time>2015-03-07T15:41:46Z</time>
      </trkpt>
      <trkpt lat="48.37947" lon="2.94708">
        <ele>51</ele>
        <time>2015-03-07T15:41:51Z</time>
      </trkpt>
      <trkpt lat="48.37947" lon="2.94696">
        <ele>52</ele>
        <time>2015-03-07T15:41:57Z</time>
      </trkpt>
      <trkpt lat="48.37947" lon="2.94683">
        <ele>51</ele>
        <time>2015-03-07T15:42:03Z</time>
      </trkpt>
      <trkpt lat="48.37948" lon="2.94672">
        <ele>50</ele>
        <time>2015-03-07T15:42:08Z</time>
      </trkpt>
      <trkpt lat="48.37953" lon="2.94659">
        <ele>50</ele>
        <time>2015-03-07T15:42:13Z</time>
      </trkpt>
      <trkpt lat="48.37955" lon="2.94647">
        <ele>50</ele>
        <time>2015-03-07T15:42:19Z</time>
      </trkpt>
      <trkpt lat="48.37952" lon="2.94636">
        <ele>51</ele>
        <time>2015-03-07T15:42:35Z</time>
      </trkpt>
      <trkpt lat="48.37956" lon="2.94623">
        <ele>51</ele>
        <time>2015-03-07T15:42:39Z</time>
      </trkpt>
      <trkpt lat="48.37959" lon="2.94611">
        <ele>52</ele>
        <time>2015-03-07T15:42:47Z</time>
      </trkpt>
      <trkpt lat="48.37964" lon="2.94602">
        <ele>52</ele>
        <time>2015-03-07T15:42:52Z</time>
      </trkpt>
      <trkpt lat="48.37968" lon="2.9459">
        <ele>52</ele>
        <time>2015-03-07T15:42:57Z</time>
      </trkpt>
      <trkpt lat="48.3797" lon="2.94579">
        <ele>52</ele>
        <time>2015-03-07T15:43:02Z</time>
      </trkpt>
      <trkpt lat="48.37973" lon="2.94568">
        <ele>52</ele>
        <time>2015-03-07T15:43:06Z</time>
      </trkpt>
      <trkpt lat="48.37975" lon="2.94556">
        <ele>52</ele>
        <time>2015-03-07T15:43:11Z</time>
      </trkpt>
      <trkpt lat="48.37976" lon="2.94543">
        <ele>51</ele>
        <time>2015-03-07T15:43:17Z</time>
      </trkpt>
      <trkpt lat="48.37977" lon="2.94531">
        <ele>52</ele>
        <time>2015-03-07T15:43:23Z</time>
      </trkpt>
      <trkpt lat="48.37979" lon="2.94519">
        <ele>51</ele>
        <time>2015-03-07T15:43:28Z</time>
      </trkpt>
      <trkpt lat="48.37981" lon="2.94506">
        <ele>51</ele>
        <time>2015-03-07T15:43:34Z</time>
      </trkpt>
      <trkpt lat="48.37982" lon="2.94493">
        <ele>50</ele>
        <time>2015-03-07T15:43:40Z</time>
      </trkpt>
      <trkpt lat="48.37985" lon="2.94481">
        <ele>50</ele>
        <time>2015-03-07T15:43:46Z</time>
      </trkpt>
      <trkpt lat="48.37987" lon="2.9447">
        <ele>50</ele>
        <time>2015-03-07T15:43:51Z</time>
      </trkpt>
      <trkpt lat="48.37989" lon="2.94457">
        <ele>50</ele>
        <time>2015-03-07T15:43:59Z</time>
      </trkpt>
      <trkpt lat="48.37993" lon="2.94445">
        <ele>49</ele>
        <time>2015-03-07T15:44:04Z</time>
      </trkpt>
      <trkpt lat="48.37996" lon="2.94433">
        <ele>49</ele>
        <time>2015-03-07T15:44:09Z</time>
      </trkpt>
      <trkpt lat="48.37996" lon="2.9442">
        <ele>49</ele>
        <time>2015-03-07T15:44:14Z</time>
      </trkpt>
      <trkpt lat="48.37997" lon="2.94412">
        <ele>49</ele>
        <time>2015-03-07T15:44:17Z</time>
      </trkpt>
      <trkpt lat="48.37997" lon="2.94412">
        <ele>49</ele>
        <time>2015-03-07T15:44:17Z</time>
      </trkpt>
    </trkseg>
  </trk>
</gpx>